<?xml version="1.0" encoding="UTF-8" standalone="no" ?>
<gpx xmlns="http://www.topografix.com/GPX/1/1" xmlns:xsi="http://www.w3.org/2001/XMLSchema-instance" xsi:schemaLocation="http://www.topografix.com/GPX/1/1 http://www.topografix.com/GPX/1/1/gpx.xsd" version="1.1" creator="VisuGPX - https://www.visugpx.com">
  <metadata>
    <name>Col de la colombière</name>
  </metadata>
  <trk>
    <name><![CDATA[190629062516 on AllTrails]]></name>
    <trkseg>
      <trkpt lat="46.19287" lon="6.25015">
        <ele>168</ele>
        <time>2019-06-29T06:25:32Z</time>
      </trkpt>
      <trkpt lat="46.19286" lon="6.25022">
        <ele>168</ele>
        <time>2019-06-29T06:25:36Z</time>
      </trkpt>
      <trkpt lat="46.19286" lon="6.25034">
        <ele>169</ele>
        <time>2019-06-29T06:25:40Z</time>
      </trkpt>
      <trkpt lat="46.19286" lon="6.25048">
        <ele>169</ele>
        <time>2019-06-29T06:25:44Z</time>
      </trkpt>
      <trkpt lat="46.19285" lon="6.25065">
        <ele>169</ele>
        <time>2019-06-29T06:25:48Z</time>
      </trkpt>
      <trkpt lat="46.19281" lon="6.2508">
        <ele>170</ele>
        <time>2019-06-29T06:25:52Z</time>
      </trkpt>
      <trkpt lat="46.1928" lon="6.25085">
        <ele>170</ele>
        <time>2019-06-29T06:26:00Z</time>
      </trkpt>
      <trkpt lat="46.19277" lon="6.25094">
        <ele>170</ele>
        <time>2019-06-29T06:26:08Z</time>
      </trkpt>
      <trkpt lat="46.19275" lon="6.25105">
        <ele>170</ele>
        <time>2019-06-29T06:26:12Z</time>
      </trkpt>
      <trkpt lat="46.19266" lon="6.25108">
        <ele>171</ele>
        <time>2019-06-29T06:26:16Z</time>
      </trkpt>
      <trkpt lat="46.19258" lon="6.25108">
        <ele>170</ele>
        <time>2019-06-29T06:26:20Z</time>
      </trkpt>
      <trkpt lat="46.1925" lon="6.25108">
        <ele>170</ele>
        <time>2019-06-29T06:26:24Z</time>
      </trkpt>
      <trkpt lat="46.19237" lon="6.2511">
        <ele>171</ele>
        <time>2019-06-29T06:26:28Z</time>
      </trkpt>
      <trkpt lat="46.19223" lon="6.25111">
        <ele>171</ele>
        <time>2019-06-29T06:26:32Z</time>
      </trkpt>
      <trkpt lat="46.19208" lon="6.25105">
        <ele>172</ele>
        <time>2019-06-29T06:26:36Z</time>
      </trkpt>
      <trkpt lat="46.19198" lon="6.25086">
        <ele>171</ele>
        <time>2019-06-29T06:26:40Z</time>
      </trkpt>
      <trkpt lat="46.19185" lon="6.25068">
        <ele>171</ele>
        <time>2019-06-29T06:26:44Z</time>
      </trkpt>
      <trkpt lat="46.19168" lon="6.2506">
        <ele>171</ele>
        <time>2019-06-29T06:26:48Z</time>
      </trkpt>
      <trkpt lat="46.19148" lon="6.25046">
        <ele>171</ele>
        <time>2019-06-29T06:26:52Z</time>
      </trkpt>
      <trkpt lat="46.19128" lon="6.25055">
        <ele>172</ele>
        <time>2019-06-29T06:26:56Z</time>
      </trkpt>
      <trkpt lat="46.1912" lon="6.2508">
        <ele>172</ele>
        <time>2019-06-29T06:27:00Z</time>
      </trkpt>
      <trkpt lat="46.19107" lon="6.25102">
        <ele>168</ele>
        <time>2019-06-29T06:27:04Z</time>
      </trkpt>
      <trkpt lat="46.19081" lon="6.25113">
        <ele>168</ele>
        <time>2019-06-29T06:27:08Z</time>
      </trkpt>
      <trkpt lat="46.19051" lon="6.25104">
        <ele>169</ele>
        <time>2019-06-29T06:27:12Z</time>
      </trkpt>
      <trkpt lat="46.1903" lon="6.25083">
        <ele>170</ele>
        <time>2019-06-29T06:27:16Z</time>
      </trkpt>
      <trkpt lat="46.19009" lon="6.25077">
        <ele>171</ele>
        <time>2019-06-29T06:27:20Z</time>
      </trkpt>
      <trkpt lat="46.1899" lon="6.2507">
        <ele>173</ele>
        <time>2019-06-29T06:27:24Z</time>
      </trkpt>
      <trkpt lat="46.1897" lon="6.25065">
        <ele>173</ele>
        <time>2019-06-29T06:27:28Z</time>
      </trkpt>
      <trkpt lat="46.1895" lon="6.25065">
        <ele>174</ele>
        <time>2019-06-29T06:27:32Z</time>
      </trkpt>
      <trkpt lat="46.1893" lon="6.25068">
        <ele>174</ele>
        <time>2019-06-29T06:27:36Z</time>
      </trkpt>
      <trkpt lat="46.18909" lon="6.25072">
        <ele>174</ele>
        <time>2019-06-29T06:27:40Z</time>
      </trkpt>
      <trkpt lat="46.18888" lon="6.25076">
        <ele>174</ele>
        <time>2019-06-29T06:27:44Z</time>
      </trkpt>
      <trkpt lat="46.18867" lon="6.25076">
        <ele>175</ele>
        <time>2019-06-29T06:27:48Z</time>
      </trkpt>
      <trkpt lat="46.18847" lon="6.25077">
        <ele>175</ele>
        <time>2019-06-29T06:27:52Z</time>
      </trkpt>
      <trkpt lat="46.18825" lon="6.25075">
        <ele>176</ele>
        <time>2019-06-29T06:27:56Z</time>
      </trkpt>
      <trkpt lat="46.18805" lon="6.25076">
        <ele>176</ele>
        <time>2019-06-29T06:28:00Z</time>
      </trkpt>
      <trkpt lat="46.18785" lon="6.25079">
        <ele>176</ele>
        <time>2019-06-29T06:28:04Z</time>
      </trkpt>
      <trkpt lat="46.18765" lon="6.25084">
        <ele>178</ele>
        <time>2019-06-29T06:28:08Z</time>
      </trkpt>
      <trkpt lat="46.18745" lon="6.2509">
        <ele>178</ele>
        <time>2019-06-29T06:28:12Z</time>
      </trkpt>
      <trkpt lat="46.18725" lon="6.25098">
        <ele>178</ele>
        <time>2019-06-29T06:28:16Z</time>
      </trkpt>
      <trkpt lat="46.18705" lon="6.25106">
        <ele>178</ele>
        <time>2019-06-29T06:28:20Z</time>
      </trkpt>
      <trkpt lat="46.18685" lon="6.25112">
        <ele>180</ele>
        <time>2019-06-29T06:28:24Z</time>
      </trkpt>
      <trkpt lat="46.18665" lon="6.25121">
        <ele>180</ele>
        <time>2019-06-29T06:28:28Z</time>
      </trkpt>
      <trkpt lat="46.18645" lon="6.25128">
        <ele>180</ele>
        <time>2019-06-29T06:28:32Z</time>
      </trkpt>
      <trkpt lat="46.18626" lon="6.25138">
        <ele>180</ele>
        <time>2019-06-29T06:28:36Z</time>
      </trkpt>
      <trkpt lat="46.18606" lon="6.25146">
        <ele>181</ele>
        <time>2019-06-29T06:28:40Z</time>
      </trkpt>
      <trkpt lat="46.18586" lon="6.25151">
        <ele>181</ele>
        <time>2019-06-29T06:28:44Z</time>
      </trkpt>
      <trkpt lat="46.18566" lon="6.25154">
        <ele>182</ele>
        <time>2019-06-29T06:28:48Z</time>
      </trkpt>
      <trkpt lat="46.18546" lon="6.2516">
        <ele>182</ele>
        <time>2019-06-29T06:28:52Z</time>
      </trkpt>
      <trkpt lat="46.18525" lon="6.25165">
        <ele>183</ele>
        <time>2019-06-29T06:28:56Z</time>
      </trkpt>
      <trkpt lat="46.18503" lon="6.2517">
        <ele>184</ele>
        <time>2019-06-29T06:29:00Z</time>
      </trkpt>
      <trkpt lat="46.18482" lon="6.25175">
        <ele>184</ele>
        <time>2019-06-29T06:29:04Z</time>
      </trkpt>
      <trkpt lat="46.18461" lon="6.25181">
        <ele>185</ele>
        <time>2019-06-29T06:29:08Z</time>
      </trkpt>
      <trkpt lat="46.1844" lon="6.25187">
        <ele>185</ele>
        <time>2019-06-29T06:29:12Z</time>
      </trkpt>
      <trkpt lat="46.1842" lon="6.25196">
        <ele>185</ele>
        <time>2019-06-29T06:29:16Z</time>
      </trkpt>
      <trkpt lat="46.184" lon="6.25207">
        <ele>186</ele>
        <time>2019-06-29T06:29:20Z</time>
      </trkpt>
      <trkpt lat="46.18381" lon="6.25218">
        <ele>187</ele>
        <time>2019-06-29T06:29:24Z</time>
      </trkpt>
      <trkpt lat="46.18362" lon="6.2523">
        <ele>188</ele>
        <time>2019-06-29T06:29:28Z</time>
      </trkpt>
      <trkpt lat="46.18345" lon="6.25242">
        <ele>189</ele>
        <time>2019-06-29T06:29:32Z</time>
      </trkpt>
      <trkpt lat="46.18328" lon="6.25254">
        <ele>190</ele>
        <time>2019-06-29T06:29:36Z</time>
      </trkpt>
      <trkpt lat="46.1831" lon="6.25265">
        <ele>190</ele>
        <time>2019-06-29T06:29:40Z</time>
      </trkpt>
      <trkpt lat="46.18294" lon="6.25275">
        <ele>191</ele>
        <time>2019-06-29T06:29:44Z</time>
      </trkpt>
      <trkpt lat="46.18278" lon="6.25287">
        <ele>192</ele>
        <time>2019-06-29T06:29:48Z</time>
      </trkpt>
      <trkpt lat="46.18261" lon="6.25298">
        <ele>192</ele>
        <time>2019-06-29T06:29:52Z</time>
      </trkpt>
      <trkpt lat="46.18244" lon="6.25309">
        <ele>192</ele>
        <time>2019-06-29T06:29:56Z</time>
      </trkpt>
      <trkpt lat="46.18226" lon="6.25319">
        <ele>193</ele>
        <time>2019-06-29T06:30:00Z</time>
      </trkpt>
      <trkpt lat="46.18209" lon="6.25331">
        <ele>193</ele>
        <time>2019-06-29T06:30:04Z</time>
      </trkpt>
      <trkpt lat="46.1819" lon="6.25343">
        <ele>194</ele>
        <time>2019-06-29T06:30:08Z</time>
      </trkpt>
      <trkpt lat="46.18173" lon="6.25354">
        <ele>194</ele>
        <time>2019-06-29T06:30:12Z</time>
      </trkpt>
      <trkpt lat="46.18154" lon="6.25365">
        <ele>194</ele>
        <time>2019-06-29T06:30:16Z</time>
      </trkpt>
      <trkpt lat="46.18136" lon="6.25374">
        <ele>194</ele>
        <time>2019-06-29T06:30:20Z</time>
      </trkpt>
      <trkpt lat="46.18118" lon="6.25387">
        <ele>195</ele>
        <time>2019-06-29T06:30:24Z</time>
      </trkpt>
      <trkpt lat="46.181" lon="6.254">
        <ele>195</ele>
        <time>2019-06-29T06:30:28Z</time>
      </trkpt>
      <trkpt lat="46.18084" lon="6.25414">
        <ele>196</ele>
        <time>2019-06-29T06:30:32Z</time>
      </trkpt>
      <trkpt lat="46.1807" lon="6.25429">
        <ele>198</ele>
        <time>2019-06-29T06:30:36Z</time>
      </trkpt>
      <trkpt lat="46.18058" lon="6.25445">
        <ele>199</ele>
        <time>2019-06-29T06:30:40Z</time>
      </trkpt>
      <trkpt lat="46.18047" lon="6.25462">
        <ele>200</ele>
        <time>2019-06-29T06:30:44Z</time>
      </trkpt>
      <trkpt lat="46.18035" lon="6.25478">
        <ele>200</ele>
        <time>2019-06-29T06:30:48Z</time>
      </trkpt>
      <trkpt lat="46.18023" lon="6.25491">
        <ele>201</ele>
        <time>2019-06-29T06:30:52Z</time>
      </trkpt>
      <trkpt lat="46.1801" lon="6.25506">
        <ele>201</ele>
        <time>2019-06-29T06:30:56Z</time>
      </trkpt>
      <trkpt lat="46.17994" lon="6.25517">
        <ele>202</ele>
        <time>2019-06-29T06:31:00Z</time>
      </trkpt>
      <trkpt lat="46.17977" lon="6.25527">
        <ele>202</ele>
        <time>2019-06-29T06:31:04Z</time>
      </trkpt>
      <trkpt lat="46.17957" lon="6.25538">
        <ele>200</ele>
        <time>2019-06-29T06:31:08Z</time>
      </trkpt>
      <trkpt lat="46.17935" lon="6.25544">
        <ele>199</ele>
        <time>2019-06-29T06:31:12Z</time>
      </trkpt>
      <trkpt lat="46.17908" lon="6.2555">
        <ele>196</ele>
        <time>2019-06-29T06:31:16Z</time>
      </trkpt>
      <trkpt lat="46.17877" lon="6.25553">
        <ele>194</ele>
        <time>2019-06-29T06:31:20Z</time>
      </trkpt>
      <trkpt lat="46.17845" lon="6.25548">
        <ele>193</ele>
        <time>2019-06-29T06:31:24Z</time>
      </trkpt>
      <trkpt lat="46.17813" lon="6.25546">
        <ele>193</ele>
        <time>2019-06-29T06:31:28Z</time>
      </trkpt>
      <trkpt lat="46.17783" lon="6.25549">
        <ele>192</ele>
        <time>2019-06-29T06:31:32Z</time>
      </trkpt>
      <trkpt lat="46.17752" lon="6.25556">
        <ele>193</ele>
        <time>2019-06-29T06:31:36Z</time>
      </trkpt>
      <trkpt lat="46.17725" lon="6.25569">
        <ele>194</ele>
        <time>2019-06-29T06:31:40Z</time>
      </trkpt>
      <trkpt lat="46.177" lon="6.25582">
        <ele>195</ele>
        <time>2019-06-29T06:31:44Z</time>
      </trkpt>
      <trkpt lat="46.17677" lon="6.25595">
        <ele>196</ele>
        <time>2019-06-29T06:31:48Z</time>
      </trkpt>
      <trkpt lat="46.17654" lon="6.25606">
        <ele>197</ele>
        <time>2019-06-29T06:31:52Z</time>
      </trkpt>
      <trkpt lat="46.17633" lon="6.25618">
        <ele>198</ele>
        <time>2019-06-29T06:31:56Z</time>
      </trkpt>
      <trkpt lat="46.17611" lon="6.25629">
        <ele>198</ele>
        <time>2019-06-29T06:32:00Z</time>
      </trkpt>
      <trkpt lat="46.1759" lon="6.25641">
        <ele>199</ele>
        <time>2019-06-29T06:32:04Z</time>
      </trkpt>
      <trkpt lat="46.1757" lon="6.25652">
        <ele>200</ele>
        <time>2019-06-29T06:32:08Z</time>
      </trkpt>
      <trkpt lat="46.17553" lon="6.25663">
        <ele>200</ele>
        <time>2019-06-29T06:32:12Z</time>
      </trkpt>
      <trkpt lat="46.17537" lon="6.25677">
        <ele>202</ele>
        <time>2019-06-29T06:32:16Z</time>
      </trkpt>
      <trkpt lat="46.17522" lon="6.2569">
        <ele>203</ele>
        <time>2019-06-29T06:32:20Z</time>
      </trkpt>
      <trkpt lat="46.1751" lon="6.25701">
        <ele>204</ele>
        <time>2019-06-29T06:32:24Z</time>
      </trkpt>
      <trkpt lat="46.17496" lon="6.25712">
        <ele>205</ele>
        <time>2019-06-29T06:32:28Z</time>
      </trkpt>
      <trkpt lat="46.17483" lon="6.25724">
        <ele>206</ele>
        <time>2019-06-29T06:32:32Z</time>
      </trkpt>
      <trkpt lat="46.17469" lon="6.25736">
        <ele>207</ele>
        <time>2019-06-29T06:32:36Z</time>
      </trkpt>
      <trkpt lat="46.17455" lon="6.25747">
        <ele>208</ele>
        <time>2019-06-29T06:32:40Z</time>
      </trkpt>
      <trkpt lat="46.17442" lon="6.2576">
        <ele>208</ele>
        <time>2019-06-29T06:32:44Z</time>
      </trkpt>
      <trkpt lat="46.17431" lon="6.25776">
        <ele>209</ele>
        <time>2019-06-29T06:32:48Z</time>
      </trkpt>
      <trkpt lat="46.17421" lon="6.25782">
        <ele>208</ele>
        <time>2019-06-29T06:32:52Z</time>
      </trkpt>
      <trkpt lat="46.17416" lon="6.25799">
        <ele>208</ele>
        <time>2019-06-29T06:32:56Z</time>
      </trkpt>
      <trkpt lat="46.17414" lon="6.25822">
        <ele>208</ele>
        <time>2019-06-29T06:33:00Z</time>
      </trkpt>
      <trkpt lat="46.17402" lon="6.25841">
        <ele>205</ele>
        <time>2019-06-29T06:33:04Z</time>
      </trkpt>
      <trkpt lat="46.17384" lon="6.25862">
        <ele>203</ele>
        <time>2019-06-29T06:33:08Z</time>
      </trkpt>
      <trkpt lat="46.17364" lon="6.2589">
        <ele>202</ele>
        <time>2019-06-29T06:33:12Z</time>
      </trkpt>
      <trkpt lat="46.17349" lon="6.25928">
        <ele>201</ele>
        <time>2019-06-29T06:33:16Z</time>
      </trkpt>
      <trkpt lat="46.17333" lon="6.25966">
        <ele>201</ele>
        <time>2019-06-29T06:33:20Z</time>
      </trkpt>
      <trkpt lat="46.17316" lon="6.26">
        <ele>202</ele>
        <time>2019-06-29T06:33:24Z</time>
      </trkpt>
      <trkpt lat="46.173" lon="6.26034">
        <ele>204</ele>
        <time>2019-06-29T06:33:28Z</time>
      </trkpt>
      <trkpt lat="46.17285" lon="6.2606">
        <ele>205</ele>
        <time>2019-06-29T06:33:32Z</time>
      </trkpt>
      <trkpt lat="46.17273" lon="6.26083">
        <ele>207</ele>
        <time>2019-06-29T06:33:36Z</time>
      </trkpt>
      <trkpt lat="46.17261" lon="6.26105">
        <ele>209</ele>
        <time>2019-06-29T06:33:40Z</time>
      </trkpt>
      <trkpt lat="46.17252" lon="6.26129">
        <ele>209</ele>
        <time>2019-06-29T06:33:44Z</time>
      </trkpt>
      <trkpt lat="46.17241" lon="6.26149">
        <ele>210</ele>
        <time>2019-06-29T06:33:48Z</time>
      </trkpt>
      <trkpt lat="46.17227" lon="6.26171">
        <ele>209</ele>
        <time>2019-06-29T06:33:52Z</time>
      </trkpt>
      <trkpt lat="46.17212" lon="6.26194">
        <ele>209</ele>
        <time>2019-06-29T06:33:56Z</time>
      </trkpt>
      <trkpt lat="46.172" lon="6.26217">
        <ele>209</ele>
        <time>2019-06-29T06:34:00Z</time>
      </trkpt>
      <trkpt lat="46.17184" lon="6.26242">
        <ele>208</ele>
        <time>2019-06-29T06:34:04Z</time>
      </trkpt>
      <trkpt lat="46.17168" lon="6.2627">
        <ele>208</ele>
        <time>2019-06-29T06:34:08Z</time>
      </trkpt>
      <trkpt lat="46.1715" lon="6.26298">
        <ele>208</ele>
        <time>2019-06-29T06:34:12Z</time>
      </trkpt>
      <trkpt lat="46.17132" lon="6.26327">
        <ele>206</ele>
        <time>2019-06-29T06:34:16Z</time>
      </trkpt>
      <trkpt lat="46.17114" lon="6.26358">
        <ele>207</ele>
        <time>2019-06-29T06:34:20Z</time>
      </trkpt>
      <trkpt lat="46.17097" lon="6.26385">
        <ele>209</ele>
        <time>2019-06-29T06:34:24Z</time>
      </trkpt>
      <trkpt lat="46.17089" lon="6.26396">
        <ele>208</ele>
        <time>2019-06-29T06:34:28Z</time>
      </trkpt>
      <trkpt lat="46.1708" lon="6.26411">
        <ele>207</ele>
        <time>2019-06-29T06:34:32Z</time>
      </trkpt>
      <trkpt lat="46.17066" lon="6.26433">
        <ele>205</ele>
        <time>2019-06-29T06:34:36Z</time>
      </trkpt>
      <trkpt lat="46.17049" lon="6.26459">
        <ele>202</ele>
        <time>2019-06-29T06:34:40Z</time>
      </trkpt>
      <trkpt lat="46.17031" lon="6.26493">
        <ele>198</ele>
        <time>2019-06-29T06:34:44Z</time>
      </trkpt>
      <trkpt lat="46.17007" lon="6.26532">
        <ele>193</ele>
        <time>2019-06-29T06:34:48Z</time>
      </trkpt>
      <trkpt lat="46.16981" lon="6.26575">
        <ele>193</ele>
        <time>2019-06-29T06:34:52Z</time>
      </trkpt>
      <trkpt lat="46.16956" lon="6.26617">
        <ele>194</ele>
        <time>2019-06-29T06:34:56Z</time>
      </trkpt>
      <trkpt lat="46.16933" lon="6.26654">
        <ele>194</ele>
        <time>2019-06-29T06:35:00Z</time>
      </trkpt>
      <trkpt lat="46.16914" lon="6.26691">
        <ele>194</ele>
        <time>2019-06-29T06:35:04Z</time>
      </trkpt>
      <trkpt lat="46.16906" lon="6.26735">
        <ele>193</ele>
        <time>2019-06-29T06:35:08Z</time>
      </trkpt>
      <trkpt lat="46.16903" lon="6.26781">
        <ele>193</ele>
        <time>2019-06-29T06:35:12Z</time>
      </trkpt>
      <trkpt lat="46.16891" lon="6.26822">
        <ele>191</ele>
        <time>2019-06-29T06:35:16Z</time>
      </trkpt>
      <trkpt lat="46.16871" lon="6.26859">
        <ele>190</ele>
        <time>2019-06-29T06:35:20Z</time>
      </trkpt>
      <trkpt lat="46.16843" lon="6.26889">
        <ele>187</ele>
        <time>2019-06-29T06:35:24Z</time>
      </trkpt>
      <trkpt lat="46.16811" lon="6.26912">
        <ele>182</ele>
        <time>2019-06-29T06:35:28Z</time>
      </trkpt>
      <trkpt lat="46.16776" lon="6.26938">
        <ele>178</ele>
        <time>2019-06-29T06:35:32Z</time>
      </trkpt>
      <trkpt lat="46.16742" lon="6.26973">
        <ele>177</ele>
        <time>2019-06-29T06:35:36Z</time>
      </trkpt>
      <trkpt lat="46.16722" lon="6.2702">
        <ele>171</ele>
        <time>2019-06-29T06:35:40Z</time>
      </trkpt>
      <trkpt lat="46.16743" lon="6.27066">
        <ele>168</ele>
        <time>2019-06-29T06:35:44Z</time>
      </trkpt>
      <trkpt lat="46.1677" lon="6.27103">
        <ele>168</ele>
        <time>2019-06-29T06:35:48Z</time>
      </trkpt>
      <trkpt lat="46.16799" lon="6.27118">
        <ele>170</ele>
        <time>2019-06-29T06:35:52Z</time>
      </trkpt>
      <trkpt lat="46.16817" lon="6.27126">
        <ele>169</ele>
        <time>2019-06-29T06:35:56Z</time>
      </trkpt>
      <trkpt lat="46.16833" lon="6.27136">
        <ele>169</ele>
        <time>2019-06-29T06:36:00Z</time>
      </trkpt>
      <trkpt lat="46.1685" lon="6.27155">
        <ele>169</ele>
        <time>2019-06-29T06:36:04Z</time>
      </trkpt>
      <trkpt lat="46.16853" lon="6.27192">
        <ele>170</ele>
        <time>2019-06-29T06:36:08Z</time>
      </trkpt>
      <trkpt lat="46.16848" lon="6.27226">
        <ele>169</ele>
        <time>2019-06-29T06:36:12Z</time>
      </trkpt>
      <trkpt lat="46.16843" lon="6.27262">
        <ele>168</ele>
        <time>2019-06-29T06:36:16Z</time>
      </trkpt>
      <trkpt lat="46.16838" lon="6.27297">
        <ele>170</ele>
        <time>2019-06-29T06:36:20Z</time>
      </trkpt>
      <trkpt lat="46.16828" lon="6.27329">
        <ele>171</ele>
        <time>2019-06-29T06:36:24Z</time>
      </trkpt>
      <trkpt lat="46.16813" lon="6.27352">
        <ele>172</ele>
        <time>2019-06-29T06:36:28Z</time>
      </trkpt>
      <trkpt lat="46.16794" lon="6.27364">
        <ele>174</ele>
        <time>2019-06-29T06:36:32Z</time>
      </trkpt>
      <trkpt lat="46.16775" lon="6.27368">
        <ele>175</ele>
        <time>2019-06-29T06:36:36Z</time>
      </trkpt>
      <trkpt lat="46.16757" lon="6.27364">
        <ele>175</ele>
        <time>2019-06-29T06:36:40Z</time>
      </trkpt>
      <trkpt lat="46.16738" lon="6.2736">
        <ele>175</ele>
        <time>2019-06-29T06:36:44Z</time>
      </trkpt>
      <trkpt lat="46.16719" lon="6.27356">
        <ele>176</ele>
        <time>2019-06-29T06:36:48Z</time>
      </trkpt>
      <trkpt lat="46.167" lon="6.27352">
        <ele>177</ele>
        <time>2019-06-29T06:36:52Z</time>
      </trkpt>
      <trkpt lat="46.16681" lon="6.27349">
        <ele>178</ele>
        <time>2019-06-29T06:36:56Z</time>
      </trkpt>
      <trkpt lat="46.16662" lon="6.27344">
        <ele>179</ele>
        <time>2019-06-29T06:37:00Z</time>
      </trkpt>
      <trkpt lat="46.16646" lon="6.27336">
        <ele>180</ele>
        <time>2019-06-29T06:37:04Z</time>
      </trkpt>
      <trkpt lat="46.16632" lon="6.27329">
        <ele>180</ele>
        <time>2019-06-29T06:37:08Z</time>
      </trkpt>
      <trkpt lat="46.16615" lon="6.27315">
        <ele>181</ele>
        <time>2019-06-29T06:37:12Z</time>
      </trkpt>
      <trkpt lat="46.16598" lon="6.273">
        <ele>182</ele>
        <time>2019-06-29T06:37:16Z</time>
      </trkpt>
      <trkpt lat="46.16582" lon="6.27285">
        <ele>183</ele>
        <time>2019-06-29T06:37:20Z</time>
      </trkpt>
      <trkpt lat="46.16567" lon="6.27274">
        <ele>183</ele>
        <time>2019-06-29T06:37:24Z</time>
      </trkpt>
      <trkpt lat="46.16552" lon="6.27266">
        <ele>184</ele>
        <time>2019-06-29T06:37:28Z</time>
      </trkpt>
      <trkpt lat="46.16536" lon="6.27259">
        <ele>185</ele>
        <time>2019-06-29T06:37:32Z</time>
      </trkpt>
      <trkpt lat="46.16519" lon="6.27251">
        <ele>185</ele>
        <time>2019-06-29T06:37:36Z</time>
      </trkpt>
      <trkpt lat="46.165" lon="6.27244">
        <ele>186</ele>
        <time>2019-06-29T06:37:40Z</time>
      </trkpt>
      <trkpt lat="46.16482" lon="6.27238">
        <ele>187</ele>
        <time>2019-06-29T06:37:44Z</time>
      </trkpt>
      <trkpt lat="46.16466" lon="6.27232">
        <ele>188</ele>
        <time>2019-06-29T06:37:48Z</time>
      </trkpt>
      <trkpt lat="46.1645" lon="6.27227">
        <ele>189</ele>
        <time>2019-06-29T06:37:52Z</time>
      </trkpt>
      <trkpt lat="46.16433" lon="6.27222">
        <ele>190</ele>
        <time>2019-06-29T06:37:56Z</time>
      </trkpt>
      <trkpt lat="46.16415" lon="6.27221">
        <ele>190</ele>
        <time>2019-06-29T06:38:00Z</time>
      </trkpt>
      <trkpt lat="46.16396" lon="6.27228">
        <ele>191</ele>
        <time>2019-06-29T06:38:04Z</time>
      </trkpt>
      <trkpt lat="46.16379" lon="6.27238">
        <ele>192</ele>
        <time>2019-06-29T06:38:08Z</time>
      </trkpt>
      <trkpt lat="46.16365" lon="6.27252">
        <ele>192</ele>
        <time>2019-06-29T06:38:12Z</time>
      </trkpt>
      <trkpt lat="46.16352" lon="6.27271">
        <ele>193</ele>
        <time>2019-06-29T06:38:16Z</time>
      </trkpt>
      <trkpt lat="46.16342" lon="6.27294">
        <ele>192</ele>
        <time>2019-06-29T06:38:20Z</time>
      </trkpt>
      <trkpt lat="46.16332" lon="6.27318">
        <ele>192</ele>
        <time>2019-06-29T06:38:24Z</time>
      </trkpt>
      <trkpt lat="46.16323" lon="6.27345">
        <ele>192</ele>
        <time>2019-06-29T06:38:28Z</time>
      </trkpt>
      <trkpt lat="46.16312" lon="6.27372">
        <ele>192</ele>
        <time>2019-06-29T06:38:32Z</time>
      </trkpt>
      <trkpt lat="46.16301" lon="6.27401">
        <ele>192</ele>
        <time>2019-06-29T06:38:36Z</time>
      </trkpt>
      <trkpt lat="46.1629" lon="6.27431">
        <ele>192</ele>
        <time>2019-06-29T06:38:40Z</time>
      </trkpt>
      <trkpt lat="46.16278" lon="6.27462">
        <ele>192</ele>
        <time>2019-06-29T06:38:44Z</time>
      </trkpt>
      <trkpt lat="46.16266" lon="6.27494">
        <ele>191</ele>
        <time>2019-06-29T06:38:48Z</time>
      </trkpt>
      <trkpt lat="46.16254" lon="6.27526">
        <ele>191</ele>
        <time>2019-06-29T06:38:52Z</time>
      </trkpt>
      <trkpt lat="46.16242" lon="6.27558">
        <ele>191</ele>
        <time>2019-06-29T06:38:56Z</time>
      </trkpt>
      <trkpt lat="46.16227" lon="6.27585">
        <ele>191</ele>
        <time>2019-06-29T06:39:00Z</time>
      </trkpt>
      <trkpt lat="46.1621" lon="6.27609">
        <ele>191</ele>
        <time>2019-06-29T06:39:04Z</time>
      </trkpt>
      <trkpt lat="46.16207" lon="6.27641">
        <ele>192</ele>
        <time>2019-06-29T06:39:08Z</time>
      </trkpt>
      <trkpt lat="46.16199" lon="6.27665">
        <ele>192</ele>
        <time>2019-06-29T06:39:12Z</time>
      </trkpt>
      <trkpt lat="46.16192" lon="6.27674">
        <ele>193</ele>
        <time>2019-06-29T06:39:16Z</time>
      </trkpt>
      <trkpt lat="46.16191" lon="6.27675">
        <ele>193</ele>
        <time>2019-06-29T06:39:20Z</time>
      </trkpt>
      <trkpt lat="46.16189" lon="6.27675">
        <ele>193</ele>
        <time>2019-06-29T06:40:28Z</time>
      </trkpt>
      <trkpt lat="46.16189" lon="6.27678">
        <ele>193</ele>
        <time>2019-06-29T06:40:36Z</time>
      </trkpt>
      <trkpt lat="46.16189" lon="6.27686">
        <ele>193</ele>
        <time>2019-06-29T06:40:40Z</time>
      </trkpt>
      <trkpt lat="46.16188" lon="6.27693">
        <ele>192</ele>
        <time>2019-06-29T06:40:44Z</time>
      </trkpt>
      <trkpt lat="46.16183" lon="6.27706">
        <ele>193</ele>
        <time>2019-06-29T06:40:48Z</time>
      </trkpt>
      <trkpt lat="46.16177" lon="6.27722">
        <ele>192</ele>
        <time>2019-06-29T06:40:52Z</time>
      </trkpt>
      <trkpt lat="46.16169" lon="6.27744">
        <ele>191</ele>
        <time>2019-06-29T06:40:56Z</time>
      </trkpt>
      <trkpt lat="46.16158" lon="6.2777">
        <ele>191</ele>
        <time>2019-06-29T06:41:00Z</time>
      </trkpt>
      <trkpt lat="46.16147" lon="6.278">
        <ele>191</ele>
        <time>2019-06-29T06:41:04Z</time>
      </trkpt>
      <trkpt lat="46.16136" lon="6.27831">
        <ele>190</ele>
        <time>2019-06-29T06:41:08Z</time>
      </trkpt>
      <trkpt lat="46.16123" lon="6.27864">
        <ele>190</ele>
        <time>2019-06-29T06:41:12Z</time>
      </trkpt>
      <trkpt lat="46.16111" lon="6.27898">
        <ele>190</ele>
        <time>2019-06-29T06:41:16Z</time>
      </trkpt>
      <trkpt lat="46.16097" lon="6.27933">
        <ele>189</ele>
        <time>2019-06-29T06:41:20Z</time>
      </trkpt>
      <trkpt lat="46.16084" lon="6.27968">
        <ele>190</ele>
        <time>2019-06-29T06:41:24Z</time>
      </trkpt>
      <trkpt lat="46.1607" lon="6.28004">
        <ele>189</ele>
        <time>2019-06-29T06:41:28Z</time>
      </trkpt>
      <trkpt lat="46.16056" lon="6.28041">
        <ele>190</ele>
        <time>2019-06-29T06:41:32Z</time>
      </trkpt>
      <trkpt lat="46.16042" lon="6.28078">
        <ele>189</ele>
        <time>2019-06-29T06:41:36Z</time>
      </trkpt>
      <trkpt lat="46.16028" lon="6.28115">
        <ele>189</ele>
        <time>2019-06-29T06:41:40Z</time>
      </trkpt>
      <trkpt lat="46.16014" lon="6.28152">
        <ele>188</ele>
        <time>2019-06-29T06:41:44Z</time>
      </trkpt>
      <trkpt lat="46.16" lon="6.28189">
        <ele>187</ele>
        <time>2019-06-29T06:41:48Z</time>
      </trkpt>
      <trkpt lat="46.15983" lon="6.28224">
        <ele>187</ele>
        <time>2019-06-29T06:41:52Z</time>
      </trkpt>
      <trkpt lat="46.15966" lon="6.28258">
        <ele>186</ele>
        <time>2019-06-29T06:41:56Z</time>
      </trkpt>
      <trkpt lat="46.15948" lon="6.28292">
        <ele>186</ele>
        <time>2019-06-29T06:42:00Z</time>
      </trkpt>
      <trkpt lat="46.1593" lon="6.28326">
        <ele>185</ele>
        <time>2019-06-29T06:42:04Z</time>
      </trkpt>
      <trkpt lat="46.15912" lon="6.2836">
        <ele>185</ele>
        <time>2019-06-29T06:42:08Z</time>
      </trkpt>
      <trkpt lat="46.15896" lon="6.28395">
        <ele>184</ele>
        <time>2019-06-29T06:42:12Z</time>
      </trkpt>
      <trkpt lat="46.15882" lon="6.28434">
        <ele>182</ele>
        <time>2019-06-29T06:42:16Z</time>
      </trkpt>
      <trkpt lat="46.15871" lon="6.28476">
        <ele>182</ele>
        <time>2019-06-29T06:42:20Z</time>
      </trkpt>
      <trkpt lat="46.15861" lon="6.2852">
        <ele>182</ele>
        <time>2019-06-29T06:42:24Z</time>
      </trkpt>
      <trkpt lat="46.15852" lon="6.28565">
        <ele>180</ele>
        <time>2019-06-29T06:42:28Z</time>
      </trkpt>
      <trkpt lat="46.15841" lon="6.2861">
        <ele>179</ele>
        <time>2019-06-29T06:42:32Z</time>
      </trkpt>
      <trkpt lat="46.15831" lon="6.28657">
        <ele>178</ele>
        <time>2019-06-29T06:42:36Z</time>
      </trkpt>
      <trkpt lat="46.1582" lon="6.28704">
        <ele>179</ele>
        <time>2019-06-29T06:42:40Z</time>
      </trkpt>
      <trkpt lat="46.15809" lon="6.28749">
        <ele>179</ele>
        <time>2019-06-29T06:42:44Z</time>
      </trkpt>
      <trkpt lat="46.15799" lon="6.28793">
        <ele>180</ele>
        <time>2019-06-29T06:42:48Z</time>
      </trkpt>
      <trkpt lat="46.15789" lon="6.28836">
        <ele>180</ele>
        <time>2019-06-29T06:42:52Z</time>
      </trkpt>
      <trkpt lat="46.15779" lon="6.28877">
        <ele>180</ele>
        <time>2019-06-29T06:42:56Z</time>
      </trkpt>
      <trkpt lat="46.1577" lon="6.28917">
        <ele>180</ele>
        <time>2019-06-29T06:43:00Z</time>
      </trkpt>
      <trkpt lat="46.15761" lon="6.28956">
        <ele>180</ele>
        <time>2019-06-29T06:43:04Z</time>
      </trkpt>
      <trkpt lat="46.15752" lon="6.28996">
        <ele>181</ele>
        <time>2019-06-29T06:43:08Z</time>
      </trkpt>
      <trkpt lat="46.15743" lon="6.29036">
        <ele>181</ele>
        <time>2019-06-29T06:43:12Z</time>
      </trkpt>
      <trkpt lat="46.15734" lon="6.29075">
        <ele>181</ele>
        <time>2019-06-29T06:43:16Z</time>
      </trkpt>
      <trkpt lat="46.15726" lon="6.29114">
        <ele>181</ele>
        <time>2019-06-29T06:43:20Z</time>
      </trkpt>
      <trkpt lat="46.15718" lon="6.29153">
        <ele>181</ele>
        <time>2019-06-29T06:43:24Z</time>
      </trkpt>
      <trkpt lat="46.1571" lon="6.29191">
        <ele>181</ele>
        <time>2019-06-29T06:43:28Z</time>
      </trkpt>
      <trkpt lat="46.15702" lon="6.29231">
        <ele>182</ele>
        <time>2019-06-29T06:43:32Z</time>
      </trkpt>
      <trkpt lat="46.15694" lon="6.2927">
        <ele>182</ele>
        <time>2019-06-29T06:43:36Z</time>
      </trkpt>
      <trkpt lat="46.15687" lon="6.29309">
        <ele>182</ele>
        <time>2019-06-29T06:43:40Z</time>
      </trkpt>
      <trkpt lat="46.15678" lon="6.29347">
        <ele>182</ele>
        <time>2019-06-29T06:43:44Z</time>
      </trkpt>
      <trkpt lat="46.1567" lon="6.29384">
        <ele>182</ele>
        <time>2019-06-29T06:43:48Z</time>
      </trkpt>
      <trkpt lat="46.15661" lon="6.29424">
        <ele>183</ele>
        <time>2019-06-29T06:43:52Z</time>
      </trkpt>
      <trkpt lat="46.15652" lon="6.29465">
        <ele>182</ele>
        <time>2019-06-29T06:43:56Z</time>
      </trkpt>
      <trkpt lat="46.15643" lon="6.29505">
        <ele>182</ele>
        <time>2019-06-29T06:44:00Z</time>
      </trkpt>
      <trkpt lat="46.15635" lon="6.29544">
        <ele>183</ele>
        <time>2019-06-29T06:44:04Z</time>
      </trkpt>
      <trkpt lat="46.15627" lon="6.2958">
        <ele>183</ele>
        <time>2019-06-29T06:44:08Z</time>
      </trkpt>
      <trkpt lat="46.15621" lon="6.29613">
        <ele>183</ele>
        <time>2019-06-29T06:44:12Z</time>
      </trkpt>
      <trkpt lat="46.15614" lon="6.29648">
        <ele>182</ele>
        <time>2019-06-29T06:44:16Z</time>
      </trkpt>
      <trkpt lat="46.15607" lon="6.29684">
        <ele>182</ele>
        <time>2019-06-29T06:44:20Z</time>
      </trkpt>
      <trkpt lat="46.156" lon="6.29722">
        <ele>182</ele>
        <time>2019-06-29T06:44:24Z</time>
      </trkpt>
      <trkpt lat="46.15593" lon="6.29758">
        <ele>182</ele>
        <time>2019-06-29T06:44:28Z</time>
      </trkpt>
      <trkpt lat="46.15586" lon="6.29795">
        <ele>182</ele>
        <time>2019-06-29T06:44:32Z</time>
      </trkpt>
      <trkpt lat="46.15587" lon="6.29831">
        <ele>182</ele>
        <time>2019-06-29T06:44:36Z</time>
      </trkpt>
      <trkpt lat="46.15572" lon="6.29855">
        <ele>182</ele>
        <time>2019-06-29T06:44:40Z</time>
      </trkpt>
      <trkpt lat="46.15562" lon="6.29885">
        <ele>181</ele>
        <time>2019-06-29T06:44:44Z</time>
      </trkpt>
      <trkpt lat="46.15553" lon="6.29922">
        <ele>181</ele>
        <time>2019-06-29T06:44:48Z</time>
      </trkpt>
      <trkpt lat="46.15545" lon="6.2996">
        <ele>182</ele>
        <time>2019-06-29T06:44:52Z</time>
      </trkpt>
      <trkpt lat="46.15538" lon="6.29996">
        <ele>182</ele>
        <time>2019-06-29T06:44:56Z</time>
      </trkpt>
      <trkpt lat="46.1553" lon="6.30033">
        <ele>183</ele>
        <time>2019-06-29T06:45:00Z</time>
      </trkpt>
      <trkpt lat="46.15523" lon="6.30067">
        <ele>183</ele>
        <time>2019-06-29T06:45:04Z</time>
      </trkpt>
      <trkpt lat="46.15515" lon="6.30102">
        <ele>184</ele>
        <time>2019-06-29T06:45:08Z</time>
      </trkpt>
      <trkpt lat="46.15508" lon="6.30136">
        <ele>184</ele>
        <time>2019-06-29T06:45:12Z</time>
      </trkpt>
      <trkpt lat="46.155" lon="6.3017">
        <ele>184</ele>
        <time>2019-06-29T06:45:16Z</time>
      </trkpt>
      <trkpt lat="46.15493" lon="6.30205">
        <ele>185</ele>
        <time>2019-06-29T06:45:20Z</time>
      </trkpt>
      <trkpt lat="46.15486" lon="6.3024">
        <ele>184</ele>
        <time>2019-06-29T06:45:24Z</time>
      </trkpt>
      <trkpt lat="46.15478" lon="6.30276">
        <ele>184</ele>
        <time>2019-06-29T06:45:28Z</time>
      </trkpt>
      <trkpt lat="46.15471" lon="6.30312">
        <ele>185</ele>
        <time>2019-06-29T06:45:32Z</time>
      </trkpt>
      <trkpt lat="46.15463" lon="6.30343">
        <ele>185</ele>
        <time>2019-06-29T06:45:36Z</time>
      </trkpt>
      <trkpt lat="46.15455" lon="6.30374">
        <ele>185</ele>
        <time>2019-06-29T06:45:40Z</time>
      </trkpt>
      <trkpt lat="46.15447" lon="6.30406">
        <ele>185</ele>
        <time>2019-06-29T06:45:44Z</time>
      </trkpt>
      <trkpt lat="46.1544" lon="6.30439">
        <ele>185</ele>
        <time>2019-06-29T06:45:48Z</time>
      </trkpt>
      <trkpt lat="46.15434" lon="6.30473">
        <ele>185</ele>
        <time>2019-06-29T06:45:52Z</time>
      </trkpt>
      <trkpt lat="46.1543" lon="6.30508">
        <ele>185</ele>
        <time>2019-06-29T06:45:56Z</time>
      </trkpt>
      <trkpt lat="46.15424" lon="6.30542">
        <ele>186</ele>
        <time>2019-06-29T06:46:00Z</time>
      </trkpt>
      <trkpt lat="46.15417" lon="6.30575">
        <ele>186</ele>
        <time>2019-06-29T06:46:04Z</time>
      </trkpt>
      <trkpt lat="46.15409" lon="6.30608">
        <ele>186</ele>
        <time>2019-06-29T06:46:08Z</time>
      </trkpt>
      <trkpt lat="46.15398" lon="6.30642">
        <ele>185</ele>
        <time>2019-06-29T06:46:12Z</time>
      </trkpt>
      <trkpt lat="46.15382" lon="6.30674">
        <ele>184</ele>
        <time>2019-06-29T06:46:16Z</time>
      </trkpt>
      <trkpt lat="46.1536" lon="6.30699">
        <ele>184</ele>
        <time>2019-06-29T06:46:20Z</time>
      </trkpt>
      <trkpt lat="46.15341" lon="6.30721">
        <ele>184</ele>
        <time>2019-06-29T06:46:24Z</time>
      </trkpt>
      <trkpt lat="46.15328" lon="6.30747">
        <ele>184</ele>
        <time>2019-06-29T06:46:28Z</time>
      </trkpt>
      <trkpt lat="46.15314" lon="6.30775">
        <ele>184</ele>
        <time>2019-06-29T06:46:32Z</time>
      </trkpt>
      <trkpt lat="46.15301" lon="6.30806">
        <ele>184</ele>
        <time>2019-06-29T06:46:36Z</time>
      </trkpt>
      <trkpt lat="46.15294" lon="6.3084">
        <ele>183</ele>
        <time>2019-06-29T06:46:40Z</time>
      </trkpt>
      <trkpt lat="46.1529" lon="6.30876">
        <ele>184</ele>
        <time>2019-06-29T06:46:44Z</time>
      </trkpt>
      <trkpt lat="46.15283" lon="6.30912">
        <ele>184</ele>
        <time>2019-06-29T06:46:48Z</time>
      </trkpt>
      <trkpt lat="46.15273" lon="6.30947">
        <ele>183</ele>
        <time>2019-06-29T06:46:52Z</time>
      </trkpt>
      <trkpt lat="46.1526" lon="6.30978">
        <ele>186</ele>
        <time>2019-06-29T06:46:56Z</time>
      </trkpt>
      <trkpt lat="46.15253" lon="6.30988">
        <ele>186</ele>
        <time>2019-06-29T06:47:28Z</time>
      </trkpt>
      <trkpt lat="46.15249" lon="6.30996">
        <ele>186</ele>
        <time>2019-06-29T06:47:32Z</time>
      </trkpt>
      <trkpt lat="46.15242" lon="6.31012">
        <ele>184</ele>
        <time>2019-06-29T06:47:36Z</time>
      </trkpt>
      <trkpt lat="46.1523" lon="6.31034">
        <ele>184</ele>
        <time>2019-06-29T06:47:40Z</time>
      </trkpt>
      <trkpt lat="46.15216" lon="6.31061">
        <ele>183</ele>
        <time>2019-06-29T06:47:44Z</time>
      </trkpt>
      <trkpt lat="46.15201" lon="6.3109">
        <ele>182</ele>
        <time>2019-06-29T06:47:48Z</time>
      </trkpt>
      <trkpt lat="46.15185" lon="6.31121">
        <ele>182</ele>
        <time>2019-06-29T06:47:52Z</time>
      </trkpt>
      <trkpt lat="46.15167" lon="6.31154">
        <ele>181</ele>
        <time>2019-06-29T06:47:56Z</time>
      </trkpt>
      <trkpt lat="46.1515" lon="6.31187">
        <ele>180</ele>
        <time>2019-06-29T06:48:00Z</time>
      </trkpt>
      <trkpt lat="46.15132" lon="6.31223">
        <ele>180</ele>
        <time>2019-06-29T06:48:04Z</time>
      </trkpt>
      <trkpt lat="46.15114" lon="6.31257">
        <ele>180</ele>
        <time>2019-06-29T06:48:08Z</time>
      </trkpt>
      <trkpt lat="46.15096" lon="6.31291">
        <ele>181</ele>
        <time>2019-06-29T06:48:12Z</time>
      </trkpt>
      <trkpt lat="46.1508" lon="6.31324">
        <ele>183</ele>
        <time>2019-06-29T06:48:16Z</time>
      </trkpt>
      <trkpt lat="46.15063" lon="6.31355">
        <ele>183</ele>
        <time>2019-06-29T06:48:20Z</time>
      </trkpt>
      <trkpt lat="46.15047" lon="6.31385">
        <ele>184</ele>
        <time>2019-06-29T06:48:24Z</time>
      </trkpt>
      <trkpt lat="46.15032" lon="6.31415">
        <ele>184</ele>
        <time>2019-06-29T06:48:28Z</time>
      </trkpt>
      <trkpt lat="46.15017" lon="6.31446">
        <ele>184</ele>
        <time>2019-06-29T06:48:32Z</time>
      </trkpt>
      <trkpt lat="46.15001" lon="6.31475">
        <ele>184</ele>
        <time>2019-06-29T06:48:36Z</time>
      </trkpt>
      <trkpt lat="46.14983" lon="6.31502">
        <ele>184</ele>
        <time>2019-06-29T06:48:40Z</time>
      </trkpt>
      <trkpt lat="46.1496" lon="6.31527">
        <ele>184</ele>
        <time>2019-06-29T06:48:44Z</time>
      </trkpt>
      <trkpt lat="46.14937" lon="6.31549">
        <ele>184</ele>
        <time>2019-06-29T06:48:48Z</time>
      </trkpt>
      <trkpt lat="46.14917" lon="6.31577">
        <ele>184</ele>
        <time>2019-06-29T06:48:52Z</time>
      </trkpt>
      <trkpt lat="46.14901" lon="6.31611">
        <ele>184</ele>
        <time>2019-06-29T06:48:56Z</time>
      </trkpt>
      <trkpt lat="46.14887" lon="6.31645">
        <ele>184</ele>
        <time>2019-06-29T06:49:00Z</time>
      </trkpt>
      <trkpt lat="46.14874" lon="6.31679">
        <ele>185</ele>
        <time>2019-06-29T06:49:04Z</time>
      </trkpt>
      <trkpt lat="46.1486" lon="6.31712">
        <ele>184</ele>
        <time>2019-06-29T06:49:08Z</time>
      </trkpt>
      <trkpt lat="46.14846" lon="6.31746">
        <ele>184</ele>
        <time>2019-06-29T06:49:12Z</time>
      </trkpt>
      <trkpt lat="46.14833" lon="6.31781">
        <ele>183</ele>
        <time>2019-06-29T06:49:16Z</time>
      </trkpt>
      <trkpt lat="46.14825" lon="6.31819">
        <ele>182</ele>
        <time>2019-06-29T06:49:20Z</time>
      </trkpt>
      <trkpt lat="46.14817" lon="6.3186">
        <ele>182</ele>
        <time>2019-06-29T06:49:24Z</time>
      </trkpt>
      <trkpt lat="46.14805" lon="6.31899">
        <ele>182</ele>
        <time>2019-06-29T06:49:28Z</time>
      </trkpt>
      <trkpt lat="46.14791" lon="6.31934">
        <ele>182</ele>
        <time>2019-06-29T06:49:32Z</time>
      </trkpt>
      <trkpt lat="46.14775" lon="6.31964">
        <ele>185</ele>
        <time>2019-06-29T06:49:36Z</time>
      </trkpt>
      <trkpt lat="46.14763" lon="6.31988">
        <ele>186</ele>
        <time>2019-06-29T06:49:40Z</time>
      </trkpt>
      <trkpt lat="46.14754" lon="6.32003">
        <ele>185</ele>
        <time>2019-06-29T06:49:44Z</time>
      </trkpt>
      <trkpt lat="46.14744" lon="6.32023">
        <ele>184</ele>
        <time>2019-06-29T06:49:48Z</time>
      </trkpt>
      <trkpt lat="46.14732" lon="6.3205">
        <ele>183</ele>
        <time>2019-06-29T06:49:52Z</time>
      </trkpt>
      <trkpt lat="46.14718" lon="6.32083">
        <ele>181</ele>
        <time>2019-06-29T06:49:56Z</time>
      </trkpt>
      <trkpt lat="46.14702" lon="6.32119">
        <ele>179</ele>
        <time>2019-06-29T06:50:00Z</time>
      </trkpt>
      <trkpt lat="46.14686" lon="6.32159">
        <ele>178</ele>
        <time>2019-06-29T06:50:04Z</time>
      </trkpt>
      <trkpt lat="46.14665" lon="6.32198">
        <ele>175</ele>
        <time>2019-06-29T06:50:08Z</time>
      </trkpt>
      <trkpt lat="46.14641" lon="6.32233">
        <ele>176</ele>
        <time>2019-06-29T06:50:12Z</time>
      </trkpt>
      <trkpt lat="46.14617" lon="6.32265">
        <ele>176</ele>
        <time>2019-06-29T06:50:16Z</time>
      </trkpt>
      <trkpt lat="46.14593" lon="6.32296">
        <ele>176</ele>
        <time>2019-06-29T06:50:20Z</time>
      </trkpt>
      <trkpt lat="46.1457" lon="6.32325">
        <ele>176</ele>
        <time>2019-06-29T06:50:24Z</time>
      </trkpt>
      <trkpt lat="46.14547" lon="6.32356">
        <ele>177</ele>
        <time>2019-06-29T06:50:28Z</time>
      </trkpt>
      <trkpt lat="46.14525" lon="6.32386">
        <ele>176</ele>
        <time>2019-06-29T06:50:32Z</time>
      </trkpt>
      <trkpt lat="46.14502" lon="6.32416">
        <ele>176</ele>
        <time>2019-06-29T06:50:36Z</time>
      </trkpt>
      <trkpt lat="46.14481" lon="6.32446">
        <ele>177</ele>
        <time>2019-06-29T06:50:40Z</time>
      </trkpt>
      <trkpt lat="46.1446" lon="6.32475">
        <ele>177</ele>
        <time>2019-06-29T06:50:44Z</time>
      </trkpt>
      <trkpt lat="46.14438" lon="6.32503">
        <ele>177</ele>
        <time>2019-06-29T06:50:48Z</time>
      </trkpt>
      <trkpt lat="46.14415" lon="6.32526">
        <ele>177</ele>
        <time>2019-06-29T06:50:52Z</time>
      </trkpt>
      <trkpt lat="46.1439" lon="6.32543">
        <ele>177</ele>
        <time>2019-06-29T06:50:56Z</time>
      </trkpt>
      <trkpt lat="46.14381" lon="6.3258">
        <ele>177</ele>
        <time>2019-06-29T06:51:00Z</time>
      </trkpt>
      <trkpt lat="46.14367" lon="6.32614">
        <ele>176</ele>
        <time>2019-06-29T06:51:04Z</time>
      </trkpt>
      <trkpt lat="46.1435" lon="6.32646">
        <ele>176</ele>
        <time>2019-06-29T06:51:08Z</time>
      </trkpt>
      <trkpt lat="46.14332" lon="6.32678">
        <ele>176</ele>
        <time>2019-06-29T06:51:12Z</time>
      </trkpt>
      <trkpt lat="46.14313" lon="6.32709">
        <ele>175</ele>
        <time>2019-06-29T06:51:16Z</time>
      </trkpt>
      <trkpt lat="46.1429" lon="6.32736">
        <ele>175</ele>
        <time>2019-06-29T06:51:20Z</time>
      </trkpt>
      <trkpt lat="46.14265" lon="6.32762">
        <ele>174</ele>
        <time>2019-06-29T06:51:24Z</time>
      </trkpt>
      <trkpt lat="46.14239" lon="6.32787">
        <ele>174</ele>
        <time>2019-06-29T06:51:28Z</time>
      </trkpt>
      <trkpt lat="46.14212" lon="6.32813">
        <ele>172</ele>
        <time>2019-06-29T06:51:32Z</time>
      </trkpt>
      <trkpt lat="46.14185" lon="6.3284">
        <ele>172</ele>
        <time>2019-06-29T06:51:36Z</time>
      </trkpt>
      <trkpt lat="46.14157" lon="6.32867">
        <ele>171</ele>
        <time>2019-06-29T06:51:40Z</time>
      </trkpt>
      <trkpt lat="46.14129" lon="6.32894">
        <ele>171</ele>
        <time>2019-06-29T06:51:44Z</time>
      </trkpt>
      <trkpt lat="46.14102" lon="6.3292">
        <ele>170</ele>
        <time>2019-06-29T06:51:48Z</time>
      </trkpt>
      <trkpt lat="46.14075" lon="6.32946">
        <ele>171</ele>
        <time>2019-06-29T06:51:52Z</time>
      </trkpt>
      <trkpt lat="46.14049" lon="6.3297">
        <ele>171</ele>
        <time>2019-06-29T06:51:56Z</time>
      </trkpt>
      <trkpt lat="46.14024" lon="6.32995">
        <ele>171</ele>
        <time>2019-06-29T06:52:00Z</time>
      </trkpt>
      <trkpt lat="46.13998" lon="6.33021">
        <ele>171</ele>
        <time>2019-06-29T06:52:04Z</time>
      </trkpt>
      <trkpt lat="46.13973" lon="6.33045">
        <ele>170</ele>
        <time>2019-06-29T06:52:08Z</time>
      </trkpt>
      <trkpt lat="46.13949" lon="6.33069">
        <ele>170</ele>
        <time>2019-06-29T06:52:12Z</time>
      </trkpt>
      <trkpt lat="46.13924" lon="6.33093">
        <ele>170</ele>
        <time>2019-06-29T06:52:16Z</time>
      </trkpt>
      <trkpt lat="46.13899" lon="6.33117">
        <ele>170</ele>
        <time>2019-06-29T06:52:20Z</time>
      </trkpt>
      <trkpt lat="46.13875" lon="6.3314">
        <ele>171</ele>
        <time>2019-06-29T06:52:24Z</time>
      </trkpt>
      <trkpt lat="46.1385" lon="6.33164">
        <ele>170</ele>
        <time>2019-06-29T06:52:28Z</time>
      </trkpt>
      <trkpt lat="46.13824" lon="6.33189">
        <ele>170</ele>
        <time>2019-06-29T06:52:32Z</time>
      </trkpt>
      <trkpt lat="46.13799" lon="6.33215">
        <ele>169</ele>
        <time>2019-06-29T06:52:36Z</time>
      </trkpt>
      <trkpt lat="46.13774" lon="6.33239">
        <ele>170</ele>
        <time>2019-06-29T06:52:40Z</time>
      </trkpt>
      <trkpt lat="46.13748" lon="6.33263">
        <ele>170</ele>
        <time>2019-06-29T06:52:44Z</time>
      </trkpt>
      <trkpt lat="46.13723" lon="6.33287">
        <ele>169</ele>
        <time>2019-06-29T06:52:48Z</time>
      </trkpt>
      <trkpt lat="46.13698" lon="6.33311">
        <ele>169</ele>
        <time>2019-06-29T06:52:52Z</time>
      </trkpt>
      <trkpt lat="46.13674" lon="6.33335">
        <ele>169</ele>
        <time>2019-06-29T06:52:56Z</time>
      </trkpt>
      <trkpt lat="46.1365" lon="6.33359">
        <ele>169</ele>
        <time>2019-06-29T06:53:00Z</time>
      </trkpt>
      <trkpt lat="46.13626" lon="6.33382">
        <ele>169</ele>
        <time>2019-06-29T06:53:04Z</time>
      </trkpt>
      <trkpt lat="46.136" lon="6.33404">
        <ele>168</ele>
        <time>2019-06-29T06:53:08Z</time>
      </trkpt>
      <trkpt lat="46.13574" lon="6.33426">
        <ele>168</ele>
        <time>2019-06-29T06:53:12Z</time>
      </trkpt>
      <trkpt lat="46.13549" lon="6.33449">
        <ele>168</ele>
        <time>2019-06-29T06:53:16Z</time>
      </trkpt>
      <trkpt lat="46.13524" lon="6.33472">
        <ele>168</ele>
        <time>2019-06-29T06:53:20Z</time>
      </trkpt>
      <trkpt lat="46.13499" lon="6.33496">
        <ele>168</ele>
        <time>2019-06-29T06:53:24Z</time>
      </trkpt>
      <trkpt lat="46.13475" lon="6.33522">
        <ele>168</ele>
        <time>2019-06-29T06:53:28Z</time>
      </trkpt>
      <trkpt lat="46.13451" lon="6.33547">
        <ele>168</ele>
        <time>2019-06-29T06:53:32Z</time>
      </trkpt>
      <trkpt lat="46.13429" lon="6.33571">
        <ele>168</ele>
        <time>2019-06-29T06:53:36Z</time>
      </trkpt>
      <trkpt lat="46.13406" lon="6.33594">
        <ele>168</ele>
        <time>2019-06-29T06:53:40Z</time>
      </trkpt>
      <trkpt lat="46.13383" lon="6.33617">
        <ele>168</ele>
        <time>2019-06-29T06:53:44Z</time>
      </trkpt>
      <trkpt lat="46.13361" lon="6.3364">
        <ele>169</ele>
        <time>2019-06-29T06:53:48Z</time>
      </trkpt>
      <trkpt lat="46.13338" lon="6.3366">
        <ele>169</ele>
        <time>2019-06-29T06:53:52Z</time>
      </trkpt>
      <trkpt lat="46.13316" lon="6.3368">
        <ele>169</ele>
        <time>2019-06-29T06:53:56Z</time>
      </trkpt>
      <trkpt lat="46.13292" lon="6.33697">
        <ele>169</ele>
        <time>2019-06-29T06:54:00Z</time>
      </trkpt>
      <trkpt lat="46.13268" lon="6.33713">
        <ele>169</ele>
        <time>2019-06-29T06:54:04Z</time>
      </trkpt>
      <trkpt lat="46.13243" lon="6.3373">
        <ele>169</ele>
        <time>2019-06-29T06:54:08Z</time>
      </trkpt>
      <trkpt lat="46.13218" lon="6.33747">
        <ele>170</ele>
        <time>2019-06-29T06:54:12Z</time>
      </trkpt>
      <trkpt lat="46.13193" lon="6.33764">
        <ele>170</ele>
        <time>2019-06-29T06:54:16Z</time>
      </trkpt>
      <trkpt lat="46.13166" lon="6.33779">
        <ele>169</ele>
        <time>2019-06-29T06:54:20Z</time>
      </trkpt>
      <trkpt lat="46.13138" lon="6.33789">
        <ele>168</ele>
        <time>2019-06-29T06:54:24Z</time>
      </trkpt>
      <trkpt lat="46.13109" lon="6.33797">
        <ele>167</ele>
        <time>2019-06-29T06:54:28Z</time>
      </trkpt>
      <trkpt lat="46.13079" lon="6.33806">
        <ele>166</ele>
        <time>2019-06-29T06:54:32Z</time>
      </trkpt>
      <trkpt lat="46.1305" lon="6.33821">
        <ele>166</ele>
        <time>2019-06-29T06:54:36Z</time>
      </trkpt>
      <trkpt lat="46.13024" lon="6.33841">
        <ele>166</ele>
        <time>2019-06-29T06:54:40Z</time>
      </trkpt>
      <trkpt lat="46.12997" lon="6.33861">
        <ele>166</ele>
        <time>2019-06-29T06:54:44Z</time>
      </trkpt>
      <trkpt lat="46.12969" lon="6.33873">
        <ele>166</ele>
        <time>2019-06-29T06:54:48Z</time>
      </trkpt>
      <trkpt lat="46.1294" lon="6.33886">
        <ele>165</ele>
        <time>2019-06-29T06:54:52Z</time>
      </trkpt>
      <trkpt lat="46.12911" lon="6.33899">
        <ele>165</ele>
        <time>2019-06-29T06:54:56Z</time>
      </trkpt>
      <trkpt lat="46.12882" lon="6.33911">
        <ele>164</ele>
        <time>2019-06-29T06:55:00Z</time>
      </trkpt>
      <trkpt lat="46.12853" lon="6.33927">
        <ele>164</ele>
        <time>2019-06-29T06:55:04Z</time>
      </trkpt>
      <trkpt lat="46.12824" lon="6.33942">
        <ele>163</ele>
        <time>2019-06-29T06:55:08Z</time>
      </trkpt>
      <trkpt lat="46.12794" lon="6.33955">
        <ele>162</ele>
        <time>2019-06-29T06:55:12Z</time>
      </trkpt>
      <trkpt lat="46.12763" lon="6.33965">
        <ele>162</ele>
        <time>2019-06-29T06:55:16Z</time>
      </trkpt>
      <trkpt lat="46.12733" lon="6.33977">
        <ele>162</ele>
        <time>2019-06-29T06:55:20Z</time>
      </trkpt>
      <trkpt lat="46.12707" lon="6.3399">
        <ele>162</ele>
        <time>2019-06-29T06:55:24Z</time>
      </trkpt>
      <trkpt lat="46.12681" lon="6.34001">
        <ele>163</ele>
        <time>2019-06-29T06:55:28Z</time>
      </trkpt>
      <trkpt lat="46.12656" lon="6.34017">
        <ele>163</ele>
        <time>2019-06-29T06:55:32Z</time>
      </trkpt>
      <trkpt lat="46.12631" lon="6.34034">
        <ele>163</ele>
        <time>2019-06-29T06:55:36Z</time>
      </trkpt>
      <trkpt lat="46.12606" lon="6.34051">
        <ele>163</ele>
        <time>2019-06-29T06:55:40Z</time>
      </trkpt>
      <trkpt lat="46.12581" lon="6.34071">
        <ele>161</ele>
        <time>2019-06-29T06:55:44Z</time>
      </trkpt>
      <trkpt lat="46.12556" lon="6.34095">
        <ele>159</ele>
        <time>2019-06-29T06:55:48Z</time>
      </trkpt>
      <trkpt lat="46.12527" lon="6.34118">
        <ele>160</ele>
        <time>2019-06-29T06:55:52Z</time>
      </trkpt>
      <trkpt lat="46.12498" lon="6.34131">
        <ele>161</ele>
        <time>2019-06-29T06:55:56Z</time>
      </trkpt>
      <trkpt lat="46.12471" lon="6.34143">
        <ele>162</ele>
        <time>2019-06-29T06:56:00Z</time>
      </trkpt>
      <trkpt lat="46.12446" lon="6.34154">
        <ele>163</ele>
        <time>2019-06-29T06:56:04Z</time>
      </trkpt>
      <trkpt lat="46.12422" lon="6.34169">
        <ele>163</ele>
        <time>2019-06-29T06:56:08Z</time>
      </trkpt>
      <trkpt lat="46.12397" lon="6.34185">
        <ele>162</ele>
        <time>2019-06-29T06:56:12Z</time>
      </trkpt>
      <trkpt lat="46.1237" lon="6.342">
        <ele>161</ele>
        <time>2019-06-29T06:56:16Z</time>
      </trkpt>
      <trkpt lat="46.12342" lon="6.34213">
        <ele>161</ele>
        <time>2019-06-29T06:56:20Z</time>
      </trkpt>
      <trkpt lat="46.12313" lon="6.34224">
        <ele>160</ele>
        <time>2019-06-29T06:56:24Z</time>
      </trkpt>
      <trkpt lat="46.12284" lon="6.34233">
        <ele>159</ele>
        <time>2019-06-29T06:56:28Z</time>
      </trkpt>
      <trkpt lat="46.12254" lon="6.34248">
        <ele>159</ele>
        <time>2019-06-29T06:56:32Z</time>
      </trkpt>
      <trkpt lat="46.12226" lon="6.34269">
        <ele>159</ele>
        <time>2019-06-29T06:56:36Z</time>
      </trkpt>
      <trkpt lat="46.12201" lon="6.34295">
        <ele>159</ele>
        <time>2019-06-29T06:56:40Z</time>
      </trkpt>
      <trkpt lat="46.12179" lon="6.34327">
        <ele>158</ele>
        <time>2019-06-29T06:56:44Z</time>
      </trkpt>
      <trkpt lat="46.12161" lon="6.34362">
        <ele>158</ele>
        <time>2019-06-29T06:56:48Z</time>
      </trkpt>
      <trkpt lat="46.12144" lon="6.34397">
        <ele>158</ele>
        <time>2019-06-29T06:56:52Z</time>
      </trkpt>
      <trkpt lat="46.12124" lon="6.3443">
        <ele>158</ele>
        <time>2019-06-29T06:56:56Z</time>
      </trkpt>
      <trkpt lat="46.121" lon="6.34458">
        <ele>158</ele>
        <time>2019-06-29T06:57:00Z</time>
      </trkpt>
      <trkpt lat="46.12073" lon="6.3448">
        <ele>157</ele>
        <time>2019-06-29T06:57:04Z</time>
      </trkpt>
      <trkpt lat="46.12043" lon="6.34497">
        <ele>157</ele>
        <time>2019-06-29T06:57:08Z</time>
      </trkpt>
      <trkpt lat="46.12013" lon="6.34507">
        <ele>155</ele>
        <time>2019-06-29T06:57:12Z</time>
      </trkpt>
      <trkpt lat="46.11985" lon="6.34521">
        <ele>156</ele>
        <time>2019-06-29T06:57:16Z</time>
      </trkpt>
      <trkpt lat="46.11959" lon="6.3454">
        <ele>155</ele>
        <time>2019-06-29T06:57:20Z</time>
      </trkpt>
      <trkpt lat="46.11933" lon="6.34562">
        <ele>156</ele>
        <time>2019-06-29T06:57:24Z</time>
      </trkpt>
      <trkpt lat="46.11909" lon="6.34587">
        <ele>156</ele>
        <time>2019-06-29T06:57:28Z</time>
      </trkpt>
      <trkpt lat="46.11887" lon="6.34615">
        <ele>156</ele>
        <time>2019-06-29T06:57:32Z</time>
      </trkpt>
      <trkpt lat="46.11862" lon="6.34644">
        <ele>153</ele>
        <time>2019-06-29T06:57:36Z</time>
      </trkpt>
      <trkpt lat="46.11835" lon="6.34669">
        <ele>153</ele>
        <time>2019-06-29T06:57:40Z</time>
      </trkpt>
      <trkpt lat="46.11805" lon="6.34689">
        <ele>152</ele>
        <time>2019-06-29T06:57:44Z</time>
      </trkpt>
      <trkpt lat="46.11774" lon="6.34706">
        <ele>151</ele>
        <time>2019-06-29T06:57:48Z</time>
      </trkpt>
      <trkpt lat="46.11743" lon="6.34721">
        <ele>152</ele>
        <time>2019-06-29T06:57:52Z</time>
      </trkpt>
      <trkpt lat="46.11712" lon="6.34736">
        <ele>151</ele>
        <time>2019-06-29T06:57:56Z</time>
      </trkpt>
      <trkpt lat="46.11684" lon="6.34757">
        <ele>151</ele>
        <time>2019-06-29T06:58:00Z</time>
      </trkpt>
      <trkpt lat="46.11659" lon="6.34785">
        <ele>152</ele>
        <time>2019-06-29T06:58:04Z</time>
      </trkpt>
      <trkpt lat="46.11634" lon="6.3481">
        <ele>152</ele>
        <time>2019-06-29T06:58:08Z</time>
      </trkpt>
      <trkpt lat="46.11606" lon="6.34825">
        <ele>152</ele>
        <time>2019-06-29T06:58:12Z</time>
      </trkpt>
      <trkpt lat="46.11576" lon="6.34834">
        <ele>151</ele>
        <time>2019-06-29T06:58:16Z</time>
      </trkpt>
      <trkpt lat="46.11546" lon="6.34845">
        <ele>150</ele>
        <time>2019-06-29T06:58:20Z</time>
      </trkpt>
      <trkpt lat="46.11516" lon="6.3486">
        <ele>150</ele>
        <time>2019-06-29T06:58:24Z</time>
      </trkpt>
      <trkpt lat="46.11491" lon="6.34875">
        <ele>151</ele>
        <time>2019-06-29T06:58:28Z</time>
      </trkpt>
      <trkpt lat="46.11474" lon="6.34887">
        <ele>152</ele>
        <time>2019-06-29T06:58:32Z</time>
      </trkpt>
      <trkpt lat="46.11482" lon="6.34887">
        <ele>152</ele>
        <time>2019-06-29T06:58:36Z</time>
      </trkpt>
      <trkpt lat="46.11497" lon="6.34878">
        <ele>151</ele>
        <time>2019-06-29T06:58:40Z</time>
      </trkpt>
      <trkpt lat="46.11516" lon="6.34867">
        <ele>151</ele>
        <time>2019-06-29T06:58:44Z</time>
      </trkpt>
      <trkpt lat="46.11537" lon="6.34857">
        <ele>152</ele>
        <time>2019-06-29T06:58:48Z</time>
      </trkpt>
      <trkpt lat="46.11559" lon="6.34849">
        <ele>152</ele>
        <time>2019-06-29T06:58:52Z</time>
      </trkpt>
      <trkpt lat="46.11581" lon="6.34843">
        <ele>153</ele>
        <time>2019-06-29T06:58:56Z</time>
      </trkpt>
      <trkpt lat="46.11603" lon="6.34837">
        <ele>154</ele>
        <time>2019-06-29T06:59:00Z</time>
      </trkpt>
      <trkpt lat="46.11617" lon="6.34837">
        <ele>156</ele>
        <time>2019-06-29T06:59:04Z</time>
      </trkpt>
      <trkpt lat="46.11611" lon="6.34851">
        <ele>156</ele>
        <time>2019-06-29T06:59:08Z</time>
      </trkpt>
      <trkpt lat="46.11601" lon="6.34868">
        <ele>157</ele>
        <time>2019-06-29T06:59:12Z</time>
      </trkpt>
      <trkpt lat="46.11592" lon="6.34888">
        <ele>158</ele>
        <time>2019-06-29T06:59:16Z</time>
      </trkpt>
      <trkpt lat="46.11583" lon="6.34908">
        <ele>158</ele>
        <time>2019-06-29T06:59:20Z</time>
      </trkpt>
      <trkpt lat="46.11573" lon="6.3493">
        <ele>159</ele>
        <time>2019-06-29T06:59:24Z</time>
      </trkpt>
      <trkpt lat="46.11562" lon="6.34953">
        <ele>160</ele>
        <time>2019-06-29T06:59:28Z</time>
      </trkpt>
      <trkpt lat="46.11553" lon="6.34974">
        <ele>161</ele>
        <time>2019-06-29T06:59:32Z</time>
      </trkpt>
      <trkpt lat="46.11545" lon="6.34995">
        <ele>161</ele>
        <time>2019-06-29T06:59:36Z</time>
      </trkpt>
      <trkpt lat="46.11533" lon="6.35012">
        <ele>161</ele>
        <time>2019-06-29T06:59:40Z</time>
      </trkpt>
      <trkpt lat="46.11518" lon="6.35026">
        <ele>163</ele>
        <time>2019-06-29T06:59:44Z</time>
      </trkpt>
      <trkpt lat="46.11502" lon="6.35037">
        <ele>162</ele>
        <time>2019-06-29T06:59:48Z</time>
      </trkpt>
      <trkpt lat="46.11485" lon="6.35048">
        <ele>164</ele>
        <time>2019-06-29T06:59:52Z</time>
      </trkpt>
      <trkpt lat="46.11468" lon="6.3506">
        <ele>164</ele>
        <time>2019-06-29T06:59:56Z</time>
      </trkpt>
      <trkpt lat="46.11452" lon="6.35074">
        <ele>164</ele>
        <time>2019-06-29T07:00:00Z</time>
      </trkpt>
      <trkpt lat="46.11437" lon="6.35086">
        <ele>165</ele>
        <time>2019-06-29T07:00:04Z</time>
      </trkpt>
      <trkpt lat="46.11425" lon="6.35106">
        <ele>165</ele>
        <time>2019-06-29T07:00:08Z</time>
      </trkpt>
      <trkpt lat="46.11417" lon="6.35129">
        <ele>166</ele>
        <time>2019-06-29T07:00:12Z</time>
      </trkpt>
      <trkpt lat="46.11413" lon="6.35155">
        <ele>167</ele>
        <time>2019-06-29T07:00:16Z</time>
      </trkpt>
      <trkpt lat="46.11412" lon="6.35177">
        <ele>168</ele>
        <time>2019-06-29T07:00:20Z</time>
      </trkpt>
      <trkpt lat="46.11412" lon="6.35195">
        <ele>169</ele>
        <time>2019-06-29T07:00:24Z</time>
      </trkpt>
      <trkpt lat="46.11405" lon="6.35212">
        <ele>170</ele>
        <time>2019-06-29T07:00:28Z</time>
      </trkpt>
      <trkpt lat="46.11392" lon="6.35218">
        <ele>170</ele>
        <time>2019-06-29T07:00:32Z</time>
      </trkpt>
      <trkpt lat="46.11376" lon="6.35221">
        <ele>171</ele>
        <time>2019-06-29T07:00:36Z</time>
      </trkpt>
      <trkpt lat="46.11361" lon="6.35227">
        <ele>172</ele>
        <time>2019-06-29T07:00:40Z</time>
      </trkpt>
      <trkpt lat="46.11346" lon="6.35235">
        <ele>173</ele>
        <time>2019-06-29T07:00:44Z</time>
      </trkpt>
      <trkpt lat="46.11332" lon="6.35244">
        <ele>174</ele>
        <time>2019-06-29T07:00:48Z</time>
      </trkpt>
      <trkpt lat="46.11319" lon="6.35257">
        <ele>174</ele>
        <time>2019-06-29T07:00:52Z</time>
      </trkpt>
      <trkpt lat="46.11305" lon="6.35271">
        <ele>174</ele>
        <time>2019-06-29T07:00:56Z</time>
      </trkpt>
      <trkpt lat="46.11292" lon="6.35287">
        <ele>175</ele>
        <time>2019-06-29T07:01:00Z</time>
      </trkpt>
      <trkpt lat="46.11279" lon="6.35302">
        <ele>175</ele>
        <time>2019-06-29T07:01:04Z</time>
      </trkpt>
      <trkpt lat="46.11266" lon="6.35318">
        <ele>175</ele>
        <time>2019-06-29T07:01:08Z</time>
      </trkpt>
      <trkpt lat="46.11253" lon="6.35334">
        <ele>176</ele>
        <time>2019-06-29T07:01:12Z</time>
      </trkpt>
      <trkpt lat="46.11239" lon="6.35349">
        <ele>176</ele>
        <time>2019-06-29T07:01:16Z</time>
      </trkpt>
      <trkpt lat="46.11226" lon="6.35365">
        <ele>177</ele>
        <time>2019-06-29T07:01:20Z</time>
      </trkpt>
      <trkpt lat="46.11212" lon="6.35381">
        <ele>177</ele>
        <time>2019-06-29T07:01:24Z</time>
      </trkpt>
      <trkpt lat="46.112" lon="6.35396">
        <ele>178</ele>
        <time>2019-06-29T07:01:28Z</time>
      </trkpt>
      <trkpt lat="46.11187" lon="6.35411">
        <ele>179</ele>
        <time>2019-06-29T07:01:32Z</time>
      </trkpt>
      <trkpt lat="46.11174" lon="6.35427">
        <ele>179</ele>
        <time>2019-06-29T07:01:36Z</time>
      </trkpt>
      <trkpt lat="46.1116" lon="6.35442">
        <ele>180</ele>
        <time>2019-06-29T07:01:40Z</time>
      </trkpt>
      <trkpt lat="46.11146" lon="6.35458">
        <ele>181</ele>
        <time>2019-06-29T07:01:44Z</time>
      </trkpt>
      <trkpt lat="46.11133" lon="6.35474">
        <ele>181</ele>
        <time>2019-06-29T07:01:48Z</time>
      </trkpt>
      <trkpt lat="46.11124" lon="6.35492">
        <ele>182</ele>
        <time>2019-06-29T07:01:52Z</time>
      </trkpt>
      <trkpt lat="46.11115" lon="6.35511">
        <ele>183</ele>
        <time>2019-06-29T07:01:56Z</time>
      </trkpt>
      <trkpt lat="46.11105" lon="6.35528">
        <ele>184</ele>
        <time>2019-06-29T07:02:00Z</time>
      </trkpt>
      <trkpt lat="46.11095" lon="6.35544">
        <ele>185</ele>
        <time>2019-06-29T07:02:04Z</time>
      </trkpt>
      <trkpt lat="46.11085" lon="6.35563">
        <ele>186</ele>
        <time>2019-06-29T07:02:08Z</time>
      </trkpt>
      <trkpt lat="46.11073" lon="6.35582">
        <ele>186</ele>
        <time>2019-06-29T07:02:12Z</time>
      </trkpt>
      <trkpt lat="46.1106" lon="6.35599">
        <ele>187</ele>
        <time>2019-06-29T07:02:16Z</time>
      </trkpt>
      <trkpt lat="46.11048" lon="6.35616">
        <ele>188</ele>
        <time>2019-06-29T07:02:20Z</time>
      </trkpt>
      <trkpt lat="46.11034" lon="6.35632">
        <ele>187</ele>
        <time>2019-06-29T07:02:24Z</time>
      </trkpt>
      <trkpt lat="46.11023" lon="6.35648">
        <ele>189</ele>
        <time>2019-06-29T07:02:28Z</time>
      </trkpt>
      <trkpt lat="46.11015" lon="6.35663">
        <ele>190</ele>
        <time>2019-06-29T07:02:32Z</time>
      </trkpt>
      <trkpt lat="46.11005" lon="6.35676">
        <ele>191</ele>
        <time>2019-06-29T07:02:36Z</time>
      </trkpt>
      <trkpt lat="46.10994" lon="6.35691">
        <ele>192</ele>
        <time>2019-06-29T07:02:40Z</time>
      </trkpt>
      <trkpt lat="46.1098" lon="6.35702">
        <ele>192</ele>
        <time>2019-06-29T07:02:44Z</time>
      </trkpt>
      <trkpt lat="46.10966" lon="6.3571">
        <ele>192</ele>
        <time>2019-06-29T07:02:48Z</time>
      </trkpt>
      <trkpt lat="46.10949" lon="6.35714">
        <ele>193</ele>
        <time>2019-06-29T07:02:52Z</time>
      </trkpt>
      <trkpt lat="46.10933" lon="6.35716">
        <ele>193</ele>
        <time>2019-06-29T07:02:56Z</time>
      </trkpt>
      <trkpt lat="46.10916" lon="6.35718">
        <ele>194</ele>
        <time>2019-06-29T07:03:00Z</time>
      </trkpt>
      <trkpt lat="46.10901" lon="6.35722">
        <ele>195</ele>
        <time>2019-06-29T07:03:04Z</time>
      </trkpt>
      <trkpt lat="46.10887" lon="6.35729">
        <ele>196</ele>
        <time>2019-06-29T07:03:08Z</time>
      </trkpt>
      <trkpt lat="46.10875" lon="6.35737">
        <ele>197</ele>
        <time>2019-06-29T07:03:12Z</time>
      </trkpt>
      <trkpt lat="46.10862" lon="6.35747">
        <ele>197</ele>
        <time>2019-06-29T07:03:16Z</time>
      </trkpt>
      <trkpt lat="46.1085" lon="6.35757">
        <ele>199</ele>
        <time>2019-06-29T07:03:20Z</time>
      </trkpt>
      <trkpt lat="46.10839" lon="6.35767">
        <ele>200</ele>
        <time>2019-06-29T07:03:24Z</time>
      </trkpt>
      <trkpt lat="46.10829" lon="6.35774">
        <ele>201</ele>
        <time>2019-06-29T07:03:28Z</time>
      </trkpt>
      <trkpt lat="46.1082" lon="6.35781">
        <ele>203</ele>
        <time>2019-06-29T07:03:32Z</time>
      </trkpt>
      <trkpt lat="46.10811" lon="6.35787">
        <ele>204</ele>
        <time>2019-06-29T07:03:36Z</time>
      </trkpt>
      <trkpt lat="46.10804" lon="6.35795">
        <ele>205</ele>
        <time>2019-06-29T07:03:40Z</time>
      </trkpt>
      <trkpt lat="46.10798" lon="6.35806">
        <ele>206</ele>
        <time>2019-06-29T07:03:44Z</time>
      </trkpt>
      <trkpt lat="46.10795" lon="6.35816">
        <ele>208</ele>
        <time>2019-06-29T07:03:48Z</time>
      </trkpt>
      <trkpt lat="46.10793" lon="6.35826">
        <ele>209</ele>
        <time>2019-06-29T07:03:52Z</time>
      </trkpt>
      <trkpt lat="46.10792" lon="6.35836">
        <ele>210</ele>
        <time>2019-06-29T07:03:56Z</time>
      </trkpt>
      <trkpt lat="46.1079" lon="6.35848">
        <ele>211</ele>
        <time>2019-06-29T07:04:00Z</time>
      </trkpt>
      <trkpt lat="46.10782" lon="6.3586">
        <ele>211</ele>
        <time>2019-06-29T07:04:04Z</time>
      </trkpt>
      <trkpt lat="46.10775" lon="6.35873">
        <ele>210</ele>
        <time>2019-06-29T07:04:08Z</time>
      </trkpt>
      <trkpt lat="46.10765" lon="6.35894">
        <ele>209</ele>
        <time>2019-06-29T07:04:12Z</time>
      </trkpt>
      <trkpt lat="46.10755" lon="6.35918">
        <ele>208</ele>
        <time>2019-06-29T07:04:16Z</time>
      </trkpt>
      <trkpt lat="46.10735" lon="6.35934">
        <ele>207</ele>
        <time>2019-06-29T07:04:20Z</time>
      </trkpt>
      <trkpt lat="46.10711" lon="6.3594">
        <ele>207</ele>
        <time>2019-06-29T07:04:24Z</time>
      </trkpt>
      <trkpt lat="46.10688" lon="6.35952">
        <ele>207</ele>
        <time>2019-06-29T07:04:28Z</time>
      </trkpt>
      <trkpt lat="46.10669" lon="6.3597">
        <ele>209</ele>
        <time>2019-06-29T07:04:32Z</time>
      </trkpt>
      <trkpt lat="46.10656" lon="6.35993">
        <ele>210</ele>
        <time>2019-06-29T07:04:36Z</time>
      </trkpt>
      <trkpt lat="46.10645" lon="6.36014">
        <ele>210</ele>
        <time>2019-06-29T07:04:40Z</time>
      </trkpt>
      <trkpt lat="46.10634" lon="6.36033">
        <ele>211</ele>
        <time>2019-06-29T07:04:44Z</time>
      </trkpt>
      <trkpt lat="46.10617" lon="6.36046">
        <ele>212</ele>
        <time>2019-06-29T07:04:48Z</time>
      </trkpt>
      <trkpt lat="46.10599" lon="6.36055">
        <ele>212</ele>
        <time>2019-06-29T07:04:52Z</time>
      </trkpt>
      <trkpt lat="46.10585" lon="6.36073">
        <ele>213</ele>
        <time>2019-06-29T07:04:56Z</time>
      </trkpt>
      <trkpt lat="46.10573" lon="6.36095">
        <ele>213</ele>
        <time>2019-06-29T07:05:00Z</time>
      </trkpt>
      <trkpt lat="46.1056" lon="6.36114">
        <ele>214</ele>
        <time>2019-06-29T07:05:04Z</time>
      </trkpt>
      <trkpt lat="46.10544" lon="6.36129">
        <ele>215</ele>
        <time>2019-06-29T07:05:08Z</time>
      </trkpt>
      <trkpt lat="46.10527" lon="6.36142">
        <ele>215</ele>
        <time>2019-06-29T07:05:12Z</time>
      </trkpt>
      <trkpt lat="46.10512" lon="6.36156">
        <ele>215</ele>
        <time>2019-06-29T07:05:16Z</time>
      </trkpt>
      <trkpt lat="46.10497" lon="6.36174">
        <ele>216</ele>
        <time>2019-06-29T07:05:20Z</time>
      </trkpt>
      <trkpt lat="46.1048" lon="6.36189">
        <ele>216</ele>
        <time>2019-06-29T07:05:24Z</time>
      </trkpt>
      <trkpt lat="46.10463" lon="6.36203">
        <ele>217</ele>
        <time>2019-06-29T07:05:28Z</time>
      </trkpt>
      <trkpt lat="46.10446" lon="6.36214">
        <ele>217</ele>
        <time>2019-06-29T07:05:32Z</time>
      </trkpt>
      <trkpt lat="46.10431" lon="6.36231">
        <ele>218</ele>
        <time>2019-06-29T07:05:36Z</time>
      </trkpt>
      <trkpt lat="46.10419" lon="6.36253">
        <ele>219</ele>
        <time>2019-06-29T07:05:40Z</time>
      </trkpt>
      <trkpt lat="46.1041" lon="6.36277">
        <ele>219</ele>
        <time>2019-06-29T07:05:44Z</time>
      </trkpt>
      <trkpt lat="46.10399" lon="6.36297">
        <ele>219</ele>
        <time>2019-06-29T07:05:48Z</time>
      </trkpt>
      <trkpt lat="46.10382" lon="6.36313">
        <ele>220</ele>
        <time>2019-06-29T07:05:52Z</time>
      </trkpt>
      <trkpt lat="46.10363" lon="6.36322">
        <ele>220</ele>
        <time>2019-06-29T07:05:56Z</time>
      </trkpt>
      <trkpt lat="46.10345" lon="6.3632">
        <ele>220</ele>
        <time>2019-06-29T07:06:00Z</time>
      </trkpt>
      <trkpt lat="46.10325" lon="6.3632">
        <ele>220</ele>
        <time>2019-06-29T07:06:04Z</time>
      </trkpt>
      <trkpt lat="46.10308" lon="6.36332">
        <ele>220</ele>
        <time>2019-06-29T07:06:08Z</time>
      </trkpt>
      <trkpt lat="46.10293" lon="6.36353">
        <ele>220</ele>
        <time>2019-06-29T07:06:12Z</time>
      </trkpt>
      <trkpt lat="46.10272" lon="6.36364">
        <ele>220</ele>
        <time>2019-06-29T07:06:16Z</time>
      </trkpt>
      <trkpt lat="46.1025" lon="6.36368">
        <ele>220</ele>
        <time>2019-06-29T07:06:20Z</time>
      </trkpt>
      <trkpt lat="46.1023" lon="6.36377">
        <ele>220</ele>
        <time>2019-06-29T07:06:24Z</time>
      </trkpt>
      <trkpt lat="46.10209" lon="6.36392">
        <ele>220</ele>
        <time>2019-06-29T07:06:28Z</time>
      </trkpt>
      <trkpt lat="46.10189" lon="6.36409">
        <ele>219</ele>
        <time>2019-06-29T07:06:32Z</time>
      </trkpt>
      <trkpt lat="46.10169" lon="6.3643">
        <ele>219</ele>
        <time>2019-06-29T07:06:36Z</time>
      </trkpt>
      <trkpt lat="46.10152" lon="6.36457">
        <ele>218</ele>
        <time>2019-06-29T07:06:40Z</time>
      </trkpt>
      <trkpt lat="46.10142" lon="6.36492">
        <ele>218</ele>
        <time>2019-06-29T07:06:44Z</time>
      </trkpt>
      <trkpt lat="46.10133" lon="6.36529">
        <ele>217</ele>
        <time>2019-06-29T07:06:48Z</time>
      </trkpt>
      <trkpt lat="46.10109" lon="6.36555">
        <ele>216</ele>
        <time>2019-06-29T07:06:52Z</time>
      </trkpt>
      <trkpt lat="46.10085" lon="6.36583">
        <ele>215</ele>
        <time>2019-06-29T07:06:56Z</time>
      </trkpt>
      <trkpt lat="46.10059" lon="6.36602">
        <ele>215</ele>
        <time>2019-06-29T07:07:00Z</time>
      </trkpt>
      <trkpt lat="46.10032" lon="6.36608">
        <ele>215</ele>
        <time>2019-06-29T07:07:04Z</time>
      </trkpt>
      <trkpt lat="46.10006" lon="6.36622">
        <ele>215</ele>
        <time>2019-06-29T07:07:08Z</time>
      </trkpt>
      <trkpt lat="46.09989" lon="6.36649">
        <ele>215</ele>
        <time>2019-06-29T07:07:12Z</time>
      </trkpt>
      <trkpt lat="46.09977" lon="6.36676">
        <ele>217</ele>
        <time>2019-06-29T07:07:16Z</time>
      </trkpt>
      <trkpt lat="46.09964" lon="6.36698">
        <ele>219</ele>
        <time>2019-06-29T07:07:20Z</time>
      </trkpt>
      <trkpt lat="46.09949" lon="6.3672">
        <ele>219</ele>
        <time>2019-06-29T07:07:24Z</time>
      </trkpt>
      <trkpt lat="46.09933" lon="6.36747">
        <ele>217</ele>
        <time>2019-06-29T07:07:28Z</time>
      </trkpt>
      <trkpt lat="46.09911" lon="6.36773">
        <ele>215</ele>
        <time>2019-06-29T07:07:32Z</time>
      </trkpt>
      <trkpt lat="46.09881" lon="6.36779">
        <ele>212</ele>
        <time>2019-06-29T07:07:36Z</time>
      </trkpt>
      <trkpt lat="46.09845" lon="6.36783">
        <ele>209</ele>
        <time>2019-06-29T07:07:40Z</time>
      </trkpt>
      <trkpt lat="46.09814" lon="6.36803">
        <ele>211</ele>
        <time>2019-06-29T07:07:44Z</time>
      </trkpt>
      <trkpt lat="46.09792" lon="6.36826">
        <ele>214</ele>
        <time>2019-06-29T07:07:48Z</time>
      </trkpt>
      <trkpt lat="46.09771" lon="6.3684">
        <ele>216</ele>
        <time>2019-06-29T07:07:52Z</time>
      </trkpt>
      <trkpt lat="46.09752" lon="6.36852">
        <ele>216</ele>
        <time>2019-06-29T07:07:56Z</time>
      </trkpt>
      <trkpt lat="46.09736" lon="6.36872">
        <ele>216</ele>
        <time>2019-06-29T07:08:00Z</time>
      </trkpt>
      <trkpt lat="46.09725" lon="6.36904">
        <ele>216</ele>
        <time>2019-06-29T07:08:04Z</time>
      </trkpt>
      <trkpt lat="46.09717" lon="6.36937">
        <ele>216</ele>
        <time>2019-06-29T07:08:08Z</time>
      </trkpt>
      <trkpt lat="46.09709" lon="6.36966">
        <ele>218</ele>
        <time>2019-06-29T07:08:12Z</time>
      </trkpt>
      <trkpt lat="46.09698" lon="6.36993">
        <ele>219</ele>
        <time>2019-06-29T07:08:16Z</time>
      </trkpt>
      <trkpt lat="46.09686" lon="6.37018">
        <ele>219</ele>
        <time>2019-06-29T07:08:20Z</time>
      </trkpt>
      <trkpt lat="46.09679" lon="6.37036">
        <ele>222</ele>
        <time>2019-06-29T07:08:24Z</time>
      </trkpt>
      <trkpt lat="46.09671" lon="6.37052">
        <ele>224</ele>
        <time>2019-06-29T07:08:28Z</time>
      </trkpt>
      <trkpt lat="46.09664" lon="6.37067">
        <ele>225</ele>
        <time>2019-06-29T07:08:32Z</time>
      </trkpt>
      <trkpt lat="46.09657" lon="6.37082">
        <ele>226</ele>
        <time>2019-06-29T07:08:36Z</time>
      </trkpt>
      <trkpt lat="46.09651" lon="6.37096">
        <ele>227</ele>
        <time>2019-06-29T07:08:40Z</time>
      </trkpt>
      <trkpt lat="46.09645" lon="6.37111">
        <ele>228</ele>
        <time>2019-06-29T07:08:44Z</time>
      </trkpt>
      <trkpt lat="46.09639" lon="6.37125">
        <ele>229</ele>
        <time>2019-06-29T07:08:48Z</time>
      </trkpt>
      <trkpt lat="46.09632" lon="6.37139">
        <ele>230</ele>
        <time>2019-06-29T07:08:52Z</time>
      </trkpt>
      <trkpt lat="46.09627" lon="6.37153">
        <ele>231</ele>
        <time>2019-06-29T07:08:56Z</time>
      </trkpt>
      <trkpt lat="46.09623" lon="6.37166">
        <ele>232</ele>
        <time>2019-06-29T07:09:00Z</time>
      </trkpt>
      <trkpt lat="46.09617" lon="6.37178">
        <ele>233</ele>
        <time>2019-06-29T07:09:04Z</time>
      </trkpt>
      <trkpt lat="46.09608" lon="6.37189">
        <ele>233</ele>
        <time>2019-06-29T07:09:08Z</time>
      </trkpt>
      <trkpt lat="46.09596" lon="6.37197">
        <ele>232</ele>
        <time>2019-06-29T07:09:12Z</time>
      </trkpt>
      <trkpt lat="46.09581" lon="6.37208">
        <ele>231</ele>
        <time>2019-06-29T07:09:16Z</time>
      </trkpt>
      <trkpt lat="46.09563" lon="6.37221">
        <ele>230</ele>
        <time>2019-06-29T07:09:20Z</time>
      </trkpt>
      <trkpt lat="46.09542" lon="6.37234">
        <ele>228</ele>
        <time>2019-06-29T07:09:24Z</time>
      </trkpt>
      <trkpt lat="46.0952" lon="6.3725">
        <ele>228</ele>
        <time>2019-06-29T07:09:28Z</time>
      </trkpt>
      <trkpt lat="46.095" lon="6.37272">
        <ele>226</ele>
        <time>2019-06-29T07:09:32Z</time>
      </trkpt>
      <trkpt lat="46.09479" lon="6.37297">
        <ele>224</ele>
        <time>2019-06-29T07:09:36Z</time>
      </trkpt>
      <trkpt lat="46.09456" lon="6.37323">
        <ele>223</ele>
        <time>2019-06-29T07:09:40Z</time>
      </trkpt>
      <trkpt lat="46.09433" lon="6.37351">
        <ele>221</ele>
        <time>2019-06-29T07:09:44Z</time>
      </trkpt>
      <trkpt lat="46.0941" lon="6.37378">
        <ele>221</ele>
        <time>2019-06-29T07:09:48Z</time>
      </trkpt>
      <trkpt lat="46.0939" lon="6.37412">
        <ele>220</ele>
        <time>2019-06-29T07:09:52Z</time>
      </trkpt>
      <trkpt lat="46.09373" lon="6.37451">
        <ele>218</ele>
        <time>2019-06-29T07:09:56Z</time>
      </trkpt>
      <trkpt lat="46.09357" lon="6.37493">
        <ele>217</ele>
        <time>2019-06-29T07:10:00Z</time>
      </trkpt>
      <trkpt lat="46.09339" lon="6.37532">
        <ele>215</ele>
        <time>2019-06-29T07:10:04Z</time>
      </trkpt>
      <trkpt lat="46.09315" lon="6.37568">
        <ele>214</ele>
        <time>2019-06-29T07:10:08Z</time>
      </trkpt>
      <trkpt lat="46.09288" lon="6.37602">
        <ele>212</ele>
        <time>2019-06-29T07:10:12Z</time>
      </trkpt>
      <trkpt lat="46.09262" lon="6.37635">
        <ele>211</ele>
        <time>2019-06-29T07:10:16Z</time>
      </trkpt>
      <trkpt lat="46.09241" lon="6.37674">
        <ele>210</ele>
        <time>2019-06-29T07:10:20Z</time>
      </trkpt>
      <trkpt lat="46.0922" lon="6.37715">
        <ele>208</ele>
        <time>2019-06-29T07:10:24Z</time>
      </trkpt>
      <trkpt lat="46.092" lon="6.37756">
        <ele>207</ele>
        <time>2019-06-29T07:10:28Z</time>
      </trkpt>
      <trkpt lat="46.0918" lon="6.37797">
        <ele>205</ele>
        <time>2019-06-29T07:10:32Z</time>
      </trkpt>
      <trkpt lat="46.0916" lon="6.37838">
        <ele>204</ele>
        <time>2019-06-29T07:10:36Z</time>
      </trkpt>
      <trkpt lat="46.09136" lon="6.37878">
        <ele>203</ele>
        <time>2019-06-29T07:10:40Z</time>
      </trkpt>
      <trkpt lat="46.0911" lon="6.37917">
        <ele>201</ele>
        <time>2019-06-29T07:10:44Z</time>
      </trkpt>
      <trkpt lat="46.09086" lon="6.37961">
        <ele>200</ele>
        <time>2019-06-29T07:10:48Z</time>
      </trkpt>
      <trkpt lat="46.09061" lon="6.38006">
        <ele>198</ele>
        <time>2019-06-29T07:10:52Z</time>
      </trkpt>
      <trkpt lat="46.09037" lon="6.38049">
        <ele>197</ele>
        <time>2019-06-29T07:10:56Z</time>
      </trkpt>
      <trkpt lat="46.09017" lon="6.38097">
        <ele>195</ele>
        <time>2019-06-29T07:11:00Z</time>
      </trkpt>
      <trkpt lat="46.09006" lon="6.38151">
        <ele>193</ele>
        <time>2019-06-29T07:11:04Z</time>
      </trkpt>
      <trkpt lat="46.08996" lon="6.38206">
        <ele>192</ele>
        <time>2019-06-29T07:11:08Z</time>
      </trkpt>
      <trkpt lat="46.08973" lon="6.38254">
        <ele>190</ele>
        <time>2019-06-29T07:11:12Z</time>
      </trkpt>
      <trkpt lat="46.08945" lon="6.38292">
        <ele>189</ele>
        <time>2019-06-29T07:11:16Z</time>
      </trkpt>
      <trkpt lat="46.08919" lon="6.38333">
        <ele>188</ele>
        <time>2019-06-29T07:11:20Z</time>
      </trkpt>
      <trkpt lat="46.08903" lon="6.38384">
        <ele>186</ele>
        <time>2019-06-29T07:11:24Z</time>
      </trkpt>
      <trkpt lat="46.08889" lon="6.38437">
        <ele>185</ele>
        <time>2019-06-29T07:11:28Z</time>
      </trkpt>
      <trkpt lat="46.08877" lon="6.38491">
        <ele>183</ele>
        <time>2019-06-29T07:11:32Z</time>
      </trkpt>
      <trkpt lat="46.08867" lon="6.38548">
        <ele>181</ele>
        <time>2019-06-29T07:11:36Z</time>
      </trkpt>
      <trkpt lat="46.08859" lon="6.38605">
        <ele>179</ele>
        <time>2019-06-29T07:11:40Z</time>
      </trkpt>
      <trkpt lat="46.08846" lon="6.38661">
        <ele>177</ele>
        <time>2019-06-29T07:11:44Z</time>
      </trkpt>
      <trkpt lat="46.08824" lon="6.3871">
        <ele>175</ele>
        <time>2019-06-29T07:11:48Z</time>
      </trkpt>
      <trkpt lat="46.08802" lon="6.38762">
        <ele>172</ele>
        <time>2019-06-29T07:11:52Z</time>
      </trkpt>
      <trkpt lat="46.08774" lon="6.38807">
        <ele>171</ele>
        <time>2019-06-29T07:11:56Z</time>
      </trkpt>
      <trkpt lat="46.08748" lon="6.38855">
        <ele>169</ele>
        <time>2019-06-29T07:12:00Z</time>
      </trkpt>
      <trkpt lat="46.08734" lon="6.38913">
        <ele>167</ele>
        <time>2019-06-29T07:12:04Z</time>
      </trkpt>
      <trkpt lat="46.08736" lon="6.38971">
        <ele>169</ele>
        <time>2019-06-29T07:12:08Z</time>
      </trkpt>
      <trkpt lat="46.08748" lon="6.39019">
        <ele>169</ele>
        <time>2019-06-29T07:12:12Z</time>
      </trkpt>
      <trkpt lat="46.08732" lon="6.39056">
        <ele>169</ele>
        <time>2019-06-29T07:12:16Z</time>
      </trkpt>
      <trkpt lat="46.08707" lon="6.39052">
        <ele>169</ele>
        <time>2019-06-29T07:12:20Z</time>
      </trkpt>
      <trkpt lat="46.08699" lon="6.39079">
        <ele>168</ele>
        <time>2019-06-29T07:12:24Z</time>
      </trkpt>
      <trkpt lat="46.08704" lon="6.39115">
        <ele>167</ele>
        <time>2019-06-29T07:12:28Z</time>
      </trkpt>
      <trkpt lat="46.08704" lon="6.39154">
        <ele>167</ele>
        <time>2019-06-29T07:12:32Z</time>
      </trkpt>
      <trkpt lat="46.08703" lon="6.39194">
        <ele>167</ele>
        <time>2019-06-29T07:12:36Z</time>
      </trkpt>
      <trkpt lat="46.08702" lon="6.39234">
        <ele>167</ele>
        <time>2019-06-29T07:12:40Z</time>
      </trkpt>
      <trkpt lat="46.087" lon="6.39273">
        <ele>167</ele>
        <time>2019-06-29T07:12:44Z</time>
      </trkpt>
      <trkpt lat="46.08694" lon="6.39309">
        <ele>169</ele>
        <time>2019-06-29T07:12:48Z</time>
      </trkpt>
      <trkpt lat="46.08688" lon="6.39343">
        <ele>169</ele>
        <time>2019-06-29T07:12:52Z</time>
      </trkpt>
      <trkpt lat="46.0868" lon="6.39379">
        <ele>169</ele>
        <time>2019-06-29T07:12:56Z</time>
      </trkpt>
      <trkpt lat="46.08672" lon="6.39417">
        <ele>168</ele>
        <time>2019-06-29T07:13:00Z</time>
      </trkpt>
      <trkpt lat="46.08665" lon="6.39455">
        <ele>168</ele>
        <time>2019-06-29T07:13:04Z</time>
      </trkpt>
      <trkpt lat="46.08661" lon="6.39496">
        <ele>167</ele>
        <time>2019-06-29T07:13:08Z</time>
      </trkpt>
      <trkpt lat="46.08662" lon="6.39539">
        <ele>165</ele>
        <time>2019-06-29T07:13:12Z</time>
      </trkpt>
      <trkpt lat="46.08667" lon="6.39586">
        <ele>163</ele>
        <time>2019-06-29T07:13:16Z</time>
      </trkpt>
      <trkpt lat="46.08673" lon="6.39636">
        <ele>161</ele>
        <time>2019-06-29T07:13:20Z</time>
      </trkpt>
      <trkpt lat="46.0868" lon="6.39687">
        <ele>160</ele>
        <time>2019-06-29T07:13:24Z</time>
      </trkpt>
      <trkpt lat="46.08685" lon="6.3974">
        <ele>158</ele>
        <time>2019-06-29T07:13:28Z</time>
      </trkpt>
      <trkpt lat="46.08685" lon="6.39793">
        <ele>157</ele>
        <time>2019-06-29T07:13:32Z</time>
      </trkpt>
      <trkpt lat="46.08684" lon="6.39845">
        <ele>155</ele>
        <time>2019-06-29T07:13:36Z</time>
      </trkpt>
      <trkpt lat="46.08676" lon="6.39897">
        <ele>153</ele>
        <time>2019-06-29T07:13:40Z</time>
      </trkpt>
      <trkpt lat="46.08661" lon="6.39948">
        <ele>153</ele>
        <time>2019-06-29T07:13:44Z</time>
      </trkpt>
      <trkpt lat="46.0864" lon="6.39991">
        <ele>153</ele>
        <time>2019-06-29T07:13:48Z</time>
      </trkpt>
      <trkpt lat="46.08615" lon="6.40024">
        <ele>154</ele>
        <time>2019-06-29T07:13:52Z</time>
      </trkpt>
      <trkpt lat="46.08587" lon="6.40053">
        <ele>155</ele>
        <time>2019-06-29T07:13:56Z</time>
      </trkpt>
      <trkpt lat="46.0856" lon="6.40078">
        <ele>154</ele>
        <time>2019-06-29T07:14:00Z</time>
      </trkpt>
      <trkpt lat="46.08533" lon="6.40102">
        <ele>154</ele>
        <time>2019-06-29T07:14:04Z</time>
      </trkpt>
      <trkpt lat="46.08507" lon="6.40125">
        <ele>155</ele>
        <time>2019-06-29T07:14:08Z</time>
      </trkpt>
      <trkpt lat="46.08481" lon="6.40148">
        <ele>155</ele>
        <time>2019-06-29T07:14:12Z</time>
      </trkpt>
      <trkpt lat="46.08456" lon="6.4017">
        <ele>155</ele>
        <time>2019-06-29T07:14:16Z</time>
      </trkpt>
      <trkpt lat="46.0843" lon="6.40192">
        <ele>155</ele>
        <time>2019-06-29T07:14:20Z</time>
      </trkpt>
      <trkpt lat="46.08405" lon="6.40213">
        <ele>155</ele>
        <time>2019-06-29T07:14:24Z</time>
      </trkpt>
      <trkpt lat="46.0838" lon="6.40236">
        <ele>156</ele>
        <time>2019-06-29T07:14:28Z</time>
      </trkpt>
      <trkpt lat="46.08355" lon="6.40258">
        <ele>155</ele>
        <time>2019-06-29T07:14:32Z</time>
      </trkpt>
      <trkpt lat="46.08331" lon="6.40281">
        <ele>155</ele>
        <time>2019-06-29T07:14:36Z</time>
      </trkpt>
      <trkpt lat="46.08307" lon="6.40303">
        <ele>155</ele>
        <time>2019-06-29T07:14:40Z</time>
      </trkpt>
      <trkpt lat="46.08282" lon="6.40327">
        <ele>155</ele>
        <time>2019-06-29T07:14:44Z</time>
      </trkpt>
      <trkpt lat="46.08256" lon="6.40348">
        <ele>155</ele>
        <time>2019-06-29T07:14:48Z</time>
      </trkpt>
      <trkpt lat="46.08232" lon="6.4037">
        <ele>155</ele>
        <time>2019-06-29T07:14:52Z</time>
      </trkpt>
      <trkpt lat="46.08211" lon="6.40392">
        <ele>156</ele>
        <time>2019-06-29T07:14:56Z</time>
      </trkpt>
      <trkpt lat="46.08189" lon="6.4041">
        <ele>156</ele>
        <time>2019-06-29T07:15:00Z</time>
      </trkpt>
      <trkpt lat="46.08166" lon="6.40428">
        <ele>155</ele>
        <time>2019-06-29T07:15:04Z</time>
      </trkpt>
      <trkpt lat="46.08144" lon="6.40448">
        <ele>156</ele>
        <time>2019-06-29T07:15:08Z</time>
      </trkpt>
      <trkpt lat="46.08122" lon="6.40469">
        <ele>156</ele>
        <time>2019-06-29T07:15:12Z</time>
      </trkpt>
      <trkpt lat="46.08101" lon="6.40491">
        <ele>156</ele>
        <time>2019-06-29T07:15:16Z</time>
      </trkpt>
      <trkpt lat="46.08081" lon="6.40509">
        <ele>156</ele>
        <time>2019-06-29T07:15:20Z</time>
      </trkpt>
      <trkpt lat="46.08061" lon="6.40524">
        <ele>156</ele>
        <time>2019-06-29T07:15:24Z</time>
      </trkpt>
      <trkpt lat="46.0804" lon="6.4054">
        <ele>156</ele>
        <time>2019-06-29T07:15:28Z</time>
      </trkpt>
      <trkpt lat="46.08021" lon="6.40557">
        <ele>157</ele>
        <time>2019-06-29T07:15:32Z</time>
      </trkpt>
      <trkpt lat="46.08" lon="6.40574">
        <ele>157</ele>
        <time>2019-06-29T07:15:36Z</time>
      </trkpt>
      <trkpt lat="46.0798" lon="6.40594">
        <ele>157</ele>
        <time>2019-06-29T07:15:40Z</time>
      </trkpt>
      <trkpt lat="46.0796" lon="6.40613">
        <ele>158</ele>
        <time>2019-06-29T07:15:44Z</time>
      </trkpt>
      <trkpt lat="46.07941" lon="6.40628">
        <ele>159</ele>
        <time>2019-06-29T07:15:48Z</time>
      </trkpt>
      <trkpt lat="46.07924" lon="6.40643">
        <ele>160</ele>
        <time>2019-06-29T07:15:52Z</time>
      </trkpt>
      <trkpt lat="46.07906" lon="6.40658">
        <ele>160</ele>
        <time>2019-06-29T07:15:56Z</time>
      </trkpt>
      <trkpt lat="46.07889" lon="6.40674">
        <ele>161</ele>
        <time>2019-06-29T07:16:00Z</time>
      </trkpt>
      <trkpt lat="46.07872" lon="6.40695">
        <ele>161</ele>
        <time>2019-06-29T07:16:04Z</time>
      </trkpt>
      <trkpt lat="46.07858" lon="6.40713">
        <ele>160</ele>
        <time>2019-06-29T07:16:08Z</time>
      </trkpt>
      <trkpt lat="46.07838" lon="6.40728">
        <ele>161</ele>
        <time>2019-06-29T07:16:12Z</time>
      </trkpt>
      <trkpt lat="46.07818" lon="6.40742">
        <ele>161</ele>
        <time>2019-06-29T07:16:16Z</time>
      </trkpt>
      <trkpt lat="46.07801" lon="6.4076">
        <ele>161</ele>
        <time>2019-06-29T07:16:20Z</time>
      </trkpt>
      <trkpt lat="46.07786" lon="6.40773">
        <ele>161</ele>
        <time>2019-06-29T07:16:24Z</time>
      </trkpt>
      <trkpt lat="46.0777" lon="6.40788">
        <ele>161</ele>
        <time>2019-06-29T07:16:28Z</time>
      </trkpt>
      <trkpt lat="46.07752" lon="6.40807">
        <ele>162</ele>
        <time>2019-06-29T07:16:32Z</time>
      </trkpt>
      <trkpt lat="46.07736" lon="6.40824">
        <ele>162</ele>
        <time>2019-06-29T07:16:36Z</time>
      </trkpt>
      <trkpt lat="46.07718" lon="6.40844">
        <ele>162</ele>
        <time>2019-06-29T07:16:40Z</time>
      </trkpt>
      <trkpt lat="46.07702" lon="6.40861">
        <ele>163</ele>
        <time>2019-06-29T07:16:44Z</time>
      </trkpt>
      <trkpt lat="46.07701" lon="6.40881">
        <ele>163</ele>
        <time>2019-06-29T07:16:48Z</time>
      </trkpt>
      <trkpt lat="46.07707" lon="6.40905">
        <ele>162</ele>
        <time>2019-06-29T07:16:52Z</time>
      </trkpt>
      <trkpt lat="46.07716" lon="6.40933">
        <ele>161</ele>
        <time>2019-06-29T07:16:56Z</time>
      </trkpt>
      <trkpt lat="46.07726" lon="6.40963">
        <ele>161</ele>
        <time>2019-06-29T07:17:00Z</time>
      </trkpt>
      <trkpt lat="46.07734" lon="6.40993">
        <ele>161</ele>
        <time>2019-06-29T07:17:04Z</time>
      </trkpt>
      <trkpt lat="46.07744" lon="6.41021">
        <ele>161</ele>
        <time>2019-06-29T07:17:08Z</time>
      </trkpt>
      <trkpt lat="46.07754" lon="6.41049">
        <ele>161</ele>
        <time>2019-06-29T07:17:12Z</time>
      </trkpt>
      <trkpt lat="46.07762" lon="6.41077">
        <ele>161</ele>
        <time>2019-06-29T07:17:16Z</time>
      </trkpt>
      <trkpt lat="46.07772" lon="6.41107">
        <ele>161</ele>
        <time>2019-06-29T07:17:20Z</time>
      </trkpt>
      <trkpt lat="46.07783" lon="6.41138">
        <ele>160</ele>
        <time>2019-06-29T07:17:24Z</time>
      </trkpt>
      <trkpt lat="46.07794" lon="6.4117">
        <ele>160</ele>
        <time>2019-06-29T07:17:28Z</time>
      </trkpt>
      <trkpt lat="46.07803" lon="6.41204">
        <ele>160</ele>
        <time>2019-06-29T07:17:32Z</time>
      </trkpt>
      <trkpt lat="46.07813" lon="6.41239">
        <ele>159</ele>
        <time>2019-06-29T07:17:36Z</time>
      </trkpt>
      <trkpt lat="46.07815" lon="6.41276">
        <ele>158</ele>
        <time>2019-06-29T07:17:40Z</time>
      </trkpt>
      <trkpt lat="46.07812" lon="6.41314">
        <ele>159</ele>
        <time>2019-06-29T07:17:44Z</time>
      </trkpt>
      <trkpt lat="46.07808" lon="6.41353">
        <ele>159</ele>
        <time>2019-06-29T07:17:48Z</time>
      </trkpt>
      <trkpt lat="46.07806" lon="6.4139">
        <ele>159</ele>
        <time>2019-06-29T07:17:52Z</time>
      </trkpt>
      <trkpt lat="46.078" lon="6.41426">
        <ele>159</ele>
        <time>2019-06-29T07:17:56Z</time>
      </trkpt>
      <trkpt lat="46.07795" lon="6.41459">
        <ele>159</ele>
        <time>2019-06-29T07:18:00Z</time>
      </trkpt>
      <trkpt lat="46.07796" lon="6.41493">
        <ele>159</ele>
        <time>2019-06-29T07:18:04Z</time>
      </trkpt>
      <trkpt lat="46.07792" lon="6.41528">
        <ele>159</ele>
        <time>2019-06-29T07:18:08Z</time>
      </trkpt>
      <trkpt lat="46.07793" lon="6.41562">
        <ele>160</ele>
        <time>2019-06-29T07:18:12Z</time>
      </trkpt>
      <trkpt lat="46.07798" lon="6.41595">
        <ele>160</ele>
        <time>2019-06-29T07:18:16Z</time>
      </trkpt>
      <trkpt lat="46.07808" lon="6.41627">
        <ele>160</ele>
        <time>2019-06-29T07:18:20Z</time>
      </trkpt>
      <trkpt lat="46.07819" lon="6.41659">
        <ele>159</ele>
        <time>2019-06-29T07:18:24Z</time>
      </trkpt>
      <trkpt lat="46.0783" lon="6.41691">
        <ele>159</ele>
        <time>2019-06-29T07:18:28Z</time>
      </trkpt>
      <trkpt lat="46.0784" lon="6.41725">
        <ele>159</ele>
        <time>2019-06-29T07:18:32Z</time>
      </trkpt>
      <trkpt lat="46.07849" lon="6.41758">
        <ele>160</ele>
        <time>2019-06-29T07:18:36Z</time>
      </trkpt>
      <trkpt lat="46.07858" lon="6.41795">
        <ele>160</ele>
        <time>2019-06-29T07:18:40Z</time>
      </trkpt>
      <trkpt lat="46.07866" lon="6.41831">
        <ele>161</ele>
        <time>2019-06-29T07:18:44Z</time>
      </trkpt>
      <trkpt lat="46.07874" lon="6.41867">
        <ele>160</ele>
        <time>2019-06-29T07:18:48Z</time>
      </trkpt>
      <trkpt lat="46.0788" lon="6.41905">
        <ele>160</ele>
        <time>2019-06-29T07:18:52Z</time>
      </trkpt>
      <trkpt lat="46.07887" lon="6.41941">
        <ele>160</ele>
        <time>2019-06-29T07:18:56Z</time>
      </trkpt>
      <trkpt lat="46.07892" lon="6.41978">
        <ele>160</ele>
        <time>2019-06-29T07:19:00Z</time>
      </trkpt>
      <trkpt lat="46.07897" lon="6.42015">
        <ele>161</ele>
        <time>2019-06-29T07:19:04Z</time>
      </trkpt>
      <trkpt lat="46.07901" lon="6.42052">
        <ele>162</ele>
        <time>2019-06-29T07:19:08Z</time>
      </trkpt>
      <trkpt lat="46.07901" lon="6.42089">
        <ele>161</ele>
        <time>2019-06-29T07:19:12Z</time>
      </trkpt>
      <trkpt lat="46.07891" lon="6.42123">
        <ele>160</ele>
        <time>2019-06-29T07:19:16Z</time>
      </trkpt>
      <trkpt lat="46.07872" lon="6.4215">
        <ele>161</ele>
        <time>2019-06-29T07:19:20Z</time>
      </trkpt>
      <trkpt lat="46.07856" lon="6.42173">
        <ele>162</ele>
        <time>2019-06-29T07:19:24Z</time>
      </trkpt>
      <trkpt lat="46.0784" lon="6.422">
        <ele>161</ele>
        <time>2019-06-29T07:19:28Z</time>
      </trkpt>
      <trkpt lat="46.07823" lon="6.4223">
        <ele>160</ele>
        <time>2019-06-29T07:19:32Z</time>
      </trkpt>
      <trkpt lat="46.07806" lon="6.42259">
        <ele>160</ele>
        <time>2019-06-29T07:19:36Z</time>
      </trkpt>
      <trkpt lat="46.07791" lon="6.42287">
        <ele>161</ele>
        <time>2019-06-29T07:19:40Z</time>
      </trkpt>
      <trkpt lat="46.07783" lon="6.42303">
        <ele>163</ele>
        <time>2019-06-29T07:19:44Z</time>
      </trkpt>
      <trkpt lat="46.07788" lon="6.42301">
        <ele>162</ele>
        <time>2019-06-29T07:19:48Z</time>
      </trkpt>
      <trkpt lat="46.07799" lon="6.42283">
        <ele>162</ele>
        <time>2019-06-29T07:19:52Z</time>
      </trkpt>
      <trkpt lat="46.07812" lon="6.42261">
        <ele>162</ele>
        <time>2019-06-29T07:19:56Z</time>
      </trkpt>
      <trkpt lat="46.07825" lon="6.42237">
        <ele>161</ele>
        <time>2019-06-29T07:20:00Z</time>
      </trkpt>
      <trkpt lat="46.07838" lon="6.42214">
        <ele>163</ele>
        <time>2019-06-29T07:20:04Z</time>
      </trkpt>
      <trkpt lat="46.07843" lon="6.4221">
        <ele>163</ele>
        <time>2019-06-29T07:20:16Z</time>
      </trkpt>
      <trkpt lat="46.07845" lon="6.42203">
        <ele>163</ele>
        <time>2019-06-29T07:20:20Z</time>
      </trkpt>
      <trkpt lat="46.07851" lon="6.42187">
        <ele>163</ele>
        <time>2019-06-29T07:20:24Z</time>
      </trkpt>
      <trkpt lat="46.07861" lon="6.42171">
        <ele>162</ele>
        <time>2019-06-29T07:20:28Z</time>
      </trkpt>
      <trkpt lat="46.07874" lon="6.42154">
        <ele>163</ele>
        <time>2019-06-29T07:20:32Z</time>
      </trkpt>
      <trkpt lat="46.07885" lon="6.4214">
        <ele>163</ele>
        <time>2019-06-29T07:20:36Z</time>
      </trkpt>
      <trkpt lat="46.07881" lon="6.42137">
        <ele>163</ele>
        <time>2019-06-29T07:20:40Z</time>
      </trkpt>
      <trkpt lat="46.0787" lon="6.42154">
        <ele>162</ele>
        <time>2019-06-29T07:20:44Z</time>
      </trkpt>
      <trkpt lat="46.07858" lon="6.42171">
        <ele>162</ele>
        <time>2019-06-29T07:20:48Z</time>
      </trkpt>
      <trkpt lat="46.07845" lon="6.42193">
        <ele>161</ele>
        <time>2019-06-29T07:20:52Z</time>
      </trkpt>
      <trkpt lat="46.0783" lon="6.42218">
        <ele>161</ele>
        <time>2019-06-29T07:20:56Z</time>
      </trkpt>
      <trkpt lat="46.07814" lon="6.42246">
        <ele>160</ele>
        <time>2019-06-29T07:21:00Z</time>
      </trkpt>
      <trkpt lat="46.07798" lon="6.42275">
        <ele>160</ele>
        <time>2019-06-29T07:21:04Z</time>
      </trkpt>
      <trkpt lat="46.0778" lon="6.42305">
        <ele>160</ele>
        <time>2019-06-29T07:21:08Z</time>
      </trkpt>
      <trkpt lat="46.07763" lon="6.42336">
        <ele>160</ele>
        <time>2019-06-29T07:21:12Z</time>
      </trkpt>
      <trkpt lat="46.07746" lon="6.42367">
        <ele>159</ele>
        <time>2019-06-29T07:21:16Z</time>
      </trkpt>
      <trkpt lat="46.07729" lon="6.42398">
        <ele>159</ele>
        <time>2019-06-29T07:21:20Z</time>
      </trkpt>
      <trkpt lat="46.07711" lon="6.42431">
        <ele>159</ele>
        <time>2019-06-29T07:21:24Z</time>
      </trkpt>
      <trkpt lat="46.07696" lon="6.42466">
        <ele>158</ele>
        <time>2019-06-29T07:21:28Z</time>
      </trkpt>
      <trkpt lat="46.07688" lon="6.42502">
        <ele>159</ele>
        <time>2019-06-29T07:21:32Z</time>
      </trkpt>
      <trkpt lat="46.07682" lon="6.4254">
        <ele>159</ele>
        <time>2019-06-29T07:21:36Z</time>
      </trkpt>
      <trkpt lat="46.07677" lon="6.42578">
        <ele>159</ele>
        <time>2019-06-29T07:21:40Z</time>
      </trkpt>
      <trkpt lat="46.07673" lon="6.42617">
        <ele>159</ele>
        <time>2019-06-29T07:21:44Z</time>
      </trkpt>
      <trkpt lat="46.07669" lon="6.42656">
        <ele>160</ele>
        <time>2019-06-29T07:21:48Z</time>
      </trkpt>
      <trkpt lat="46.07668" lon="6.42694">
        <ele>161</ele>
        <time>2019-06-29T07:21:52Z</time>
      </trkpt>
      <trkpt lat="46.07671" lon="6.42729">
        <ele>163</ele>
        <time>2019-06-29T07:21:56Z</time>
      </trkpt>
      <trkpt lat="46.07673" lon="6.42758">
        <ele>164</ele>
        <time>2019-06-29T07:22:00Z</time>
      </trkpt>
      <trkpt lat="46.07666" lon="6.42781">
        <ele>164</ele>
        <time>2019-06-29T07:22:04Z</time>
      </trkpt>
      <trkpt lat="46.07663" lon="6.4281">
        <ele>164</ele>
        <time>2019-06-29T07:22:08Z</time>
      </trkpt>
      <trkpt lat="46.07665" lon="6.4283">
        <ele>164</ele>
        <time>2019-06-29T07:22:12Z</time>
      </trkpt>
      <trkpt lat="46.07675" lon="6.42838">
        <ele>164</ele>
        <time>2019-06-29T07:22:16Z</time>
      </trkpt>
      <trkpt lat="46.07688" lon="6.42837">
        <ele>163</ele>
        <time>2019-06-29T07:22:20Z</time>
      </trkpt>
      <trkpt lat="46.077" lon="6.42851">
        <ele>162</ele>
        <time>2019-06-29T07:22:24Z</time>
      </trkpt>
      <trkpt lat="46.07716" lon="6.42869">
        <ele>161</ele>
        <time>2019-06-29T07:22:28Z</time>
      </trkpt>
      <trkpt lat="46.07738" lon="6.42878">
        <ele>160</ele>
        <time>2019-06-29T07:22:32Z</time>
      </trkpt>
      <trkpt lat="46.07761" lon="6.42884">
        <ele>160</ele>
        <time>2019-06-29T07:22:36Z</time>
      </trkpt>
      <trkpt lat="46.07785" lon="6.42888">
        <ele>161</ele>
        <time>2019-06-29T07:22:40Z</time>
      </trkpt>
      <trkpt lat="46.07796" lon="6.42895">
        <ele>161</ele>
        <time>2019-06-29T07:22:44Z</time>
      </trkpt>
      <trkpt lat="46.07795" lon="6.42917">
        <ele>161</ele>
        <time>2019-06-29T07:22:48Z</time>
      </trkpt>
      <trkpt lat="46.07793" lon="6.42946">
        <ele>162</ele>
        <time>2019-06-29T07:22:52Z</time>
      </trkpt>
      <trkpt lat="46.07795" lon="6.42969">
        <ele>161</ele>
        <time>2019-06-29T07:22:56Z</time>
      </trkpt>
      <trkpt lat="46.078" lon="6.42989">
        <ele>161</ele>
        <time>2019-06-29T07:23:00Z</time>
      </trkpt>
      <trkpt lat="46.07797" lon="6.4302">
        <ele>160</ele>
        <time>2019-06-29T07:23:04Z</time>
      </trkpt>
      <trkpt lat="46.07793" lon="6.43054">
        <ele>160</ele>
        <time>2019-06-29T07:23:08Z</time>
      </trkpt>
      <trkpt lat="46.07789" lon="6.4309">
        <ele>160</ele>
        <time>2019-06-29T07:23:12Z</time>
      </trkpt>
      <trkpt lat="46.07786" lon="6.43126">
        <ele>161</ele>
        <time>2019-06-29T07:23:16Z</time>
      </trkpt>
      <trkpt lat="46.07782" lon="6.43163">
        <ele>160</ele>
        <time>2019-06-29T07:23:20Z</time>
      </trkpt>
      <trkpt lat="46.07778" lon="6.432">
        <ele>160</ele>
        <time>2019-06-29T07:23:24Z</time>
      </trkpt>
      <trkpt lat="46.07774" lon="6.43237">
        <ele>160</ele>
        <time>2019-06-29T07:23:28Z</time>
      </trkpt>
      <trkpt lat="46.07769" lon="6.43275">
        <ele>160</ele>
        <time>2019-06-29T07:23:32Z</time>
      </trkpt>
      <trkpt lat="46.07765" lon="6.43313">
        <ele>161</ele>
        <time>2019-06-29T07:23:36Z</time>
      </trkpt>
      <trkpt lat="46.0776" lon="6.43352">
        <ele>161</ele>
        <time>2019-06-29T07:23:40Z</time>
      </trkpt>
      <trkpt lat="46.07756" lon="6.4339">
        <ele>161</ele>
        <time>2019-06-29T07:23:44Z</time>
      </trkpt>
      <trkpt lat="46.07752" lon="6.43429">
        <ele>161</ele>
        <time>2019-06-29T07:23:48Z</time>
      </trkpt>
      <trkpt lat="46.07748" lon="6.43467">
        <ele>161</ele>
        <time>2019-06-29T07:23:52Z</time>
      </trkpt>
      <trkpt lat="46.07744" lon="6.43506">
        <ele>161</ele>
        <time>2019-06-29T07:23:56Z</time>
      </trkpt>
      <trkpt lat="46.0774" lon="6.43545">
        <ele>161</ele>
        <time>2019-06-29T07:24:00Z</time>
      </trkpt>
      <trkpt lat="46.07736" lon="6.43584">
        <ele>161</ele>
        <time>2019-06-29T07:24:04Z</time>
      </trkpt>
      <trkpt lat="46.07732" lon="6.43625">
        <ele>161</ele>
        <time>2019-06-29T07:24:08Z</time>
      </trkpt>
      <trkpt lat="46.07728" lon="6.43665">
        <ele>161</ele>
        <time>2019-06-29T07:24:12Z</time>
      </trkpt>
      <trkpt lat="46.07723" lon="6.43705">
        <ele>161</ele>
        <time>2019-06-29T07:24:16Z</time>
      </trkpt>
      <trkpt lat="46.07719" lon="6.43745">
        <ele>161</ele>
        <time>2019-06-29T07:24:20Z</time>
      </trkpt>
      <trkpt lat="46.07715" lon="6.43784">
        <ele>161</ele>
        <time>2019-06-29T07:24:24Z</time>
      </trkpt>
      <trkpt lat="46.0771" lon="6.43823">
        <ele>161</ele>
        <time>2019-06-29T07:24:28Z</time>
      </trkpt>
      <trkpt lat="46.07706" lon="6.43862">
        <ele>161</ele>
        <time>2019-06-29T07:24:32Z</time>
      </trkpt>
      <trkpt lat="46.07701" lon="6.43901">
        <ele>161</ele>
        <time>2019-06-29T07:24:36Z</time>
      </trkpt>
      <trkpt lat="46.07697" lon="6.4394">
        <ele>162</ele>
        <time>2019-06-29T07:24:40Z</time>
      </trkpt>
      <trkpt lat="46.07693" lon="6.43979">
        <ele>162</ele>
        <time>2019-06-29T07:24:44Z</time>
      </trkpt>
      <trkpt lat="46.0769" lon="6.44009">
        <ele>165</ele>
        <time>2019-06-29T07:24:48Z</time>
      </trkpt>
      <trkpt lat="46.07684" lon="6.4402">
        <ele>165</ele>
        <time>2019-06-29T07:24:52Z</time>
      </trkpt>
      <trkpt lat="46.07674" lon="6.44029">
        <ele>166</ele>
        <time>2019-06-29T07:24:56Z</time>
      </trkpt>
      <trkpt lat="46.0767" lon="6.44042">
        <ele>165</ele>
        <time>2019-06-29T07:25:00Z</time>
      </trkpt>
      <trkpt lat="46.07671" lon="6.44065">
        <ele>164</ele>
        <time>2019-06-29T07:25:04Z</time>
      </trkpt>
      <trkpt lat="46.07671" lon="6.44093">
        <ele>164</ele>
        <time>2019-06-29T07:25:08Z</time>
      </trkpt>
      <trkpt lat="46.0767" lon="6.44127">
        <ele>163</ele>
        <time>2019-06-29T07:25:12Z</time>
      </trkpt>
      <trkpt lat="46.07668" lon="6.44162">
        <ele>163</ele>
        <time>2019-06-29T07:25:16Z</time>
      </trkpt>
      <trkpt lat="46.07664" lon="6.44199">
        <ele>162</ele>
        <time>2019-06-29T07:25:20Z</time>
      </trkpt>
      <trkpt lat="46.07661" lon="6.44236">
        <ele>163</ele>
        <time>2019-06-29T07:25:24Z</time>
      </trkpt>
      <trkpt lat="46.07657" lon="6.44274">
        <ele>163</ele>
        <time>2019-06-29T07:25:28Z</time>
      </trkpt>
      <trkpt lat="46.07654" lon="6.44311">
        <ele>163</ele>
        <time>2019-06-29T07:25:32Z</time>
      </trkpt>
      <trkpt lat="46.0765" lon="6.44348">
        <ele>164</ele>
        <time>2019-06-29T07:25:36Z</time>
      </trkpt>
      <trkpt lat="46.07646" lon="6.44386">
        <ele>163</ele>
        <time>2019-06-29T07:25:40Z</time>
      </trkpt>
      <trkpt lat="46.07642" lon="6.44425">
        <ele>163</ele>
        <time>2019-06-29T07:25:44Z</time>
      </trkpt>
      <trkpt lat="46.07638" lon="6.44465">
        <ele>163</ele>
        <time>2019-06-29T07:25:48Z</time>
      </trkpt>
      <trkpt lat="46.07633" lon="6.44505">
        <ele>163</ele>
        <time>2019-06-29T07:25:52Z</time>
      </trkpt>
      <trkpt lat="46.07629" lon="6.44543">
        <ele>163</ele>
        <time>2019-06-29T07:25:56Z</time>
      </trkpt>
      <trkpt lat="46.07625" lon="6.44579">
        <ele>165</ele>
        <time>2019-06-29T07:26:00Z</time>
      </trkpt>
      <trkpt lat="46.07622" lon="6.44605">
        <ele>167</ele>
        <time>2019-06-29T07:26:04Z</time>
      </trkpt>
      <trkpt lat="46.07621" lon="6.44625">
        <ele>166</ele>
        <time>2019-06-29T07:26:08Z</time>
      </trkpt>
      <trkpt lat="46.07621" lon="6.44645">
        <ele>167</ele>
        <time>2019-06-29T07:26:12Z</time>
      </trkpt>
      <trkpt lat="46.07622" lon="6.44659">
        <ele>167</ele>
        <time>2019-06-29T07:26:16Z</time>
      </trkpt>
      <trkpt lat="46.07619" lon="6.44681">
        <ele>165</ele>
        <time>2019-06-29T07:26:20Z</time>
      </trkpt>
      <trkpt lat="46.07615" lon="6.44711">
        <ele>164</ele>
        <time>2019-06-29T07:26:24Z</time>
      </trkpt>
      <trkpt lat="46.0761" lon="6.44749">
        <ele>163</ele>
        <time>2019-06-29T07:26:28Z</time>
      </trkpt>
      <trkpt lat="46.07606" lon="6.44788">
        <ele>163</ele>
        <time>2019-06-29T07:26:32Z</time>
      </trkpt>
      <trkpt lat="46.07601" lon="6.44826">
        <ele>163</ele>
        <time>2019-06-29T07:26:36Z</time>
      </trkpt>
      <trkpt lat="46.07597" lon="6.44864">
        <ele>163</ele>
        <time>2019-06-29T07:26:40Z</time>
      </trkpt>
      <trkpt lat="46.07593" lon="6.44902">
        <ele>163</ele>
        <time>2019-06-29T07:26:44Z</time>
      </trkpt>
      <trkpt lat="46.0759" lon="6.4494">
        <ele>164</ele>
        <time>2019-06-29T07:26:48Z</time>
      </trkpt>
      <trkpt lat="46.07586" lon="6.44979">
        <ele>163</ele>
        <time>2019-06-29T07:26:52Z</time>
      </trkpt>
      <trkpt lat="46.07582" lon="6.45016">
        <ele>163</ele>
        <time>2019-06-29T07:26:56Z</time>
      </trkpt>
      <trkpt lat="46.07575" lon="6.45053">
        <ele>163</ele>
        <time>2019-06-29T07:27:00Z</time>
      </trkpt>
      <trkpt lat="46.07571" lon="6.45091">
        <ele>163</ele>
        <time>2019-06-29T07:27:04Z</time>
      </trkpt>
      <trkpt lat="46.07568" lon="6.45129">
        <ele>163</ele>
        <time>2019-06-29T07:27:08Z</time>
      </trkpt>
      <trkpt lat="46.07564" lon="6.45167">
        <ele>164</ele>
        <time>2019-06-29T07:27:12Z</time>
      </trkpt>
      <trkpt lat="46.0756" lon="6.45206">
        <ele>164</ele>
        <time>2019-06-29T07:27:16Z</time>
      </trkpt>
      <trkpt lat="46.07556" lon="6.45245">
        <ele>164</ele>
        <time>2019-06-29T07:27:20Z</time>
      </trkpt>
      <trkpt lat="46.07552" lon="6.45284">
        <ele>164</ele>
        <time>2019-06-29T07:27:24Z</time>
      </trkpt>
      <trkpt lat="46.07548" lon="6.45323">
        <ele>164</ele>
        <time>2019-06-29T07:27:28Z</time>
      </trkpt>
      <trkpt lat="46.07543" lon="6.45363">
        <ele>163</ele>
        <time>2019-06-29T07:27:32Z</time>
      </trkpt>
      <trkpt lat="46.07539" lon="6.45401">
        <ele>164</ele>
        <time>2019-06-29T07:27:36Z</time>
      </trkpt>
      <trkpt lat="46.07535" lon="6.4544">
        <ele>164</ele>
        <time>2019-06-29T07:27:40Z</time>
      </trkpt>
      <trkpt lat="46.07531" lon="6.45478">
        <ele>165</ele>
        <time>2019-06-29T07:27:44Z</time>
      </trkpt>
      <trkpt lat="46.07527" lon="6.45508">
        <ele>167</ele>
        <time>2019-06-29T07:27:48Z</time>
      </trkpt>
      <trkpt lat="46.07526" lon="6.4552">
        <ele>168</ele>
        <time>2019-06-29T07:27:52Z</time>
      </trkpt>
      <trkpt lat="46.07521" lon="6.45537">
        <ele>168</ele>
        <time>2019-06-29T07:27:56Z</time>
      </trkpt>
      <trkpt lat="46.07518" lon="6.45558">
        <ele>167</ele>
        <time>2019-06-29T07:28:00Z</time>
      </trkpt>
      <trkpt lat="46.07514" lon="6.45577">
        <ele>167</ele>
        <time>2019-06-29T07:28:04Z</time>
      </trkpt>
      <trkpt lat="46.07513" lon="6.45592">
        <ele>166</ele>
        <time>2019-06-29T07:28:08Z</time>
      </trkpt>
      <trkpt lat="46.0751" lon="6.45616">
        <ele>165</ele>
        <time>2019-06-29T07:28:12Z</time>
      </trkpt>
      <trkpt lat="46.07512" lon="6.45644">
        <ele>165</ele>
        <time>2019-06-29T07:28:16Z</time>
      </trkpt>
      <trkpt lat="46.0751" lon="6.45675">
        <ele>165</ele>
        <time>2019-06-29T07:28:20Z</time>
      </trkpt>
      <trkpt lat="46.07507" lon="6.45708">
        <ele>164</ele>
        <time>2019-06-29T07:28:24Z</time>
      </trkpt>
      <trkpt lat="46.07503" lon="6.45743">
        <ele>164</ele>
        <time>2019-06-29T07:28:28Z</time>
      </trkpt>
      <trkpt lat="46.07499" lon="6.45778">
        <ele>164</ele>
        <time>2019-06-29T07:28:32Z</time>
      </trkpt>
      <trkpt lat="46.07495" lon="6.45813">
        <ele>164</ele>
        <time>2019-06-29T07:28:36Z</time>
      </trkpt>
      <trkpt lat="46.07491" lon="6.45849">
        <ele>165</ele>
        <time>2019-06-29T07:28:40Z</time>
      </trkpt>
      <trkpt lat="46.07487" lon="6.45885">
        <ele>165</ele>
        <time>2019-06-29T07:28:44Z</time>
      </trkpt>
      <trkpt lat="46.07484" lon="6.45921">
        <ele>165</ele>
        <time>2019-06-29T07:28:48Z</time>
      </trkpt>
      <trkpt lat="46.0748" lon="6.45958">
        <ele>165</ele>
        <time>2019-06-29T07:28:52Z</time>
      </trkpt>
      <trkpt lat="46.07475" lon="6.45995">
        <ele>165</ele>
        <time>2019-06-29T07:28:56Z</time>
      </trkpt>
      <trkpt lat="46.07472" lon="6.46032">
        <ele>165</ele>
        <time>2019-06-29T07:29:00Z</time>
      </trkpt>
      <trkpt lat="46.07468" lon="6.46069">
        <ele>165</ele>
        <time>2019-06-29T07:29:04Z</time>
      </trkpt>
      <trkpt lat="46.07464" lon="6.46104">
        <ele>165</ele>
        <time>2019-06-29T07:29:08Z</time>
      </trkpt>
      <trkpt lat="46.0746" lon="6.4614">
        <ele>165</ele>
        <time>2019-06-29T07:29:12Z</time>
      </trkpt>
      <trkpt lat="46.07456" lon="6.46176">
        <ele>166</ele>
        <time>2019-06-29T07:29:16Z</time>
      </trkpt>
      <trkpt lat="46.07452" lon="6.46213">
        <ele>166</ele>
        <time>2019-06-29T07:29:20Z</time>
      </trkpt>
      <trkpt lat="46.07448" lon="6.46249">
        <ele>165</ele>
        <time>2019-06-29T07:29:24Z</time>
      </trkpt>
      <trkpt lat="46.07444" lon="6.46286">
        <ele>165</ele>
        <time>2019-06-29T07:29:28Z</time>
      </trkpt>
      <trkpt lat="46.07441" lon="6.46323">
        <ele>166</ele>
        <time>2019-06-29T07:29:32Z</time>
      </trkpt>
      <trkpt lat="46.07436" lon="6.4636">
        <ele>166</ele>
        <time>2019-06-29T07:29:36Z</time>
      </trkpt>
      <trkpt lat="46.07433" lon="6.46394">
        <ele>167</ele>
        <time>2019-06-29T07:29:40Z</time>
      </trkpt>
      <trkpt lat="46.07425" lon="6.46422">
        <ele>167</ele>
        <time>2019-06-29T07:29:44Z</time>
      </trkpt>
      <trkpt lat="46.07415" lon="6.4645">
        <ele>167</ele>
        <time>2019-06-29T07:29:48Z</time>
      </trkpt>
      <trkpt lat="46.07405" lon="6.4648">
        <ele>168</ele>
        <time>2019-06-29T07:29:52Z</time>
      </trkpt>
      <trkpt lat="46.07396" lon="6.46503">
        <ele>170</ele>
        <time>2019-06-29T07:29:56Z</time>
      </trkpt>
      <trkpt lat="46.07394" lon="6.46514">
        <ele>170</ele>
        <time>2019-06-29T07:30:00Z</time>
      </trkpt>
      <trkpt lat="46.07394" lon="6.46525">
        <ele>169</ele>
        <time>2019-06-29T07:30:04Z</time>
      </trkpt>
      <trkpt lat="46.07404" lon="6.46542">
        <ele>169</ele>
        <time>2019-06-29T07:30:08Z</time>
      </trkpt>
      <trkpt lat="46.07416" lon="6.46561">
        <ele>169</ele>
        <time>2019-06-29T07:30:12Z</time>
      </trkpt>
      <trkpt lat="46.07428" lon="6.46579">
        <ele>170</ele>
        <time>2019-06-29T07:30:16Z</time>
      </trkpt>
      <trkpt lat="46.07435" lon="6.46596">
        <ele>169</ele>
        <time>2019-06-29T07:30:20Z</time>
      </trkpt>
      <trkpt lat="46.07432" lon="6.46616">
        <ele>168</ele>
        <time>2019-06-29T07:30:24Z</time>
      </trkpt>
      <trkpt lat="46.07427" lon="6.46647">
        <ele>166</ele>
        <time>2019-06-29T07:30:28Z</time>
      </trkpt>
      <trkpt lat="46.07423" lon="6.46683">
        <ele>167</ele>
        <time>2019-06-29T07:30:32Z</time>
      </trkpt>
      <trkpt lat="46.07419" lon="6.46719">
        <ele>167</ele>
        <time>2019-06-29T07:30:36Z</time>
      </trkpt>
      <trkpt lat="46.07415" lon="6.46754">
        <ele>168</ele>
        <time>2019-06-29T07:30:40Z</time>
      </trkpt>
      <trkpt lat="46.07412" lon="6.46788">
        <ele>168</ele>
        <time>2019-06-29T07:30:44Z</time>
      </trkpt>
      <trkpt lat="46.07408" lon="6.46824">
        <ele>168</ele>
        <time>2019-06-29T07:30:48Z</time>
      </trkpt>
      <trkpt lat="46.07405" lon="6.46863">
        <ele>167</ele>
        <time>2019-06-29T07:30:52Z</time>
      </trkpt>
      <trkpt lat="46.07404" lon="6.469">
        <ele>167</ele>
        <time>2019-06-29T07:30:56Z</time>
      </trkpt>
      <trkpt lat="46.07403" lon="6.46938">
        <ele>167</ele>
        <time>2019-06-29T07:31:00Z</time>
      </trkpt>
      <trkpt lat="46.07401" lon="6.46977">
        <ele>167</ele>
        <time>2019-06-29T07:31:04Z</time>
      </trkpt>
      <trkpt lat="46.074" lon="6.47015">
        <ele>168</ele>
        <time>2019-06-29T07:31:08Z</time>
      </trkpt>
      <trkpt lat="46.07399" lon="6.47053">
        <ele>167</ele>
        <time>2019-06-29T07:31:12Z</time>
      </trkpt>
      <trkpt lat="46.074" lon="6.47092">
        <ele>168</ele>
        <time>2019-06-29T07:31:16Z</time>
      </trkpt>
      <trkpt lat="46.07401" lon="6.47129">
        <ele>168</ele>
        <time>2019-06-29T07:31:20Z</time>
      </trkpt>
      <trkpt lat="46.07403" lon="6.47166">
        <ele>169</ele>
        <time>2019-06-29T07:31:24Z</time>
      </trkpt>
      <trkpt lat="46.07404" lon="6.47192">
        <ele>171</ele>
        <time>2019-06-29T07:31:28Z</time>
      </trkpt>
      <trkpt lat="46.07408" lon="6.47214">
        <ele>168</ele>
        <time>2019-06-29T07:31:32Z</time>
      </trkpt>
      <trkpt lat="46.07412" lon="6.47248">
        <ele>167</ele>
        <time>2019-06-29T07:31:36Z</time>
      </trkpt>
      <trkpt lat="46.07416" lon="6.47286">
        <ele>168</ele>
        <time>2019-06-29T07:31:40Z</time>
      </trkpt>
      <trkpt lat="46.07419" lon="6.47322">
        <ele>168</ele>
        <time>2019-06-29T07:31:44Z</time>
      </trkpt>
      <trkpt lat="46.07422" lon="6.47357">
        <ele>168</ele>
        <time>2019-06-29T07:31:48Z</time>
      </trkpt>
      <trkpt lat="46.07426" lon="6.47394">
        <ele>168</ele>
        <time>2019-06-29T07:31:52Z</time>
      </trkpt>
      <trkpt lat="46.0743" lon="6.47431">
        <ele>168</ele>
        <time>2019-06-29T07:31:56Z</time>
      </trkpt>
      <trkpt lat="46.07435" lon="6.47468">
        <ele>168</ele>
        <time>2019-06-29T07:32:00Z</time>
      </trkpt>
      <trkpt lat="46.07442" lon="6.47505">
        <ele>168</ele>
        <time>2019-06-29T07:32:04Z</time>
      </trkpt>
      <trkpt lat="46.07451" lon="6.47544">
        <ele>168</ele>
        <time>2019-06-29T07:32:08Z</time>
      </trkpt>
      <trkpt lat="46.07459" lon="6.4758">
        <ele>169</ele>
        <time>2019-06-29T07:32:12Z</time>
      </trkpt>
      <trkpt lat="46.07465" lon="6.47614">
        <ele>169</ele>
        <time>2019-06-29T07:32:16Z</time>
      </trkpt>
      <trkpt lat="46.07472" lon="6.4765">
        <ele>168</ele>
        <time>2019-06-29T07:32:20Z</time>
      </trkpt>
      <trkpt lat="46.0748" lon="6.47686">
        <ele>168</ele>
        <time>2019-06-29T07:32:24Z</time>
      </trkpt>
      <trkpt lat="46.0749" lon="6.47723">
        <ele>168</ele>
        <time>2019-06-29T07:32:28Z</time>
      </trkpt>
      <trkpt lat="46.075" lon="6.47761">
        <ele>168</ele>
        <time>2019-06-29T07:32:32Z</time>
      </trkpt>
      <trkpt lat="46.07511" lon="6.47797">
        <ele>168</ele>
        <time>2019-06-29T07:32:36Z</time>
      </trkpt>
      <trkpt lat="46.07521" lon="6.47832">
        <ele>168</ele>
        <time>2019-06-29T07:32:40Z</time>
      </trkpt>
      <trkpt lat="46.07533" lon="6.47866">
        <ele>168</ele>
        <time>2019-06-29T07:32:44Z</time>
      </trkpt>
      <trkpt lat="46.07546" lon="6.479">
        <ele>168</ele>
        <time>2019-06-29T07:32:48Z</time>
      </trkpt>
      <trkpt lat="46.07558" lon="6.47934">
        <ele>169</ele>
        <time>2019-06-29T07:32:52Z</time>
      </trkpt>
      <trkpt lat="46.0757" lon="6.47966">
        <ele>170</ele>
        <time>2019-06-29T07:32:56Z</time>
      </trkpt>
      <trkpt lat="46.07578" lon="6.47991">
        <ele>171</ele>
        <time>2019-06-29T07:33:00Z</time>
      </trkpt>
      <trkpt lat="46.07573" lon="6.48003">
        <ele>170</ele>
        <time>2019-06-29T07:33:04Z</time>
      </trkpt>
      <trkpt lat="46.07555" lon="6.48016">
        <ele>170</ele>
        <time>2019-06-29T07:33:08Z</time>
      </trkpt>
      <trkpt lat="46.07543" lon="6.48043">
        <ele>169</ele>
        <time>2019-06-29T07:33:12Z</time>
      </trkpt>
      <trkpt lat="46.07538" lon="6.48074">
        <ele>169</ele>
        <time>2019-06-29T07:33:16Z</time>
      </trkpt>
      <trkpt lat="46.07534" lon="6.48107">
        <ele>170</ele>
        <time>2019-06-29T07:33:20Z</time>
      </trkpt>
      <trkpt lat="46.07527" lon="6.48137">
        <ele>170</ele>
        <time>2019-06-29T07:33:24Z</time>
      </trkpt>
      <trkpt lat="46.07513" lon="6.4816">
        <ele>172</ele>
        <time>2019-06-29T07:33:28Z</time>
      </trkpt>
      <trkpt lat="46.07501" lon="6.48174">
        <ele>174</ele>
        <time>2019-06-29T07:33:32Z</time>
      </trkpt>
      <trkpt lat="46.07503" lon="6.48188">
        <ele>175</ele>
        <time>2019-06-29T07:33:36Z</time>
      </trkpt>
      <trkpt lat="46.07513" lon="6.48184">
        <ele>175</ele>
        <time>2019-06-29T07:33:40Z</time>
      </trkpt>
      <trkpt lat="46.07522" lon="6.48173">
        <ele>176</ele>
        <time>2019-06-29T07:33:44Z</time>
      </trkpt>
      <trkpt lat="46.07527" lon="6.48179">
        <ele>176</ele>
        <time>2019-06-29T07:33:48Z</time>
      </trkpt>
      <trkpt lat="46.07537" lon="6.48187">
        <ele>176</ele>
        <time>2019-06-29T07:33:52Z</time>
      </trkpt>
      <trkpt lat="46.0755" lon="6.48199">
        <ele>175</ele>
        <time>2019-06-29T07:33:56Z</time>
      </trkpt>
      <trkpt lat="46.07563" lon="6.48215">
        <ele>175</ele>
        <time>2019-06-29T07:34:00Z</time>
      </trkpt>
      <trkpt lat="46.07576" lon="6.48235">
        <ele>176</ele>
        <time>2019-06-29T07:34:04Z</time>
      </trkpt>
      <trkpt lat="46.07588" lon="6.48258">
        <ele>176</ele>
        <time>2019-06-29T07:34:08Z</time>
      </trkpt>
      <trkpt lat="46.07602" lon="6.48282">
        <ele>175</ele>
        <time>2019-06-29T07:34:12Z</time>
      </trkpt>
      <trkpt lat="46.07616" lon="6.48307">
        <ele>176</ele>
        <time>2019-06-29T07:34:16Z</time>
      </trkpt>
      <trkpt lat="46.07629" lon="6.48332">
        <ele>175</ele>
        <time>2019-06-29T07:34:20Z</time>
      </trkpt>
      <trkpt lat="46.07643" lon="6.48357">
        <ele>175</ele>
        <time>2019-06-29T07:34:24Z</time>
      </trkpt>
      <trkpt lat="46.07657" lon="6.48383">
        <ele>175</ele>
        <time>2019-06-29T07:34:28Z</time>
      </trkpt>
      <trkpt lat="46.0767" lon="6.48407">
        <ele>176</ele>
        <time>2019-06-29T07:34:32Z</time>
      </trkpt>
      <trkpt lat="46.0767" lon="6.48435">
        <ele>175</ele>
        <time>2019-06-29T07:34:36Z</time>
      </trkpt>
      <trkpt lat="46.07663" lon="6.48464">
        <ele>175</ele>
        <time>2019-06-29T07:34:40Z</time>
      </trkpt>
      <trkpt lat="46.07652" lon="6.48493">
        <ele>176</ele>
        <time>2019-06-29T07:34:44Z</time>
      </trkpt>
      <trkpt lat="46.0764" lon="6.48518">
        <ele>176</ele>
        <time>2019-06-29T07:34:48Z</time>
      </trkpt>
      <trkpt lat="46.07642" lon="6.48548">
        <ele>175</ele>
        <time>2019-06-29T07:34:52Z</time>
      </trkpt>
      <trkpt lat="46.07647" lon="6.4858">
        <ele>176</ele>
        <time>2019-06-29T07:34:56Z</time>
      </trkpt>
      <trkpt lat="46.07664" lon="6.48598">
        <ele>176</ele>
        <time>2019-06-29T07:35:00Z</time>
      </trkpt>
      <trkpt lat="46.07688" lon="6.48595">
        <ele>176</ele>
        <time>2019-06-29T07:35:04Z</time>
      </trkpt>
      <trkpt lat="46.07712" lon="6.48589">
        <ele>176</ele>
        <time>2019-06-29T07:35:08Z</time>
      </trkpt>
      <trkpt lat="46.07737" lon="6.48586">
        <ele>177</ele>
        <time>2019-06-29T07:35:12Z</time>
      </trkpt>
      <trkpt lat="46.07762" lon="6.48591">
        <ele>176</ele>
        <time>2019-06-29T07:35:16Z</time>
      </trkpt>
      <trkpt lat="46.07786" lon="6.48599">
        <ele>176</ele>
        <time>2019-06-29T07:35:20Z</time>
      </trkpt>
      <trkpt lat="46.07812" lon="6.48607">
        <ele>176</ele>
        <time>2019-06-29T07:35:24Z</time>
      </trkpt>
      <trkpt lat="46.07838" lon="6.48614">
        <ele>177</ele>
        <time>2019-06-29T07:35:28Z</time>
      </trkpt>
      <trkpt lat="46.07863" lon="6.4862">
        <ele>177</ele>
        <time>2019-06-29T07:35:32Z</time>
      </trkpt>
      <trkpt lat="46.07888" lon="6.48627">
        <ele>177</ele>
        <time>2019-06-29T07:35:36Z</time>
      </trkpt>
      <trkpt lat="46.07911" lon="6.48634">
        <ele>177</ele>
        <time>2019-06-29T07:35:40Z</time>
      </trkpt>
      <trkpt lat="46.07933" lon="6.48648">
        <ele>178</ele>
        <time>2019-06-29T07:35:44Z</time>
      </trkpt>
      <trkpt lat="46.07954" lon="6.48668">
        <ele>178</ele>
        <time>2019-06-29T07:35:48Z</time>
      </trkpt>
      <trkpt lat="46.07973" lon="6.48691">
        <ele>178</ele>
        <time>2019-06-29T07:35:52Z</time>
      </trkpt>
      <trkpt lat="46.07992" lon="6.48714">
        <ele>178</ele>
        <time>2019-06-29T07:35:56Z</time>
      </trkpt>
      <trkpt lat="46.0801" lon="6.48738">
        <ele>178</ele>
        <time>2019-06-29T07:36:00Z</time>
      </trkpt>
      <trkpt lat="46.08028" lon="6.48763">
        <ele>178</ele>
        <time>2019-06-29T07:36:04Z</time>
      </trkpt>
      <trkpt lat="46.08034" lon="6.48798">
        <ele>178</ele>
        <time>2019-06-29T07:36:08Z</time>
      </trkpt>
      <trkpt lat="46.08022" lon="6.48831">
        <ele>178</ele>
        <time>2019-06-29T07:36:12Z</time>
      </trkpt>
      <trkpt lat="46.08011" lon="6.48863">
        <ele>178</ele>
        <time>2019-06-29T07:36:16Z</time>
      </trkpt>
      <trkpt lat="46.08009" lon="6.48899">
        <ele>178</ele>
        <time>2019-06-29T07:36:20Z</time>
      </trkpt>
      <trkpt lat="46.0802" lon="6.48932">
        <ele>179</ele>
        <time>2019-06-29T07:36:24Z</time>
      </trkpt>
      <trkpt lat="46.08032" lon="6.48963">
        <ele>179</ele>
        <time>2019-06-29T07:36:28Z</time>
      </trkpt>
      <trkpt lat="46.08043" lon="6.48995">
        <ele>180</ele>
        <time>2019-06-29T07:36:32Z</time>
      </trkpt>
      <trkpt lat="46.08055" lon="6.49026">
        <ele>180</ele>
        <time>2019-06-29T07:36:36Z</time>
      </trkpt>
      <trkpt lat="46.08066" lon="6.49057">
        <ele>180</ele>
        <time>2019-06-29T07:36:40Z</time>
      </trkpt>
      <trkpt lat="46.08077" lon="6.49087">
        <ele>180</ele>
        <time>2019-06-29T07:36:44Z</time>
      </trkpt>
      <trkpt lat="46.08091" lon="6.4911">
        <ele>180</ele>
        <time>2019-06-29T07:36:48Z</time>
      </trkpt>
      <trkpt lat="46.08111" lon="6.49101">
        <ele>179</ele>
        <time>2019-06-29T07:36:52Z</time>
      </trkpt>
      <trkpt lat="46.0813" lon="6.49079">
        <ele>178</ele>
        <time>2019-06-29T07:36:56Z</time>
      </trkpt>
      <trkpt lat="46.08154" lon="6.49062">
        <ele>177</ele>
        <time>2019-06-29T07:37:00Z</time>
      </trkpt>
      <trkpt lat="46.0818" lon="6.49058">
        <ele>177</ele>
        <time>2019-06-29T07:37:04Z</time>
      </trkpt>
      <trkpt lat="46.08206" lon="6.49062">
        <ele>178</ele>
        <time>2019-06-29T07:37:08Z</time>
      </trkpt>
      <trkpt lat="46.0823" lon="6.49075">
        <ele>177</ele>
        <time>2019-06-29T07:37:12Z</time>
      </trkpt>
      <trkpt lat="46.08252" lon="6.49097">
        <ele>177</ele>
        <time>2019-06-29T07:37:16Z</time>
      </trkpt>
      <trkpt lat="46.08273" lon="6.4912">
        <ele>177</ele>
        <time>2019-06-29T07:37:20Z</time>
      </trkpt>
      <trkpt lat="46.08295" lon="6.49142">
        <ele>178</ele>
        <time>2019-06-29T07:37:24Z</time>
      </trkpt>
      <trkpt lat="46.08315" lon="6.49166">
        <ele>178</ele>
        <time>2019-06-29T07:37:28Z</time>
      </trkpt>
      <trkpt lat="46.08336" lon="6.4919">
        <ele>178</ele>
        <time>2019-06-29T07:37:32Z</time>
      </trkpt>
      <trkpt lat="46.08357" lon="6.49214">
        <ele>179</ele>
        <time>2019-06-29T07:37:36Z</time>
      </trkpt>
      <trkpt lat="46.08375" lon="6.4923">
        <ele>180</ele>
        <time>2019-06-29T07:37:40Z</time>
      </trkpt>
      <trkpt lat="46.08388" lon="6.49237">
        <ele>180</ele>
        <time>2019-06-29T07:37:44Z</time>
      </trkpt>
      <trkpt lat="46.08405" lon="6.49244">
        <ele>180</ele>
        <time>2019-06-29T07:37:48Z</time>
      </trkpt>
      <trkpt lat="46.08422" lon="6.49259">
        <ele>180</ele>
        <time>2019-06-29T07:37:52Z</time>
      </trkpt>
      <trkpt lat="46.08438" lon="6.4928">
        <ele>179</ele>
        <time>2019-06-29T07:37:56Z</time>
      </trkpt>
      <trkpt lat="46.08455" lon="6.49302">
        <ele>179</ele>
        <time>2019-06-29T07:38:00Z</time>
      </trkpt>
      <trkpt lat="46.08473" lon="6.49323">
        <ele>180</ele>
        <time>2019-06-29T07:38:04Z</time>
      </trkpt>
      <trkpt lat="46.0849" lon="6.49345">
        <ele>180</ele>
        <time>2019-06-29T07:38:08Z</time>
      </trkpt>
      <trkpt lat="46.08508" lon="6.49368">
        <ele>180</ele>
        <time>2019-06-29T07:38:12Z</time>
      </trkpt>
      <trkpt lat="46.08527" lon="6.4939">
        <ele>180</ele>
        <time>2019-06-29T07:38:16Z</time>
      </trkpt>
      <trkpt lat="46.08544" lon="6.49413">
        <ele>180</ele>
        <time>2019-06-29T07:38:20Z</time>
      </trkpt>
      <trkpt lat="46.08562" lon="6.49436">
        <ele>180</ele>
        <time>2019-06-29T07:38:24Z</time>
      </trkpt>
      <trkpt lat="46.0858" lon="6.49458">
        <ele>180</ele>
        <time>2019-06-29T07:38:28Z</time>
      </trkpt>
      <trkpt lat="46.08597" lon="6.49481">
        <ele>180</ele>
        <time>2019-06-29T07:38:32Z</time>
      </trkpt>
      <trkpt lat="46.08614" lon="6.49504">
        <ele>181</ele>
        <time>2019-06-29T07:38:36Z</time>
      </trkpt>
      <trkpt lat="46.08632" lon="6.49526">
        <ele>181</ele>
        <time>2019-06-29T07:38:40Z</time>
      </trkpt>
      <trkpt lat="46.0865" lon="6.49549">
        <ele>181</ele>
        <time>2019-06-29T07:38:44Z</time>
      </trkpt>
      <trkpt lat="46.08669" lon="6.49572">
        <ele>181</ele>
        <time>2019-06-29T07:38:48Z</time>
      </trkpt>
      <trkpt lat="46.08688" lon="6.49595">
        <ele>181</ele>
        <time>2019-06-29T07:38:52Z</time>
      </trkpt>
      <trkpt lat="46.08707" lon="6.49618">
        <ele>181</ele>
        <time>2019-06-29T07:38:56Z</time>
      </trkpt>
      <trkpt lat="46.08726" lon="6.49641">
        <ele>181</ele>
        <time>2019-06-29T07:39:00Z</time>
      </trkpt>
      <trkpt lat="46.08744" lon="6.49666">
        <ele>181</ele>
        <time>2019-06-29T07:39:04Z</time>
      </trkpt>
      <trkpt lat="46.08759" lon="6.49682">
        <ele>183</ele>
        <time>2019-06-29T07:39:08Z</time>
      </trkpt>
      <trkpt lat="46.08769" lon="6.49681">
        <ele>182</ele>
        <time>2019-06-29T07:39:12Z</time>
      </trkpt>
      <trkpt lat="46.08779" lon="6.49667">
        <ele>182</ele>
        <time>2019-06-29T07:39:16Z</time>
      </trkpt>
      <trkpt lat="46.08796" lon="6.49648">
        <ele>182</ele>
        <time>2019-06-29T07:39:20Z</time>
      </trkpt>
      <trkpt lat="46.08813" lon="6.49629">
        <ele>182</ele>
        <time>2019-06-29T07:39:24Z</time>
      </trkpt>
      <trkpt lat="46.08831" lon="6.49614">
        <ele>183</ele>
        <time>2019-06-29T07:39:28Z</time>
      </trkpt>
      <trkpt lat="46.08843" lon="6.49614">
        <ele>183</ele>
        <time>2019-06-29T07:39:32Z</time>
      </trkpt>
      <trkpt lat="46.08852" lon="6.49635">
        <ele>183</ele>
        <time>2019-06-29T07:39:36Z</time>
      </trkpt>
      <trkpt lat="46.08862" lon="6.49659">
        <ele>183</ele>
        <time>2019-06-29T07:39:40Z</time>
      </trkpt>
      <trkpt lat="46.08874" lon="6.49685">
        <ele>183</ele>
        <time>2019-06-29T07:39:44Z</time>
      </trkpt>
      <trkpt lat="46.08885" lon="6.49711">
        <ele>184</ele>
        <time>2019-06-29T07:39:48Z</time>
      </trkpt>
      <trkpt lat="46.08897" lon="6.49738">
        <ele>184</ele>
        <time>2019-06-29T07:39:52Z</time>
      </trkpt>
      <trkpt lat="46.08908" lon="6.49766">
        <ele>184</ele>
        <time>2019-06-29T07:39:56Z</time>
      </trkpt>
      <trkpt lat="46.08919" lon="6.49793">
        <ele>184</ele>
        <time>2019-06-29T07:40:00Z</time>
      </trkpt>
      <trkpt lat="46.08929" lon="6.49821">
        <ele>184</ele>
        <time>2019-06-29T07:40:04Z</time>
      </trkpt>
      <trkpt lat="46.08941" lon="6.49848">
        <ele>184</ele>
        <time>2019-06-29T07:40:08Z</time>
      </trkpt>
      <trkpt lat="46.08952" lon="6.49875">
        <ele>185</ele>
        <time>2019-06-29T07:40:12Z</time>
      </trkpt>
      <trkpt lat="46.08964" lon="6.49902">
        <ele>184</ele>
        <time>2019-06-29T07:40:16Z</time>
      </trkpt>
      <trkpt lat="46.08975" lon="6.49931">
        <ele>184</ele>
        <time>2019-06-29T07:40:20Z</time>
      </trkpt>
      <trkpt lat="46.08987" lon="6.49959">
        <ele>184</ele>
        <time>2019-06-29T07:40:24Z</time>
      </trkpt>
      <trkpt lat="46.08998" lon="6.49987">
        <ele>184</ele>
        <time>2019-06-29T07:40:28Z</time>
      </trkpt>
      <trkpt lat="46.09005" lon="6.50014">
        <ele>185</ele>
        <time>2019-06-29T07:40:32Z</time>
      </trkpt>
      <trkpt lat="46.08999" lon="6.50037">
        <ele>185</ele>
        <time>2019-06-29T07:40:36Z</time>
      </trkpt>
      <trkpt lat="46.08981" lon="6.50053">
        <ele>186</ele>
        <time>2019-06-29T07:40:40Z</time>
      </trkpt>
      <trkpt lat="46.08964" lon="6.50066">
        <ele>186</ele>
        <time>2019-06-29T07:40:44Z</time>
      </trkpt>
      <trkpt lat="46.08947" lon="6.5008">
        <ele>187</ele>
        <time>2019-06-29T07:40:48Z</time>
      </trkpt>
      <trkpt lat="46.08931" lon="6.50095">
        <ele>187</ele>
        <time>2019-06-29T07:40:52Z</time>
      </trkpt>
      <trkpt lat="46.08919" lon="6.50119">
        <ele>187</ele>
        <time>2019-06-29T07:40:56Z</time>
      </trkpt>
      <trkpt lat="46.08917" lon="6.50148">
        <ele>187</ele>
        <time>2019-06-29T07:41:00Z</time>
      </trkpt>
      <trkpt lat="46.08919" lon="6.50178">
        <ele>187</ele>
        <time>2019-06-29T07:41:04Z</time>
      </trkpt>
      <trkpt lat="46.08921" lon="6.50209">
        <ele>187</ele>
        <time>2019-06-29T07:41:08Z</time>
      </trkpt>
      <trkpt lat="46.08924" lon="6.50239">
        <ele>187</ele>
        <time>2019-06-29T07:41:12Z</time>
      </trkpt>
      <trkpt lat="46.08926" lon="6.50274">
        <ele>187</ele>
        <time>2019-06-29T07:41:16Z</time>
      </trkpt>
      <trkpt lat="46.08931" lon="6.50309">
        <ele>186</ele>
        <time>2019-06-29T07:41:20Z</time>
      </trkpt>
      <trkpt lat="46.08932" lon="6.50346">
        <ele>186</ele>
        <time>2019-06-29T07:41:24Z</time>
      </trkpt>
      <trkpt lat="46.08935" lon="6.50384">
        <ele>186</ele>
        <time>2019-06-29T07:41:28Z</time>
      </trkpt>
      <trkpt lat="46.08938" lon="6.50421">
        <ele>186</ele>
        <time>2019-06-29T07:41:32Z</time>
      </trkpt>
      <trkpt lat="46.08941" lon="6.50459">
        <ele>184</ele>
        <time>2019-06-29T07:41:36Z</time>
      </trkpt>
      <trkpt lat="46.08941" lon="6.50499">
        <ele>184</ele>
        <time>2019-06-29T07:41:40Z</time>
      </trkpt>
      <trkpt lat="46.08942" lon="6.50538">
        <ele>185</ele>
        <time>2019-06-29T07:41:44Z</time>
      </trkpt>
      <trkpt lat="46.08942" lon="6.50575">
        <ele>185</ele>
        <time>2019-06-29T07:41:48Z</time>
      </trkpt>
      <trkpt lat="46.08939" lon="6.50613">
        <ele>185</ele>
        <time>2019-06-29T07:41:52Z</time>
      </trkpt>
      <trkpt lat="46.08935" lon="6.5065">
        <ele>186</ele>
        <time>2019-06-29T07:41:56Z</time>
      </trkpt>
      <trkpt lat="46.0893" lon="6.50688">
        <ele>185</ele>
        <time>2019-06-29T07:42:00Z</time>
      </trkpt>
      <trkpt lat="46.08924" lon="6.50723">
        <ele>185</ele>
        <time>2019-06-29T07:42:04Z</time>
      </trkpt>
      <trkpt lat="46.08917" lon="6.50756">
        <ele>185</ele>
        <time>2019-06-29T07:42:08Z</time>
      </trkpt>
      <trkpt lat="46.08909" lon="6.50781">
        <ele>188</ele>
        <time>2019-06-29T07:42:12Z</time>
      </trkpt>
      <trkpt lat="46.08909" lon="6.50781">
        <ele>187</ele>
        <time>2019-06-29T07:42:20Z</time>
      </trkpt>
      <trkpt lat="46.08907" lon="6.50773">
        <ele>187</ele>
        <time>2019-06-29T07:42:24Z</time>
      </trkpt>
      <trkpt lat="46.08903" lon="6.5077">
        <ele>187</ele>
        <time>2019-06-29T07:42:36Z</time>
      </trkpt>
      <trkpt lat="46.08906" lon="6.50775">
        <ele>187</ele>
        <time>2019-06-29T07:42:40Z</time>
      </trkpt>
      <trkpt lat="46.08913" lon="6.50776">
        <ele>187</ele>
        <time>2019-06-29T07:42:44Z</time>
      </trkpt>
      <trkpt lat="46.08918" lon="6.50758">
        <ele>186</ele>
        <time>2019-06-29T07:42:48Z</time>
      </trkpt>
      <trkpt lat="46.08925" lon="6.50732">
        <ele>186</ele>
        <time>2019-06-29T07:42:52Z</time>
      </trkpt>
      <trkpt lat="46.08931" lon="6.50702">
        <ele>186</ele>
        <time>2019-06-29T07:42:56Z</time>
      </trkpt>
      <trkpt lat="46.08936" lon="6.5067">
        <ele>186</ele>
        <time>2019-06-29T07:43:00Z</time>
      </trkpt>
      <trkpt lat="46.08935" lon="6.5064">
        <ele>187</ele>
        <time>2019-06-29T07:43:04Z</time>
      </trkpt>
      <trkpt lat="46.08917" lon="6.50631">
        <ele>187</ele>
        <time>2019-06-29T07:43:08Z</time>
      </trkpt>
      <trkpt lat="46.089" lon="6.50627">
        <ele>188</ele>
        <time>2019-06-29T07:43:12Z</time>
      </trkpt>
      <trkpt lat="46.08888" lon="6.50625">
        <ele>188</ele>
        <time>2019-06-29T07:43:16Z</time>
      </trkpt>
      <trkpt lat="46.08878" lon="6.50635">
        <ele>187</ele>
        <time>2019-06-29T07:43:20Z</time>
      </trkpt>
      <trkpt lat="46.08876" lon="6.50657">
        <ele>186</ele>
        <time>2019-06-29T07:43:24Z</time>
      </trkpt>
      <trkpt lat="46.08871" lon="6.50684">
        <ele>186</ele>
        <time>2019-06-29T07:43:28Z</time>
      </trkpt>
      <trkpt lat="46.08864" lon="6.50714">
        <ele>186</ele>
        <time>2019-06-29T07:43:32Z</time>
      </trkpt>
      <trkpt lat="46.08856" lon="6.50749">
        <ele>185</ele>
        <time>2019-06-29T07:43:36Z</time>
      </trkpt>
      <trkpt lat="46.08848" lon="6.50784">
        <ele>185</ele>
        <time>2019-06-29T07:43:40Z</time>
      </trkpt>
      <trkpt lat="46.0884" lon="6.50819">
        <ele>184</ele>
        <time>2019-06-29T07:43:44Z</time>
      </trkpt>
      <trkpt lat="46.08832" lon="6.50856">
        <ele>185</ele>
        <time>2019-06-29T07:43:48Z</time>
      </trkpt>
      <trkpt lat="46.08825" lon="6.5089">
        <ele>185</ele>
        <time>2019-06-29T07:43:52Z</time>
      </trkpt>
      <trkpt lat="46.08817" lon="6.50891">
        <ele>186</ele>
        <time>2019-06-29T07:43:56Z</time>
      </trkpt>
      <trkpt lat="46.08804" lon="6.50899">
        <ele>186</ele>
        <time>2019-06-29T07:44:00Z</time>
      </trkpt>
      <trkpt lat="46.0879" lon="6.50902">
        <ele>186</ele>
        <time>2019-06-29T07:44:04Z</time>
      </trkpt>
      <trkpt lat="46.08794" lon="6.50905">
        <ele>185</ele>
        <time>2019-06-29T07:44:08Z</time>
      </trkpt>
      <trkpt lat="46.08809" lon="6.50898">
        <ele>185</ele>
        <time>2019-06-29T07:44:12Z</time>
      </trkpt>
      <trkpt lat="46.08821" lon="6.5089">
        <ele>186</ele>
        <time>2019-06-29T07:44:16Z</time>
      </trkpt>
      <trkpt lat="46.08825" lon="6.50898">
        <ele>186</ele>
        <time>2019-06-29T07:44:20Z</time>
      </trkpt>
      <trkpt lat="46.08821" lon="6.50911">
        <ele>186</ele>
        <time>2019-06-29T07:44:24Z</time>
      </trkpt>
      <trkpt lat="46.08823" lon="6.50908">
        <ele>187</ele>
        <time>2019-06-29T07:44:28Z</time>
      </trkpt>
      <trkpt lat="46.08827" lon="6.50909">
        <ele>186</ele>
        <time>2019-06-29T07:44:32Z</time>
      </trkpt>
      <trkpt lat="46.08823" lon="6.50926">
        <ele>185</ele>
        <time>2019-06-29T07:44:36Z</time>
      </trkpt>
      <trkpt lat="46.08817" lon="6.50955">
        <ele>185</ele>
        <time>2019-06-29T07:44:40Z</time>
      </trkpt>
      <trkpt lat="46.0881" lon="6.50988">
        <ele>185</ele>
        <time>2019-06-29T07:44:44Z</time>
      </trkpt>
      <trkpt lat="46.08802" lon="6.51024">
        <ele>184</ele>
        <time>2019-06-29T07:44:48Z</time>
      </trkpt>
      <trkpt lat="46.08794" lon="6.51061">
        <ele>184</ele>
        <time>2019-06-29T07:44:52Z</time>
      </trkpt>
      <trkpt lat="46.08785" lon="6.51098">
        <ele>183</ele>
        <time>2019-06-29T07:44:56Z</time>
      </trkpt>
      <trkpt lat="46.08776" lon="6.51137">
        <ele>183</ele>
        <time>2019-06-29T07:45:00Z</time>
      </trkpt>
      <trkpt lat="46.08767" lon="6.51174">
        <ele>183</ele>
        <time>2019-06-29T07:45:04Z</time>
      </trkpt>
      <trkpt lat="46.08757" lon="6.51213">
        <ele>182</ele>
        <time>2019-06-29T07:45:08Z</time>
      </trkpt>
      <trkpt lat="46.08749" lon="6.5125">
        <ele>182</ele>
        <time>2019-06-29T07:45:12Z</time>
      </trkpt>
      <trkpt lat="46.0874" lon="6.51288">
        <ele>182</ele>
        <time>2019-06-29T07:45:16Z</time>
      </trkpt>
      <trkpt lat="46.08732" lon="6.51327">
        <ele>182</ele>
        <time>2019-06-29T07:45:20Z</time>
      </trkpt>
      <trkpt lat="46.08722" lon="6.51366">
        <ele>181</ele>
        <time>2019-06-29T07:45:24Z</time>
      </trkpt>
      <trkpt lat="46.08714" lon="6.51406">
        <ele>181</ele>
        <time>2019-06-29T07:45:28Z</time>
      </trkpt>
      <trkpt lat="46.08705" lon="6.51447">
        <ele>181</ele>
        <time>2019-06-29T07:45:32Z</time>
      </trkpt>
      <trkpt lat="46.08696" lon="6.51487">
        <ele>181</ele>
        <time>2019-06-29T07:45:36Z</time>
      </trkpt>
      <trkpt lat="46.08687" lon="6.51526">
        <ele>181</ele>
        <time>2019-06-29T07:45:40Z</time>
      </trkpt>
      <trkpt lat="46.08678" lon="6.51565">
        <ele>181</ele>
        <time>2019-06-29T07:45:44Z</time>
      </trkpt>
      <trkpt lat="46.08669" lon="6.51606">
        <ele>180</ele>
        <time>2019-06-29T07:45:48Z</time>
      </trkpt>
      <trkpt lat="46.0866" lon="6.51646">
        <ele>180</ele>
        <time>2019-06-29T07:45:52Z</time>
      </trkpt>
      <trkpt lat="46.08652" lon="6.51683">
        <ele>181</ele>
        <time>2019-06-29T07:45:56Z</time>
      </trkpt>
      <trkpt lat="46.08643" lon="6.51723">
        <ele>180</ele>
        <time>2019-06-29T07:46:00Z</time>
      </trkpt>
      <trkpt lat="46.08634" lon="6.51762">
        <ele>181</ele>
        <time>2019-06-29T07:46:04Z</time>
      </trkpt>
      <trkpt lat="46.08624" lon="6.51802">
        <ele>180</ele>
        <time>2019-06-29T07:46:08Z</time>
      </trkpt>
      <trkpt lat="46.08615" lon="6.51842">
        <ele>180</ele>
        <time>2019-06-29T07:46:12Z</time>
      </trkpt>
      <trkpt lat="46.08605" lon="6.51882">
        <ele>180</ele>
        <time>2019-06-29T07:46:16Z</time>
      </trkpt>
      <trkpt lat="46.08597" lon="6.51915">
        <ele>181</ele>
        <time>2019-06-29T07:46:20Z</time>
      </trkpt>
      <trkpt lat="46.08589" lon="6.51949">
        <ele>181</ele>
        <time>2019-06-29T07:46:24Z</time>
      </trkpt>
      <trkpt lat="46.08581" lon="6.51985">
        <ele>181</ele>
        <time>2019-06-29T07:46:28Z</time>
      </trkpt>
      <trkpt lat="46.08573" lon="6.52023">
        <ele>181</ele>
        <time>2019-06-29T07:46:32Z</time>
      </trkpt>
      <trkpt lat="46.08564" lon="6.5206">
        <ele>181</ele>
        <time>2019-06-29T07:46:36Z</time>
      </trkpt>
      <trkpt lat="46.08552" lon="6.52096">
        <ele>181</ele>
        <time>2019-06-29T07:46:40Z</time>
      </trkpt>
      <trkpt lat="46.08543" lon="6.52133">
        <ele>181</ele>
        <time>2019-06-29T07:46:44Z</time>
      </trkpt>
      <trkpt lat="46.08535" lon="6.5217">
        <ele>181</ele>
        <time>2019-06-29T07:46:48Z</time>
      </trkpt>
      <trkpt lat="46.08526" lon="6.52206">
        <ele>181</ele>
        <time>2019-06-29T07:46:52Z</time>
      </trkpt>
      <trkpt lat="46.08517" lon="6.52245">
        <ele>180</ele>
        <time>2019-06-29T07:46:56Z</time>
      </trkpt>
      <trkpt lat="46.08508" lon="6.52284">
        <ele>180</ele>
        <time>2019-06-29T07:47:00Z</time>
      </trkpt>
      <trkpt lat="46.085" lon="6.52322">
        <ele>180</ele>
        <time>2019-06-29T07:47:04Z</time>
      </trkpt>
      <trkpt lat="46.08496" lon="6.52356">
        <ele>182</ele>
        <time>2019-06-29T07:47:08Z</time>
      </trkpt>
      <trkpt lat="46.08494" lon="6.52379">
        <ele>185</ele>
        <time>2019-06-29T07:47:12Z</time>
      </trkpt>
      <trkpt lat="46.08493" lon="6.52396">
        <ele>187</ele>
        <time>2019-06-29T07:47:16Z</time>
      </trkpt>
      <trkpt lat="46.0849" lon="6.52409">
        <ele>186</ele>
        <time>2019-06-29T07:47:20Z</time>
      </trkpt>
      <trkpt lat="46.08484" lon="6.52424">
        <ele>185</ele>
        <time>2019-06-29T07:47:24Z</time>
      </trkpt>
      <trkpt lat="46.08473" lon="6.52451">
        <ele>183</ele>
        <time>2019-06-29T07:47:28Z</time>
      </trkpt>
      <trkpt lat="46.08464" lon="6.52488">
        <ele>182</ele>
        <time>2019-06-29T07:47:32Z</time>
      </trkpt>
      <trkpt lat="46.08456" lon="6.52525">
        <ele>182</ele>
        <time>2019-06-29T07:47:36Z</time>
      </trkpt>
      <trkpt lat="46.08448" lon="6.5256">
        <ele>182</ele>
        <time>2019-06-29T07:47:40Z</time>
      </trkpt>
      <trkpt lat="46.08441" lon="6.5259">
        <ele>184</ele>
        <time>2019-06-29T07:47:44Z</time>
      </trkpt>
      <trkpt lat="46.08435" lon="6.52618">
        <ele>185</ele>
        <time>2019-06-29T07:47:48Z</time>
      </trkpt>
      <trkpt lat="46.08428" lon="6.52648">
        <ele>185</ele>
        <time>2019-06-29T07:47:52Z</time>
      </trkpt>
      <trkpt lat="46.0842" lon="6.52682">
        <ele>184</ele>
        <time>2019-06-29T07:47:56Z</time>
      </trkpt>
      <trkpt lat="46.08411" lon="6.52721">
        <ele>182</ele>
        <time>2019-06-29T07:48:00Z</time>
      </trkpt>
      <trkpt lat="46.08401" lon="6.52762">
        <ele>180</ele>
        <time>2019-06-29T07:48:04Z</time>
      </trkpt>
      <trkpt lat="46.08391" lon="6.52803">
        <ele>181</ele>
        <time>2019-06-29T07:48:08Z</time>
      </trkpt>
      <trkpt lat="46.08382" lon="6.52842">
        <ele>181</ele>
        <time>2019-06-29T07:48:12Z</time>
      </trkpt>
      <trkpt lat="46.08374" lon="6.52881">
        <ele>182</ele>
        <time>2019-06-29T07:48:16Z</time>
      </trkpt>
      <trkpt lat="46.08366" lon="6.5292">
        <ele>182</ele>
        <time>2019-06-29T07:48:20Z</time>
      </trkpt>
      <trkpt lat="46.08357" lon="6.52958">
        <ele>182</ele>
        <time>2019-06-29T07:48:24Z</time>
      </trkpt>
      <trkpt lat="46.08349" lon="6.52996">
        <ele>182</ele>
        <time>2019-06-29T07:48:28Z</time>
      </trkpt>
      <trkpt lat="46.0834" lon="6.53033">
        <ele>182</ele>
        <time>2019-06-29T07:48:32Z</time>
      </trkpt>
      <trkpt lat="46.08332" lon="6.5307">
        <ele>183</ele>
        <time>2019-06-29T07:48:36Z</time>
      </trkpt>
      <trkpt lat="46.08323" lon="6.53107">
        <ele>182</ele>
        <time>2019-06-29T07:48:40Z</time>
      </trkpt>
      <trkpt lat="46.08315" lon="6.53145">
        <ele>182</ele>
        <time>2019-06-29T07:48:44Z</time>
      </trkpt>
      <trkpt lat="46.08306" lon="6.53182">
        <ele>183</ele>
        <time>2019-06-29T07:48:48Z</time>
      </trkpt>
      <trkpt lat="46.08298" lon="6.53219">
        <ele>182</ele>
        <time>2019-06-29T07:48:52Z</time>
      </trkpt>
      <trkpt lat="46.08291" lon="6.53254">
        <ele>183</ele>
        <time>2019-06-29T07:48:56Z</time>
      </trkpt>
      <trkpt lat="46.08282" lon="6.53291">
        <ele>183</ele>
        <time>2019-06-29T07:49:00Z</time>
      </trkpt>
      <trkpt lat="46.08273" lon="6.53328">
        <ele>184</ele>
        <time>2019-06-29T07:49:04Z</time>
      </trkpt>
      <trkpt lat="46.08265" lon="6.53365">
        <ele>184</ele>
        <time>2019-06-29T07:49:08Z</time>
      </trkpt>
      <trkpt lat="46.08257" lon="6.53402">
        <ele>183</ele>
        <time>2019-06-29T07:49:12Z</time>
      </trkpt>
      <trkpt lat="46.08249" lon="6.53438">
        <ele>184</ele>
        <time>2019-06-29T07:49:16Z</time>
      </trkpt>
      <trkpt lat="46.08241" lon="6.53473">
        <ele>184</ele>
        <time>2019-06-29T07:49:20Z</time>
      </trkpt>
      <trkpt lat="46.08234" lon="6.53507">
        <ele>185</ele>
        <time>2019-06-29T07:49:24Z</time>
      </trkpt>
      <trkpt lat="46.08225" lon="6.53542">
        <ele>185</ele>
        <time>2019-06-29T07:49:28Z</time>
      </trkpt>
      <trkpt lat="46.08217" lon="6.53576">
        <ele>185</ele>
        <time>2019-06-29T07:49:32Z</time>
      </trkpt>
      <trkpt lat="46.0821" lon="6.53611">
        <ele>185</ele>
        <time>2019-06-29T07:49:36Z</time>
      </trkpt>
      <trkpt lat="46.08201" lon="6.53646">
        <ele>184</ele>
        <time>2019-06-29T07:49:40Z</time>
      </trkpt>
      <trkpt lat="46.08193" lon="6.53683">
        <ele>184</ele>
        <time>2019-06-29T07:49:44Z</time>
      </trkpt>
      <trkpt lat="46.08185" lon="6.5372">
        <ele>183</ele>
        <time>2019-06-29T07:49:48Z</time>
      </trkpt>
      <trkpt lat="46.08177" lon="6.53758">
        <ele>184</ele>
        <time>2019-06-29T07:49:52Z</time>
      </trkpt>
      <trkpt lat="46.08172" lon="6.53789">
        <ele>185</ele>
        <time>2019-06-29T07:49:56Z</time>
      </trkpt>
      <trkpt lat="46.08168" lon="6.53802">
        <ele>186</ele>
        <time>2019-06-29T07:50:00Z</time>
      </trkpt>
      <trkpt lat="46.08166" lon="6.53815">
        <ele>187</ele>
        <time>2019-06-29T07:50:04Z</time>
      </trkpt>
      <trkpt lat="46.08162" lon="6.53832">
        <ele>186</ele>
        <time>2019-06-29T07:50:08Z</time>
      </trkpt>
      <trkpt lat="46.0816" lon="6.53853">
        <ele>185</ele>
        <time>2019-06-29T07:50:12Z</time>
      </trkpt>
      <trkpt lat="46.08156" lon="6.53878">
        <ele>185</ele>
        <time>2019-06-29T07:50:16Z</time>
      </trkpt>
      <trkpt lat="46.08152" lon="6.53908">
        <ele>184</ele>
        <time>2019-06-29T07:50:20Z</time>
      </trkpt>
      <trkpt lat="46.08147" lon="6.53941">
        <ele>183</ele>
        <time>2019-06-29T07:50:24Z</time>
      </trkpt>
      <trkpt lat="46.08141" lon="6.53976">
        <ele>183</ele>
        <time>2019-06-29T07:50:28Z</time>
      </trkpt>
      <trkpt lat="46.08136" lon="6.54012">
        <ele>182</ele>
        <time>2019-06-29T07:50:32Z</time>
      </trkpt>
      <trkpt lat="46.08131" lon="6.54049">
        <ele>182</ele>
        <time>2019-06-29T07:50:36Z</time>
      </trkpt>
      <trkpt lat="46.08124" lon="6.54086">
        <ele>182</ele>
        <time>2019-06-29T07:50:40Z</time>
      </trkpt>
      <trkpt lat="46.08118" lon="6.54122">
        <ele>182</ele>
        <time>2019-06-29T07:50:44Z</time>
      </trkpt>
      <trkpt lat="46.08103" lon="6.54152">
        <ele>183</ele>
        <time>2019-06-29T07:50:48Z</time>
      </trkpt>
      <trkpt lat="46.08103" lon="6.54188">
        <ele>182</ele>
        <time>2019-06-29T07:50:52Z</time>
      </trkpt>
      <trkpt lat="46.08098" lon="6.54223">
        <ele>183</ele>
        <time>2019-06-29T07:50:56Z</time>
      </trkpt>
      <trkpt lat="46.08092" lon="6.5426">
        <ele>182</ele>
        <time>2019-06-29T07:51:00Z</time>
      </trkpt>
      <trkpt lat="46.08086" lon="6.54298">
        <ele>182</ele>
        <time>2019-06-29T07:51:04Z</time>
      </trkpt>
      <trkpt lat="46.0808" lon="6.54335">
        <ele>183</ele>
        <time>2019-06-29T07:51:08Z</time>
      </trkpt>
      <trkpt lat="46.08072" lon="6.5437">
        <ele>183</ele>
        <time>2019-06-29T07:51:12Z</time>
      </trkpt>
      <trkpt lat="46.08076" lon="6.54392">
        <ele>184</ele>
        <time>2019-06-29T07:51:16Z</time>
      </trkpt>
      <trkpt lat="46.08073" lon="6.54413">
        <ele>185</ele>
        <time>2019-06-29T07:51:20Z</time>
      </trkpt>
      <trkpt lat="46.08068" lon="6.54443">
        <ele>184</ele>
        <time>2019-06-29T07:51:24Z</time>
      </trkpt>
      <trkpt lat="46.08063" lon="6.54476">
        <ele>184</ele>
        <time>2019-06-29T07:51:28Z</time>
      </trkpt>
      <trkpt lat="46.08058" lon="6.5451">
        <ele>184</ele>
        <time>2019-06-29T07:51:32Z</time>
      </trkpt>
      <trkpt lat="46.08053" lon="6.54544">
        <ele>184</ele>
        <time>2019-06-29T07:51:36Z</time>
      </trkpt>
      <trkpt lat="46.08048" lon="6.5458">
        <ele>184</ele>
        <time>2019-06-29T07:51:40Z</time>
      </trkpt>
      <trkpt lat="46.08042" lon="6.54617">
        <ele>184</ele>
        <time>2019-06-29T07:51:44Z</time>
      </trkpt>
      <trkpt lat="46.08035" lon="6.54655">
        <ele>183</ele>
        <time>2019-06-29T07:51:48Z</time>
      </trkpt>
      <trkpt lat="46.08029" lon="6.54694">
        <ele>183</ele>
        <time>2019-06-29T07:51:52Z</time>
      </trkpt>
      <trkpt lat="46.08023" lon="6.54733">
        <ele>183</ele>
        <time>2019-06-29T07:51:56Z</time>
      </trkpt>
      <trkpt lat="46.08017" lon="6.54771">
        <ele>184</ele>
        <time>2019-06-29T07:52:00Z</time>
      </trkpt>
      <trkpt lat="46.08011" lon="6.5481">
        <ele>183</ele>
        <time>2019-06-29T07:52:04Z</time>
      </trkpt>
      <trkpt lat="46.08005" lon="6.54847">
        <ele>184</ele>
        <time>2019-06-29T07:52:08Z</time>
      </trkpt>
      <trkpt lat="46.07999" lon="6.54884">
        <ele>184</ele>
        <time>2019-06-29T07:52:12Z</time>
      </trkpt>
      <trkpt lat="46.07993" lon="6.54922">
        <ele>183</ele>
        <time>2019-06-29T07:52:16Z</time>
      </trkpt>
      <trkpt lat="46.07987" lon="6.5496">
        <ele>183</ele>
        <time>2019-06-29T07:52:20Z</time>
      </trkpt>
      <trkpt lat="46.07981" lon="6.54996">
        <ele>184</ele>
        <time>2019-06-29T07:52:24Z</time>
      </trkpt>
      <trkpt lat="46.07975" lon="6.55033">
        <ele>184</ele>
        <time>2019-06-29T07:52:28Z</time>
      </trkpt>
      <trkpt lat="46.07969" lon="6.5507">
        <ele>184</ele>
        <time>2019-06-29T07:52:32Z</time>
      </trkpt>
      <trkpt lat="46.07963" lon="6.55105">
        <ele>185</ele>
        <time>2019-06-29T07:52:36Z</time>
      </trkpt>
      <trkpt lat="46.07958" lon="6.55137">
        <ele>186</ele>
        <time>2019-06-29T07:52:40Z</time>
      </trkpt>
      <trkpt lat="46.07954" lon="6.55163">
        <ele>188</ele>
        <time>2019-06-29T07:52:44Z</time>
      </trkpt>
      <trkpt lat="46.07951" lon="6.55182">
        <ele>190</ele>
        <time>2019-06-29T07:52:48Z</time>
      </trkpt>
      <trkpt lat="46.0795" lon="6.5519">
        <ele>190</ele>
        <time>2019-06-29T07:52:52Z</time>
      </trkpt>
      <trkpt lat="46.07946" lon="6.55198">
        <ele>191</ele>
        <time>2019-06-29T07:52:56Z</time>
      </trkpt>
      <trkpt lat="46.07943" lon="6.55206">
        <ele>191</ele>
        <time>2019-06-29T07:53:00Z</time>
      </trkpt>
      <trkpt lat="46.07941" lon="6.55218">
        <ele>189</ele>
        <time>2019-06-29T07:53:04Z</time>
      </trkpt>
      <trkpt lat="46.07937" lon="6.55245">
        <ele>187</ele>
        <time>2019-06-29T07:53:08Z</time>
      </trkpt>
      <trkpt lat="46.07934" lon="6.55277">
        <ele>185</ele>
        <time>2019-06-29T07:53:12Z</time>
      </trkpt>
      <trkpt lat="46.07929" lon="6.5531">
        <ele>185</ele>
        <time>2019-06-29T07:53:16Z</time>
      </trkpt>
      <trkpt lat="46.07924" lon="6.55344">
        <ele>185</ele>
        <time>2019-06-29T07:53:20Z</time>
      </trkpt>
      <trkpt lat="46.07919" lon="6.5538">
        <ele>185</ele>
        <time>2019-06-29T07:53:24Z</time>
      </trkpt>
      <trkpt lat="46.07913" lon="6.55416">
        <ele>185</ele>
        <time>2019-06-29T07:53:28Z</time>
      </trkpt>
      <trkpt lat="46.07906" lon="6.55446">
        <ele>186</ele>
        <time>2019-06-29T07:53:32Z</time>
      </trkpt>
      <trkpt lat="46.07904" lon="6.55454">
        <ele>188</ele>
        <time>2019-06-29T07:53:36Z</time>
      </trkpt>
      <trkpt lat="46.07907" lon="6.55447">
        <ele>188</ele>
        <time>2019-06-29T07:53:40Z</time>
      </trkpt>
      <trkpt lat="46.07904" lon="6.5545">
        <ele>188</ele>
        <time>2019-06-29T07:53:44Z</time>
      </trkpt>
      <trkpt lat="46.07901" lon="6.55465">
        <ele>187</ele>
        <time>2019-06-29T07:53:48Z</time>
      </trkpt>
      <trkpt lat="46.07897" lon="6.55486">
        <ele>187</ele>
        <time>2019-06-29T07:53:52Z</time>
      </trkpt>
      <trkpt lat="46.07891" lon="6.55512">
        <ele>186</ele>
        <time>2019-06-29T07:53:56Z</time>
      </trkpt>
      <trkpt lat="46.07884" lon="6.5554">
        <ele>186</ele>
        <time>2019-06-29T07:54:00Z</time>
      </trkpt>
      <trkpt lat="46.07876" lon="6.55571">
        <ele>186</ele>
        <time>2019-06-29T07:54:04Z</time>
      </trkpt>
      <trkpt lat="46.07865" lon="6.55603">
        <ele>186</ele>
        <time>2019-06-29T07:54:08Z</time>
      </trkpt>
      <trkpt lat="46.07853" lon="6.55636">
        <ele>186</ele>
        <time>2019-06-29T07:54:12Z</time>
      </trkpt>
      <trkpt lat="46.07842" lon="6.55666">
        <ele>186</ele>
        <time>2019-06-29T07:54:16Z</time>
      </trkpt>
      <trkpt lat="46.07823" lon="6.55673">
        <ele>187</ele>
        <time>2019-06-29T07:54:20Z</time>
      </trkpt>
      <trkpt lat="46.07808" lon="6.55654">
        <ele>187</ele>
        <time>2019-06-29T07:54:24Z</time>
      </trkpt>
      <trkpt lat="46.07791" lon="6.55632">
        <ele>186</ele>
        <time>2019-06-29T07:54:28Z</time>
      </trkpt>
      <trkpt lat="46.07774" lon="6.55607">
        <ele>186</ele>
        <time>2019-06-29T07:54:32Z</time>
      </trkpt>
      <trkpt lat="46.07756" lon="6.55581">
        <ele>186</ele>
        <time>2019-06-29T07:54:36Z</time>
      </trkpt>
      <trkpt lat="46.07741" lon="6.55551">
        <ele>186</ele>
        <time>2019-06-29T07:54:40Z</time>
      </trkpt>
      <trkpt lat="46.07726" lon="6.5552">
        <ele>186</ele>
        <time>2019-06-29T07:54:44Z</time>
      </trkpt>
      <trkpt lat="46.07712" lon="6.55489">
        <ele>186</ele>
        <time>2019-06-29T07:54:48Z</time>
      </trkpt>
      <trkpt lat="46.07697" lon="6.55457">
        <ele>186</ele>
        <time>2019-06-29T07:54:52Z</time>
      </trkpt>
      <trkpt lat="46.07683" lon="6.55427">
        <ele>186</ele>
        <time>2019-06-29T07:54:56Z</time>
      </trkpt>
      <trkpt lat="46.07669" lon="6.55396">
        <ele>186</ele>
        <time>2019-06-29T07:55:00Z</time>
      </trkpt>
      <trkpt lat="46.07655" lon="6.55365">
        <ele>186</ele>
        <time>2019-06-29T07:55:04Z</time>
      </trkpt>
      <trkpt lat="46.0764" lon="6.55332">
        <ele>187</ele>
        <time>2019-06-29T07:55:08Z</time>
      </trkpt>
      <trkpt lat="46.07623" lon="6.55303">
        <ele>186</ele>
        <time>2019-06-29T07:55:12Z</time>
      </trkpt>
      <trkpt lat="46.07611" lon="6.5527">
        <ele>186</ele>
        <time>2019-06-29T07:55:16Z</time>
      </trkpt>
      <trkpt lat="46.07597" lon="6.55239">
        <ele>186</ele>
        <time>2019-06-29T07:55:20Z</time>
      </trkpt>
      <trkpt lat="46.07582" lon="6.55207">
        <ele>186</ele>
        <time>2019-06-29T07:55:24Z</time>
      </trkpt>
      <trkpt lat="46.07569" lon="6.55179">
        <ele>187</ele>
        <time>2019-06-29T07:55:28Z</time>
      </trkpt>
      <trkpt lat="46.07563" lon="6.55162">
        <ele>189</ele>
        <time>2019-06-29T07:55:32Z</time>
      </trkpt>
      <trkpt lat="46.07559" lon="6.55153">
        <ele>189</ele>
        <time>2019-06-29T07:55:36Z</time>
      </trkpt>
      <trkpt lat="46.07556" lon="6.55147">
        <ele>189</ele>
        <time>2019-06-29T07:55:40Z</time>
      </trkpt>
      <trkpt lat="46.07547" lon="6.55132">
        <ele>188</ele>
        <time>2019-06-29T07:55:44Z</time>
      </trkpt>
      <trkpt lat="46.07537" lon="6.55108">
        <ele>187</ele>
        <time>2019-06-29T07:55:48Z</time>
      </trkpt>
      <trkpt lat="46.07524" lon="6.55082">
        <ele>187</ele>
        <time>2019-06-29T07:55:52Z</time>
      </trkpt>
      <trkpt lat="46.07511" lon="6.55053">
        <ele>186</ele>
        <time>2019-06-29T07:55:56Z</time>
      </trkpt>
      <trkpt lat="46.07498" lon="6.55025">
        <ele>186</ele>
        <time>2019-06-29T07:56:00Z</time>
      </trkpt>
      <trkpt lat="46.07484" lon="6.54994">
        <ele>187</ele>
        <time>2019-06-29T07:56:04Z</time>
      </trkpt>
      <trkpt lat="46.07469" lon="6.54963">
        <ele>187</ele>
        <time>2019-06-29T07:56:08Z</time>
      </trkpt>
      <trkpt lat="46.07455" lon="6.54932">
        <ele>186</ele>
        <time>2019-06-29T07:56:12Z</time>
      </trkpt>
      <trkpt lat="46.07441" lon="6.54901">
        <ele>186</ele>
        <time>2019-06-29T07:56:16Z</time>
      </trkpt>
      <trkpt lat="46.07426" lon="6.5487">
        <ele>186</ele>
        <time>2019-06-29T07:56:20Z</time>
      </trkpt>
      <trkpt lat="46.07411" lon="6.54838">
        <ele>186</ele>
        <time>2019-06-29T07:56:24Z</time>
      </trkpt>
      <trkpt lat="46.07399" lon="6.5481">
        <ele>187</ele>
        <time>2019-06-29T07:56:28Z</time>
      </trkpt>
      <trkpt lat="46.07397" lon="6.54791">
        <ele>189</ele>
        <time>2019-06-29T07:56:32Z</time>
      </trkpt>
      <trkpt lat="46.07392" lon="6.54787">
        <ele>188</ele>
        <time>2019-06-29T07:56:36Z</time>
      </trkpt>
      <trkpt lat="46.07387" lon="6.54791">
        <ele>188</ele>
        <time>2019-06-29T07:56:40Z</time>
      </trkpt>
      <trkpt lat="46.07377" lon="6.54792">
        <ele>188</ele>
        <time>2019-06-29T07:56:44Z</time>
      </trkpt>
      <trkpt lat="46.07366" lon="6.54796">
        <ele>188</ele>
        <time>2019-06-29T07:56:48Z</time>
      </trkpt>
      <trkpt lat="46.07357" lon="6.54797">
        <ele>188</ele>
        <time>2019-06-29T07:56:52Z</time>
      </trkpt>
      <trkpt lat="46.07346" lon="6.54792">
        <ele>187</ele>
        <time>2019-06-29T07:56:56Z</time>
      </trkpt>
      <trkpt lat="46.07329" lon="6.54797">
        <ele>187</ele>
        <time>2019-06-29T07:57:00Z</time>
      </trkpt>
      <trkpt lat="46.07323" lon="6.54818">
        <ele>187</ele>
        <time>2019-06-29T07:57:04Z</time>
      </trkpt>
      <trkpt lat="46.07318" lon="6.54841">
        <ele>187</ele>
        <time>2019-06-29T07:57:08Z</time>
      </trkpt>
      <trkpt lat="46.0731" lon="6.54866">
        <ele>187</ele>
        <time>2019-06-29T07:57:12Z</time>
      </trkpt>
      <trkpt lat="46.07303" lon="6.54893">
        <ele>187</ele>
        <time>2019-06-29T07:57:16Z</time>
      </trkpt>
      <trkpt lat="46.07295" lon="6.54921">
        <ele>186</ele>
        <time>2019-06-29T07:57:20Z</time>
      </trkpt>
      <trkpt lat="46.07287" lon="6.5495">
        <ele>187</ele>
        <time>2019-06-29T07:57:24Z</time>
      </trkpt>
      <trkpt lat="46.07279" lon="6.5498">
        <ele>187</ele>
        <time>2019-06-29T07:57:28Z</time>
      </trkpt>
      <trkpt lat="46.07271" lon="6.55011">
        <ele>187</ele>
        <time>2019-06-29T07:57:32Z</time>
      </trkpt>
      <trkpt lat="46.07262" lon="6.5504">
        <ele>187</ele>
        <time>2019-06-29T07:57:36Z</time>
      </trkpt>
      <trkpt lat="46.07253" lon="6.5507">
        <ele>187</ele>
        <time>2019-06-29T07:57:40Z</time>
      </trkpt>
      <trkpt lat="46.07244" lon="6.55092">
        <ele>189</ele>
        <time>2019-06-29T07:57:44Z</time>
      </trkpt>
      <trkpt lat="46.07246" lon="6.551">
        <ele>189</ele>
        <time>2019-06-29T07:58:08Z</time>
      </trkpt>
      <trkpt lat="46.07243" lon="6.55108">
        <ele>189</ele>
        <time>2019-06-29T07:58:12Z</time>
      </trkpt>
      <trkpt lat="46.07239" lon="6.55127">
        <ele>189</ele>
        <time>2019-06-29T07:58:16Z</time>
      </trkpt>
      <trkpt lat="46.07232" lon="6.55152">
        <ele>188</ele>
        <time>2019-06-29T07:58:20Z</time>
      </trkpt>
      <trkpt lat="46.07222" lon="6.55179">
        <ele>188</ele>
        <time>2019-06-29T07:58:24Z</time>
      </trkpt>
      <trkpt lat="46.07212" lon="6.55209">
        <ele>188</ele>
        <time>2019-06-29T07:58:28Z</time>
      </trkpt>
      <trkpt lat="46.07202" lon="6.55241">
        <ele>188</ele>
        <time>2019-06-29T07:58:32Z</time>
      </trkpt>
      <trkpt lat="46.07192" lon="6.55272">
        <ele>187</ele>
        <time>2019-06-29T07:58:36Z</time>
      </trkpt>
      <trkpt lat="46.0718" lon="6.55304">
        <ele>188</ele>
        <time>2019-06-29T07:58:40Z</time>
      </trkpt>
      <trkpt lat="46.07166" lon="6.55334">
        <ele>188</ele>
        <time>2019-06-29T07:58:44Z</time>
      </trkpt>
      <trkpt lat="46.07152" lon="6.55366">
        <ele>187</ele>
        <time>2019-06-29T07:58:48Z</time>
      </trkpt>
      <trkpt lat="46.07138" lon="6.55399">
        <ele>187</ele>
        <time>2019-06-29T07:58:52Z</time>
      </trkpt>
      <trkpt lat="46.07124" lon="6.55431">
        <ele>188</ele>
        <time>2019-06-29T07:58:56Z</time>
      </trkpt>
      <trkpt lat="46.07111" lon="6.55464">
        <ele>188</ele>
        <time>2019-06-29T07:59:00Z</time>
      </trkpt>
      <trkpt lat="46.07098" lon="6.55496">
        <ele>188</ele>
        <time>2019-06-29T07:59:04Z</time>
      </trkpt>
      <trkpt lat="46.07084" lon="6.55529">
        <ele>188</ele>
        <time>2019-06-29T07:59:08Z</time>
      </trkpt>
      <trkpt lat="46.07071" lon="6.5556">
        <ele>188</ele>
        <time>2019-06-29T07:59:12Z</time>
      </trkpt>
      <trkpt lat="46.07054" lon="6.55586">
        <ele>188</ele>
        <time>2019-06-29T07:59:16Z</time>
      </trkpt>
      <trkpt lat="46.07039" lon="6.55616">
        <ele>188</ele>
        <time>2019-06-29T07:59:20Z</time>
      </trkpt>
      <trkpt lat="46.07029" lon="6.5565">
        <ele>188</ele>
        <time>2019-06-29T07:59:24Z</time>
      </trkpt>
      <trkpt lat="46.07017" lon="6.55682">
        <ele>188</ele>
        <time>2019-06-29T07:59:28Z</time>
      </trkpt>
      <trkpt lat="46.07003" lon="6.55712">
        <ele>189</ele>
        <time>2019-06-29T07:59:32Z</time>
      </trkpt>
      <trkpt lat="46.06995" lon="6.55741">
        <ele>189</ele>
        <time>2019-06-29T07:59:36Z</time>
      </trkpt>
      <trkpt lat="46.06984" lon="6.55759">
        <ele>189</ele>
        <time>2019-06-29T07:59:40Z</time>
      </trkpt>
      <trkpt lat="46.06976" lon="6.55785">
        <ele>189</ele>
        <time>2019-06-29T07:59:44Z</time>
      </trkpt>
      <trkpt lat="46.06966" lon="6.5581">
        <ele>189</ele>
        <time>2019-06-29T07:59:48Z</time>
      </trkpt>
      <trkpt lat="46.06956" lon="6.55837">
        <ele>190</ele>
        <time>2019-06-29T07:59:52Z</time>
      </trkpt>
      <trkpt lat="46.06947" lon="6.55867">
        <ele>189</ele>
        <time>2019-06-29T07:59:56Z</time>
      </trkpt>
      <trkpt lat="46.06935" lon="6.55892">
        <ele>190</ele>
        <time>2019-06-29T08:00:00Z</time>
      </trkpt>
      <trkpt lat="46.06923" lon="6.55922">
        <ele>190</ele>
        <time>2019-06-29T08:00:04Z</time>
      </trkpt>
      <trkpt lat="46.06908" lon="6.5595">
        <ele>190</ele>
        <time>2019-06-29T08:00:08Z</time>
      </trkpt>
      <trkpt lat="46.06893" lon="6.55974">
        <ele>190</ele>
        <time>2019-06-29T08:00:12Z</time>
      </trkpt>
      <trkpt lat="46.06879" lon="6.55998">
        <ele>190</ele>
        <time>2019-06-29T08:00:16Z</time>
      </trkpt>
      <trkpt lat="46.06868" lon="6.56024">
        <ele>190</ele>
        <time>2019-06-29T08:00:20Z</time>
      </trkpt>
      <trkpt lat="46.06854" lon="6.56054">
        <ele>188</ele>
        <time>2019-06-29T08:00:24Z</time>
      </trkpt>
      <trkpt lat="46.06846" lon="6.56086">
        <ele>188</ele>
        <time>2019-06-29T08:00:28Z</time>
      </trkpt>
      <trkpt lat="46.06835" lon="6.56109">
        <ele>188</ele>
        <time>2019-06-29T08:00:32Z</time>
      </trkpt>
      <trkpt lat="46.06823" lon="6.56133">
        <ele>189</ele>
        <time>2019-06-29T08:00:36Z</time>
      </trkpt>
      <trkpt lat="46.06817" lon="6.56159">
        <ele>191</ele>
        <time>2019-06-29T08:00:40Z</time>
      </trkpt>
      <trkpt lat="46.06806" lon="6.56184">
        <ele>191</ele>
        <time>2019-06-29T08:00:44Z</time>
      </trkpt>
      <trkpt lat="46.06796" lon="6.56212">
        <ele>191</ele>
        <time>2019-06-29T08:00:48Z</time>
      </trkpt>
      <trkpt lat="46.06783" lon="6.56241">
        <ele>191</ele>
        <time>2019-06-29T08:00:52Z</time>
      </trkpt>
      <trkpt lat="46.0677" lon="6.56271">
        <ele>190</ele>
        <time>2019-06-29T08:00:56Z</time>
      </trkpt>
      <trkpt lat="46.06759" lon="6.56302">
        <ele>190</ele>
        <time>2019-06-29T08:01:00Z</time>
      </trkpt>
      <trkpt lat="46.06744" lon="6.56331">
        <ele>190</ele>
        <time>2019-06-29T08:01:04Z</time>
      </trkpt>
      <trkpt lat="46.06729" lon="6.56359">
        <ele>190</ele>
        <time>2019-06-29T08:01:08Z</time>
      </trkpt>
      <trkpt lat="46.06715" lon="6.56386">
        <ele>191</ele>
        <time>2019-06-29T08:01:12Z</time>
      </trkpt>
      <trkpt lat="46.06699" lon="6.56412">
        <ele>190</ele>
        <time>2019-06-29T08:01:16Z</time>
      </trkpt>
      <trkpt lat="46.0668" lon="6.56439">
        <ele>189</ele>
        <time>2019-06-29T08:01:20Z</time>
      </trkpt>
      <trkpt lat="46.06663" lon="6.56468">
        <ele>189</ele>
        <time>2019-06-29T08:01:24Z</time>
      </trkpt>
      <trkpt lat="46.06644" lon="6.56498">
        <ele>190</ele>
        <time>2019-06-29T08:01:28Z</time>
      </trkpt>
      <trkpt lat="46.06625" lon="6.56527">
        <ele>189</ele>
        <time>2019-06-29T08:01:32Z</time>
      </trkpt>
      <trkpt lat="46.06607" lon="6.56554">
        <ele>189</ele>
        <time>2019-06-29T08:01:36Z</time>
      </trkpt>
      <trkpt lat="46.06588" lon="6.56584">
        <ele>190</ele>
        <time>2019-06-29T08:01:40Z</time>
      </trkpt>
      <trkpt lat="46.06569" lon="6.56611">
        <ele>190</ele>
        <time>2019-06-29T08:01:44Z</time>
      </trkpt>
      <trkpt lat="46.06553" lon="6.56639">
        <ele>190</ele>
        <time>2019-06-29T08:01:48Z</time>
      </trkpt>
      <trkpt lat="46.06536" lon="6.56667">
        <ele>190</ele>
        <time>2019-06-29T08:01:52Z</time>
      </trkpt>
      <trkpt lat="46.06522" lon="6.56699">
        <ele>190</ele>
        <time>2019-06-29T08:01:56Z</time>
      </trkpt>
      <trkpt lat="46.06513" lon="6.56725">
        <ele>192</ele>
        <time>2019-06-29T08:02:00Z</time>
      </trkpt>
      <trkpt lat="46.06505" lon="6.56744">
        <ele>193</ele>
        <time>2019-06-29T08:02:04Z</time>
      </trkpt>
      <trkpt lat="46.065" lon="6.56761">
        <ele>193</ele>
        <time>2019-06-29T08:02:08Z</time>
      </trkpt>
      <trkpt lat="46.06506" lon="6.56782">
        <ele>192</ele>
        <time>2019-06-29T08:02:12Z</time>
      </trkpt>
      <trkpt lat="46.0651" lon="6.56804">
        <ele>193</ele>
        <time>2019-06-29T08:02:16Z</time>
      </trkpt>
      <trkpt lat="46.06513" lon="6.56818">
        <ele>194</ele>
        <time>2019-06-29T08:02:20Z</time>
      </trkpt>
      <trkpt lat="46.06504" lon="6.56836">
        <ele>194</ele>
        <time>2019-06-29T08:02:24Z</time>
      </trkpt>
      <trkpt lat="46.06493" lon="6.56858">
        <ele>193</ele>
        <time>2019-06-29T08:02:28Z</time>
      </trkpt>
      <trkpt lat="46.06482" lon="6.56881">
        <ele>192</ele>
        <time>2019-06-29T08:02:32Z</time>
      </trkpt>
      <trkpt lat="46.06469" lon="6.56904">
        <ele>193</ele>
        <time>2019-06-29T08:02:36Z</time>
      </trkpt>
      <trkpt lat="46.06457" lon="6.56929">
        <ele>192</ele>
        <time>2019-06-29T08:02:40Z</time>
      </trkpt>
      <trkpt lat="46.06445" lon="6.56956">
        <ele>193</ele>
        <time>2019-06-29T08:02:44Z</time>
      </trkpt>
      <trkpt lat="46.06434" lon="6.56985">
        <ele>193</ele>
        <time>2019-06-29T08:02:48Z</time>
      </trkpt>
      <trkpt lat="46.0642" lon="6.57013">
        <ele>192</ele>
        <time>2019-06-29T08:02:52Z</time>
      </trkpt>
      <trkpt lat="46.06405" lon="6.5704">
        <ele>193</ele>
        <time>2019-06-29T08:02:56Z</time>
      </trkpt>
      <trkpt lat="46.06394" lon="6.57065">
        <ele>193</ele>
        <time>2019-06-29T08:03:00Z</time>
      </trkpt>
      <trkpt lat="46.06381" lon="6.57089">
        <ele>193</ele>
        <time>2019-06-29T08:03:04Z</time>
      </trkpt>
      <trkpt lat="46.06364" lon="6.57109">
        <ele>193</ele>
        <time>2019-06-29T08:03:08Z</time>
      </trkpt>
      <trkpt lat="46.06345" lon="6.57127">
        <ele>193</ele>
        <time>2019-06-29T08:03:12Z</time>
      </trkpt>
      <trkpt lat="46.06324" lon="6.57148">
        <ele>193</ele>
        <time>2019-06-29T08:03:16Z</time>
      </trkpt>
      <trkpt lat="46.06308" lon="6.5717">
        <ele>193</ele>
        <time>2019-06-29T08:03:20Z</time>
      </trkpt>
      <trkpt lat="46.06296" lon="6.57191">
        <ele>194</ele>
        <time>2019-06-29T08:03:24Z</time>
      </trkpt>
      <trkpt lat="46.06286" lon="6.57202">
        <ele>194</ele>
        <time>2019-06-29T08:03:28Z</time>
      </trkpt>
      <trkpt lat="46.06273" lon="6.5721">
        <ele>194</ele>
        <time>2019-06-29T08:03:32Z</time>
      </trkpt>
      <trkpt lat="46.06254" lon="6.57226">
        <ele>193</ele>
        <time>2019-06-29T08:03:36Z</time>
      </trkpt>
      <trkpt lat="46.06238" lon="6.57245">
        <ele>193</ele>
        <time>2019-06-29T08:03:40Z</time>
      </trkpt>
      <trkpt lat="46.0622" lon="6.57262">
        <ele>193</ele>
        <time>2019-06-29T08:03:44Z</time>
      </trkpt>
      <trkpt lat="46.06203" lon="6.57281">
        <ele>193</ele>
        <time>2019-06-29T08:03:48Z</time>
      </trkpt>
      <trkpt lat="46.06184" lon="6.57298">
        <ele>194</ele>
        <time>2019-06-29T08:03:52Z</time>
      </trkpt>
      <trkpt lat="46.06166" lon="6.5732">
        <ele>193</ele>
        <time>2019-06-29T08:03:56Z</time>
      </trkpt>
      <trkpt lat="46.06148" lon="6.57341">
        <ele>193</ele>
        <time>2019-06-29T08:04:00Z</time>
      </trkpt>
      <trkpt lat="46.0613" lon="6.57361">
        <ele>193</ele>
        <time>2019-06-29T08:04:04Z</time>
      </trkpt>
      <trkpt lat="46.06111" lon="6.57378">
        <ele>193</ele>
        <time>2019-06-29T08:04:08Z</time>
      </trkpt>
      <trkpt lat="46.06092" lon="6.57393">
        <ele>194</ele>
        <time>2019-06-29T08:04:12Z</time>
      </trkpt>
      <trkpt lat="46.06077" lon="6.57401">
        <ele>193</ele>
        <time>2019-06-29T08:04:16Z</time>
      </trkpt>
      <trkpt lat="46.06061" lon="6.57415">
        <ele>194</ele>
        <time>2019-06-29T08:04:20Z</time>
      </trkpt>
      <trkpt lat="46.06047" lon="6.57428">
        <ele>195</ele>
        <time>2019-06-29T08:04:24Z</time>
      </trkpt>
      <trkpt lat="46.06034" lon="6.57439">
        <ele>195</ele>
        <time>2019-06-29T08:04:28Z</time>
      </trkpt>
      <trkpt lat="46.06029" lon="6.5745">
        <ele>196</ele>
        <time>2019-06-29T08:04:32Z</time>
      </trkpt>
      <trkpt lat="46.06026" lon="6.57454">
        <ele>196</ele>
        <time>2019-06-29T08:04:36Z</time>
      </trkpt>
      <trkpt lat="46.06021" lon="6.57463">
        <ele>196</ele>
        <time>2019-06-29T08:04:40Z</time>
      </trkpt>
      <trkpt lat="46.06021" lon="6.57466">
        <ele>196</ele>
        <time>2019-06-29T08:05:00Z</time>
      </trkpt>
      <trkpt lat="46.06015" lon="6.57476">
        <ele>197</ele>
        <time>2019-06-29T08:05:04Z</time>
      </trkpt>
      <trkpt lat="46.06008" lon="6.57489">
        <ele>198</ele>
        <time>2019-06-29T08:05:08Z</time>
      </trkpt>
      <trkpt lat="46.06002" lon="6.57506">
        <ele>197</ele>
        <time>2019-06-29T08:05:12Z</time>
      </trkpt>
      <trkpt lat="46.05992" lon="6.57521">
        <ele>198</ele>
        <time>2019-06-29T08:05:16Z</time>
      </trkpt>
      <trkpt lat="46.05986" lon="6.57539">
        <ele>198</ele>
        <time>2019-06-29T08:05:20Z</time>
      </trkpt>
      <trkpt lat="46.05979" lon="6.57549">
        <ele>198</ele>
        <time>2019-06-29T08:05:24Z</time>
      </trkpt>
      <trkpt lat="46.05975" lon="6.57557">
        <ele>197</ele>
        <time>2019-06-29T08:05:28Z</time>
      </trkpt>
      <trkpt lat="46.05982" lon="6.57549">
        <ele>198</ele>
        <time>2019-06-29T08:05:32Z</time>
      </trkpt>
      <trkpt lat="46.0599" lon="6.57538">
        <ele>198</ele>
        <time>2019-06-29T08:05:36Z</time>
      </trkpt>
      <trkpt lat="46.06003" lon="6.57532">
        <ele>198</ele>
        <time>2019-06-29T08:05:40Z</time>
      </trkpt>
      <trkpt lat="46.06" lon="6.57515">
        <ele>198</ele>
        <time>2019-06-29T08:05:44Z</time>
      </trkpt>
      <trkpt lat="46.05986" lon="6.57501">
        <ele>198</ele>
        <time>2019-06-29T08:05:48Z</time>
      </trkpt>
      <trkpt lat="46.05975" lon="6.5748">
        <ele>198</ele>
        <time>2019-06-29T08:05:52Z</time>
      </trkpt>
      <trkpt lat="46.05962" lon="6.57458">
        <ele>197</ele>
        <time>2019-06-29T08:05:56Z</time>
      </trkpt>
      <trkpt lat="46.05947" lon="6.57434">
        <ele>196</ele>
        <time>2019-06-29T08:06:00Z</time>
      </trkpt>
      <trkpt lat="46.05931" lon="6.57409">
        <ele>197</ele>
        <time>2019-06-29T08:06:04Z</time>
      </trkpt>
      <trkpt lat="46.05915" lon="6.57384">
        <ele>197</ele>
        <time>2019-06-29T08:06:08Z</time>
      </trkpt>
      <trkpt lat="46.059" lon="6.57359">
        <ele>197</ele>
        <time>2019-06-29T08:06:12Z</time>
      </trkpt>
      <trkpt lat="46.05888" lon="6.57327">
        <ele>196</ele>
        <time>2019-06-29T08:06:16Z</time>
      </trkpt>
      <trkpt lat="46.05885" lon="6.5729">
        <ele>196</ele>
        <time>2019-06-29T08:06:20Z</time>
      </trkpt>
      <trkpt lat="46.05879" lon="6.57264">
        <ele>196</ele>
        <time>2019-06-29T08:06:24Z</time>
      </trkpt>
      <trkpt lat="46.05882" lon="6.57237">
        <ele>195</ele>
        <time>2019-06-29T08:06:28Z</time>
      </trkpt>
      <trkpt lat="46.05874" lon="6.57205">
        <ele>195</ele>
        <time>2019-06-29T08:06:32Z</time>
      </trkpt>
      <trkpt lat="46.05854" lon="6.57188">
        <ele>196</ele>
        <time>2019-06-29T08:06:36Z</time>
      </trkpt>
      <trkpt lat="46.05831" lon="6.57196">
        <ele>195</ele>
        <time>2019-06-29T08:06:40Z</time>
      </trkpt>
      <trkpt lat="46.05809" lon="6.57204">
        <ele>198</ele>
        <time>2019-06-29T08:06:44Z</time>
      </trkpt>
      <trkpt lat="46.05788" lon="6.57205">
        <ele>199</ele>
        <time>2019-06-29T08:06:48Z</time>
      </trkpt>
      <trkpt lat="46.05771" lon="6.572">
        <ele>201</ele>
        <time>2019-06-29T08:06:52Z</time>
      </trkpt>
      <trkpt lat="46.05755" lon="6.57187">
        <ele>202</ele>
        <time>2019-06-29T08:06:56Z</time>
      </trkpt>
      <trkpt lat="46.0574" lon="6.57173">
        <ele>202</ele>
        <time>2019-06-29T08:07:00Z</time>
      </trkpt>
      <trkpt lat="46.05724" lon="6.57158">
        <ele>202</ele>
        <time>2019-06-29T08:07:04Z</time>
      </trkpt>
      <trkpt lat="46.05707" lon="6.57144">
        <ele>201</ele>
        <time>2019-06-29T08:07:08Z</time>
      </trkpt>
      <trkpt lat="46.05688" lon="6.57128">
        <ele>200</ele>
        <time>2019-06-29T08:07:12Z</time>
      </trkpt>
      <trkpt lat="46.05666" lon="6.57104">
        <ele>199</ele>
        <time>2019-06-29T08:07:16Z</time>
      </trkpt>
      <trkpt lat="46.05649" lon="6.57068">
        <ele>197</ele>
        <time>2019-06-29T08:07:20Z</time>
      </trkpt>
      <trkpt lat="46.05638" lon="6.57022">
        <ele>195</ele>
        <time>2019-06-29T08:07:24Z</time>
      </trkpt>
      <trkpt lat="46.05638" lon="6.56973">
        <ele>194</ele>
        <time>2019-06-29T08:07:28Z</time>
      </trkpt>
      <trkpt lat="46.05644" lon="6.56926">
        <ele>194</ele>
        <time>2019-06-29T08:07:32Z</time>
      </trkpt>
      <trkpt lat="46.05649" lon="6.56881">
        <ele>194</ele>
        <time>2019-06-29T08:07:36Z</time>
      </trkpt>
      <trkpt lat="46.05653" lon="6.56836">
        <ele>194</ele>
        <time>2019-06-29T08:07:40Z</time>
      </trkpt>
      <trkpt lat="46.05654" lon="6.56791">
        <ele>194</ele>
        <time>2019-06-29T08:07:44Z</time>
      </trkpt>
      <trkpt lat="46.0565" lon="6.56748">
        <ele>194</ele>
        <time>2019-06-29T08:07:48Z</time>
      </trkpt>
      <trkpt lat="46.0564" lon="6.56709">
        <ele>195</ele>
        <time>2019-06-29T08:07:52Z</time>
      </trkpt>
      <trkpt lat="46.05628" lon="6.56671">
        <ele>196</ele>
        <time>2019-06-29T08:07:56Z</time>
      </trkpt>
      <trkpt lat="46.05617" lon="6.56633">
        <ele>195</ele>
        <time>2019-06-29T08:08:00Z</time>
      </trkpt>
      <trkpt lat="46.05607" lon="6.56594">
        <ele>197</ele>
        <time>2019-06-29T08:08:04Z</time>
      </trkpt>
      <trkpt lat="46.05597" lon="6.56556">
        <ele>197</ele>
        <time>2019-06-29T08:08:08Z</time>
      </trkpt>
      <trkpt lat="46.05581" lon="6.56523">
        <ele>197</ele>
        <time>2019-06-29T08:08:12Z</time>
      </trkpt>
      <trkpt lat="46.0557" lon="6.56487">
        <ele>197</ele>
        <time>2019-06-29T08:08:16Z</time>
      </trkpt>
      <trkpt lat="46.05563" lon="6.56447">
        <ele>198</ele>
        <time>2019-06-29T08:08:20Z</time>
      </trkpt>
      <trkpt lat="46.05557" lon="6.56408">
        <ele>198</ele>
        <time>2019-06-29T08:08:24Z</time>
      </trkpt>
      <trkpt lat="46.05552" lon="6.56368">
        <ele>199</ele>
        <time>2019-06-29T08:08:28Z</time>
      </trkpt>
      <trkpt lat="46.05551" lon="6.56331">
        <ele>199</ele>
        <time>2019-06-29T08:08:32Z</time>
      </trkpt>
      <trkpt lat="46.05551" lon="6.56294">
        <ele>199</ele>
        <time>2019-06-29T08:08:36Z</time>
      </trkpt>
      <trkpt lat="46.0555" lon="6.56258">
        <ele>199</ele>
        <time>2019-06-29T08:08:40Z</time>
      </trkpt>
      <trkpt lat="46.05554" lon="6.56225">
        <ele>200</ele>
        <time>2019-06-29T08:08:44Z</time>
      </trkpt>
      <trkpt lat="46.05539" lon="6.56206">
        <ele>200</ele>
        <time>2019-06-29T08:08:48Z</time>
      </trkpt>
      <trkpt lat="46.05521" lon="6.56188">
        <ele>200</ele>
        <time>2019-06-29T08:08:52Z</time>
      </trkpt>
      <trkpt lat="46.05508" lon="6.56161">
        <ele>200</ele>
        <time>2019-06-29T08:08:56Z</time>
      </trkpt>
      <trkpt lat="46.05495" lon="6.56133">
        <ele>201</ele>
        <time>2019-06-29T08:09:00Z</time>
      </trkpt>
      <trkpt lat="46.05484" lon="6.56105">
        <ele>202</ele>
        <time>2019-06-29T08:09:04Z</time>
      </trkpt>
      <trkpt lat="46.05475" lon="6.56075">
        <ele>202</ele>
        <time>2019-06-29T08:09:08Z</time>
      </trkpt>
      <trkpt lat="46.05467" lon="6.56045">
        <ele>202</ele>
        <time>2019-06-29T08:09:12Z</time>
      </trkpt>
      <trkpt lat="46.05458" lon="6.56013">
        <ele>202</ele>
        <time>2019-06-29T08:09:16Z</time>
      </trkpt>
      <trkpt lat="46.05449" lon="6.55982">
        <ele>202</ele>
        <time>2019-06-29T08:09:20Z</time>
      </trkpt>
      <trkpt lat="46.0544" lon="6.5595">
        <ele>203</ele>
        <time>2019-06-29T08:09:24Z</time>
      </trkpt>
      <trkpt lat="46.05432" lon="6.55918">
        <ele>203</ele>
        <time>2019-06-29T08:09:28Z</time>
      </trkpt>
      <trkpt lat="46.05422" lon="6.55888">
        <ele>204</ele>
        <time>2019-06-29T08:09:32Z</time>
      </trkpt>
      <trkpt lat="46.05413" lon="6.55861">
        <ele>205</ele>
        <time>2019-06-29T08:09:36Z</time>
      </trkpt>
      <trkpt lat="46.05404" lon="6.55834">
        <ele>204</ele>
        <time>2019-06-29T08:09:40Z</time>
      </trkpt>
      <trkpt lat="46.05394" lon="6.55808">
        <ele>205</ele>
        <time>2019-06-29T08:09:44Z</time>
      </trkpt>
      <trkpt lat="46.05383" lon="6.55783">
        <ele>205</ele>
        <time>2019-06-29T08:09:48Z</time>
      </trkpt>
      <trkpt lat="46.05372" lon="6.55759">
        <ele>206</ele>
        <time>2019-06-29T08:09:52Z</time>
      </trkpt>
      <trkpt lat="46.05359" lon="6.55735">
        <ele>206</ele>
        <time>2019-06-29T08:09:56Z</time>
      </trkpt>
      <trkpt lat="46.05348" lon="6.55711">
        <ele>207</ele>
        <time>2019-06-29T08:10:00Z</time>
      </trkpt>
      <trkpt lat="46.05337" lon="6.55687">
        <ele>208</ele>
        <time>2019-06-29T08:10:04Z</time>
      </trkpt>
      <trkpt lat="46.05325" lon="6.55663">
        <ele>208</ele>
        <time>2019-06-29T08:10:08Z</time>
      </trkpt>
      <trkpt lat="46.05314" lon="6.55638">
        <ele>209</ele>
        <time>2019-06-29T08:10:12Z</time>
      </trkpt>
      <trkpt lat="46.05305" lon="6.55612">
        <ele>209</ele>
        <time>2019-06-29T08:10:16Z</time>
      </trkpt>
      <trkpt lat="46.05301" lon="6.55584">
        <ele>210</ele>
        <time>2019-06-29T08:10:20Z</time>
      </trkpt>
      <trkpt lat="46.05299" lon="6.55555">
        <ele>210</ele>
        <time>2019-06-29T08:10:24Z</time>
      </trkpt>
      <trkpt lat="46.05297" lon="6.55526">
        <ele>212</ele>
        <time>2019-06-29T08:10:28Z</time>
      </trkpt>
      <trkpt lat="46.053" lon="6.55496">
        <ele>212</ele>
        <time>2019-06-29T08:10:32Z</time>
      </trkpt>
      <trkpt lat="46.05306" lon="6.55465">
        <ele>212</ele>
        <time>2019-06-29T08:10:36Z</time>
      </trkpt>
      <trkpt lat="46.05311" lon="6.55435">
        <ele>212</ele>
        <time>2019-06-29T08:10:40Z</time>
      </trkpt>
      <trkpt lat="46.05311" lon="6.55403">
        <ele>213</ele>
        <time>2019-06-29T08:10:44Z</time>
      </trkpt>
      <trkpt lat="46.05307" lon="6.55374">
        <ele>213</ele>
        <time>2019-06-29T08:10:48Z</time>
      </trkpt>
      <trkpt lat="46.05302" lon="6.55344">
        <ele>213</ele>
        <time>2019-06-29T08:10:52Z</time>
      </trkpt>
      <trkpt lat="46.05299" lon="6.55316">
        <ele>212</ele>
        <time>2019-06-29T08:10:56Z</time>
      </trkpt>
      <trkpt lat="46.05306" lon="6.55288">
        <ele>214</ele>
        <time>2019-06-29T08:11:00Z</time>
      </trkpt>
      <trkpt lat="46.05305" lon="6.55254">
        <ele>214</ele>
        <time>2019-06-29T08:11:04Z</time>
      </trkpt>
      <trkpt lat="46.05299" lon="6.55225">
        <ele>214</ele>
        <time>2019-06-29T08:11:08Z</time>
      </trkpt>
      <trkpt lat="46.05296" lon="6.55196">
        <ele>214</ele>
        <time>2019-06-29T08:11:12Z</time>
      </trkpt>
      <trkpt lat="46.05287" lon="6.55171">
        <ele>213</ele>
        <time>2019-06-29T08:11:16Z</time>
      </trkpt>
      <trkpt lat="46.05275" lon="6.55147">
        <ele>214</ele>
        <time>2019-06-29T08:11:20Z</time>
      </trkpt>
      <trkpt lat="46.05268" lon="6.55112">
        <ele>214</ele>
        <time>2019-06-29T08:11:24Z</time>
      </trkpt>
      <trkpt lat="46.05259" lon="6.55079">
        <ele>213</ele>
        <time>2019-06-29T08:11:28Z</time>
      </trkpt>
      <trkpt lat="46.05251" lon="6.55043">
        <ele>214</ele>
        <time>2019-06-29T08:11:32Z</time>
      </trkpt>
      <trkpt lat="46.05247" lon="6.55008">
        <ele>213</ele>
        <time>2019-06-29T08:11:36Z</time>
      </trkpt>
      <trkpt lat="46.05238" lon="6.54975">
        <ele>213</ele>
        <time>2019-06-29T08:11:40Z</time>
      </trkpt>
      <trkpt lat="46.0523" lon="6.54942">
        <ele>214</ele>
        <time>2019-06-29T08:11:44Z</time>
      </trkpt>
      <trkpt lat="46.05223" lon="6.54911">
        <ele>214</ele>
        <time>2019-06-29T08:11:48Z</time>
      </trkpt>
      <trkpt lat="46.0522" lon="6.54879">
        <ele>215</ele>
        <time>2019-06-29T08:11:52Z</time>
      </trkpt>
      <trkpt lat="46.0522" lon="6.54848">
        <ele>216</ele>
        <time>2019-06-29T08:11:56Z</time>
      </trkpt>
      <trkpt lat="46.05223" lon="6.54819">
        <ele>216</ele>
        <time>2019-06-29T08:12:00Z</time>
      </trkpt>
      <trkpt lat="46.0522" lon="6.54791">
        <ele>216</ele>
        <time>2019-06-29T08:12:04Z</time>
      </trkpt>
      <trkpt lat="46.05215" lon="6.54761">
        <ele>216</ele>
        <time>2019-06-29T08:12:08Z</time>
      </trkpt>
      <trkpt lat="46.05211" lon="6.54731">
        <ele>217</ele>
        <time>2019-06-29T08:12:12Z</time>
      </trkpt>
      <trkpt lat="46.05205" lon="6.54701">
        <ele>217</ele>
        <time>2019-06-29T08:12:16Z</time>
      </trkpt>
      <trkpt lat="46.05202" lon="6.54668">
        <ele>217</ele>
        <time>2019-06-29T08:12:20Z</time>
      </trkpt>
      <trkpt lat="46.05206" lon="6.54635">
        <ele>219</ele>
        <time>2019-06-29T08:12:24Z</time>
      </trkpt>
      <trkpt lat="46.05217" lon="6.54608">
        <ele>221</ele>
        <time>2019-06-29T08:12:28Z</time>
      </trkpt>
      <trkpt lat="46.0523" lon="6.54588">
        <ele>221</ele>
        <time>2019-06-29T08:12:32Z</time>
      </trkpt>
      <trkpt lat="46.05242" lon="6.5457">
        <ele>222</ele>
        <time>2019-06-29T08:12:36Z</time>
      </trkpt>
      <trkpt lat="46.05257" lon="6.54553">
        <ele>223</ele>
        <time>2019-06-29T08:12:40Z</time>
      </trkpt>
      <trkpt lat="46.05267" lon="6.54535">
        <ele>225</ele>
        <time>2019-06-29T08:12:44Z</time>
      </trkpt>
      <trkpt lat="46.05273" lon="6.54513">
        <ele>225</ele>
        <time>2019-06-29T08:12:48Z</time>
      </trkpt>
      <trkpt lat="46.05272" lon="6.5449">
        <ele>225</ele>
        <time>2019-06-29T08:12:52Z</time>
      </trkpt>
      <trkpt lat="46.05269" lon="6.54468">
        <ele>226</ele>
        <time>2019-06-29T08:12:56Z</time>
      </trkpt>
      <trkpt lat="46.05263" lon="6.54448">
        <ele>226</ele>
        <time>2019-06-29T08:13:00Z</time>
      </trkpt>
      <trkpt lat="46.05252" lon="6.54429">
        <ele>228</ele>
        <time>2019-06-29T08:13:04Z</time>
      </trkpt>
      <trkpt lat="46.05248" lon="6.54408">
        <ele>229</ele>
        <time>2019-06-29T08:13:08Z</time>
      </trkpt>
      <trkpt lat="46.05256" lon="6.54384">
        <ele>230</ele>
        <time>2019-06-29T08:13:12Z</time>
      </trkpt>
      <trkpt lat="46.05263" lon="6.54361">
        <ele>230</ele>
        <time>2019-06-29T08:13:16Z</time>
      </trkpt>
      <trkpt lat="46.0527" lon="6.5434">
        <ele>231</ele>
        <time>2019-06-29T08:13:20Z</time>
      </trkpt>
      <trkpt lat="46.05275" lon="6.54319">
        <ele>232</ele>
        <time>2019-06-29T08:13:24Z</time>
      </trkpt>
      <trkpt lat="46.05277" lon="6.54297">
        <ele>232</ele>
        <time>2019-06-29T08:13:28Z</time>
      </trkpt>
      <trkpt lat="46.05279" lon="6.54275">
        <ele>233</ele>
        <time>2019-06-29T08:13:32Z</time>
      </trkpt>
      <trkpt lat="46.05276" lon="6.54255">
        <ele>234</ele>
        <time>2019-06-29T08:13:36Z</time>
      </trkpt>
      <trkpt lat="46.05266" lon="6.54235">
        <ele>235</ele>
        <time>2019-06-29T08:13:40Z</time>
      </trkpt>
      <trkpt lat="46.05256" lon="6.54219">
        <ele>235</ele>
        <time>2019-06-29T08:13:44Z</time>
      </trkpt>
      <trkpt lat="46.05243" lon="6.54207">
        <ele>236</ele>
        <time>2019-06-29T08:13:48Z</time>
      </trkpt>
      <trkpt lat="46.05233" lon="6.54199">
        <ele>237</ele>
        <time>2019-06-29T08:13:52Z</time>
      </trkpt>
      <trkpt lat="46.05225" lon="6.54186">
        <ele>238</ele>
        <time>2019-06-29T08:13:56Z</time>
      </trkpt>
      <trkpt lat="46.05213" lon="6.54161">
        <ele>239</ele>
        <time>2019-06-29T08:14:00Z</time>
      </trkpt>
      <trkpt lat="46.05212" lon="6.5414">
        <ele>239</ele>
        <time>2019-06-29T08:14:04Z</time>
      </trkpt>
      <trkpt lat="46.05219" lon="6.54119">
        <ele>241</ele>
        <time>2019-06-29T08:14:08Z</time>
      </trkpt>
      <trkpt lat="46.05232" lon="6.54104">
        <ele>241</ele>
        <time>2019-06-29T08:14:12Z</time>
      </trkpt>
      <trkpt lat="46.05246" lon="6.54093">
        <ele>242</ele>
        <time>2019-06-29T08:14:16Z</time>
      </trkpt>
      <trkpt lat="46.05261" lon="6.54084">
        <ele>244</ele>
        <time>2019-06-29T08:14:20Z</time>
      </trkpt>
      <trkpt lat="46.05275" lon="6.54076">
        <ele>244</ele>
        <time>2019-06-29T08:14:24Z</time>
      </trkpt>
      <trkpt lat="46.05288" lon="6.54063">
        <ele>245</ele>
        <time>2019-06-29T08:14:28Z</time>
      </trkpt>
      <trkpt lat="46.05296" lon="6.54046">
        <ele>246</ele>
        <time>2019-06-29T08:14:32Z</time>
      </trkpt>
      <trkpt lat="46.053" lon="6.54025">
        <ele>246</ele>
        <time>2019-06-29T08:14:36Z</time>
      </trkpt>
      <trkpt lat="46.05303" lon="6.54003">
        <ele>247</ele>
        <time>2019-06-29T08:14:40Z</time>
      </trkpt>
      <trkpt lat="46.05306" lon="6.53981">
        <ele>247</ele>
        <time>2019-06-29T08:14:44Z</time>
      </trkpt>
      <trkpt lat="46.05308" lon="6.5396">
        <ele>248</ele>
        <time>2019-06-29T08:14:48Z</time>
      </trkpt>
      <trkpt lat="46.05311" lon="6.53939">
        <ele>248</ele>
        <time>2019-06-29T08:14:52Z</time>
      </trkpt>
      <trkpt lat="46.05318" lon="6.53918">
        <ele>249</ele>
        <time>2019-06-29T08:14:56Z</time>
      </trkpt>
      <trkpt lat="46.05327" lon="6.539">
        <ele>250</ele>
        <time>2019-06-29T08:15:00Z</time>
      </trkpt>
      <trkpt lat="46.05336" lon="6.53883">
        <ele>250</ele>
        <time>2019-06-29T08:15:04Z</time>
      </trkpt>
      <trkpt lat="46.05346" lon="6.53866">
        <ele>252</ele>
        <time>2019-06-29T08:15:08Z</time>
      </trkpt>
      <trkpt lat="46.05357" lon="6.53849">
        <ele>253</ele>
        <time>2019-06-29T08:15:12Z</time>
      </trkpt>
      <trkpt lat="46.05366" lon="6.5383">
        <ele>254</ele>
        <time>2019-06-29T08:15:16Z</time>
      </trkpt>
      <trkpt lat="46.05369" lon="6.5381">
        <ele>255</ele>
        <time>2019-06-29T08:15:20Z</time>
      </trkpt>
      <trkpt lat="46.05369" lon="6.5379">
        <ele>255</ele>
        <time>2019-06-29T08:15:24Z</time>
      </trkpt>
      <trkpt lat="46.05367" lon="6.53769">
        <ele>256</ele>
        <time>2019-06-29T08:15:28Z</time>
      </trkpt>
      <trkpt lat="46.05365" lon="6.53747">
        <ele>257</ele>
        <time>2019-06-29T08:15:32Z</time>
      </trkpt>
      <trkpt lat="46.05369" lon="6.53726">
        <ele>258</ele>
        <time>2019-06-29T08:15:36Z</time>
      </trkpt>
      <trkpt lat="46.05377" lon="6.53707">
        <ele>259</ele>
        <time>2019-06-29T08:15:40Z</time>
      </trkpt>
      <trkpt lat="46.05387" lon="6.53694">
        <ele>259</ele>
        <time>2019-06-29T08:15:44Z</time>
      </trkpt>
      <trkpt lat="46.05398" lon="6.53684">
        <ele>260</ele>
        <time>2019-06-29T08:15:48Z</time>
      </trkpt>
      <trkpt lat="46.05411" lon="6.53673">
        <ele>260</ele>
        <time>2019-06-29T08:15:52Z</time>
      </trkpt>
      <trkpt lat="46.05421" lon="6.53659">
        <ele>261</ele>
        <time>2019-06-29T08:15:56Z</time>
      </trkpt>
      <trkpt lat="46.05431" lon="6.53647">
        <ele>262</ele>
        <time>2019-06-29T08:16:00Z</time>
      </trkpt>
      <trkpt lat="46.05439" lon="6.5363">
        <ele>262</ele>
        <time>2019-06-29T08:16:04Z</time>
      </trkpt>
      <trkpt lat="46.05446" lon="6.53613">
        <ele>263</ele>
        <time>2019-06-29T08:16:08Z</time>
      </trkpt>
      <trkpt lat="46.05452" lon="6.53596">
        <ele>264</ele>
        <time>2019-06-29T08:16:12Z</time>
      </trkpt>
      <trkpt lat="46.05457" lon="6.53578">
        <ele>265</ele>
        <time>2019-06-29T08:16:16Z</time>
      </trkpt>
      <trkpt lat="46.05462" lon="6.53561">
        <ele>266</ele>
        <time>2019-06-29T08:16:20Z</time>
      </trkpt>
      <trkpt lat="46.05466" lon="6.53543">
        <ele>267</ele>
        <time>2019-06-29T08:16:24Z</time>
      </trkpt>
      <trkpt lat="46.0547" lon="6.53525">
        <ele>267</ele>
        <time>2019-06-29T08:16:28Z</time>
      </trkpt>
      <trkpt lat="46.05474" lon="6.53506">
        <ele>268</ele>
        <time>2019-06-29T08:16:32Z</time>
      </trkpt>
      <trkpt lat="46.05475" lon="6.53487">
        <ele>268</ele>
        <time>2019-06-29T08:16:36Z</time>
      </trkpt>
      <trkpt lat="46.05476" lon="6.53467">
        <ele>269</ele>
        <time>2019-06-29T08:16:40Z</time>
      </trkpt>
      <trkpt lat="46.05475" lon="6.53447">
        <ele>269</ele>
        <time>2019-06-29T08:16:44Z</time>
      </trkpt>
      <trkpt lat="46.05473" lon="6.53427">
        <ele>270</ele>
        <time>2019-06-29T08:16:48Z</time>
      </trkpt>
      <trkpt lat="46.05471" lon="6.53408">
        <ele>271</ele>
        <time>2019-06-29T08:16:52Z</time>
      </trkpt>
      <trkpt lat="46.05471" lon="6.53389">
        <ele>272</ele>
        <time>2019-06-29T08:16:56Z</time>
      </trkpt>
      <trkpt lat="46.05469" lon="6.5337">
        <ele>272</ele>
        <time>2019-06-29T08:17:00Z</time>
      </trkpt>
      <trkpt lat="46.05471" lon="6.5335">
        <ele>274</ele>
        <time>2019-06-29T08:17:04Z</time>
      </trkpt>
      <trkpt lat="46.05471" lon="6.53332">
        <ele>274</ele>
        <time>2019-06-29T08:17:08Z</time>
      </trkpt>
      <trkpt lat="46.05474" lon="6.53313">
        <ele>275</ele>
        <time>2019-06-29T08:17:12Z</time>
      </trkpt>
      <trkpt lat="46.05479" lon="6.53295">
        <ele>275</ele>
        <time>2019-06-29T08:17:16Z</time>
      </trkpt>
      <trkpt lat="46.05482" lon="6.53277">
        <ele>276</ele>
        <time>2019-06-29T08:17:20Z</time>
      </trkpt>
      <trkpt lat="46.05486" lon="6.53258">
        <ele>278</ele>
        <time>2019-06-29T08:17:24Z</time>
      </trkpt>
      <trkpt lat="46.0549" lon="6.5324">
        <ele>278</ele>
        <time>2019-06-29T08:17:28Z</time>
      </trkpt>
      <trkpt lat="46.05495" lon="6.53222">
        <ele>279</ele>
        <time>2019-06-29T08:17:32Z</time>
      </trkpt>
      <trkpt lat="46.05499" lon="6.53204">
        <ele>279</ele>
        <time>2019-06-29T08:17:36Z</time>
      </trkpt>
      <trkpt lat="46.05504" lon="6.53186">
        <ele>280</ele>
        <time>2019-06-29T08:17:40Z</time>
      </trkpt>
      <trkpt lat="46.05509" lon="6.5317">
        <ele>281</ele>
        <time>2019-06-29T08:17:44Z</time>
      </trkpt>
      <trkpt lat="46.05515" lon="6.53153">
        <ele>281</ele>
        <time>2019-06-29T08:17:48Z</time>
      </trkpt>
      <trkpt lat="46.05522" lon="6.53137">
        <ele>282</ele>
        <time>2019-06-29T08:17:52Z</time>
      </trkpt>
      <trkpt lat="46.0553" lon="6.53121">
        <ele>283</ele>
        <time>2019-06-29T08:17:56Z</time>
      </trkpt>
      <trkpt lat="46.05538" lon="6.53105">
        <ele>284</ele>
        <time>2019-06-29T08:18:00Z</time>
      </trkpt>
      <trkpt lat="46.05544" lon="6.53087">
        <ele>283</ele>
        <time>2019-06-29T08:18:04Z</time>
      </trkpt>
      <trkpt lat="46.0555" lon="6.53069">
        <ele>285</ele>
        <time>2019-06-29T08:18:08Z</time>
      </trkpt>
      <trkpt lat="46.05555" lon="6.53051">
        <ele>286</ele>
        <time>2019-06-29T08:18:12Z</time>
      </trkpt>
      <trkpt lat="46.0556" lon="6.53033">
        <ele>287</ele>
        <time>2019-06-29T08:18:16Z</time>
      </trkpt>
      <trkpt lat="46.05561" lon="6.53015">
        <ele>287</ele>
        <time>2019-06-29T08:18:20Z</time>
      </trkpt>
      <trkpt lat="46.05562" lon="6.52996">
        <ele>288</ele>
        <time>2019-06-29T08:18:24Z</time>
      </trkpt>
      <trkpt lat="46.05561" lon="6.52978">
        <ele>288</ele>
        <time>2019-06-29T08:18:28Z</time>
      </trkpt>
      <trkpt lat="46.0556" lon="6.5296">
        <ele>289</ele>
        <time>2019-06-29T08:18:32Z</time>
      </trkpt>
      <trkpt lat="46.0556" lon="6.52939">
        <ele>290</ele>
        <time>2019-06-29T08:18:36Z</time>
      </trkpt>
      <trkpt lat="46.05557" lon="6.52921">
        <ele>291</ele>
        <time>2019-06-29T08:18:40Z</time>
      </trkpt>
      <trkpt lat="46.05554" lon="6.52902">
        <ele>292</ele>
        <time>2019-06-29T08:18:44Z</time>
      </trkpt>
      <trkpt lat="46.05552" lon="6.52884">
        <ele>293</ele>
        <time>2019-06-29T08:18:48Z</time>
      </trkpt>
      <trkpt lat="46.05549" lon="6.52865">
        <ele>294</ele>
        <time>2019-06-29T08:18:52Z</time>
      </trkpt>
      <trkpt lat="46.05547" lon="6.52847">
        <ele>294</ele>
        <time>2019-06-29T08:18:56Z</time>
      </trkpt>
      <trkpt lat="46.05545" lon="6.52828">
        <ele>294</ele>
        <time>2019-06-29T08:19:00Z</time>
      </trkpt>
      <trkpt lat="46.05541" lon="6.52811">
        <ele>296</ele>
        <time>2019-06-29T08:19:04Z</time>
      </trkpt>
      <trkpt lat="46.05532" lon="6.52794">
        <ele>297</ele>
        <time>2019-06-29T08:19:08Z</time>
      </trkpt>
      <trkpt lat="46.05523" lon="6.52782">
        <ele>297</ele>
        <time>2019-06-29T08:19:12Z</time>
      </trkpt>
      <trkpt lat="46.05511" lon="6.52776">
        <ele>298</ele>
        <time>2019-06-29T08:19:16Z</time>
      </trkpt>
      <trkpt lat="46.05498" lon="6.52775">
        <ele>298</ele>
        <time>2019-06-29T08:19:20Z</time>
      </trkpt>
      <trkpt lat="46.05483" lon="6.52777">
        <ele>299</ele>
        <time>2019-06-29T08:19:24Z</time>
      </trkpt>
      <trkpt lat="46.05469" lon="6.52782">
        <ele>300</ele>
        <time>2019-06-29T08:19:28Z</time>
      </trkpt>
      <trkpt lat="46.05455" lon="6.52788">
        <ele>300</ele>
        <time>2019-06-29T08:19:32Z</time>
      </trkpt>
      <trkpt lat="46.05443" lon="6.52796">
        <ele>301</ele>
        <time>2019-06-29T08:19:36Z</time>
      </trkpt>
      <trkpt lat="46.05431" lon="6.52802">
        <ele>302</ele>
        <time>2019-06-29T08:19:40Z</time>
      </trkpt>
      <trkpt lat="46.05418" lon="6.52808">
        <ele>303</ele>
        <time>2019-06-29T08:19:44Z</time>
      </trkpt>
      <trkpt lat="46.05406" lon="6.52813">
        <ele>304</ele>
        <time>2019-06-29T08:19:48Z</time>
      </trkpt>
      <trkpt lat="46.05395" lon="6.52821">
        <ele>304</ele>
        <time>2019-06-29T08:19:52Z</time>
      </trkpt>
      <trkpt lat="46.05386" lon="6.52832">
        <ele>305</ele>
        <time>2019-06-29T08:19:56Z</time>
      </trkpt>
      <trkpt lat="46.0538" lon="6.52846">
        <ele>306</ele>
        <time>2019-06-29T08:20:00Z</time>
      </trkpt>
      <trkpt lat="46.05372" lon="6.52859">
        <ele>307</ele>
        <time>2019-06-29T08:20:04Z</time>
      </trkpt>
      <trkpt lat="46.05364" lon="6.5287">
        <ele>308</ele>
        <time>2019-06-29T08:20:08Z</time>
      </trkpt>
      <trkpt lat="46.05354" lon="6.52875">
        <ele>310</ele>
        <time>2019-06-29T08:20:12Z</time>
      </trkpt>
      <trkpt lat="46.05345" lon="6.5288">
        <ele>310</ele>
        <time>2019-06-29T08:20:16Z</time>
      </trkpt>
      <trkpt lat="46.05334" lon="6.52882">
        <ele>310</ele>
        <time>2019-06-29T08:20:20Z</time>
      </trkpt>
      <trkpt lat="46.05324" lon="6.52885">
        <ele>312</ele>
        <time>2019-06-29T08:20:24Z</time>
      </trkpt>
      <trkpt lat="46.05315" lon="6.52889">
        <ele>312</ele>
        <time>2019-06-29T08:20:28Z</time>
      </trkpt>
      <trkpt lat="46.05306" lon="6.52897">
        <ele>313</ele>
        <time>2019-06-29T08:20:32Z</time>
      </trkpt>
      <trkpt lat="46.05299" lon="6.52907">
        <ele>314</ele>
        <time>2019-06-29T08:20:36Z</time>
      </trkpt>
      <trkpt lat="46.05293" lon="6.52919">
        <ele>315</ele>
        <time>2019-06-29T08:20:40Z</time>
      </trkpt>
      <trkpt lat="46.05289" lon="6.52932">
        <ele>316</ele>
        <time>2019-06-29T08:20:44Z</time>
      </trkpt>
      <trkpt lat="46.05287" lon="6.52947">
        <ele>316</ele>
        <time>2019-06-29T08:20:48Z</time>
      </trkpt>
      <trkpt lat="46.05287" lon="6.52962">
        <ele>317</ele>
        <time>2019-06-29T08:20:52Z</time>
      </trkpt>
      <trkpt lat="46.05288" lon="6.52977">
        <ele>318</ele>
        <time>2019-06-29T08:20:56Z</time>
      </trkpt>
      <trkpt lat="46.0529" lon="6.52991">
        <ele>319</ele>
        <time>2019-06-29T08:21:00Z</time>
      </trkpt>
      <trkpt lat="46.05291" lon="6.53006">
        <ele>320</ele>
        <time>2019-06-29T08:21:04Z</time>
      </trkpt>
      <trkpt lat="46.0529" lon="6.5302">
        <ele>321</ele>
        <time>2019-06-29T08:21:08Z</time>
      </trkpt>
      <trkpt lat="46.05286" lon="6.53033">
        <ele>322</ele>
        <time>2019-06-29T08:21:12Z</time>
      </trkpt>
      <trkpt lat="46.0528" lon="6.53045">
        <ele>322</ele>
        <time>2019-06-29T08:21:16Z</time>
      </trkpt>
      <trkpt lat="46.05274" lon="6.53057">
        <ele>324</ele>
        <time>2019-06-29T08:21:20Z</time>
      </trkpt>
      <trkpt lat="46.05268" lon="6.53068">
        <ele>325</ele>
        <time>2019-06-29T08:21:24Z</time>
      </trkpt>
      <trkpt lat="46.05261" lon="6.53079">
        <ele>325</ele>
        <time>2019-06-29T08:21:28Z</time>
      </trkpt>
      <trkpt lat="46.05255" lon="6.53089">
        <ele>326</ele>
        <time>2019-06-29T08:21:32Z</time>
      </trkpt>
      <trkpt lat="46.05248" lon="6.531">
        <ele>327</ele>
        <time>2019-06-29T08:21:36Z</time>
      </trkpt>
      <trkpt lat="46.05242" lon="6.53111">
        <ele>328</ele>
        <time>2019-06-29T08:21:40Z</time>
      </trkpt>
      <trkpt lat="46.05236" lon="6.53121">
        <ele>329</ele>
        <time>2019-06-29T08:21:44Z</time>
      </trkpt>
      <trkpt lat="46.05229" lon="6.53132">
        <ele>330</ele>
        <time>2019-06-29T08:21:48Z</time>
      </trkpt>
      <trkpt lat="46.05223" lon="6.53143">
        <ele>330</ele>
        <time>2019-06-29T08:21:52Z</time>
      </trkpt>
      <trkpt lat="46.05216" lon="6.53153">
        <ele>332</ele>
        <time>2019-06-29T08:21:56Z</time>
      </trkpt>
      <trkpt lat="46.0521" lon="6.53163">
        <ele>332</ele>
        <time>2019-06-29T08:22:00Z</time>
      </trkpt>
      <trkpt lat="46.05203" lon="6.53174">
        <ele>333</ele>
        <time>2019-06-29T08:22:04Z</time>
      </trkpt>
      <trkpt lat="46.05198" lon="6.53185">
        <ele>334</ele>
        <time>2019-06-29T08:22:08Z</time>
      </trkpt>
      <trkpt lat="46.05192" lon="6.53197">
        <ele>334</ele>
        <time>2019-06-29T08:22:12Z</time>
      </trkpt>
      <trkpt lat="46.05186" lon="6.53208">
        <ele>336</ele>
        <time>2019-06-29T08:22:16Z</time>
      </trkpt>
      <trkpt lat="46.05179" lon="6.53219">
        <ele>337</ele>
        <time>2019-06-29T08:22:20Z</time>
      </trkpt>
      <trkpt lat="46.05173" lon="6.53229">
        <ele>337</ele>
        <time>2019-06-29T08:22:24Z</time>
      </trkpt>
      <trkpt lat="46.05167" lon="6.53239">
        <ele>338</ele>
        <time>2019-06-29T08:22:28Z</time>
      </trkpt>
      <trkpt lat="46.0516" lon="6.53249">
        <ele>339</ele>
        <time>2019-06-29T08:22:32Z</time>
      </trkpt>
      <trkpt lat="46.05153" lon="6.53259">
        <ele>340</ele>
        <time>2019-06-29T08:22:36Z</time>
      </trkpt>
      <trkpt lat="46.05146" lon="6.53268">
        <ele>341</ele>
        <time>2019-06-29T08:22:40Z</time>
      </trkpt>
      <trkpt lat="46.05139" lon="6.53277">
        <ele>341</ele>
        <time>2019-06-29T08:22:44Z</time>
      </trkpt>
      <trkpt lat="46.05134" lon="6.53288">
        <ele>342</ele>
        <time>2019-06-29T08:22:48Z</time>
      </trkpt>
      <trkpt lat="46.05127" lon="6.53297">
        <ele>344</ele>
        <time>2019-06-29T08:22:52Z</time>
      </trkpt>
      <trkpt lat="46.05122" lon="6.53307">
        <ele>344</ele>
        <time>2019-06-29T08:22:56Z</time>
      </trkpt>
      <trkpt lat="46.05118" lon="6.53318">
        <ele>345</ele>
        <time>2019-06-29T08:23:00Z</time>
      </trkpt>
      <trkpt lat="46.05111" lon="6.53328">
        <ele>345</ele>
        <time>2019-06-29T08:23:04Z</time>
      </trkpt>
      <trkpt lat="46.05107" lon="6.5334">
        <ele>347</ele>
        <time>2019-06-29T08:23:08Z</time>
      </trkpt>
      <trkpt lat="46.051" lon="6.53351">
        <ele>347</ele>
        <time>2019-06-29T08:23:12Z</time>
      </trkpt>
      <trkpt lat="46.05094" lon="6.53362">
        <ele>348</ele>
        <time>2019-06-29T08:23:16Z</time>
      </trkpt>
      <trkpt lat="46.05088" lon="6.53372">
        <ele>349</ele>
        <time>2019-06-29T08:23:20Z</time>
      </trkpt>
      <trkpt lat="46.0508" lon="6.53379">
        <ele>350</ele>
        <time>2019-06-29T08:23:24Z</time>
      </trkpt>
      <trkpt lat="46.05073" lon="6.53384">
        <ele>351</ele>
        <time>2019-06-29T08:23:28Z</time>
      </trkpt>
      <trkpt lat="46.05066" lon="6.53384">
        <ele>352</ele>
        <time>2019-06-29T08:23:32Z</time>
      </trkpt>
      <trkpt lat="46.05057" lon="6.5338">
        <ele>353</ele>
        <time>2019-06-29T08:23:36Z</time>
      </trkpt>
      <trkpt lat="46.05052" lon="6.53378">
        <ele>354</ele>
        <time>2019-06-29T08:23:40Z</time>
      </trkpt>
      <trkpt lat="46.05046" lon="6.53373">
        <ele>355</ele>
        <time>2019-06-29T08:23:44Z</time>
      </trkpt>
      <trkpt lat="46.05039" lon="6.53367">
        <ele>356</ele>
        <time>2019-06-29T08:23:48Z</time>
      </trkpt>
      <trkpt lat="46.05034" lon="6.53366">
        <ele>356</ele>
        <time>2019-06-29T08:23:52Z</time>
      </trkpt>
      <trkpt lat="46.05028" lon="6.53364">
        <ele>357</ele>
        <time>2019-06-29T08:23:56Z</time>
      </trkpt>
      <trkpt lat="46.05017" lon="6.53364">
        <ele>358</ele>
        <time>2019-06-29T08:24:00Z</time>
      </trkpt>
      <trkpt lat="46.05005" lon="6.53364">
        <ele>358</ele>
        <time>2019-06-29T08:24:04Z</time>
      </trkpt>
      <trkpt lat="46.04997" lon="6.53372">
        <ele>359</ele>
        <time>2019-06-29T08:24:08Z</time>
      </trkpt>
      <trkpt lat="46.04993" lon="6.53383">
        <ele>359</ele>
        <time>2019-06-29T08:24:12Z</time>
      </trkpt>
      <trkpt lat="46.04993" lon="6.53396">
        <ele>360</ele>
        <time>2019-06-29T08:24:16Z</time>
      </trkpt>
      <trkpt lat="46.04993" lon="6.53408">
        <ele>361</ele>
        <time>2019-06-29T08:24:20Z</time>
      </trkpt>
      <trkpt lat="46.04995" lon="6.5342">
        <ele>362</ele>
        <time>2019-06-29T08:24:24Z</time>
      </trkpt>
      <trkpt lat="46.04999" lon="6.53433">
        <ele>362</ele>
        <time>2019-06-29T08:24:28Z</time>
      </trkpt>
      <trkpt lat="46.05002" lon="6.53445">
        <ele>363</ele>
        <time>2019-06-29T08:24:32Z</time>
      </trkpt>
      <trkpt lat="46.05006" lon="6.53456">
        <ele>363</ele>
        <time>2019-06-29T08:24:36Z</time>
      </trkpt>
      <trkpt lat="46.05007" lon="6.5347">
        <ele>364</ele>
        <time>2019-06-29T08:24:40Z</time>
      </trkpt>
      <trkpt lat="46.05006" lon="6.53483">
        <ele>365</ele>
        <time>2019-06-29T08:24:44Z</time>
      </trkpt>
      <trkpt lat="46.05002" lon="6.53496">
        <ele>366</ele>
        <time>2019-06-29T08:24:48Z</time>
      </trkpt>
      <trkpt lat="46.04997" lon="6.53507">
        <ele>367</ele>
        <time>2019-06-29T08:24:52Z</time>
      </trkpt>
      <trkpt lat="46.04989" lon="6.53515">
        <ele>368</ele>
        <time>2019-06-29T08:24:56Z</time>
      </trkpt>
      <trkpt lat="46.04981" lon="6.53522">
        <ele>369</ele>
        <time>2019-06-29T08:25:00Z</time>
      </trkpt>
      <trkpt lat="46.04972" lon="6.53525">
        <ele>369</ele>
        <time>2019-06-29T08:25:04Z</time>
      </trkpt>
      <trkpt lat="46.04964" lon="6.53528">
        <ele>371</ele>
        <time>2019-06-29T08:25:08Z</time>
      </trkpt>
      <trkpt lat="46.04958" lon="6.53533">
        <ele>371</ele>
        <time>2019-06-29T08:25:12Z</time>
      </trkpt>
      <trkpt lat="46.04948" lon="6.53538">
        <ele>372</ele>
        <time>2019-06-29T08:25:16Z</time>
      </trkpt>
      <trkpt lat="46.04939" lon="6.53544">
        <ele>372</ele>
        <time>2019-06-29T08:25:20Z</time>
      </trkpt>
      <trkpt lat="46.04932" lon="6.53554">
        <ele>373</ele>
        <time>2019-06-29T08:25:24Z</time>
      </trkpt>
      <trkpt lat="46.04931" lon="6.53571">
        <ele>374</ele>
        <time>2019-06-29T08:25:28Z</time>
      </trkpt>
      <trkpt lat="46.04932" lon="6.53584">
        <ele>375</ele>
        <time>2019-06-29T08:25:32Z</time>
      </trkpt>
      <trkpt lat="46.04936" lon="6.53597">
        <ele>375</ele>
        <time>2019-06-29T08:25:36Z</time>
      </trkpt>
      <trkpt lat="46.04939" lon="6.5361">
        <ele>376</ele>
        <time>2019-06-29T08:25:40Z</time>
      </trkpt>
      <trkpt lat="46.04941" lon="6.53623">
        <ele>376</ele>
        <time>2019-06-29T08:25:44Z</time>
      </trkpt>
      <trkpt lat="46.04942" lon="6.53637">
        <ele>378</ele>
        <time>2019-06-29T08:25:48Z</time>
      </trkpt>
      <trkpt lat="46.0494" lon="6.5365">
        <ele>379</ele>
        <time>2019-06-29T08:25:52Z</time>
      </trkpt>
      <trkpt lat="46.04936" lon="6.53662">
        <ele>379</ele>
        <time>2019-06-29T08:25:56Z</time>
      </trkpt>
      <trkpt lat="46.04931" lon="6.53674">
        <ele>380</ele>
        <time>2019-06-29T08:26:00Z</time>
      </trkpt>
      <trkpt lat="46.04926" lon="6.53686">
        <ele>381</ele>
        <time>2019-06-29T08:26:04Z</time>
      </trkpt>
      <trkpt lat="46.04922" lon="6.53698">
        <ele>382</ele>
        <time>2019-06-29T08:26:08Z</time>
      </trkpt>
      <trkpt lat="46.04917" lon="6.53708">
        <ele>382</ele>
        <time>2019-06-29T08:26:12Z</time>
      </trkpt>
      <trkpt lat="46.04913" lon="6.53719">
        <ele>383</ele>
        <time>2019-06-29T08:26:16Z</time>
      </trkpt>
      <trkpt lat="46.0491" lon="6.53728">
        <ele>383</ele>
        <time>2019-06-29T08:26:20Z</time>
      </trkpt>
      <trkpt lat="46.04905" lon="6.53739">
        <ele>384</ele>
        <time>2019-06-29T08:26:24Z</time>
      </trkpt>
      <trkpt lat="46.04899" lon="6.5375">
        <ele>385</ele>
        <time>2019-06-29T08:26:28Z</time>
      </trkpt>
      <trkpt lat="46.04894" lon="6.53762">
        <ele>385</ele>
        <time>2019-06-29T08:26:32Z</time>
      </trkpt>
      <trkpt lat="46.0489" lon="6.53775">
        <ele>387</ele>
        <time>2019-06-29T08:26:36Z</time>
      </trkpt>
      <trkpt lat="46.04886" lon="6.53788">
        <ele>387</ele>
        <time>2019-06-29T08:26:40Z</time>
      </trkpt>
      <trkpt lat="46.04882" lon="6.53802">
        <ele>388</ele>
        <time>2019-06-29T08:26:44Z</time>
      </trkpt>
      <trkpt lat="46.04877" lon="6.53814">
        <ele>389</ele>
        <time>2019-06-29T08:26:48Z</time>
      </trkpt>
      <trkpt lat="46.04872" lon="6.53826">
        <ele>390</ele>
        <time>2019-06-29T08:26:52Z</time>
      </trkpt>
      <trkpt lat="46.04867" lon="6.53838">
        <ele>390</ele>
        <time>2019-06-29T08:26:56Z</time>
      </trkpt>
      <trkpt lat="46.04863" lon="6.53852">
        <ele>391</ele>
        <time>2019-06-29T08:27:00Z</time>
      </trkpt>
      <trkpt lat="46.04858" lon="6.53864">
        <ele>392</ele>
        <time>2019-06-29T08:27:04Z</time>
      </trkpt>
      <trkpt lat="46.04851" lon="6.53873">
        <ele>393</ele>
        <time>2019-06-29T08:27:08Z</time>
      </trkpt>
      <trkpt lat="46.04845" lon="6.53882">
        <ele>394</ele>
        <time>2019-06-29T08:27:12Z</time>
      </trkpt>
      <trkpt lat="46.04836" lon="6.53888">
        <ele>394</ele>
        <time>2019-06-29T08:27:16Z</time>
      </trkpt>
      <trkpt lat="46.0483" lon="6.53898">
        <ele>395</ele>
        <time>2019-06-29T08:27:20Z</time>
      </trkpt>
      <trkpt lat="46.04822" lon="6.53906">
        <ele>396</ele>
        <time>2019-06-29T08:27:24Z</time>
      </trkpt>
      <trkpt lat="46.04817" lon="6.53916">
        <ele>397</ele>
        <time>2019-06-29T08:27:28Z</time>
      </trkpt>
      <trkpt lat="46.0481" lon="6.53926">
        <ele>398</ele>
        <time>2019-06-29T08:27:32Z</time>
      </trkpt>
      <trkpt lat="46.04805" lon="6.53938">
        <ele>398</ele>
        <time>2019-06-29T08:27:36Z</time>
      </trkpt>
      <trkpt lat="46.048" lon="6.5395">
        <ele>398</ele>
        <time>2019-06-29T08:27:40Z</time>
      </trkpt>
      <trkpt lat="46.04794" lon="6.5396">
        <ele>399</ele>
        <time>2019-06-29T08:27:44Z</time>
      </trkpt>
      <trkpt lat="46.04787" lon="6.53967">
        <ele>400</ele>
        <time>2019-06-29T08:27:48Z</time>
      </trkpt>
      <trkpt lat="46.04779" lon="6.53973">
        <ele>401</ele>
        <time>2019-06-29T08:27:52Z</time>
      </trkpt>
      <trkpt lat="46.04772" lon="6.5398">
        <ele>402</ele>
        <time>2019-06-29T08:27:56Z</time>
      </trkpt>
      <trkpt lat="46.04764" lon="6.53988">
        <ele>403</ele>
        <time>2019-06-29T08:28:00Z</time>
      </trkpt>
      <trkpt lat="46.04759" lon="6.53998">
        <ele>403</ele>
        <time>2019-06-29T08:28:04Z</time>
      </trkpt>
      <trkpt lat="46.04753" lon="6.54009">
        <ele>404</ele>
        <time>2019-06-29T08:28:08Z</time>
      </trkpt>
      <trkpt lat="46.04749" lon="6.5402">
        <ele>405</ele>
        <time>2019-06-29T08:28:12Z</time>
      </trkpt>
      <trkpt lat="46.04742" lon="6.5403">
        <ele>406</ele>
        <time>2019-06-29T08:28:16Z</time>
      </trkpt>
      <trkpt lat="46.04736" lon="6.54039">
        <ele>406</ele>
        <time>2019-06-29T08:28:20Z</time>
      </trkpt>
      <trkpt lat="46.04729" lon="6.54048">
        <ele>407</ele>
        <time>2019-06-29T08:28:24Z</time>
      </trkpt>
      <trkpt lat="46.04721" lon="6.54053">
        <ele>407</ele>
        <time>2019-06-29T08:28:28Z</time>
      </trkpt>
      <trkpt lat="46.04716" lon="6.54063">
        <ele>409</ele>
        <time>2019-06-29T08:28:32Z</time>
      </trkpt>
      <trkpt lat="46.04712" lon="6.54075">
        <ele>409</ele>
        <time>2019-06-29T08:28:36Z</time>
      </trkpt>
      <trkpt lat="46.04712" lon="6.5409">
        <ele>409</ele>
        <time>2019-06-29T08:28:40Z</time>
      </trkpt>
      <trkpt lat="46.04717" lon="6.54106">
        <ele>411</ele>
        <time>2019-06-29T08:28:44Z</time>
      </trkpt>
      <trkpt lat="46.04723" lon="6.5412">
        <ele>411</ele>
        <time>2019-06-29T08:28:48Z</time>
      </trkpt>
      <trkpt lat="46.04727" lon="6.54133">
        <ele>412</ele>
        <time>2019-06-29T08:28:52Z</time>
      </trkpt>
      <trkpt lat="46.04729" lon="6.54146">
        <ele>413</ele>
        <time>2019-06-29T08:28:56Z</time>
      </trkpt>
      <trkpt lat="46.04731" lon="6.54157">
        <ele>414</ele>
        <time>2019-06-29T08:29:00Z</time>
      </trkpt>
      <trkpt lat="46.04733" lon="6.54169">
        <ele>415</ele>
        <time>2019-06-29T08:29:04Z</time>
      </trkpt>
      <trkpt lat="46.0473" lon="6.54182">
        <ele>415</ele>
        <time>2019-06-29T08:29:08Z</time>
      </trkpt>
      <trkpt lat="46.04726" lon="6.54194">
        <ele>416</ele>
        <time>2019-06-29T08:29:12Z</time>
      </trkpt>
      <trkpt lat="46.04721" lon="6.54206">
        <ele>417</ele>
        <time>2019-06-29T08:29:16Z</time>
      </trkpt>
      <trkpt lat="46.04716" lon="6.54217">
        <ele>417</ele>
        <time>2019-06-29T08:29:20Z</time>
      </trkpt>
      <trkpt lat="46.0471" lon="6.54226">
        <ele>418</ele>
        <time>2019-06-29T08:29:24Z</time>
      </trkpt>
      <trkpt lat="46.04703" lon="6.54234">
        <ele>419</ele>
        <time>2019-06-29T08:29:28Z</time>
      </trkpt>
      <trkpt lat="46.04698" lon="6.54245">
        <ele>420</ele>
        <time>2019-06-29T08:29:32Z</time>
      </trkpt>
      <trkpt lat="46.04692" lon="6.54255">
        <ele>421</ele>
        <time>2019-06-29T08:29:36Z</time>
      </trkpt>
      <trkpt lat="46.04686" lon="6.54266">
        <ele>422</ele>
        <time>2019-06-29T08:29:40Z</time>
      </trkpt>
      <trkpt lat="46.04681" lon="6.54276">
        <ele>422</ele>
        <time>2019-06-29T08:29:44Z</time>
      </trkpt>
      <trkpt lat="46.04672" lon="6.54281">
        <ele>424</ele>
        <time>2019-06-29T08:29:48Z</time>
      </trkpt>
      <trkpt lat="46.04664" lon="6.54287">
        <ele>424</ele>
        <time>2019-06-29T08:29:52Z</time>
      </trkpt>
      <trkpt lat="46.04657" lon="6.54293">
        <ele>425</ele>
        <time>2019-06-29T08:29:56Z</time>
      </trkpt>
      <trkpt lat="46.0465" lon="6.54301">
        <ele>426</ele>
        <time>2019-06-29T08:30:00Z</time>
      </trkpt>
      <trkpt lat="46.04642" lon="6.54308">
        <ele>427</ele>
        <time>2019-06-29T08:30:04Z</time>
      </trkpt>
      <trkpt lat="46.04633" lon="6.54313">
        <ele>427</ele>
        <time>2019-06-29T08:30:08Z</time>
      </trkpt>
      <trkpt lat="46.04625" lon="6.54319">
        <ele>428</ele>
        <time>2019-06-29T08:30:12Z</time>
      </trkpt>
      <trkpt lat="46.04617" lon="6.54325">
        <ele>429</ele>
        <time>2019-06-29T08:30:16Z</time>
      </trkpt>
      <trkpt lat="46.04611" lon="6.54333">
        <ele>430</ele>
        <time>2019-06-29T08:30:20Z</time>
      </trkpt>
      <trkpt lat="46.04604" lon="6.5434">
        <ele>430</ele>
        <time>2019-06-29T08:30:24Z</time>
      </trkpt>
      <trkpt lat="46.04596" lon="6.54345">
        <ele>431</ele>
        <time>2019-06-29T08:30:28Z</time>
      </trkpt>
      <trkpt lat="46.04585" lon="6.5435">
        <ele>432</ele>
        <time>2019-06-29T08:30:32Z</time>
      </trkpt>
      <trkpt lat="46.04576" lon="6.54355">
        <ele>433</ele>
        <time>2019-06-29T08:30:36Z</time>
      </trkpt>
      <trkpt lat="46.04567" lon="6.54361">
        <ele>433</ele>
        <time>2019-06-29T08:30:40Z</time>
      </trkpt>
      <trkpt lat="46.04558" lon="6.54366">
        <ele>434</ele>
        <time>2019-06-29T08:30:44Z</time>
      </trkpt>
      <trkpt lat="46.04549" lon="6.54371">
        <ele>435</ele>
        <time>2019-06-29T08:30:48Z</time>
      </trkpt>
      <trkpt lat="46.04541" lon="6.54375">
        <ele>436</ele>
        <time>2019-06-29T08:30:52Z</time>
      </trkpt>
      <trkpt lat="46.04531" lon="6.54379">
        <ele>436</ele>
        <time>2019-06-29T08:30:56Z</time>
      </trkpt>
      <trkpt lat="46.04523" lon="6.54385">
        <ele>437</ele>
        <time>2019-06-29T08:31:00Z</time>
      </trkpt>
      <trkpt lat="46.04515" lon="6.5439">
        <ele>438</ele>
        <time>2019-06-29T08:31:04Z</time>
      </trkpt>
      <trkpt lat="46.04507" lon="6.54396">
        <ele>438</ele>
        <time>2019-06-29T08:31:08Z</time>
      </trkpt>
      <trkpt lat="46.04498" lon="6.54402">
        <ele>439</ele>
        <time>2019-06-29T08:31:12Z</time>
      </trkpt>
      <trkpt lat="46.0449" lon="6.54407">
        <ele>439</ele>
        <time>2019-06-29T08:31:16Z</time>
      </trkpt>
      <trkpt lat="46.04482" lon="6.54412">
        <ele>441</ele>
        <time>2019-06-29T08:31:20Z</time>
      </trkpt>
      <trkpt lat="46.04474" lon="6.54418">
        <ele>441</ele>
        <time>2019-06-29T08:31:24Z</time>
      </trkpt>
      <trkpt lat="46.04467" lon="6.54427">
        <ele>442</ele>
        <time>2019-06-29T08:31:28Z</time>
      </trkpt>
      <trkpt lat="46.0446" lon="6.54435">
        <ele>443</ele>
        <time>2019-06-29T08:31:32Z</time>
      </trkpt>
      <trkpt lat="46.04453" lon="6.54443">
        <ele>444</ele>
        <time>2019-06-29T08:31:36Z</time>
      </trkpt>
      <trkpt lat="46.04446" lon="6.54451">
        <ele>445</ele>
        <time>2019-06-29T08:31:40Z</time>
      </trkpt>
      <trkpt lat="46.0444" lon="6.5446">
        <ele>445</ele>
        <time>2019-06-29T08:31:44Z</time>
      </trkpt>
      <trkpt lat="46.04433" lon="6.54467">
        <ele>446</ele>
        <time>2019-06-29T08:31:48Z</time>
      </trkpt>
      <trkpt lat="46.04426" lon="6.54475">
        <ele>447</ele>
        <time>2019-06-29T08:31:52Z</time>
      </trkpt>
      <trkpt lat="46.04419" lon="6.54484">
        <ele>447</ele>
        <time>2019-06-29T08:31:56Z</time>
      </trkpt>
      <trkpt lat="46.04412" lon="6.54492">
        <ele>448</ele>
        <time>2019-06-29T08:32:00Z</time>
      </trkpt>
      <trkpt lat="46.04405" lon="6.54499">
        <ele>449</ele>
        <time>2019-06-29T08:32:04Z</time>
      </trkpt>
      <trkpt lat="46.04399" lon="6.54509">
        <ele>450</ele>
        <time>2019-06-29T08:32:08Z</time>
      </trkpt>
      <trkpt lat="46.04391" lon="6.54514">
        <ele>451</ele>
        <time>2019-06-29T08:32:12Z</time>
      </trkpt>
      <trkpt lat="46.04383" lon="6.54519">
        <ele>452</ele>
        <time>2019-06-29T08:32:16Z</time>
      </trkpt>
      <trkpt lat="46.04376" lon="6.54521">
        <ele>453</ele>
        <time>2019-06-29T08:32:20Z</time>
      </trkpt>
      <trkpt lat="46.04367" lon="6.54518">
        <ele>453</ele>
        <time>2019-06-29T08:32:24Z</time>
      </trkpt>
      <trkpt lat="46.0436" lon="6.54515">
        <ele>455</ele>
        <time>2019-06-29T08:32:28Z</time>
      </trkpt>
      <trkpt lat="46.04353" lon="6.5451">
        <ele>456</ele>
        <time>2019-06-29T08:32:32Z</time>
      </trkpt>
      <trkpt lat="46.04346" lon="6.54508">
        <ele>456</ele>
        <time>2019-06-29T08:32:36Z</time>
      </trkpt>
      <trkpt lat="46.04339" lon="6.54506">
        <ele>457</ele>
        <time>2019-06-29T08:32:40Z</time>
      </trkpt>
      <trkpt lat="46.0433" lon="6.54501">
        <ele>457</ele>
        <time>2019-06-29T08:32:44Z</time>
      </trkpt>
      <trkpt lat="46.04322" lon="6.54501">
        <ele>458</ele>
        <time>2019-06-29T08:32:48Z</time>
      </trkpt>
      <trkpt lat="46.04313" lon="6.54504">
        <ele>459</ele>
        <time>2019-06-29T08:32:52Z</time>
      </trkpt>
      <trkpt lat="46.04304" lon="6.54508">
        <ele>459</ele>
        <time>2019-06-29T08:32:56Z</time>
      </trkpt>
      <trkpt lat="46.04298" lon="6.54516">
        <ele>461</ele>
        <time>2019-06-29T08:33:00Z</time>
      </trkpt>
      <trkpt lat="46.04294" lon="6.54527">
        <ele>461</ele>
        <time>2019-06-29T08:33:04Z</time>
      </trkpt>
      <trkpt lat="46.04292" lon="6.54539">
        <ele>462</ele>
        <time>2019-06-29T08:33:08Z</time>
      </trkpt>
      <trkpt lat="46.04291" lon="6.5455">
        <ele>463</ele>
        <time>2019-06-29T08:33:12Z</time>
      </trkpt>
      <trkpt lat="46.04289" lon="6.54563">
        <ele>463</ele>
        <time>2019-06-29T08:33:16Z</time>
      </trkpt>
      <trkpt lat="46.04286" lon="6.54574">
        <ele>463</ele>
        <time>2019-06-29T08:33:20Z</time>
      </trkpt>
      <trkpt lat="46.0428" lon="6.54584">
        <ele>465</ele>
        <time>2019-06-29T08:33:24Z</time>
      </trkpt>
      <trkpt lat="46.04273" lon="6.54592">
        <ele>465</ele>
        <time>2019-06-29T08:33:28Z</time>
      </trkpt>
      <trkpt lat="46.04264" lon="6.54597">
        <ele>466</ele>
        <time>2019-06-29T08:33:32Z</time>
      </trkpt>
      <trkpt lat="46.04256" lon="6.54599">
        <ele>467</ele>
        <time>2019-06-29T08:33:36Z</time>
      </trkpt>
      <trkpt lat="46.04248" lon="6.54602">
        <ele>468</ele>
        <time>2019-06-29T08:33:40Z</time>
      </trkpt>
      <trkpt lat="46.04241" lon="6.54603">
        <ele>468</ele>
        <time>2019-06-29T08:33:44Z</time>
      </trkpt>
      <trkpt lat="46.04234" lon="6.54601">
        <ele>469</ele>
        <time>2019-06-29T08:33:48Z</time>
      </trkpt>
      <trkpt lat="46.04228" lon="6.54597">
        <ele>469</ele>
        <time>2019-06-29T08:33:52Z</time>
      </trkpt>
      <trkpt lat="46.04222" lon="6.54594">
        <ele>470</ele>
        <time>2019-06-29T08:33:56Z</time>
      </trkpt>
      <trkpt lat="46.04213" lon="6.54592">
        <ele>471</ele>
        <time>2019-06-29T08:34:00Z</time>
      </trkpt>
      <trkpt lat="46.04204" lon="6.54595">
        <ele>472</ele>
        <time>2019-06-29T08:34:04Z</time>
      </trkpt>
      <trkpt lat="46.04194" lon="6.54599">
        <ele>473</ele>
        <time>2019-06-29T08:34:08Z</time>
      </trkpt>
      <trkpt lat="46.04186" lon="6.54605">
        <ele>474</ele>
        <time>2019-06-29T08:34:12Z</time>
      </trkpt>
      <trkpt lat="46.04179" lon="6.54611">
        <ele>474</ele>
        <time>2019-06-29T08:34:16Z</time>
      </trkpt>
      <trkpt lat="46.04171" lon="6.54616">
        <ele>475</ele>
        <time>2019-06-29T08:34:20Z</time>
      </trkpt>
      <trkpt lat="46.04164" lon="6.54622">
        <ele>475</ele>
        <time>2019-06-29T08:34:24Z</time>
      </trkpt>
      <trkpt lat="46.04156" lon="6.54629">
        <ele>476</ele>
        <time>2019-06-29T08:34:28Z</time>
      </trkpt>
      <trkpt lat="46.04148" lon="6.54635">
        <ele>477</ele>
        <time>2019-06-29T08:34:32Z</time>
      </trkpt>
      <trkpt lat="46.0414" lon="6.5464">
        <ele>478</ele>
        <time>2019-06-29T08:34:36Z</time>
      </trkpt>
      <trkpt lat="46.04133" lon="6.54646">
        <ele>478</ele>
        <time>2019-06-29T08:34:40Z</time>
      </trkpt>
      <trkpt lat="46.04127" lon="6.54648">
        <ele>480</ele>
        <time>2019-06-29T08:34:44Z</time>
      </trkpt>
      <trkpt lat="46.04119" lon="6.54651">
        <ele>480</ele>
        <time>2019-06-29T08:34:48Z</time>
      </trkpt>
      <trkpt lat="46.04111" lon="6.54654">
        <ele>481</ele>
        <time>2019-06-29T08:34:52Z</time>
      </trkpt>
      <trkpt lat="46.04103" lon="6.54659">
        <ele>481</ele>
        <time>2019-06-29T08:34:56Z</time>
      </trkpt>
      <trkpt lat="46.04094" lon="6.54663">
        <ele>482</ele>
        <time>2019-06-29T08:35:00Z</time>
      </trkpt>
      <trkpt lat="46.04086" lon="6.54669">
        <ele>483</ele>
        <time>2019-06-29T08:35:04Z</time>
      </trkpt>
      <trkpt lat="46.04079" lon="6.54675">
        <ele>484</ele>
        <time>2019-06-29T08:35:08Z</time>
      </trkpt>
      <trkpt lat="46.04072" lon="6.54682">
        <ele>485</ele>
        <time>2019-06-29T08:35:12Z</time>
      </trkpt>
      <trkpt lat="46.04066" lon="6.54691">
        <ele>486</ele>
        <time>2019-06-29T08:35:16Z</time>
      </trkpt>
      <trkpt lat="46.04058" lon="6.54697">
        <ele>486</ele>
        <time>2019-06-29T08:35:20Z</time>
      </trkpt>
      <trkpt lat="46.04051" lon="6.54703">
        <ele>487</ele>
        <time>2019-06-29T08:35:24Z</time>
      </trkpt>
      <trkpt lat="46.04044" lon="6.54707">
        <ele>488</ele>
        <time>2019-06-29T08:35:28Z</time>
      </trkpt>
      <trkpt lat="46.04035" lon="6.54711">
        <ele>489</ele>
        <time>2019-06-29T08:35:32Z</time>
      </trkpt>
      <trkpt lat="46.04027" lon="6.54716">
        <ele>489</ele>
        <time>2019-06-29T08:35:36Z</time>
      </trkpt>
      <trkpt lat="46.04019" lon="6.54721">
        <ele>490</ele>
        <time>2019-06-29T08:35:40Z</time>
      </trkpt>
      <trkpt lat="46.04011" lon="6.54727">
        <ele>491</ele>
        <time>2019-06-29T08:35:44Z</time>
      </trkpt>
      <trkpt lat="46.04005" lon="6.54735">
        <ele>491</ele>
        <time>2019-06-29T08:35:48Z</time>
      </trkpt>
      <trkpt lat="46.03998" lon="6.54739">
        <ele>491</ele>
        <time>2019-06-29T08:35:52Z</time>
      </trkpt>
      <trkpt lat="46.03991" lon="6.54746">
        <ele>493</ele>
        <time>2019-06-29T08:35:56Z</time>
      </trkpt>
      <trkpt lat="46.03984" lon="6.54756">
        <ele>493</ele>
        <time>2019-06-29T08:36:00Z</time>
      </trkpt>
      <trkpt lat="46.0398" lon="6.54768">
        <ele>494</ele>
        <time>2019-06-29T08:36:04Z</time>
      </trkpt>
      <trkpt lat="46.03977" lon="6.54781">
        <ele>494</ele>
        <time>2019-06-29T08:36:08Z</time>
      </trkpt>
      <trkpt lat="46.03974" lon="6.54793">
        <ele>495</ele>
        <time>2019-06-29T08:36:12Z</time>
      </trkpt>
      <trkpt lat="46.03972" lon="6.54805">
        <ele>496</ele>
        <time>2019-06-29T08:36:16Z</time>
      </trkpt>
      <trkpt lat="46.03967" lon="6.54816">
        <ele>496</ele>
        <time>2019-06-29T08:36:20Z</time>
      </trkpt>
      <trkpt lat="46.03962" lon="6.54827">
        <ele>498</ele>
        <time>2019-06-29T08:36:24Z</time>
      </trkpt>
      <trkpt lat="46.03955" lon="6.54836">
        <ele>498</ele>
        <time>2019-06-29T08:36:28Z</time>
      </trkpt>
      <trkpt lat="46.03949" lon="6.54845">
        <ele>499</ele>
        <time>2019-06-29T08:36:32Z</time>
      </trkpt>
      <trkpt lat="46.03941" lon="6.54852">
        <ele>500</ele>
        <time>2019-06-29T08:36:36Z</time>
      </trkpt>
      <trkpt lat="46.03934" lon="6.54859">
        <ele>500</ele>
        <time>2019-06-29T08:36:40Z</time>
      </trkpt>
      <trkpt lat="46.03926" lon="6.54865">
        <ele>501</ele>
        <time>2019-06-29T08:36:44Z</time>
      </trkpt>
      <trkpt lat="46.03918" lon="6.54871">
        <ele>502</ele>
        <time>2019-06-29T08:36:48Z</time>
      </trkpt>
      <trkpt lat="46.03911" lon="6.54877">
        <ele>502</ele>
        <time>2019-06-29T08:36:52Z</time>
      </trkpt>
      <trkpt lat="46.03904" lon="6.54884">
        <ele>503</ele>
        <time>2019-06-29T08:36:56Z</time>
      </trkpt>
      <trkpt lat="46.03897" lon="6.54892">
        <ele>504</ele>
        <time>2019-06-29T08:37:00Z</time>
      </trkpt>
      <trkpt lat="46.0389" lon="6.54896">
        <ele>504</ele>
        <time>2019-06-29T08:37:04Z</time>
      </trkpt>
      <trkpt lat="46.03882" lon="6.54902">
        <ele>505</ele>
        <time>2019-06-29T08:37:08Z</time>
      </trkpt>
      <trkpt lat="46.03875" lon="6.54908">
        <ele>506</ele>
        <time>2019-06-29T08:37:12Z</time>
      </trkpt>
      <trkpt lat="46.03867" lon="6.54913">
        <ele>507</ele>
        <time>2019-06-29T08:37:16Z</time>
      </trkpt>
      <trkpt lat="46.0386" lon="6.5492">
        <ele>507</ele>
        <time>2019-06-29T08:37:20Z</time>
      </trkpt>
      <trkpt lat="46.03853" lon="6.54929">
        <ele>508</ele>
        <time>2019-06-29T08:37:24Z</time>
      </trkpt>
      <trkpt lat="46.03847" lon="6.54936">
        <ele>508</ele>
        <time>2019-06-29T08:37:28Z</time>
      </trkpt>
      <trkpt lat="46.0384" lon="6.54945">
        <ele>509</ele>
        <time>2019-06-29T08:37:32Z</time>
      </trkpt>
      <trkpt lat="46.03833" lon="6.54953">
        <ele>510</ele>
        <time>2019-06-29T08:37:36Z</time>
      </trkpt>
      <trkpt lat="46.03827" lon="6.54962">
        <ele>510</ele>
        <time>2019-06-29T08:37:40Z</time>
      </trkpt>
      <trkpt lat="46.0382" lon="6.54971">
        <ele>511</ele>
        <time>2019-06-29T08:37:44Z</time>
      </trkpt>
      <trkpt lat="46.03812" lon="6.54977">
        <ele>512</ele>
        <time>2019-06-29T08:37:48Z</time>
      </trkpt>
      <trkpt lat="46.03805" lon="6.54984">
        <ele>512</ele>
        <time>2019-06-29T08:37:52Z</time>
      </trkpt>
      <trkpt lat="46.03796" lon="6.54989">
        <ele>513</ele>
        <time>2019-06-29T08:37:56Z</time>
      </trkpt>
      <trkpt lat="46.03788" lon="6.54995">
        <ele>514</ele>
        <time>2019-06-29T08:38:00Z</time>
      </trkpt>
      <trkpt lat="46.03778" lon="6.54995">
        <ele>514</ele>
        <time>2019-06-29T08:38:04Z</time>
      </trkpt>
      <trkpt lat="46.03768" lon="6.54998">
        <ele>515</ele>
        <time>2019-06-29T08:38:08Z</time>
      </trkpt>
      <trkpt lat="46.0376" lon="6.55001">
        <ele>516</ele>
        <time>2019-06-29T08:38:12Z</time>
      </trkpt>
      <trkpt lat="46.03751" lon="6.55005">
        <ele>517</ele>
        <time>2019-06-29T08:38:16Z</time>
      </trkpt>
      <trkpt lat="46.03744" lon="6.55013">
        <ele>517</ele>
        <time>2019-06-29T08:38:20Z</time>
      </trkpt>
      <trkpt lat="46.0374" lon="6.55025">
        <ele>518</ele>
        <time>2019-06-29T08:38:24Z</time>
      </trkpt>
      <trkpt lat="46.03734" lon="6.55034">
        <ele>519</ele>
        <time>2019-06-29T08:38:28Z</time>
      </trkpt>
      <trkpt lat="46.03727" lon="6.55041">
        <ele>519</ele>
        <time>2019-06-29T08:38:32Z</time>
      </trkpt>
      <trkpt lat="46.03719" lon="6.55046">
        <ele>520</ele>
        <time>2019-06-29T08:38:36Z</time>
      </trkpt>
      <trkpt lat="46.03711" lon="6.55048">
        <ele>521</ele>
        <time>2019-06-29T08:38:40Z</time>
      </trkpt>
      <trkpt lat="46.03702" lon="6.55049">
        <ele>522</ele>
        <time>2019-06-29T08:38:44Z</time>
      </trkpt>
      <trkpt lat="46.03695" lon="6.55051">
        <ele>522</ele>
        <time>2019-06-29T08:38:48Z</time>
      </trkpt>
      <trkpt lat="46.0369" lon="6.55059">
        <ele>523</ele>
        <time>2019-06-29T08:38:52Z</time>
      </trkpt>
      <trkpt lat="46.03683" lon="6.55063">
        <ele>524</ele>
        <time>2019-06-29T08:38:56Z</time>
      </trkpt>
      <trkpt lat="46.03676" lon="6.55067">
        <ele>524</ele>
        <time>2019-06-29T08:39:00Z</time>
      </trkpt>
      <trkpt lat="46.03667" lon="6.5507">
        <ele>525</ele>
        <time>2019-06-29T08:39:04Z</time>
      </trkpt>
      <trkpt lat="46.03657" lon="6.55071">
        <ele>525</ele>
        <time>2019-06-29T08:39:08Z</time>
      </trkpt>
      <trkpt lat="46.03647" lon="6.55072">
        <ele>526</ele>
        <time>2019-06-29T08:39:12Z</time>
      </trkpt>
      <trkpt lat="46.03639" lon="6.55078">
        <ele>526</ele>
        <time>2019-06-29T08:39:16Z</time>
      </trkpt>
      <trkpt lat="46.03631" lon="6.55083">
        <ele>528</ele>
        <time>2019-06-29T08:39:20Z</time>
      </trkpt>
      <trkpt lat="46.03623" lon="6.55088">
        <ele>528</ele>
        <time>2019-06-29T08:39:24Z</time>
      </trkpt>
      <trkpt lat="46.03616" lon="6.55098">
        <ele>529</ele>
        <time>2019-06-29T08:39:28Z</time>
      </trkpt>
      <trkpt lat="46.03611" lon="6.55106">
        <ele>530</ele>
        <time>2019-06-29T08:39:32Z</time>
      </trkpt>
      <trkpt lat="46.03604" lon="6.55111">
        <ele>530</ele>
        <time>2019-06-29T08:39:36Z</time>
      </trkpt>
      <trkpt lat="46.03597" lon="6.55116">
        <ele>531</ele>
        <time>2019-06-29T08:39:40Z</time>
      </trkpt>
      <trkpt lat="46.03589" lon="6.5512">
        <ele>532</ele>
        <time>2019-06-29T08:39:44Z</time>
      </trkpt>
      <trkpt lat="46.03581" lon="6.55125">
        <ele>532</ele>
        <time>2019-06-29T08:39:48Z</time>
      </trkpt>
      <trkpt lat="46.03571" lon="6.55126">
        <ele>533</ele>
        <time>2019-06-29T08:39:52Z</time>
      </trkpt>
      <trkpt lat="46.03563" lon="6.55129">
        <ele>534</ele>
        <time>2019-06-29T08:39:56Z</time>
      </trkpt>
      <trkpt lat="46.03555" lon="6.55133">
        <ele>534</ele>
        <time>2019-06-29T08:40:00Z</time>
      </trkpt>
      <trkpt lat="46.03547" lon="6.55137">
        <ele>535</ele>
        <time>2019-06-29T08:40:04Z</time>
      </trkpt>
      <trkpt lat="46.03538" lon="6.55142">
        <ele>536</ele>
        <time>2019-06-29T08:40:08Z</time>
      </trkpt>
      <trkpt lat="46.03533" lon="6.55154">
        <ele>536</ele>
        <time>2019-06-29T08:40:12Z</time>
      </trkpt>
      <trkpt lat="46.03531" lon="6.55167">
        <ele>537</ele>
        <time>2019-06-29T08:40:16Z</time>
      </trkpt>
      <trkpt lat="46.03528" lon="6.55179">
        <ele>537</ele>
        <time>2019-06-29T08:40:20Z</time>
      </trkpt>
      <trkpt lat="46.03527" lon="6.55191">
        <ele>538</ele>
        <time>2019-06-29T08:40:24Z</time>
      </trkpt>
      <trkpt lat="46.03522" lon="6.552">
        <ele>539</ele>
        <time>2019-06-29T08:40:28Z</time>
      </trkpt>
      <trkpt lat="46.03514" lon="6.55205">
        <ele>540</ele>
        <time>2019-06-29T08:40:32Z</time>
      </trkpt>
      <trkpt lat="46.03506" lon="6.55211">
        <ele>541</ele>
        <time>2019-06-29T08:40:36Z</time>
      </trkpt>
      <trkpt lat="46.03498" lon="6.55215">
        <ele>542</ele>
        <time>2019-06-29T08:40:40Z</time>
      </trkpt>
      <trkpt lat="46.03489" lon="6.55218">
        <ele>542</ele>
        <time>2019-06-29T08:40:44Z</time>
      </trkpt>
      <trkpt lat="46.03482" lon="6.55225">
        <ele>542</ele>
        <time>2019-06-29T08:40:48Z</time>
      </trkpt>
      <trkpt lat="46.03475" lon="6.55232">
        <ele>543</ele>
        <time>2019-06-29T08:40:52Z</time>
      </trkpt>
      <trkpt lat="46.03469" lon="6.55242">
        <ele>544</ele>
        <time>2019-06-29T08:40:56Z</time>
      </trkpt>
      <trkpt lat="46.03467" lon="6.55257">
        <ele>545</ele>
        <time>2019-06-29T08:41:00Z</time>
      </trkpt>
      <trkpt lat="46.03461" lon="6.55267">
        <ele>545</ele>
        <time>2019-06-29T08:41:04Z</time>
      </trkpt>
      <trkpt lat="46.03454" lon="6.55276">
        <ele>546</ele>
        <time>2019-06-29T08:41:08Z</time>
      </trkpt>
      <trkpt lat="46.03448" lon="6.55285">
        <ele>546</ele>
        <time>2019-06-29T08:41:12Z</time>
      </trkpt>
      <trkpt lat="46.0344" lon="6.55292">
        <ele>546</ele>
        <time>2019-06-29T08:41:16Z</time>
      </trkpt>
      <trkpt lat="46.03434" lon="6.55301">
        <ele>547</ele>
        <time>2019-06-29T08:41:20Z</time>
      </trkpt>
      <trkpt lat="46.03429" lon="6.55311">
        <ele>548</ele>
        <time>2019-06-29T08:41:24Z</time>
      </trkpt>
      <trkpt lat="46.03426" lon="6.55324">
        <ele>549</ele>
        <time>2019-06-29T08:41:28Z</time>
      </trkpt>
      <trkpt lat="46.03423" lon="6.55335">
        <ele>549</ele>
        <time>2019-06-29T08:41:32Z</time>
      </trkpt>
      <trkpt lat="46.0342" lon="6.55349">
        <ele>550</ele>
        <time>2019-06-29T08:41:36Z</time>
      </trkpt>
      <trkpt lat="46.03412" lon="6.55355">
        <ele>550</ele>
        <time>2019-06-29T08:41:40Z</time>
      </trkpt>
      <trkpt lat="46.03404" lon="6.55362">
        <ele>551</ele>
        <time>2019-06-29T08:41:44Z</time>
      </trkpt>
      <trkpt lat="46.03397" lon="6.5537">
        <ele>552</ele>
        <time>2019-06-29T08:41:48Z</time>
      </trkpt>
      <trkpt lat="46.03389" lon="6.55377">
        <ele>553</ele>
        <time>2019-06-29T08:41:52Z</time>
      </trkpt>
      <trkpt lat="46.03379" lon="6.5538">
        <ele>554</ele>
        <time>2019-06-29T08:41:56Z</time>
      </trkpt>
      <trkpt lat="46.03368" lon="6.55381">
        <ele>554</ele>
        <time>2019-06-29T08:42:00Z</time>
      </trkpt>
      <trkpt lat="46.03363" lon="6.55391">
        <ele>554</ele>
        <time>2019-06-29T08:42:04Z</time>
      </trkpt>
      <trkpt lat="46.03355" lon="6.55398">
        <ele>555</ele>
        <time>2019-06-29T08:42:08Z</time>
      </trkpt>
      <trkpt lat="46.03346" lon="6.55403">
        <ele>556</ele>
        <time>2019-06-29T08:42:12Z</time>
      </trkpt>
      <trkpt lat="46.03337" lon="6.5541">
        <ele>556</ele>
        <time>2019-06-29T08:42:16Z</time>
      </trkpt>
      <trkpt lat="46.03329" lon="6.55417">
        <ele>558</ele>
        <time>2019-06-29T08:42:20Z</time>
      </trkpt>
      <trkpt lat="46.03318" lon="6.55419">
        <ele>558</ele>
        <time>2019-06-29T08:42:24Z</time>
      </trkpt>
      <trkpt lat="46.03312" lon="6.55429">
        <ele>559</ele>
        <time>2019-06-29T08:42:28Z</time>
      </trkpt>
      <trkpt lat="46.03305" lon="6.55435">
        <ele>559</ele>
        <time>2019-06-29T08:42:32Z</time>
      </trkpt>
      <trkpt lat="46.03299" lon="6.55445">
        <ele>560</ele>
        <time>2019-06-29T08:42:36Z</time>
      </trkpt>
      <trkpt lat="46.03293" lon="6.55456">
        <ele>561</ele>
        <time>2019-06-29T08:42:40Z</time>
      </trkpt>
      <trkpt lat="46.03287" lon="6.55466">
        <ele>562</ele>
        <time>2019-06-29T08:42:44Z</time>
      </trkpt>
      <trkpt lat="46.0328" lon="6.55472">
        <ele>562</ele>
        <time>2019-06-29T08:42:48Z</time>
      </trkpt>
      <trkpt lat="46.03273" lon="6.5548">
        <ele>563</ele>
        <time>2019-06-29T08:42:52Z</time>
      </trkpt>
      <trkpt lat="46.03266" lon="6.5549">
        <ele>563</ele>
        <time>2019-06-29T08:42:56Z</time>
      </trkpt>
      <trkpt lat="46.0326" lon="6.55501">
        <ele>565</ele>
        <time>2019-06-29T08:43:00Z</time>
      </trkpt>
      <trkpt lat="46.03252" lon="6.55508">
        <ele>565</ele>
        <time>2019-06-29T08:43:04Z</time>
      </trkpt>
      <trkpt lat="46.03244" lon="6.55515">
        <ele>566</ele>
        <time>2019-06-29T08:43:08Z</time>
      </trkpt>
      <trkpt lat="46.03239" lon="6.55528">
        <ele>566</ele>
        <time>2019-06-29T08:43:12Z</time>
      </trkpt>
      <trkpt lat="46.03233" lon="6.55535">
        <ele>567</ele>
        <time>2019-06-29T08:43:16Z</time>
      </trkpt>
      <trkpt lat="46.03228" lon="6.55546">
        <ele>567</ele>
        <time>2019-06-29T08:43:20Z</time>
      </trkpt>
      <trkpt lat="46.03221" lon="6.55555">
        <ele>568</ele>
        <time>2019-06-29T08:43:24Z</time>
      </trkpt>
      <trkpt lat="46.03216" lon="6.55566">
        <ele>569</ele>
        <time>2019-06-29T08:43:28Z</time>
      </trkpt>
      <trkpt lat="46.03209" lon="6.55575">
        <ele>569</ele>
        <time>2019-06-29T08:43:32Z</time>
      </trkpt>
      <trkpt lat="46.03203" lon="6.55584">
        <ele>570</ele>
        <time>2019-06-29T08:43:36Z</time>
      </trkpt>
      <trkpt lat="46.03195" lon="6.55589">
        <ele>570</ele>
        <time>2019-06-29T08:43:40Z</time>
      </trkpt>
      <trkpt lat="46.03187" lon="6.55595">
        <ele>571</ele>
        <time>2019-06-29T08:43:44Z</time>
      </trkpt>
      <trkpt lat="46.03179" lon="6.55599">
        <ele>572</ele>
        <time>2019-06-29T08:43:48Z</time>
      </trkpt>
      <trkpt lat="46.03172" lon="6.55605">
        <ele>573</ele>
        <time>2019-06-29T08:43:52Z</time>
      </trkpt>
      <trkpt lat="46.03165" lon="6.55612">
        <ele>573</ele>
        <time>2019-06-29T08:43:56Z</time>
      </trkpt>
      <trkpt lat="46.03157" lon="6.55615">
        <ele>574</ele>
        <time>2019-06-29T08:44:00Z</time>
      </trkpt>
      <trkpt lat="46.03148" lon="6.55617">
        <ele>575</ele>
        <time>2019-06-29T08:44:04Z</time>
      </trkpt>
      <trkpt lat="46.0314" lon="6.55621">
        <ele>576</ele>
        <time>2019-06-29T08:44:08Z</time>
      </trkpt>
      <trkpt lat="46.03131" lon="6.55624">
        <ele>576</ele>
        <time>2019-06-29T08:44:12Z</time>
      </trkpt>
      <trkpt lat="46.03122" lon="6.55625">
        <ele>577</ele>
        <time>2019-06-29T08:44:16Z</time>
      </trkpt>
      <trkpt lat="46.03115" lon="6.55631">
        <ele>577</ele>
        <time>2019-06-29T08:44:20Z</time>
      </trkpt>
      <trkpt lat="46.03109" lon="6.55637">
        <ele>578</ele>
        <time>2019-06-29T08:44:24Z</time>
      </trkpt>
      <trkpt lat="46.03099" lon="6.55639">
        <ele>578</ele>
        <time>2019-06-29T08:44:28Z</time>
      </trkpt>
      <trkpt lat="46.03093" lon="6.55647">
        <ele>579</ele>
        <time>2019-06-29T08:44:32Z</time>
      </trkpt>
      <trkpt lat="46.03086" lon="6.55653">
        <ele>581</ele>
        <time>2019-06-29T08:44:36Z</time>
      </trkpt>
      <trkpt lat="46.03079" lon="6.5566">
        <ele>581</ele>
        <time>2019-06-29T08:44:40Z</time>
      </trkpt>
      <trkpt lat="46.0307" lon="6.55664">
        <ele>582</ele>
        <time>2019-06-29T08:44:44Z</time>
      </trkpt>
      <trkpt lat="46.03062" lon="6.55669">
        <ele>582</ele>
        <time>2019-06-29T08:44:48Z</time>
      </trkpt>
      <trkpt lat="46.03052" lon="6.55672">
        <ele>583</ele>
        <time>2019-06-29T08:44:52Z</time>
      </trkpt>
      <trkpt lat="46.03043" lon="6.55677">
        <ele>584</ele>
        <time>2019-06-29T08:44:56Z</time>
      </trkpt>
      <trkpt lat="46.03035" lon="6.55681">
        <ele>585</ele>
        <time>2019-06-29T08:45:00Z</time>
      </trkpt>
      <trkpt lat="46.03026" lon="6.55685">
        <ele>585</ele>
        <time>2019-06-29T08:45:04Z</time>
      </trkpt>
      <trkpt lat="46.03017" lon="6.55687">
        <ele>586</ele>
        <time>2019-06-29T08:45:08Z</time>
      </trkpt>
      <trkpt lat="46.03007" lon="6.55687">
        <ele>587</ele>
        <time>2019-06-29T08:45:12Z</time>
      </trkpt>
      <trkpt lat="46.02998" lon="6.5569">
        <ele>587</ele>
        <time>2019-06-29T08:45:16Z</time>
      </trkpt>
      <trkpt lat="46.0299" lon="6.55691">
        <ele>587</ele>
        <time>2019-06-29T08:45:20Z</time>
      </trkpt>
      <trkpt lat="46.02983" lon="6.55695">
        <ele>588</ele>
        <time>2019-06-29T08:45:24Z</time>
      </trkpt>
      <trkpt lat="46.02974" lon="6.55697">
        <ele>589</ele>
        <time>2019-06-29T08:45:28Z</time>
      </trkpt>
      <trkpt lat="46.02965" lon="6.55698">
        <ele>590</ele>
        <time>2019-06-29T08:45:32Z</time>
      </trkpt>
      <trkpt lat="46.02957" lon="6.55699">
        <ele>590</ele>
        <time>2019-06-29T08:45:36Z</time>
      </trkpt>
      <trkpt lat="46.02949" lon="6.55701">
        <ele>591</ele>
        <time>2019-06-29T08:45:40Z</time>
      </trkpt>
      <trkpt lat="46.02939" lon="6.55703">
        <ele>591</ele>
        <time>2019-06-29T08:45:44Z</time>
      </trkpt>
      <trkpt lat="46.0293" lon="6.55704">
        <ele>592</ele>
        <time>2019-06-29T08:45:48Z</time>
      </trkpt>
      <trkpt lat="46.0292" lon="6.55705">
        <ele>593</ele>
        <time>2019-06-29T08:45:52Z</time>
      </trkpt>
      <trkpt lat="46.02911" lon="6.55711">
        <ele>593</ele>
        <time>2019-06-29T08:45:56Z</time>
      </trkpt>
      <trkpt lat="46.02903" lon="6.55716">
        <ele>595</ele>
        <time>2019-06-29T08:46:00Z</time>
      </trkpt>
      <trkpt lat="46.02894" lon="6.55722">
        <ele>594</ele>
        <time>2019-06-29T08:46:04Z</time>
      </trkpt>
      <trkpt lat="46.02884" lon="6.55723">
        <ele>595</ele>
        <time>2019-06-29T08:46:08Z</time>
      </trkpt>
      <trkpt lat="46.02874" lon="6.55727">
        <ele>596</ele>
        <time>2019-06-29T08:46:12Z</time>
      </trkpt>
      <trkpt lat="46.02863" lon="6.55729">
        <ele>597</ele>
        <time>2019-06-29T08:46:16Z</time>
      </trkpt>
      <trkpt lat="46.02857" lon="6.55733">
        <ele>598</ele>
        <time>2019-06-29T08:46:20Z</time>
      </trkpt>
      <trkpt lat="46.02847" lon="6.55737">
        <ele>598</ele>
        <time>2019-06-29T08:46:24Z</time>
      </trkpt>
      <trkpt lat="46.02837" lon="6.5574">
        <ele>598</ele>
        <time>2019-06-29T08:46:28Z</time>
      </trkpt>
      <trkpt lat="46.02827" lon="6.5574">
        <ele>599</ele>
        <time>2019-06-29T08:46:32Z</time>
      </trkpt>
      <trkpt lat="46.02817" lon="6.55743">
        <ele>600</ele>
        <time>2019-06-29T08:46:36Z</time>
      </trkpt>
      <trkpt lat="46.02809" lon="6.55748">
        <ele>601</ele>
        <time>2019-06-29T08:46:40Z</time>
      </trkpt>
      <trkpt lat="46.02801" lon="6.55755">
        <ele>601</ele>
        <time>2019-06-29T08:46:44Z</time>
      </trkpt>
      <trkpt lat="46.02794" lon="6.55761">
        <ele>602</ele>
        <time>2019-06-29T08:46:48Z</time>
      </trkpt>
      <trkpt lat="46.02791" lon="6.55775">
        <ele>602</ele>
        <time>2019-06-29T08:46:52Z</time>
      </trkpt>
      <trkpt lat="46.02787" lon="6.55783">
        <ele>603</ele>
        <time>2019-06-29T08:46:56Z</time>
      </trkpt>
      <trkpt lat="46.02781" lon="6.5579">
        <ele>604</ele>
        <time>2019-06-29T08:47:00Z</time>
      </trkpt>
      <trkpt lat="46.02775" lon="6.55798">
        <ele>604</ele>
        <time>2019-06-29T08:47:04Z</time>
      </trkpt>
      <trkpt lat="46.02767" lon="6.55806">
        <ele>605</ele>
        <time>2019-06-29T08:47:08Z</time>
      </trkpt>
      <trkpt lat="46.02762" lon="6.55815">
        <ele>605</ele>
        <time>2019-06-29T08:47:12Z</time>
      </trkpt>
      <trkpt lat="46.02753" lon="6.55823">
        <ele>606</ele>
        <time>2019-06-29T08:47:16Z</time>
      </trkpt>
      <trkpt lat="46.02743" lon="6.55826">
        <ele>607</ele>
        <time>2019-06-29T08:47:20Z</time>
      </trkpt>
      <trkpt lat="46.02731" lon="6.55824">
        <ele>607</ele>
        <time>2019-06-29T08:47:24Z</time>
      </trkpt>
      <trkpt lat="46.02719" lon="6.55821">
        <ele>608</ele>
        <time>2019-06-29T08:47:28Z</time>
      </trkpt>
      <trkpt lat="46.02708" lon="6.55816">
        <ele>608</ele>
        <time>2019-06-29T08:47:32Z</time>
      </trkpt>
      <trkpt lat="46.02696" lon="6.5581">
        <ele>608</ele>
        <time>2019-06-29T08:47:36Z</time>
      </trkpt>
      <trkpt lat="46.02683" lon="6.55805">
        <ele>608</ele>
        <time>2019-06-29T08:47:40Z</time>
      </trkpt>
      <trkpt lat="46.02671" lon="6.558">
        <ele>608</ele>
        <time>2019-06-29T08:47:44Z</time>
      </trkpt>
      <trkpt lat="46.02659" lon="6.55795">
        <ele>609</ele>
        <time>2019-06-29T08:47:48Z</time>
      </trkpt>
      <trkpt lat="46.02648" lon="6.55792">
        <ele>609</ele>
        <time>2019-06-29T08:47:52Z</time>
      </trkpt>
      <trkpt lat="46.02638" lon="6.55788">
        <ele>609</ele>
        <time>2019-06-29T08:47:56Z</time>
      </trkpt>
      <trkpt lat="46.02628" lon="6.55783">
        <ele>609</ele>
        <time>2019-06-29T08:48:00Z</time>
      </trkpt>
      <trkpt lat="46.02617" lon="6.55778">
        <ele>609</ele>
        <time>2019-06-29T08:48:04Z</time>
      </trkpt>
      <trkpt lat="46.02607" lon="6.55772">
        <ele>609</ele>
        <time>2019-06-29T08:48:08Z</time>
      </trkpt>
      <trkpt lat="46.02593" lon="6.55764">
        <ele>609</ele>
        <time>2019-06-29T08:48:12Z</time>
      </trkpt>
      <trkpt lat="46.02577" lon="6.55749">
        <ele>610</ele>
        <time>2019-06-29T08:48:16Z</time>
      </trkpt>
      <trkpt lat="46.02564" lon="6.55733">
        <ele>611</ele>
        <time>2019-06-29T08:48:20Z</time>
      </trkpt>
      <trkpt lat="46.02551" lon="6.55716">
        <ele>610</ele>
        <time>2019-06-29T08:48:24Z</time>
      </trkpt>
      <trkpt lat="46.0254" lon="6.55698">
        <ele>611</ele>
        <time>2019-06-29T08:48:28Z</time>
      </trkpt>
      <trkpt lat="46.02529" lon="6.55679">
        <ele>612</ele>
        <time>2019-06-29T08:48:32Z</time>
      </trkpt>
      <trkpt lat="46.0252" lon="6.5566">
        <ele>612</ele>
        <time>2019-06-29T08:48:36Z</time>
      </trkpt>
      <trkpt lat="46.02511" lon="6.55637">
        <ele>613</ele>
        <time>2019-06-29T08:48:40Z</time>
      </trkpt>
      <trkpt lat="46.02501" lon="6.55617">
        <ele>613</ele>
        <time>2019-06-29T08:48:44Z</time>
      </trkpt>
      <trkpt lat="46.02487" lon="6.556">
        <ele>613</ele>
        <time>2019-06-29T08:48:48Z</time>
      </trkpt>
      <trkpt lat="46.02472" lon="6.5558">
        <ele>612</ele>
        <time>2019-06-29T08:48:52Z</time>
      </trkpt>
      <trkpt lat="46.02455" lon="6.55561">
        <ele>613</ele>
        <time>2019-06-29T08:48:56Z</time>
      </trkpt>
      <trkpt lat="46.02439" lon="6.55543">
        <ele>615</ele>
        <time>2019-06-29T08:49:00Z</time>
      </trkpt>
      <trkpt lat="46.02424" lon="6.55527">
        <ele>615</ele>
        <time>2019-06-29T08:49:04Z</time>
      </trkpt>
      <trkpt lat="46.0241" lon="6.55512">
        <ele>616</ele>
        <time>2019-06-29T08:49:08Z</time>
      </trkpt>
      <trkpt lat="46.02397" lon="6.55492">
        <ele>616</ele>
        <time>2019-06-29T08:49:12Z</time>
      </trkpt>
      <trkpt lat="46.02386" lon="6.55476">
        <ele>617</ele>
        <time>2019-06-29T08:49:16Z</time>
      </trkpt>
      <trkpt lat="46.02374" lon="6.55458">
        <ele>617</ele>
        <time>2019-06-29T08:49:20Z</time>
      </trkpt>
      <trkpt lat="46.02364" lon="6.55441">
        <ele>618</ele>
        <time>2019-06-29T08:49:24Z</time>
      </trkpt>
      <trkpt lat="46.02351" lon="6.55424">
        <ele>618</ele>
        <time>2019-06-29T08:49:28Z</time>
      </trkpt>
      <trkpt lat="46.02338" lon="6.55409">
        <ele>618</ele>
        <time>2019-06-29T08:49:32Z</time>
      </trkpt>
      <trkpt lat="46.02324" lon="6.55388">
        <ele>618</ele>
        <time>2019-06-29T08:49:36Z</time>
      </trkpt>
      <trkpt lat="46.02313" lon="6.55373">
        <ele>620</ele>
        <time>2019-06-29T08:49:40Z</time>
      </trkpt>
      <trkpt lat="46.02301" lon="6.55354">
        <ele>620</ele>
        <time>2019-06-29T08:49:44Z</time>
      </trkpt>
      <trkpt lat="46.02288" lon="6.55342">
        <ele>620</ele>
        <time>2019-06-29T08:49:48Z</time>
      </trkpt>
      <trkpt lat="46.02272" lon="6.55339">
        <ele>620</ele>
        <time>2019-06-29T08:49:52Z</time>
      </trkpt>
      <trkpt lat="46.02255" lon="6.5534">
        <ele>620</ele>
        <time>2019-06-29T08:49:56Z</time>
      </trkpt>
      <trkpt lat="46.02237" lon="6.5533">
        <ele>620</ele>
        <time>2019-06-29T08:50:00Z</time>
      </trkpt>
      <trkpt lat="46.02223" lon="6.55314">
        <ele>622</ele>
        <time>2019-06-29T08:50:04Z</time>
      </trkpt>
      <trkpt lat="46.02212" lon="6.55293">
        <ele>622</ele>
        <time>2019-06-29T08:50:08Z</time>
      </trkpt>
      <trkpt lat="46.02201" lon="6.55275">
        <ele>622</ele>
        <time>2019-06-29T08:50:12Z</time>
      </trkpt>
      <trkpt lat="46.02191" lon="6.55256">
        <ele>623</ele>
        <time>2019-06-29T08:50:16Z</time>
      </trkpt>
      <trkpt lat="46.02179" lon="6.55237">
        <ele>623</ele>
        <time>2019-06-29T08:50:20Z</time>
      </trkpt>
      <trkpt lat="46.02168" lon="6.55219">
        <ele>623</ele>
        <time>2019-06-29T08:50:24Z</time>
      </trkpt>
      <trkpt lat="46.02156" lon="6.552">
        <ele>624</ele>
        <time>2019-06-29T08:50:28Z</time>
      </trkpt>
      <trkpt lat="46.02146" lon="6.5518">
        <ele>624</ele>
        <time>2019-06-29T08:50:32Z</time>
      </trkpt>
      <trkpt lat="46.02135" lon="6.55161">
        <ele>625</ele>
        <time>2019-06-29T08:50:36Z</time>
      </trkpt>
      <trkpt lat="46.02125" lon="6.55142">
        <ele>625</ele>
        <time>2019-06-29T08:50:40Z</time>
      </trkpt>
      <trkpt lat="46.02115" lon="6.55122">
        <ele>625</ele>
        <time>2019-06-29T08:50:44Z</time>
      </trkpt>
      <trkpt lat="46.02106" lon="6.55101">
        <ele>626</ele>
        <time>2019-06-29T08:50:48Z</time>
      </trkpt>
      <trkpt lat="46.02098" lon="6.55079">
        <ele>626</ele>
        <time>2019-06-29T08:50:52Z</time>
      </trkpt>
      <trkpt lat="46.0209" lon="6.55058">
        <ele>626</ele>
        <time>2019-06-29T08:50:56Z</time>
      </trkpt>
      <trkpt lat="46.02082" lon="6.55036">
        <ele>627</ele>
        <time>2019-06-29T08:51:00Z</time>
      </trkpt>
      <trkpt lat="46.02074" lon="6.55015">
        <ele>627</ele>
        <time>2019-06-29T08:51:04Z</time>
      </trkpt>
      <trkpt lat="46.02067" lon="6.54994">
        <ele>628</ele>
        <time>2019-06-29T08:51:08Z</time>
      </trkpt>
      <trkpt lat="46.02061" lon="6.54972">
        <ele>628</ele>
        <time>2019-06-29T08:51:12Z</time>
      </trkpt>
      <trkpt lat="46.02056" lon="6.5495">
        <ele>628</ele>
        <time>2019-06-29T08:51:16Z</time>
      </trkpt>
      <trkpt lat="46.02053" lon="6.54926">
        <ele>628</ele>
        <time>2019-06-29T08:51:20Z</time>
      </trkpt>
      <trkpt lat="46.02055" lon="6.5491">
        <ele>629</ele>
        <time>2019-06-29T08:51:24Z</time>
      </trkpt>
      <trkpt lat="46.02055" lon="6.5489">
        <ele>630</ele>
        <time>2019-06-29T08:51:28Z</time>
      </trkpt>
      <trkpt lat="46.02051" lon="6.54874">
        <ele>630</ele>
        <time>2019-06-29T08:51:32Z</time>
      </trkpt>
      <trkpt lat="46.02047" lon="6.54851">
        <ele>631</ele>
        <time>2019-06-29T08:51:36Z</time>
      </trkpt>
      <trkpt lat="46.02038" lon="6.54829">
        <ele>632</ele>
        <time>2019-06-29T08:51:40Z</time>
      </trkpt>
      <trkpt lat="46.02033" lon="6.54809">
        <ele>633</ele>
        <time>2019-06-29T08:51:44Z</time>
      </trkpt>
      <trkpt lat="46.02029" lon="6.54792">
        <ele>633</ele>
        <time>2019-06-29T08:51:48Z</time>
      </trkpt>
      <trkpt lat="46.02023" lon="6.54773">
        <ele>633</ele>
        <time>2019-06-29T08:51:52Z</time>
      </trkpt>
      <trkpt lat="46.02018" lon="6.54753">
        <ele>634</ele>
        <time>2019-06-29T08:51:56Z</time>
      </trkpt>
      <trkpt lat="46.02017" lon="6.54733">
        <ele>636</ele>
        <time>2019-06-29T08:52:00Z</time>
      </trkpt>
      <trkpt lat="46.02019" lon="6.54715">
        <ele>636</ele>
        <time>2019-06-29T08:52:04Z</time>
      </trkpt>
      <trkpt lat="46.02017" lon="6.54693">
        <ele>636</ele>
        <time>2019-06-29T08:52:08Z</time>
      </trkpt>
      <trkpt lat="46.02014" lon="6.54674">
        <ele>636</ele>
        <time>2019-06-29T08:52:12Z</time>
      </trkpt>
      <trkpt lat="46.02006" lon="6.54653">
        <ele>637</ele>
        <time>2019-06-29T08:52:16Z</time>
      </trkpt>
      <trkpt lat="46.01999" lon="6.54635">
        <ele>637</ele>
        <time>2019-06-29T08:52:20Z</time>
      </trkpt>
      <trkpt lat="46.01992" lon="6.54621">
        <ele>638</ele>
        <time>2019-06-29T08:52:24Z</time>
      </trkpt>
      <trkpt lat="46.01984" lon="6.54605">
        <ele>638</ele>
        <time>2019-06-29T08:52:28Z</time>
      </trkpt>
      <trkpt lat="46.01975" lon="6.54584">
        <ele>639</ele>
        <time>2019-06-29T08:52:32Z</time>
      </trkpt>
      <trkpt lat="46.01968" lon="6.54569">
        <ele>640</ele>
        <time>2019-06-29T08:52:36Z</time>
      </trkpt>
      <trkpt lat="46.0196" lon="6.54551">
        <ele>641</ele>
        <time>2019-06-29T08:52:40Z</time>
      </trkpt>
      <trkpt lat="46.01953" lon="6.54536">
        <ele>641</ele>
        <time>2019-06-29T08:52:44Z</time>
      </trkpt>
      <trkpt lat="46.01946" lon="6.54521">
        <ele>642</ele>
        <time>2019-06-29T08:52:48Z</time>
      </trkpt>
      <trkpt lat="46.01939" lon="6.5451">
        <ele>642</ele>
        <time>2019-06-29T08:52:52Z</time>
      </trkpt>
      <trkpt lat="46.01933" lon="6.54495">
        <ele>643</ele>
        <time>2019-06-29T08:52:56Z</time>
      </trkpt>
      <trkpt lat="46.01924" lon="6.5448">
        <ele>644</ele>
        <time>2019-06-29T08:53:00Z</time>
      </trkpt>
      <trkpt lat="46.01911" lon="6.54459">
        <ele>644</ele>
        <time>2019-06-29T08:53:04Z</time>
      </trkpt>
      <trkpt lat="46.01898" lon="6.54443">
        <ele>644</ele>
        <time>2019-06-29T08:53:08Z</time>
      </trkpt>
      <trkpt lat="46.01885" lon="6.54431">
        <ele>645</ele>
        <time>2019-06-29T08:53:12Z</time>
      </trkpt>
      <trkpt lat="46.01875" lon="6.54418">
        <ele>646</ele>
        <time>2019-06-29T08:53:16Z</time>
      </trkpt>
      <trkpt lat="46.01867" lon="6.544">
        <ele>646</ele>
        <time>2019-06-29T08:53:20Z</time>
      </trkpt>
      <trkpt lat="46.01864" lon="6.54373">
        <ele>646</ele>
        <time>2019-06-29T08:53:24Z</time>
      </trkpt>
      <trkpt lat="46.01866" lon="6.54352">
        <ele>646</ele>
        <time>2019-06-29T08:53:28Z</time>
      </trkpt>
      <trkpt lat="46.01867" lon="6.54333">
        <ele>647</ele>
        <time>2019-06-29T08:53:32Z</time>
      </trkpt>
      <trkpt lat="46.0186" lon="6.54323">
        <ele>647</ele>
        <time>2019-06-29T08:53:36Z</time>
      </trkpt>
      <trkpt lat="46.01847" lon="6.5431">
        <ele>648</ele>
        <time>2019-06-29T08:53:40Z</time>
      </trkpt>
      <trkpt lat="46.01832" lon="6.54295">
        <ele>648</ele>
        <time>2019-06-29T08:53:44Z</time>
      </trkpt>
      <trkpt lat="46.01819" lon="6.54281">
        <ele>648</ele>
        <time>2019-06-29T08:53:48Z</time>
      </trkpt>
      <trkpt lat="46.01806" lon="6.54264">
        <ele>649</ele>
        <time>2019-06-29T08:53:52Z</time>
      </trkpt>
      <trkpt lat="46.01795" lon="6.54246">
        <ele>649</ele>
        <time>2019-06-29T08:53:56Z</time>
      </trkpt>
      <trkpt lat="46.01785" lon="6.54228">
        <ele>650</ele>
        <time>2019-06-29T08:54:00Z</time>
      </trkpt>
      <trkpt lat="46.01777" lon="6.5421">
        <ele>650</ele>
        <time>2019-06-29T08:54:04Z</time>
      </trkpt>
      <trkpt lat="46.01769" lon="6.54191">
        <ele>650</ele>
        <time>2019-06-29T08:54:08Z</time>
      </trkpt>
      <trkpt lat="46.01759" lon="6.54166">
        <ele>651</ele>
        <time>2019-06-29T08:54:12Z</time>
      </trkpt>
      <trkpt lat="46.0175" lon="6.54145">
        <ele>651</ele>
        <time>2019-06-29T08:54:16Z</time>
      </trkpt>
      <trkpt lat="46.01739" lon="6.54125">
        <ele>652</ele>
        <time>2019-06-29T08:54:20Z</time>
      </trkpt>
      <trkpt lat="46.01726" lon="6.54109">
        <ele>653</ele>
        <time>2019-06-29T08:54:24Z</time>
      </trkpt>
      <trkpt lat="46.01711" lon="6.54093">
        <ele>653</ele>
        <time>2019-06-29T08:54:28Z</time>
      </trkpt>
      <trkpt lat="46.01695" lon="6.54078">
        <ele>653</ele>
        <time>2019-06-29T08:54:32Z</time>
      </trkpt>
      <trkpt lat="46.0168" lon="6.54063">
        <ele>653</ele>
        <time>2019-06-29T08:54:36Z</time>
      </trkpt>
      <trkpt lat="46.01665" lon="6.54049">
        <ele>654</ele>
        <time>2019-06-29T08:54:40Z</time>
      </trkpt>
      <trkpt lat="46.01649" lon="6.54034">
        <ele>655</ele>
        <time>2019-06-29T08:54:44Z</time>
      </trkpt>
      <trkpt lat="46.01635" lon="6.5402">
        <ele>655</ele>
        <time>2019-06-29T08:54:48Z</time>
      </trkpt>
      <trkpt lat="46.01621" lon="6.54006">
        <ele>655</ele>
        <time>2019-06-29T08:54:52Z</time>
      </trkpt>
      <trkpt lat="46.01607" lon="6.53993">
        <ele>656</ele>
        <time>2019-06-29T08:54:56Z</time>
      </trkpt>
      <trkpt lat="46.01593" lon="6.5398">
        <ele>657</ele>
        <time>2019-06-29T08:55:00Z</time>
      </trkpt>
      <trkpt lat="46.01579" lon="6.53966">
        <ele>657</ele>
        <time>2019-06-29T08:55:04Z</time>
      </trkpt>
      <trkpt lat="46.01565" lon="6.53954">
        <ele>657</ele>
        <time>2019-06-29T08:55:08Z</time>
      </trkpt>
      <trkpt lat="46.01551" lon="6.53941">
        <ele>657</ele>
        <time>2019-06-29T08:55:12Z</time>
      </trkpt>
      <trkpt lat="46.01536" lon="6.53928">
        <ele>658</ele>
        <time>2019-06-29T08:55:16Z</time>
      </trkpt>
      <trkpt lat="46.01522" lon="6.53917">
        <ele>658</ele>
        <time>2019-06-29T08:55:20Z</time>
      </trkpt>
      <trkpt lat="46.01508" lon="6.53905">
        <ele>659</ele>
        <time>2019-06-29T08:55:24Z</time>
      </trkpt>
      <trkpt lat="46.01493" lon="6.53894">
        <ele>660</ele>
        <time>2019-06-29T08:55:28Z</time>
      </trkpt>
      <trkpt lat="46.01478" lon="6.53884">
        <ele>660</ele>
        <time>2019-06-29T08:55:32Z</time>
      </trkpt>
      <trkpt lat="46.01463" lon="6.53873">
        <ele>661</ele>
        <time>2019-06-29T08:55:36Z</time>
      </trkpt>
      <trkpt lat="46.01448" lon="6.53864">
        <ele>661</ele>
        <time>2019-06-29T08:55:40Z</time>
      </trkpt>
      <trkpt lat="46.01433" lon="6.53855">
        <ele>661</ele>
        <time>2019-06-29T08:55:44Z</time>
      </trkpt>
      <trkpt lat="46.01417" lon="6.53846">
        <ele>662</ele>
        <time>2019-06-29T08:55:48Z</time>
      </trkpt>
      <trkpt lat="46.01402" lon="6.53836">
        <ele>662</ele>
        <time>2019-06-29T08:55:52Z</time>
      </trkpt>
      <trkpt lat="46.01387" lon="6.53826">
        <ele>663</ele>
        <time>2019-06-29T08:55:56Z</time>
      </trkpt>
      <trkpt lat="46.01373" lon="6.53816">
        <ele>663</ele>
        <time>2019-06-29T08:56:00Z</time>
      </trkpt>
      <trkpt lat="46.01357" lon="6.53807">
        <ele>664</ele>
        <time>2019-06-29T08:56:04Z</time>
      </trkpt>
      <trkpt lat="46.01343" lon="6.53797">
        <ele>664</ele>
        <time>2019-06-29T08:56:08Z</time>
      </trkpt>
      <trkpt lat="46.01328" lon="6.53788">
        <ele>664</ele>
        <time>2019-06-29T08:56:12Z</time>
      </trkpt>
      <trkpt lat="46.01314" lon="6.5378">
        <ele>665</ele>
        <time>2019-06-29T08:56:16Z</time>
      </trkpt>
      <trkpt lat="46.01299" lon="6.53773">
        <ele>666</ele>
        <time>2019-06-29T08:56:20Z</time>
      </trkpt>
      <trkpt lat="46.01285" lon="6.53766">
        <ele>666</ele>
        <time>2019-06-29T08:56:24Z</time>
      </trkpt>
      <trkpt lat="46.0127" lon="6.5376">
        <ele>666</ele>
        <time>2019-06-29T08:56:28Z</time>
      </trkpt>
      <trkpt lat="46.01256" lon="6.53755">
        <ele>666</ele>
        <time>2019-06-29T08:56:32Z</time>
      </trkpt>
      <trkpt lat="46.01241" lon="6.53749">
        <ele>667</ele>
        <time>2019-06-29T08:56:36Z</time>
      </trkpt>
      <trkpt lat="46.01228" lon="6.53741">
        <ele>668</ele>
        <time>2019-06-29T08:56:40Z</time>
      </trkpt>
      <trkpt lat="46.01216" lon="6.53728">
        <ele>668</ele>
        <time>2019-06-29T08:56:44Z</time>
      </trkpt>
      <trkpt lat="46.01207" lon="6.53712">
        <ele>669</ele>
        <time>2019-06-29T08:56:48Z</time>
      </trkpt>
      <trkpt lat="46.012" lon="6.53694">
        <ele>669</ele>
        <time>2019-06-29T08:56:52Z</time>
      </trkpt>
      <trkpt lat="46.01195" lon="6.53675">
        <ele>670</ele>
        <time>2019-06-29T08:56:56Z</time>
      </trkpt>
      <trkpt lat="46.01191" lon="6.53656">
        <ele>671</ele>
        <time>2019-06-29T08:57:00Z</time>
      </trkpt>
      <trkpt lat="46.01187" lon="6.53636">
        <ele>672</ele>
        <time>2019-06-29T08:57:04Z</time>
      </trkpt>
      <trkpt lat="46.01183" lon="6.53619">
        <ele>672</ele>
        <time>2019-06-29T08:57:08Z</time>
      </trkpt>
      <trkpt lat="46.01178" lon="6.53601">
        <ele>673</ele>
        <time>2019-06-29T08:57:12Z</time>
      </trkpt>
      <trkpt lat="46.01174" lon="6.53583">
        <ele>674</ele>
        <time>2019-06-29T08:57:16Z</time>
      </trkpt>
      <trkpt lat="46.0117" lon="6.53567">
        <ele>675</ele>
        <time>2019-06-29T08:57:20Z</time>
      </trkpt>
      <trkpt lat="46.01165" lon="6.53551">
        <ele>676</ele>
        <time>2019-06-29T08:57:24Z</time>
      </trkpt>
      <trkpt lat="46.01162" lon="6.53533">
        <ele>676</ele>
        <time>2019-06-29T08:57:28Z</time>
      </trkpt>
      <trkpt lat="46.01159" lon="6.53516">
        <ele>677</ele>
        <time>2019-06-29T08:57:32Z</time>
      </trkpt>
      <trkpt lat="46.01156" lon="6.535">
        <ele>678</ele>
        <time>2019-06-29T08:57:36Z</time>
      </trkpt>
      <trkpt lat="46.01153" lon="6.53483">
        <ele>679</ele>
        <time>2019-06-29T08:57:40Z</time>
      </trkpt>
      <trkpt lat="46.0115" lon="6.53467">
        <ele>680</ele>
        <time>2019-06-29T08:57:44Z</time>
      </trkpt>
      <trkpt lat="46.01149" lon="6.53453">
        <ele>680</ele>
        <time>2019-06-29T08:57:48Z</time>
      </trkpt>
      <trkpt lat="46.01147" lon="6.53438">
        <ele>681</ele>
        <time>2019-06-29T08:57:52Z</time>
      </trkpt>
      <trkpt lat="46.01151" lon="6.53425">
        <ele>682</ele>
        <time>2019-06-29T08:57:56Z</time>
      </trkpt>
      <trkpt lat="46.01156" lon="6.53415">
        <ele>683</ele>
        <time>2019-06-29T08:58:00Z</time>
      </trkpt>
      <trkpt lat="46.01163" lon="6.5341">
        <ele>684</ele>
        <time>2019-06-29T08:58:04Z</time>
      </trkpt>
      <trkpt lat="46.01171" lon="6.53411">
        <ele>685</ele>
        <time>2019-06-29T08:58:08Z</time>
      </trkpt>
      <trkpt lat="46.01179" lon="6.53416">
        <ele>686</ele>
        <time>2019-06-29T08:58:12Z</time>
      </trkpt>
      <trkpt lat="46.01189" lon="6.53423">
        <ele>686</ele>
        <time>2019-06-29T08:58:16Z</time>
      </trkpt>
      <trkpt lat="46.01199" lon="6.5343">
        <ele>687</ele>
        <time>2019-06-29T08:58:20Z</time>
      </trkpt>
      <trkpt lat="46.01209" lon="6.53437">
        <ele>688</ele>
        <time>2019-06-29T08:58:24Z</time>
      </trkpt>
      <trkpt lat="46.01217" lon="6.53443">
        <ele>688</ele>
        <time>2019-06-29T08:58:28Z</time>
      </trkpt>
      <trkpt lat="46.01225" lon="6.53449">
        <ele>689</ele>
        <time>2019-06-29T08:58:32Z</time>
      </trkpt>
      <trkpt lat="46.01234" lon="6.53456">
        <ele>690</ele>
        <time>2019-06-29T08:58:36Z</time>
      </trkpt>
      <trkpt lat="46.01242" lon="6.53463">
        <ele>691</ele>
        <time>2019-06-29T08:58:40Z</time>
      </trkpt>
      <trkpt lat="46.01249" lon="6.53471">
        <ele>692</ele>
        <time>2019-06-29T08:58:44Z</time>
      </trkpt>
      <trkpt lat="46.01256" lon="6.53479">
        <ele>692</ele>
        <time>2019-06-29T08:58:48Z</time>
      </trkpt>
      <trkpt lat="46.01263" lon="6.53487">
        <ele>693</ele>
        <time>2019-06-29T08:58:52Z</time>
      </trkpt>
      <trkpt lat="46.0127" lon="6.53496">
        <ele>694</ele>
        <time>2019-06-29T08:58:56Z</time>
      </trkpt>
      <trkpt lat="46.01276" lon="6.53504">
        <ele>695</ele>
        <time>2019-06-29T08:59:00Z</time>
      </trkpt>
      <trkpt lat="46.01282" lon="6.53513">
        <ele>696</ele>
        <time>2019-06-29T08:59:04Z</time>
      </trkpt>
      <trkpt lat="46.01289" lon="6.53521">
        <ele>697</ele>
        <time>2019-06-29T08:59:08Z</time>
      </trkpt>
      <trkpt lat="46.01296" lon="6.53529">
        <ele>698</ele>
        <time>2019-06-29T08:59:12Z</time>
      </trkpt>
      <trkpt lat="46.01304" lon="6.53536">
        <ele>698</ele>
        <time>2019-06-29T08:59:16Z</time>
      </trkpt>
      <trkpt lat="46.01312" lon="6.53543">
        <ele>699</ele>
        <time>2019-06-29T08:59:20Z</time>
      </trkpt>
      <trkpt lat="46.0132" lon="6.53548">
        <ele>699</ele>
        <time>2019-06-29T08:59:24Z</time>
      </trkpt>
      <trkpt lat="46.01328" lon="6.53553">
        <ele>699</ele>
        <time>2019-06-29T08:59:28Z</time>
      </trkpt>
      <trkpt lat="46.01336" lon="6.53555">
        <ele>701</ele>
        <time>2019-06-29T08:59:32Z</time>
      </trkpt>
      <trkpt lat="46.01344" lon="6.5355">
        <ele>701</ele>
        <time>2019-06-29T08:59:36Z</time>
      </trkpt>
      <trkpt lat="46.01351" lon="6.53542">
        <ele>702</ele>
        <time>2019-06-29T08:59:40Z</time>
      </trkpt>
      <trkpt lat="46.01352" lon="6.5353">
        <ele>703</ele>
        <time>2019-06-29T08:59:44Z</time>
      </trkpt>
      <trkpt lat="46.01349" lon="6.53518">
        <ele>704</ele>
        <time>2019-06-29T08:59:48Z</time>
      </trkpt>
      <trkpt lat="46.01344" lon="6.53508">
        <ele>704</ele>
        <time>2019-06-29T08:59:52Z</time>
      </trkpt>
      <trkpt lat="46.01337" lon="6.53498">
        <ele>705</ele>
        <time>2019-06-29T08:59:56Z</time>
      </trkpt>
      <trkpt lat="46.0133" lon="6.53489">
        <ele>706</ele>
        <time>2019-06-29T09:00:00Z</time>
      </trkpt>
      <trkpt lat="46.01323" lon="6.5348">
        <ele>706</ele>
        <time>2019-06-29T09:00:04Z</time>
      </trkpt>
      <trkpt lat="46.01316" lon="6.53473">
        <ele>707</ele>
        <time>2019-06-29T09:00:08Z</time>
      </trkpt>
      <trkpt lat="46.01309" lon="6.53466">
        <ele>707</ele>
        <time>2019-06-29T09:00:12Z</time>
      </trkpt>
      <trkpt lat="46.01302" lon="6.53459">
        <ele>708</ele>
        <time>2019-06-29T09:00:16Z</time>
      </trkpt>
      <trkpt lat="46.01295" lon="6.53454">
        <ele>709</ele>
        <time>2019-06-29T09:00:20Z</time>
      </trkpt>
      <trkpt lat="46.01288" lon="6.53449">
        <ele>710</ele>
        <time>2019-06-29T09:00:24Z</time>
      </trkpt>
      <trkpt lat="46.01281" lon="6.53441">
        <ele>711</ele>
        <time>2019-06-29T09:00:28Z</time>
      </trkpt>
      <trkpt lat="46.01276" lon="6.53431">
        <ele>711</ele>
        <time>2019-06-29T09:00:32Z</time>
      </trkpt>
      <trkpt lat="46.01271" lon="6.53421">
        <ele>712</ele>
        <time>2019-06-29T09:00:36Z</time>
      </trkpt>
      <trkpt lat="46.01267" lon="6.5341">
        <ele>713</ele>
        <time>2019-06-29T09:00:40Z</time>
      </trkpt>
      <trkpt lat="46.01263" lon="6.53399">
        <ele>714</ele>
        <time>2019-06-29T09:00:44Z</time>
      </trkpt>
      <trkpt lat="46.01258" lon="6.53389">
        <ele>714</ele>
        <time>2019-06-29T09:00:48Z</time>
      </trkpt>
      <trkpt lat="46.01254" lon="6.53378">
        <ele>715</ele>
        <time>2019-06-29T09:00:52Z</time>
      </trkpt>
      <trkpt lat="46.01249" lon="6.53368">
        <ele>716</ele>
        <time>2019-06-29T09:00:56Z</time>
      </trkpt>
      <trkpt lat="46.01247" lon="6.53357">
        <ele>717</ele>
        <time>2019-06-29T09:01:00Z</time>
      </trkpt>
      <trkpt lat="46.01244" lon="6.53345">
        <ele>717</ele>
        <time>2019-06-29T09:01:04Z</time>
      </trkpt>
      <trkpt lat="46.0124" lon="6.53334">
        <ele>718</ele>
        <time>2019-06-29T09:01:08Z</time>
      </trkpt>
      <trkpt lat="46.01237" lon="6.53322">
        <ele>719</ele>
        <time>2019-06-29T09:01:12Z</time>
      </trkpt>
      <trkpt lat="46.01234" lon="6.53311">
        <ele>719</ele>
        <time>2019-06-29T09:01:16Z</time>
      </trkpt>
      <trkpt lat="46.01231" lon="6.533">
        <ele>720</ele>
        <time>2019-06-29T09:01:20Z</time>
      </trkpt>
      <trkpt lat="46.01227" lon="6.53288">
        <ele>721</ele>
        <time>2019-06-29T09:01:24Z</time>
      </trkpt>
      <trkpt lat="46.01223" lon="6.53278">
        <ele>721</ele>
        <time>2019-06-29T09:01:28Z</time>
      </trkpt>
      <trkpt lat="46.01217" lon="6.53268">
        <ele>722</ele>
        <time>2019-06-29T09:01:32Z</time>
      </trkpt>
      <trkpt lat="46.01212" lon="6.53259">
        <ele>723</ele>
        <time>2019-06-29T09:01:36Z</time>
      </trkpt>
      <trkpt lat="46.01206" lon="6.5325">
        <ele>724</ele>
        <time>2019-06-29T09:01:40Z</time>
      </trkpt>
      <trkpt lat="46.01199" lon="6.53241">
        <ele>725</ele>
        <time>2019-06-29T09:01:44Z</time>
      </trkpt>
      <trkpt lat="46.01192" lon="6.53232">
        <ele>725</ele>
        <time>2019-06-29T09:01:48Z</time>
      </trkpt>
      <trkpt lat="46.01185" lon="6.53224">
        <ele>726</ele>
        <time>2019-06-29T09:01:52Z</time>
      </trkpt>
      <trkpt lat="46.01179" lon="6.53216">
        <ele>727</ele>
        <time>2019-06-29T09:01:56Z</time>
      </trkpt>
      <trkpt lat="46.01173" lon="6.53207">
        <ele>728</ele>
        <time>2019-06-29T09:02:00Z</time>
      </trkpt>
      <trkpt lat="46.01167" lon="6.53199">
        <ele>729</ele>
        <time>2019-06-29T09:02:04Z</time>
      </trkpt>
      <trkpt lat="46.01162" lon="6.5319">
        <ele>729</ele>
        <time>2019-06-29T09:02:08Z</time>
      </trkpt>
      <trkpt lat="46.01157" lon="6.5318">
        <ele>730</ele>
        <time>2019-06-29T09:02:12Z</time>
      </trkpt>
      <trkpt lat="46.01154" lon="6.53169">
        <ele>731</ele>
        <time>2019-06-29T09:02:16Z</time>
      </trkpt>
      <trkpt lat="46.01151" lon="6.53158">
        <ele>731</ele>
        <time>2019-06-29T09:02:20Z</time>
      </trkpt>
      <trkpt lat="46.0115" lon="6.5315">
        <ele>732</ele>
        <time>2019-06-29T09:02:24Z</time>
      </trkpt>
      <trkpt lat="46.01148" lon="6.5314">
        <ele>732</ele>
        <time>2019-06-29T09:02:28Z</time>
      </trkpt>
      <trkpt lat="46.01148" lon="6.53129">
        <ele>734</ele>
        <time>2019-06-29T09:02:32Z</time>
      </trkpt>
      <trkpt lat="46.01147" lon="6.53118">
        <ele>734</ele>
        <time>2019-06-29T09:02:36Z</time>
      </trkpt>
      <trkpt lat="46.01144" lon="6.53105">
        <ele>735</ele>
        <time>2019-06-29T09:02:40Z</time>
      </trkpt>
      <trkpt lat="46.01142" lon="6.53093">
        <ele>736</ele>
        <time>2019-06-29T09:02:44Z</time>
      </trkpt>
      <trkpt lat="46.01138" lon="6.53081">
        <ele>737</ele>
        <time>2019-06-29T09:02:48Z</time>
      </trkpt>
      <trkpt lat="46.01132" lon="6.5307">
        <ele>737</ele>
        <time>2019-06-29T09:02:52Z</time>
      </trkpt>
      <trkpt lat="46.01125" lon="6.53061">
        <ele>738</ele>
        <time>2019-06-29T09:02:56Z</time>
      </trkpt>
      <trkpt lat="46.01118" lon="6.53054">
        <ele>738</ele>
        <time>2019-06-29T09:03:00Z</time>
      </trkpt>
      <trkpt lat="46.01113" lon="6.53046">
        <ele>739</ele>
        <time>2019-06-29T09:03:04Z</time>
      </trkpt>
      <trkpt lat="46.01108" lon="6.53036">
        <ele>740</ele>
        <time>2019-06-29T09:03:08Z</time>
      </trkpt>
      <trkpt lat="46.01104" lon="6.53025">
        <ele>741</ele>
        <time>2019-06-29T09:03:12Z</time>
      </trkpt>
      <trkpt lat="46.011" lon="6.53016">
        <ele>741</ele>
        <time>2019-06-29T09:03:16Z</time>
      </trkpt>
      <trkpt lat="46.01094" lon="6.53007">
        <ele>742</ele>
        <time>2019-06-29T09:03:20Z</time>
      </trkpt>
      <trkpt lat="46.01088" lon="6.53001">
        <ele>742</ele>
        <time>2019-06-29T09:03:24Z</time>
      </trkpt>
      <trkpt lat="46.01081" lon="6.52997">
        <ele>743</ele>
        <time>2019-06-29T09:03:28Z</time>
      </trkpt>
      <trkpt lat="46.01073" lon="6.52993">
        <ele>744</ele>
        <time>2019-06-29T09:03:32Z</time>
      </trkpt>
      <trkpt lat="46.01067" lon="6.52988">
        <ele>745</ele>
        <time>2019-06-29T09:03:36Z</time>
      </trkpt>
      <trkpt lat="46.01062" lon="6.52979">
        <ele>747</ele>
        <time>2019-06-29T09:03:40Z</time>
      </trkpt>
      <trkpt lat="46.0106" lon="6.52967">
        <ele>747</ele>
        <time>2019-06-29T09:03:44Z</time>
      </trkpt>
      <trkpt lat="46.01065" lon="6.52958">
        <ele>748</ele>
        <time>2019-06-29T09:03:48Z</time>
      </trkpt>
      <trkpt lat="46.01073" lon="6.5296">
        <ele>748</ele>
        <time>2019-06-29T09:03:52Z</time>
      </trkpt>
      <trkpt lat="46.0108" lon="6.52968">
        <ele>749</ele>
        <time>2019-06-29T09:03:56Z</time>
      </trkpt>
      <trkpt lat="46.01085" lon="6.52974">
        <ele>750</ele>
        <time>2019-06-29T09:04:00Z</time>
      </trkpt>
      <trkpt lat="46.01093" lon="6.52978">
        <ele>751</ele>
        <time>2019-06-29T09:04:04Z</time>
      </trkpt>
      <trkpt lat="46.01102" lon="6.52979">
        <ele>752</ele>
        <time>2019-06-29T09:04:08Z</time>
      </trkpt>
      <trkpt lat="46.01111" lon="6.52979">
        <ele>752</ele>
        <time>2019-06-29T09:04:12Z</time>
      </trkpt>
      <trkpt lat="46.01119" lon="6.52983">
        <ele>754</ele>
        <time>2019-06-29T09:04:16Z</time>
      </trkpt>
      <trkpt lat="46.01126" lon="6.5299">
        <ele>754</ele>
        <time>2019-06-29T09:04:20Z</time>
      </trkpt>
      <trkpt lat="46.01131" lon="6.53">
        <ele>755</ele>
        <time>2019-06-29T09:04:24Z</time>
      </trkpt>
      <trkpt lat="46.01136" lon="6.53008">
        <ele>756</ele>
        <time>2019-06-29T09:04:28Z</time>
      </trkpt>
      <trkpt lat="46.01142" lon="6.53016">
        <ele>756</ele>
        <time>2019-06-29T09:04:32Z</time>
      </trkpt>
      <trkpt lat="46.0115" lon="6.53022">
        <ele>757</ele>
        <time>2019-06-29T09:04:36Z</time>
      </trkpt>
      <trkpt lat="46.01156" lon="6.5303">
        <ele>758</ele>
        <time>2019-06-29T09:04:40Z</time>
      </trkpt>
      <trkpt lat="46.0116" lon="6.53039">
        <ele>758</ele>
        <time>2019-06-29T09:04:44Z</time>
      </trkpt>
      <trkpt lat="46.01163" lon="6.5305">
        <ele>760</ele>
        <time>2019-06-29T09:04:48Z</time>
      </trkpt>
      <trkpt lat="46.01166" lon="6.53062">
        <ele>761</ele>
        <time>2019-06-29T09:04:52Z</time>
      </trkpt>
      <trkpt lat="46.0117" lon="6.53073">
        <ele>762</ele>
        <time>2019-06-29T09:04:56Z</time>
      </trkpt>
      <trkpt lat="46.01176" lon="6.53081">
        <ele>762</ele>
        <time>2019-06-29T09:05:00Z</time>
      </trkpt>
      <trkpt lat="46.01184" lon="6.53087">
        <ele>762</ele>
        <time>2019-06-29T09:05:04Z</time>
      </trkpt>
      <trkpt lat="46.01192" lon="6.53092">
        <ele>763</ele>
        <time>2019-06-29T09:05:08Z</time>
      </trkpt>
      <trkpt lat="46.012" lon="6.53097">
        <ele>764</ele>
        <time>2019-06-29T09:05:12Z</time>
      </trkpt>
      <trkpt lat="46.01208" lon="6.53101">
        <ele>765</ele>
        <time>2019-06-29T09:05:16Z</time>
      </trkpt>
      <trkpt lat="46.01216" lon="6.53105">
        <ele>765</ele>
        <time>2019-06-29T09:05:20Z</time>
      </trkpt>
      <trkpt lat="46.01224" lon="6.53109">
        <ele>766</ele>
        <time>2019-06-29T09:05:24Z</time>
      </trkpt>
      <trkpt lat="46.01232" lon="6.53115">
        <ele>767</ele>
        <time>2019-06-29T09:05:28Z</time>
      </trkpt>
      <trkpt lat="46.0124" lon="6.53118">
        <ele>767</ele>
        <time>2019-06-29T09:05:32Z</time>
      </trkpt>
      <trkpt lat="46.01247" lon="6.53121">
        <ele>769</ele>
        <time>2019-06-29T09:05:36Z</time>
      </trkpt>
      <trkpt lat="46.01255" lon="6.53123">
        <ele>770</ele>
        <time>2019-06-29T09:05:40Z</time>
      </trkpt>
      <trkpt lat="46.01263" lon="6.53124">
        <ele>770</ele>
        <time>2019-06-29T09:05:44Z</time>
      </trkpt>
      <trkpt lat="46.01271" lon="6.53124">
        <ele>771</ele>
        <time>2019-06-29T09:05:48Z</time>
      </trkpt>
      <trkpt lat="46.01279" lon="6.53125">
        <ele>772</ele>
        <time>2019-06-29T09:05:52Z</time>
      </trkpt>
      <trkpt lat="46.01287" lon="6.53127">
        <ele>773</ele>
        <time>2019-06-29T09:05:56Z</time>
      </trkpt>
      <trkpt lat="46.01294" lon="6.53131">
        <ele>773</ele>
        <time>2019-06-29T09:06:00Z</time>
      </trkpt>
      <trkpt lat="46.01303" lon="6.53134">
        <ele>774</ele>
        <time>2019-06-29T09:06:04Z</time>
      </trkpt>
      <trkpt lat="46.01311" lon="6.53138">
        <ele>775</ele>
        <time>2019-06-29T09:06:08Z</time>
      </trkpt>
      <trkpt lat="46.01319" lon="6.53141">
        <ele>776</ele>
        <time>2019-06-29T09:06:12Z</time>
      </trkpt>
      <trkpt lat="46.01327" lon="6.53146">
        <ele>776</ele>
        <time>2019-06-29T09:06:16Z</time>
      </trkpt>
      <trkpt lat="46.01334" lon="6.5315">
        <ele>777</ele>
        <time>2019-06-29T09:06:20Z</time>
      </trkpt>
      <trkpt lat="46.01341" lon="6.53156">
        <ele>778</ele>
        <time>2019-06-29T09:06:24Z</time>
      </trkpt>
      <trkpt lat="46.01349" lon="6.5316">
        <ele>778</ele>
        <time>2019-06-29T09:06:28Z</time>
      </trkpt>
      <trkpt lat="46.01355" lon="6.53166">
        <ele>779</ele>
        <time>2019-06-29T09:06:32Z</time>
      </trkpt>
      <trkpt lat="46.01362" lon="6.53171">
        <ele>780</ele>
        <time>2019-06-29T09:06:36Z</time>
      </trkpt>
      <trkpt lat="46.0137" lon="6.53175">
        <ele>780</ele>
        <time>2019-06-29T09:06:40Z</time>
      </trkpt>
      <trkpt lat="46.01377" lon="6.53179">
        <ele>782</ele>
        <time>2019-06-29T09:06:44Z</time>
      </trkpt>
      <trkpt lat="46.01384" lon="6.53184">
        <ele>782</ele>
        <time>2019-06-29T09:06:48Z</time>
      </trkpt>
      <trkpt lat="46.01392" lon="6.53188">
        <ele>782</ele>
        <time>2019-06-29T09:06:52Z</time>
      </trkpt>
      <trkpt lat="46.014" lon="6.53193">
        <ele>783</ele>
        <time>2019-06-29T09:06:56Z</time>
      </trkpt>
      <trkpt lat="46.01407" lon="6.53196">
        <ele>784</ele>
        <time>2019-06-29T09:07:00Z</time>
      </trkpt>
      <trkpt lat="46.01415" lon="6.53201">
        <ele>785</ele>
        <time>2019-06-29T09:07:04Z</time>
      </trkpt>
      <trkpt lat="46.01423" lon="6.53206">
        <ele>785</ele>
        <time>2019-06-29T09:07:08Z</time>
      </trkpt>
      <trkpt lat="46.01431" lon="6.53209">
        <ele>786</ele>
        <time>2019-06-29T09:07:12Z</time>
      </trkpt>
      <trkpt lat="46.01439" lon="6.53209">
        <ele>787</ele>
        <time>2019-06-29T09:07:16Z</time>
      </trkpt>
      <trkpt lat="46.01447" lon="6.53204">
        <ele>787</ele>
        <time>2019-06-29T09:07:20Z</time>
      </trkpt>
      <trkpt lat="46.01451" lon="6.53193">
        <ele>788</ele>
        <time>2019-06-29T09:07:24Z</time>
      </trkpt>
      <trkpt lat="46.01449" lon="6.53182">
        <ele>789</ele>
        <time>2019-06-29T09:07:28Z</time>
      </trkpt>
      <trkpt lat="46.01443" lon="6.53172">
        <ele>789</ele>
        <time>2019-06-29T09:07:32Z</time>
      </trkpt>
      <trkpt lat="46.01434" lon="6.53165">
        <ele>790</ele>
        <time>2019-06-29T09:07:36Z</time>
      </trkpt>
      <trkpt lat="46.01424" lon="6.5316">
        <ele>791</ele>
        <time>2019-06-29T09:07:40Z</time>
      </trkpt>
      <trkpt lat="46.01415" lon="6.53155">
        <ele>792</ele>
        <time>2019-06-29T09:07:44Z</time>
      </trkpt>
      <trkpt lat="46.01407" lon="6.53148">
        <ele>792</ele>
        <time>2019-06-29T09:07:48Z</time>
      </trkpt>
      <trkpt lat="46.014" lon="6.53141">
        <ele>794</ele>
        <time>2019-06-29T09:07:52Z</time>
      </trkpt>
      <trkpt lat="46.01393" lon="6.53134">
        <ele>795</ele>
        <time>2019-06-29T09:07:56Z</time>
      </trkpt>
      <trkpt lat="46.01387" lon="6.53125">
        <ele>795</ele>
        <time>2019-06-29T09:08:00Z</time>
      </trkpt>
      <trkpt lat="46.01381" lon="6.53117">
        <ele>797</ele>
        <time>2019-06-29T09:08:04Z</time>
      </trkpt>
      <trkpt lat="46.01375" lon="6.53108">
        <ele>797</ele>
        <time>2019-06-29T09:08:08Z</time>
      </trkpt>
      <trkpt lat="46.01369" lon="6.53099">
        <ele>798</ele>
        <time>2019-06-29T09:08:12Z</time>
      </trkpt>
      <trkpt lat="46.01364" lon="6.53089">
        <ele>798</ele>
        <time>2019-06-29T09:08:16Z</time>
      </trkpt>
      <trkpt lat="46.01359" lon="6.53079">
        <ele>799</ele>
        <time>2019-06-29T09:08:20Z</time>
      </trkpt>
      <trkpt lat="46.01354" lon="6.53069">
        <ele>800</ele>
        <time>2019-06-29T09:08:24Z</time>
      </trkpt>
      <trkpt lat="46.01349" lon="6.5306">
        <ele>801</ele>
        <time>2019-06-29T09:08:28Z</time>
      </trkpt>
      <trkpt lat="46.01342" lon="6.53053">
        <ele>802</ele>
        <time>2019-06-29T09:08:32Z</time>
      </trkpt>
      <trkpt lat="46.01335" lon="6.53046">
        <ele>803</ele>
        <time>2019-06-29T09:08:36Z</time>
      </trkpt>
      <trkpt lat="46.01328" lon="6.5304">
        <ele>804</ele>
        <time>2019-06-29T09:08:40Z</time>
      </trkpt>
      <trkpt lat="46.0132" lon="6.53035">
        <ele>804</ele>
        <time>2019-06-29T09:08:44Z</time>
      </trkpt>
      <trkpt lat="46.01312" lon="6.53031">
        <ele>805</ele>
        <time>2019-06-29T09:08:48Z</time>
      </trkpt>
      <trkpt lat="46.01304" lon="6.53028">
        <ele>806</ele>
        <time>2019-06-29T09:08:52Z</time>
      </trkpt>
      <trkpt lat="46.01296" lon="6.53025">
        <ele>807</ele>
        <time>2019-06-29T09:08:56Z</time>
      </trkpt>
      <trkpt lat="46.01289" lon="6.53021">
        <ele>808</ele>
        <time>2019-06-29T09:09:00Z</time>
      </trkpt>
      <trkpt lat="46.01283" lon="6.53014">
        <ele>808</ele>
        <time>2019-06-29T09:09:04Z</time>
      </trkpt>
      <trkpt lat="46.0128" lon="6.53003">
        <ele>809</ele>
        <time>2019-06-29T09:09:08Z</time>
      </trkpt>
      <trkpt lat="46.01276" lon="6.52993">
        <ele>810</ele>
        <time>2019-06-29T09:09:12Z</time>
      </trkpt>
      <trkpt lat="46.01272" lon="6.52983">
        <ele>811</ele>
        <time>2019-06-29T09:09:16Z</time>
      </trkpt>
      <trkpt lat="46.01267" lon="6.52974">
        <ele>811</ele>
        <time>2019-06-29T09:09:20Z</time>
      </trkpt>
      <trkpt lat="46.01261" lon="6.52965">
        <ele>813</ele>
        <time>2019-06-29T09:09:24Z</time>
      </trkpt>
      <trkpt lat="46.01254" lon="6.52957">
        <ele>813</ele>
        <time>2019-06-29T09:09:28Z</time>
      </trkpt>
      <trkpt lat="46.01248" lon="6.52948">
        <ele>813</ele>
        <time>2019-06-29T09:09:32Z</time>
      </trkpt>
      <trkpt lat="46.01242" lon="6.52939">
        <ele>814</ele>
        <time>2019-06-29T09:09:36Z</time>
      </trkpt>
      <trkpt lat="46.01236" lon="6.5293">
        <ele>816</ele>
        <time>2019-06-29T09:09:40Z</time>
      </trkpt>
      <trkpt lat="46.01232" lon="6.5292">
        <ele>816</ele>
        <time>2019-06-29T09:09:44Z</time>
      </trkpt>
      <trkpt lat="46.01226" lon="6.5291">
        <ele>817</ele>
        <time>2019-06-29T09:09:48Z</time>
      </trkpt>
      <trkpt lat="46.01222" lon="6.52899">
        <ele>818</ele>
        <time>2019-06-29T09:09:52Z</time>
      </trkpt>
      <trkpt lat="46.0122" lon="6.52888">
        <ele>818</ele>
        <time>2019-06-29T09:09:56Z</time>
      </trkpt>
      <trkpt lat="46.01219" lon="6.52876">
        <ele>819</ele>
        <time>2019-06-29T09:10:00Z</time>
      </trkpt>
      <trkpt lat="46.01216" lon="6.52864">
        <ele>820</ele>
        <time>2019-06-29T09:10:04Z</time>
      </trkpt>
      <trkpt lat="46.01215" lon="6.52852">
        <ele>820</ele>
        <time>2019-06-29T09:10:08Z</time>
      </trkpt>
      <trkpt lat="46.01213" lon="6.52841">
        <ele>822</ele>
        <time>2019-06-29T09:10:12Z</time>
      </trkpt>
      <trkpt lat="46.01211" lon="6.52829">
        <ele>822</ele>
        <time>2019-06-29T09:10:16Z</time>
      </trkpt>
      <trkpt lat="46.01207" lon="6.52818">
        <ele>823</ele>
        <time>2019-06-29T09:10:20Z</time>
      </trkpt>
      <trkpt lat="46.01203" lon="6.52806">
        <ele>823</ele>
        <time>2019-06-29T09:10:24Z</time>
      </trkpt>
      <trkpt lat="46.012" lon="6.52795">
        <ele>824</ele>
        <time>2019-06-29T09:10:28Z</time>
      </trkpt>
      <trkpt lat="46.01196" lon="6.52784">
        <ele>825</ele>
        <time>2019-06-29T09:10:32Z</time>
      </trkpt>
      <trkpt lat="46.01193" lon="6.52772">
        <ele>826</ele>
        <time>2019-06-29T09:10:36Z</time>
      </trkpt>
      <trkpt lat="46.01189" lon="6.52761">
        <ele>826</ele>
        <time>2019-06-29T09:10:40Z</time>
      </trkpt>
      <trkpt lat="46.01185" lon="6.5275">
        <ele>827</ele>
        <time>2019-06-29T09:10:44Z</time>
      </trkpt>
      <trkpt lat="46.01181" lon="6.5274">
        <ele>828</ele>
        <time>2019-06-29T09:10:48Z</time>
      </trkpt>
      <trkpt lat="46.01177" lon="6.52729">
        <ele>829</ele>
        <time>2019-06-29T09:10:52Z</time>
      </trkpt>
      <trkpt lat="46.01173" lon="6.5272">
        <ele>829</ele>
        <time>2019-06-29T09:10:56Z</time>
      </trkpt>
      <trkpt lat="46.01168" lon="6.5271">
        <ele>830</ele>
        <time>2019-06-29T09:11:00Z</time>
      </trkpt>
      <trkpt lat="46.01165" lon="6.527">
        <ele>831</ele>
        <time>2019-06-29T09:11:04Z</time>
      </trkpt>
      <trkpt lat="46.01162" lon="6.52689">
        <ele>831</ele>
        <time>2019-06-29T09:11:08Z</time>
      </trkpt>
      <trkpt lat="46.01158" lon="6.52679">
        <ele>831</ele>
        <time>2019-06-29T09:11:12Z</time>
      </trkpt>
      <trkpt lat="46.01154" lon="6.52671">
        <ele>833</ele>
        <time>2019-06-29T09:11:16Z</time>
      </trkpt>
      <trkpt lat="46.01149" lon="6.52661">
        <ele>833</ele>
        <time>2019-06-29T09:11:20Z</time>
      </trkpt>
      <trkpt lat="46.01143" lon="6.52651">
        <ele>834</ele>
        <time>2019-06-29T09:11:24Z</time>
      </trkpt>
      <trkpt lat="46.01136" lon="6.52642">
        <ele>834</ele>
        <time>2019-06-29T09:11:28Z</time>
      </trkpt>
      <trkpt lat="46.0113" lon="6.5263">
        <ele>836</ele>
        <time>2019-06-29T09:11:32Z</time>
      </trkpt>
      <trkpt lat="46.01127" lon="6.5262">
        <ele>836</ele>
        <time>2019-06-29T09:11:36Z</time>
      </trkpt>
      <trkpt lat="46.01122" lon="6.52609">
        <ele>837</ele>
        <time>2019-06-29T09:11:40Z</time>
      </trkpt>
      <trkpt lat="46.01117" lon="6.52599">
        <ele>838</ele>
        <time>2019-06-29T09:11:44Z</time>
      </trkpt>
      <trkpt lat="46.01112" lon="6.5259">
        <ele>838</ele>
        <time>2019-06-29T09:11:48Z</time>
      </trkpt>
      <trkpt lat="46.01105" lon="6.52583">
        <ele>839</ele>
        <time>2019-06-29T09:11:52Z</time>
      </trkpt>
      <trkpt lat="46.01098" lon="6.52579">
        <ele>840</ele>
        <time>2019-06-29T09:11:56Z</time>
      </trkpt>
      <trkpt lat="46.01091" lon="6.52573">
        <ele>840</ele>
        <time>2019-06-29T09:12:00Z</time>
      </trkpt>
      <trkpt lat="46.01087" lon="6.52563">
        <ele>841</ele>
        <time>2019-06-29T09:12:04Z</time>
      </trkpt>
      <trkpt lat="46.01086" lon="6.52551">
        <ele>842</ele>
        <time>2019-06-29T09:12:08Z</time>
      </trkpt>
      <trkpt lat="46.01087" lon="6.52539">
        <ele>842</ele>
        <time>2019-06-29T09:12:12Z</time>
      </trkpt>
      <trkpt lat="46.01089" lon="6.52528">
        <ele>843</ele>
        <time>2019-06-29T09:12:16Z</time>
      </trkpt>
      <trkpt lat="46.01091" lon="6.52516">
        <ele>844</ele>
        <time>2019-06-29T09:12:20Z</time>
      </trkpt>
      <trkpt lat="46.01093" lon="6.52506">
        <ele>845</ele>
        <time>2019-06-29T09:12:24Z</time>
      </trkpt>
      <trkpt lat="46.01095" lon="6.52495">
        <ele>846</ele>
        <time>2019-06-29T09:12:28Z</time>
      </trkpt>
      <trkpt lat="46.01096" lon="6.52484">
        <ele>847</ele>
        <time>2019-06-29T09:12:32Z</time>
      </trkpt>
      <trkpt lat="46.01095" lon="6.52473">
        <ele>847</ele>
        <time>2019-06-29T09:12:36Z</time>
      </trkpt>
      <trkpt lat="46.01092" lon="6.52463">
        <ele>848</ele>
        <time>2019-06-29T09:12:40Z</time>
      </trkpt>
      <trkpt lat="46.01085" lon="6.52456">
        <ele>849</ele>
        <time>2019-06-29T09:12:44Z</time>
      </trkpt>
      <trkpt lat="46.01078" lon="6.52452">
        <ele>849</ele>
        <time>2019-06-29T09:12:48Z</time>
      </trkpt>
      <trkpt lat="46.01071" lon="6.52447">
        <ele>850</ele>
        <time>2019-06-29T09:12:52Z</time>
      </trkpt>
      <trkpt lat="46.01066" lon="6.52438">
        <ele>851</ele>
        <time>2019-06-29T09:12:56Z</time>
      </trkpt>
      <trkpt lat="46.01064" lon="6.52427">
        <ele>852</ele>
        <time>2019-06-29T09:13:00Z</time>
      </trkpt>
      <trkpt lat="46.01062" lon="6.52415">
        <ele>853</ele>
        <time>2019-06-29T09:13:04Z</time>
      </trkpt>
      <trkpt lat="46.0106" lon="6.52403">
        <ele>853</ele>
        <time>2019-06-29T09:13:08Z</time>
      </trkpt>
      <trkpt lat="46.01057" lon="6.52391">
        <ele>853</ele>
        <time>2019-06-29T09:13:12Z</time>
      </trkpt>
      <trkpt lat="46.01053" lon="6.52381">
        <ele>854</ele>
        <time>2019-06-29T09:13:16Z</time>
      </trkpt>
      <trkpt lat="46.01046" lon="6.52373">
        <ele>855</ele>
        <time>2019-06-29T09:13:20Z</time>
      </trkpt>
      <trkpt lat="46.01039" lon="6.52367">
        <ele>855</ele>
        <time>2019-06-29T09:13:24Z</time>
      </trkpt>
      <trkpt lat="46.01031" lon="6.5236">
        <ele>856</ele>
        <time>2019-06-29T09:13:28Z</time>
      </trkpt>
      <trkpt lat="46.01022" lon="6.52355">
        <ele>857</ele>
        <time>2019-06-29T09:13:32Z</time>
      </trkpt>
      <trkpt lat="46.01015" lon="6.52349">
        <ele>858</ele>
        <time>2019-06-29T09:13:36Z</time>
      </trkpt>
      <trkpt lat="46.01008" lon="6.52342">
        <ele>859</ele>
        <time>2019-06-29T09:13:40Z</time>
      </trkpt>
      <trkpt lat="46.01006" lon="6.52331">
        <ele>859</ele>
        <time>2019-06-29T09:13:44Z</time>
      </trkpt>
      <trkpt lat="46.01005" lon="6.52319">
        <ele>860</ele>
        <time>2019-06-29T09:13:48Z</time>
      </trkpt>
      <trkpt lat="46.01006" lon="6.52307">
        <ele>861</ele>
        <time>2019-06-29T09:13:52Z</time>
      </trkpt>
      <trkpt lat="46.01005" lon="6.52296">
        <ele>862</ele>
        <time>2019-06-29T09:13:56Z</time>
      </trkpt>
      <trkpt lat="46.01003" lon="6.52285">
        <ele>863</ele>
        <time>2019-06-29T09:14:00Z</time>
      </trkpt>
      <trkpt lat="46.01" lon="6.52279">
        <ele>863</ele>
        <time>2019-06-29T09:14:04Z</time>
      </trkpt>
      <trkpt lat="46.00995" lon="6.5227">
        <ele>864</ele>
        <time>2019-06-29T09:14:08Z</time>
      </trkpt>
      <trkpt lat="46.00986" lon="6.52257">
        <ele>865</ele>
        <time>2019-06-29T09:14:12Z</time>
      </trkpt>
      <trkpt lat="46.00979" lon="6.5225">
        <ele>865</ele>
        <time>2019-06-29T09:14:16Z</time>
      </trkpt>
      <trkpt lat="46.00974" lon="6.52245">
        <ele>866</ele>
        <time>2019-06-29T09:14:20Z</time>
      </trkpt>
      <trkpt lat="46.00969" lon="6.52237">
        <ele>867</ele>
        <time>2019-06-29T09:14:24Z</time>
      </trkpt>
      <trkpt lat="46.00962" lon="6.52227">
        <ele>868</ele>
        <time>2019-06-29T09:14:28Z</time>
      </trkpt>
      <trkpt lat="46.00956" lon="6.52215">
        <ele>868</ele>
        <time>2019-06-29T09:14:32Z</time>
      </trkpt>
      <trkpt lat="46.00951" lon="6.52205">
        <ele>869</ele>
        <time>2019-06-29T09:14:36Z</time>
      </trkpt>
      <trkpt lat="46.00945" lon="6.52195">
        <ele>870</ele>
        <time>2019-06-29T09:14:40Z</time>
      </trkpt>
      <trkpt lat="46.00938" lon="6.52186">
        <ele>870</ele>
        <time>2019-06-29T09:14:44Z</time>
      </trkpt>
      <trkpt lat="46.00931" lon="6.5218">
        <ele>871</ele>
        <time>2019-06-29T09:14:48Z</time>
      </trkpt>
      <trkpt lat="46.00925" lon="6.52171">
        <ele>872</ele>
        <time>2019-06-29T09:14:52Z</time>
      </trkpt>
      <trkpt lat="46.00917" lon="6.52163">
        <ele>872</ele>
        <time>2019-06-29T09:14:56Z</time>
      </trkpt>
      <trkpt lat="46.00909" lon="6.52154">
        <ele>874</ele>
        <time>2019-06-29T09:15:00Z</time>
      </trkpt>
      <trkpt lat="46.00902" lon="6.52147">
        <ele>875</ele>
        <time>2019-06-29T09:15:04Z</time>
      </trkpt>
      <trkpt lat="46.00895" lon="6.52141">
        <ele>875</ele>
        <time>2019-06-29T09:15:08Z</time>
      </trkpt>
      <trkpt lat="46.00888" lon="6.52135">
        <ele>876</ele>
        <time>2019-06-29T09:15:12Z</time>
      </trkpt>
      <trkpt lat="46.00881" lon="6.52129">
        <ele>877</ele>
        <time>2019-06-29T09:15:16Z</time>
      </trkpt>
      <trkpt lat="46.00874" lon="6.52124">
        <ele>878</ele>
        <time>2019-06-29T09:15:20Z</time>
      </trkpt>
      <trkpt lat="46.0087" lon="6.52118">
        <ele>879</ele>
        <time>2019-06-29T09:15:24Z</time>
      </trkpt>
      <trkpt lat="46.00864" lon="6.52109">
        <ele>879</ele>
        <time>2019-06-29T09:15:28Z</time>
      </trkpt>
      <trkpt lat="46.00859" lon="6.52102">
        <ele>880</ele>
        <time>2019-06-29T09:15:32Z</time>
      </trkpt>
      <trkpt lat="46.00853" lon="6.52093">
        <ele>881</ele>
        <time>2019-06-29T09:15:36Z</time>
      </trkpt>
      <trkpt lat="46.00847" lon="6.52086">
        <ele>882</ele>
        <time>2019-06-29T09:15:40Z</time>
      </trkpt>
      <trkpt lat="46.00842" lon="6.52081">
        <ele>882</ele>
        <time>2019-06-29T09:15:44Z</time>
      </trkpt>
      <trkpt lat="46.00837" lon="6.52075">
        <ele>883</ele>
        <time>2019-06-29T09:15:48Z</time>
      </trkpt>
      <trkpt lat="46.00834" lon="6.52069">
        <ele>884</ele>
        <time>2019-06-29T09:15:52Z</time>
      </trkpt>
      <trkpt lat="46.0083" lon="6.52057">
        <ele>885</ele>
        <time>2019-06-29T09:15:56Z</time>
      </trkpt>
      <trkpt lat="46.00825" lon="6.52047">
        <ele>885</ele>
        <time>2019-06-29T09:16:00Z</time>
      </trkpt>
      <trkpt lat="46.00822" lon="6.52039">
        <ele>886</ele>
        <time>2019-06-29T09:16:04Z</time>
      </trkpt>
      <trkpt lat="46.00817" lon="6.52031">
        <ele>887</ele>
        <time>2019-06-29T09:16:08Z</time>
      </trkpt>
      <trkpt lat="46.00809" lon="6.5202">
        <ele>888</ele>
        <time>2019-06-29T09:16:12Z</time>
      </trkpt>
      <trkpt lat="46.00802" lon="6.52009">
        <ele>888</ele>
        <time>2019-06-29T09:16:16Z</time>
      </trkpt>
      <trkpt lat="46.00794" lon="6.51997">
        <ele>889</ele>
        <time>2019-06-29T09:16:20Z</time>
      </trkpt>
      <trkpt lat="46.00785" lon="6.51989">
        <ele>889</ele>
        <time>2019-06-29T09:16:24Z</time>
      </trkpt>
      <trkpt lat="46.00779" lon="6.51981">
        <ele>890</ele>
        <time>2019-06-29T09:16:28Z</time>
      </trkpt>
      <trkpt lat="46.00771" lon="6.51974">
        <ele>891</ele>
        <time>2019-06-29T09:16:32Z</time>
      </trkpt>
      <trkpt lat="46.00768" lon="6.51965">
        <ele>891</ele>
        <time>2019-06-29T09:16:36Z</time>
      </trkpt>
      <trkpt lat="46.00763" lon="6.51961">
        <ele>892</ele>
        <time>2019-06-29T09:16:40Z</time>
      </trkpt>
      <trkpt lat="46.00757" lon="6.51957">
        <ele>893</ele>
        <time>2019-06-29T09:16:44Z</time>
      </trkpt>
      <trkpt lat="46.0075" lon="6.51945">
        <ele>893</ele>
        <time>2019-06-29T09:16:48Z</time>
      </trkpt>
      <trkpt lat="46.00741" lon="6.51931">
        <ele>894</ele>
        <time>2019-06-29T09:16:52Z</time>
      </trkpt>
      <trkpt lat="46.00734" lon="6.5192">
        <ele>895</ele>
        <time>2019-06-29T09:16:56Z</time>
      </trkpt>
      <trkpt lat="46.00727" lon="6.51911">
        <ele>895</ele>
        <time>2019-06-29T09:17:00Z</time>
      </trkpt>
      <trkpt lat="46.00721" lon="6.51901">
        <ele>896</ele>
        <time>2019-06-29T09:17:04Z</time>
      </trkpt>
      <trkpt lat="46.00714" lon="6.51892">
        <ele>896</ele>
        <time>2019-06-29T09:17:08Z</time>
      </trkpt>
      <trkpt lat="46.00708" lon="6.51881">
        <ele>897</ele>
        <time>2019-06-29T09:17:12Z</time>
      </trkpt>
      <trkpt lat="46.00702" lon="6.5187">
        <ele>899</ele>
        <time>2019-06-29T09:17:16Z</time>
      </trkpt>
      <trkpt lat="46.00696" lon="6.5186">
        <ele>899</ele>
        <time>2019-06-29T09:17:20Z</time>
      </trkpt>
      <trkpt lat="46.0069" lon="6.5185">
        <ele>900</ele>
        <time>2019-06-29T09:17:24Z</time>
      </trkpt>
      <trkpt lat="46.00682" lon="6.51839">
        <ele>899</ele>
        <time>2019-06-29T09:17:28Z</time>
      </trkpt>
      <trkpt lat="46.00673" lon="6.51824">
        <ele>900</ele>
        <time>2019-06-29T09:17:32Z</time>
      </trkpt>
      <trkpt lat="46.00665" lon="6.51808">
        <ele>901</ele>
        <time>2019-06-29T09:17:36Z</time>
      </trkpt>
      <trkpt lat="46.00663" lon="6.51792">
        <ele>902</ele>
        <time>2019-06-29T09:17:40Z</time>
      </trkpt>
      <trkpt lat="46.00661" lon="6.51774">
        <ele>901</ele>
        <time>2019-06-29T09:17:44Z</time>
      </trkpt>
      <trkpt lat="46.00656" lon="6.51756">
        <ele>901</ele>
        <time>2019-06-29T09:17:48Z</time>
      </trkpt>
      <trkpt lat="46.00645" lon="6.51743">
        <ele>903</ele>
        <time>2019-06-29T09:17:52Z</time>
      </trkpt>
      <trkpt lat="46.00635" lon="6.51735">
        <ele>904</ele>
        <time>2019-06-29T09:17:56Z</time>
      </trkpt>
      <trkpt lat="46.00627" lon="6.51729">
        <ele>905</ele>
        <time>2019-06-29T09:18:00Z</time>
      </trkpt>
      <trkpt lat="46.00619" lon="6.51722">
        <ele>906</ele>
        <time>2019-06-29T09:18:04Z</time>
      </trkpt>
      <trkpt lat="46.00613" lon="6.51716">
        <ele>907</ele>
        <time>2019-06-29T09:18:08Z</time>
      </trkpt>
      <trkpt lat="46.00607" lon="6.51711">
        <ele>908</ele>
        <time>2019-06-29T09:18:12Z</time>
      </trkpt>
      <trkpt lat="46.00599" lon="6.5171">
        <ele>909</ele>
        <time>2019-06-29T09:18:16Z</time>
      </trkpt>
      <trkpt lat="46.00591" lon="6.51711">
        <ele>909</ele>
        <time>2019-06-29T09:18:20Z</time>
      </trkpt>
      <trkpt lat="46.00584" lon="6.51711">
        <ele>911</ele>
        <time>2019-06-29T09:18:24Z</time>
      </trkpt>
      <trkpt lat="46.00576" lon="6.51709">
        <ele>912</ele>
        <time>2019-06-29T09:18:28Z</time>
      </trkpt>
      <trkpt lat="46.0057" lon="6.51706">
        <ele>913</ele>
        <time>2019-06-29T09:18:32Z</time>
      </trkpt>
      <trkpt lat="46.00563" lon="6.51702">
        <ele>915</ele>
        <time>2019-06-29T09:18:36Z</time>
      </trkpt>
      <trkpt lat="46.00556" lon="6.51698">
        <ele>915</ele>
        <time>2019-06-29T09:18:40Z</time>
      </trkpt>
      <trkpt lat="46.00549" lon="6.51695">
        <ele>916</ele>
        <time>2019-06-29T09:18:44Z</time>
      </trkpt>
      <trkpt lat="46.00541" lon="6.51692">
        <ele>917</ele>
        <time>2019-06-29T09:18:48Z</time>
      </trkpt>
      <trkpt lat="46.00533" lon="6.51687">
        <ele>918</ele>
        <time>2019-06-29T09:18:52Z</time>
      </trkpt>
      <trkpt lat="46.00526" lon="6.51678">
        <ele>918</ele>
        <time>2019-06-29T09:18:56Z</time>
      </trkpt>
      <trkpt lat="46.00521" lon="6.51669">
        <ele>919</ele>
        <time>2019-06-29T09:19:00Z</time>
      </trkpt>
      <trkpt lat="46.00516" lon="6.51658">
        <ele>920</ele>
        <time>2019-06-29T09:19:04Z</time>
      </trkpt>
      <trkpt lat="46.00512" lon="6.51648">
        <ele>921</ele>
        <time>2019-06-29T09:19:08Z</time>
      </trkpt>
      <trkpt lat="46.00508" lon="6.51637">
        <ele>921</ele>
        <time>2019-06-29T09:19:12Z</time>
      </trkpt>
      <trkpt lat="46.00505" lon="6.51625">
        <ele>922</ele>
        <time>2019-06-29T09:19:16Z</time>
      </trkpt>
      <trkpt lat="46.00503" lon="6.51614">
        <ele>923</ele>
        <time>2019-06-29T09:19:20Z</time>
      </trkpt>
      <trkpt lat="46.005" lon="6.51602">
        <ele>923</ele>
        <time>2019-06-29T09:19:24Z</time>
      </trkpt>
      <trkpt lat="46.00498" lon="6.51589">
        <ele>924</ele>
        <time>2019-06-29T09:19:28Z</time>
      </trkpt>
      <trkpt lat="46.00496" lon="6.51577">
        <ele>925</ele>
        <time>2019-06-29T09:19:32Z</time>
      </trkpt>
      <trkpt lat="46.00493" lon="6.51565">
        <ele>926</ele>
        <time>2019-06-29T09:19:36Z</time>
      </trkpt>
      <trkpt lat="46.00492" lon="6.51552">
        <ele>926</ele>
        <time>2019-06-29T09:19:40Z</time>
      </trkpt>
      <trkpt lat="46.00492" lon="6.5154">
        <ele>927</ele>
        <time>2019-06-29T09:19:44Z</time>
      </trkpt>
      <trkpt lat="46.00491" lon="6.51527">
        <ele>928</ele>
        <time>2019-06-29T09:19:48Z</time>
      </trkpt>
      <trkpt lat="46.00491" lon="6.51514">
        <ele>928</ele>
        <time>2019-06-29T09:19:52Z</time>
      </trkpt>
      <trkpt lat="46.00491" lon="6.51501">
        <ele>929</ele>
        <time>2019-06-29T09:19:56Z</time>
      </trkpt>
      <trkpt lat="46.0049" lon="6.51487">
        <ele>929</ele>
        <time>2019-06-29T09:20:00Z</time>
      </trkpt>
      <trkpt lat="46.00491" lon="6.51475">
        <ele>931</ele>
        <time>2019-06-29T09:20:04Z</time>
      </trkpt>
      <trkpt lat="46.0049" lon="6.51462">
        <ele>931</ele>
        <time>2019-06-29T09:20:08Z</time>
      </trkpt>
      <trkpt lat="46.00491" lon="6.5145">
        <ele>932</ele>
        <time>2019-06-29T09:20:12Z</time>
      </trkpt>
      <trkpt lat="46.00491" lon="6.51439">
        <ele>933</ele>
        <time>2019-06-29T09:20:16Z</time>
      </trkpt>
      <trkpt lat="46.00491" lon="6.51429">
        <ele>933</ele>
        <time>2019-06-29T09:20:20Z</time>
      </trkpt>
      <trkpt lat="46.00486" lon="6.5142">
        <ele>934</ele>
        <time>2019-06-29T09:20:24Z</time>
      </trkpt>
      <trkpt lat="46.00481" lon="6.51412">
        <ele>935</ele>
        <time>2019-06-29T09:20:28Z</time>
      </trkpt>
      <trkpt lat="46.00474" lon="6.51404">
        <ele>936</ele>
        <time>2019-06-29T09:20:32Z</time>
      </trkpt>
      <trkpt lat="46.00468" lon="6.51399">
        <ele>936</ele>
        <time>2019-06-29T09:20:36Z</time>
      </trkpt>
      <trkpt lat="46.00461" lon="6.51394">
        <ele>937</ele>
        <time>2019-06-29T09:20:40Z</time>
      </trkpt>
      <trkpt lat="46.00454" lon="6.51387">
        <ele>938</ele>
        <time>2019-06-29T09:20:44Z</time>
      </trkpt>
      <trkpt lat="46.00447" lon="6.51381">
        <ele>938</ele>
        <time>2019-06-29T09:20:48Z</time>
      </trkpt>
      <trkpt lat="46.0044" lon="6.51374">
        <ele>939</ele>
        <time>2019-06-29T09:20:52Z</time>
      </trkpt>
      <trkpt lat="46.00433" lon="6.51367">
        <ele>939</ele>
        <time>2019-06-29T09:20:56Z</time>
      </trkpt>
      <trkpt lat="46.00426" lon="6.51358">
        <ele>940</ele>
        <time>2019-06-29T09:21:00Z</time>
      </trkpt>
      <trkpt lat="46.00418" lon="6.51353">
        <ele>941</ele>
        <time>2019-06-29T09:21:04Z</time>
      </trkpt>
      <trkpt lat="46.0041" lon="6.51348">
        <ele>942</ele>
        <time>2019-06-29T09:21:08Z</time>
      </trkpt>
      <trkpt lat="46.00403" lon="6.51342">
        <ele>942</ele>
        <time>2019-06-29T09:21:12Z</time>
      </trkpt>
      <trkpt lat="46.00397" lon="6.51336">
        <ele>943</ele>
        <time>2019-06-29T09:21:16Z</time>
      </trkpt>
      <trkpt lat="46.00389" lon="6.5133">
        <ele>944</ele>
        <time>2019-06-29T09:21:20Z</time>
      </trkpt>
      <trkpt lat="46.00381" lon="6.51324">
        <ele>944</ele>
        <time>2019-06-29T09:21:24Z</time>
      </trkpt>
      <trkpt lat="46.00373" lon="6.51321">
        <ele>945</ele>
        <time>2019-06-29T09:21:28Z</time>
      </trkpt>
      <trkpt lat="46.00365" lon="6.51315">
        <ele>946</ele>
        <time>2019-06-29T09:21:32Z</time>
      </trkpt>
      <trkpt lat="46.00359" lon="6.51305">
        <ele>947</ele>
        <time>2019-06-29T09:21:36Z</time>
      </trkpt>
      <trkpt lat="46.00355" lon="6.51294">
        <ele>948</ele>
        <time>2019-06-29T09:21:40Z</time>
      </trkpt>
      <trkpt lat="46.00353" lon="6.51282">
        <ele>948</ele>
        <time>2019-06-29T09:21:44Z</time>
      </trkpt>
      <trkpt lat="46.0035" lon="6.51271">
        <ele>949</ele>
        <time>2019-06-29T09:21:48Z</time>
      </trkpt>
      <trkpt lat="46.00348" lon="6.5126">
        <ele>950</ele>
        <time>2019-06-29T09:21:52Z</time>
      </trkpt>
      <trkpt lat="46.00346" lon="6.51248">
        <ele>950</ele>
        <time>2019-06-29T09:21:56Z</time>
      </trkpt>
      <trkpt lat="46.00344" lon="6.51237">
        <ele>951</ele>
        <time>2019-06-29T09:22:00Z</time>
      </trkpt>
      <trkpt lat="46.00341" lon="6.51225">
        <ele>952</ele>
        <time>2019-06-29T09:22:04Z</time>
      </trkpt>
      <trkpt lat="46.00336" lon="6.51215">
        <ele>952</ele>
        <time>2019-06-29T09:22:08Z</time>
      </trkpt>
      <trkpt lat="46.00331" lon="6.51206">
        <ele>953</ele>
        <time>2019-06-29T09:22:12Z</time>
      </trkpt>
      <trkpt lat="46.00326" lon="6.51196">
        <ele>953</ele>
        <time>2019-06-29T09:22:16Z</time>
      </trkpt>
      <trkpt lat="46.00321" lon="6.51187">
        <ele>954</ele>
        <time>2019-06-29T09:22:20Z</time>
      </trkpt>
      <trkpt lat="46.00317" lon="6.51178">
        <ele>955</ele>
        <time>2019-06-29T09:22:24Z</time>
      </trkpt>
      <trkpt lat="46.00312" lon="6.51168">
        <ele>956</ele>
        <time>2019-06-29T09:22:28Z</time>
      </trkpt>
      <trkpt lat="46.00308" lon="6.51158">
        <ele>956</ele>
        <time>2019-06-29T09:22:32Z</time>
      </trkpt>
      <trkpt lat="46.00303" lon="6.51149">
        <ele>957</ele>
        <time>2019-06-29T09:22:36Z</time>
      </trkpt>
      <trkpt lat="46.00298" lon="6.5114">
        <ele>957</ele>
        <time>2019-06-29T09:22:40Z</time>
      </trkpt>
      <trkpt lat="46.00293" lon="6.51131">
        <ele>958</ele>
        <time>2019-06-29T09:22:44Z</time>
      </trkpt>
      <trkpt lat="46.00287" lon="6.51123">
        <ele>959</ele>
        <time>2019-06-29T09:22:48Z</time>
      </trkpt>
      <trkpt lat="46.00281" lon="6.51115">
        <ele>960</ele>
        <time>2019-06-29T09:22:52Z</time>
      </trkpt>
      <trkpt lat="46.00276" lon="6.51106">
        <ele>961</ele>
        <time>2019-06-29T09:22:56Z</time>
      </trkpt>
      <trkpt lat="46.0027" lon="6.51098">
        <ele>961</ele>
        <time>2019-06-29T09:23:00Z</time>
      </trkpt>
      <trkpt lat="46.00264" lon="6.5109">
        <ele>962</ele>
        <time>2019-06-29T09:23:04Z</time>
      </trkpt>
      <trkpt lat="46.00258" lon="6.51082">
        <ele>963</ele>
        <time>2019-06-29T09:23:08Z</time>
      </trkpt>
      <trkpt lat="46.00252" lon="6.51074">
        <ele>963</ele>
        <time>2019-06-29T09:23:12Z</time>
      </trkpt>
      <trkpt lat="46.00247" lon="6.51066">
        <ele>964</ele>
        <time>2019-06-29T09:23:16Z</time>
      </trkpt>
      <trkpt lat="46.00241" lon="6.51058">
        <ele>965</ele>
        <time>2019-06-29T09:23:20Z</time>
      </trkpt>
      <trkpt lat="46.00236" lon="6.5105">
        <ele>965</ele>
        <time>2019-06-29T09:23:24Z</time>
      </trkpt>
      <trkpt lat="46.00229" lon="6.51043">
        <ele>966</ele>
        <time>2019-06-29T09:23:28Z</time>
      </trkpt>
      <trkpt lat="46.00224" lon="6.51034">
        <ele>967</ele>
        <time>2019-06-29T09:23:32Z</time>
      </trkpt>
      <trkpt lat="46.00218" lon="6.51026">
        <ele>967</ele>
        <time>2019-06-29T09:23:36Z</time>
      </trkpt>
      <trkpt lat="46.00213" lon="6.51017">
        <ele>968</ele>
        <time>2019-06-29T09:23:40Z</time>
      </trkpt>
      <trkpt lat="46.00209" lon="6.51008">
        <ele>969</ele>
        <time>2019-06-29T09:23:44Z</time>
      </trkpt>
      <trkpt lat="46.00205" lon="6.50997">
        <ele>969</ele>
        <time>2019-06-29T09:23:48Z</time>
      </trkpt>
      <trkpt lat="46.002" lon="6.50986">
        <ele>970</ele>
        <time>2019-06-29T09:23:52Z</time>
      </trkpt>
      <trkpt lat="46.00195" lon="6.50975">
        <ele>970</ele>
        <time>2019-06-29T09:23:56Z</time>
      </trkpt>
      <trkpt lat="46.00191" lon="6.50964">
        <ele>971</ele>
        <time>2019-06-29T09:24:00Z</time>
      </trkpt>
      <trkpt lat="46.00188" lon="6.5095">
        <ele>971</ele>
        <time>2019-06-29T09:24:04Z</time>
      </trkpt>
      <trkpt lat="46.00185" lon="6.50937">
        <ele>972</ele>
        <time>2019-06-29T09:24:08Z</time>
      </trkpt>
      <trkpt lat="46.00181" lon="6.50925">
        <ele>972</ele>
        <time>2019-06-29T09:24:12Z</time>
      </trkpt>
      <trkpt lat="46.00177" lon="6.50913">
        <ele>973</ele>
        <time>2019-06-29T09:24:16Z</time>
      </trkpt>
      <trkpt lat="46.00171" lon="6.50903">
        <ele>974</ele>
        <time>2019-06-29T09:24:20Z</time>
      </trkpt>
      <trkpt lat="46.00164" lon="6.50893">
        <ele>974</ele>
        <time>2019-06-29T09:24:24Z</time>
      </trkpt>
      <trkpt lat="46.00159" lon="6.5088">
        <ele>975</ele>
        <time>2019-06-29T09:24:28Z</time>
      </trkpt>
      <trkpt lat="46.00159" lon="6.50866">
        <ele>976</ele>
        <time>2019-06-29T09:24:32Z</time>
      </trkpt>
      <trkpt lat="46.00163" lon="6.50855">
        <ele>976</ele>
        <time>2019-06-29T09:24:36Z</time>
      </trkpt>
      <trkpt lat="46.0017" lon="6.50856">
        <ele>977</ele>
        <time>2019-06-29T09:24:40Z</time>
      </trkpt>
      <trkpt lat="46.00176" lon="6.50863">
        <ele>978</ele>
        <time>2019-06-29T09:24:44Z</time>
      </trkpt>
      <trkpt lat="46.0018" lon="6.50874">
        <ele>979</ele>
        <time>2019-06-29T09:24:48Z</time>
      </trkpt>
      <trkpt lat="46.00185" lon="6.50884">
        <ele>980</ele>
        <time>2019-06-29T09:24:52Z</time>
      </trkpt>
      <trkpt lat="46.0019" lon="6.50893">
        <ele>980</ele>
        <time>2019-06-29T09:24:56Z</time>
      </trkpt>
      <trkpt lat="46.00196" lon="6.50903">
        <ele>981</ele>
        <time>2019-06-29T09:25:00Z</time>
      </trkpt>
      <trkpt lat="46.00203" lon="6.50912">
        <ele>982</ele>
        <time>2019-06-29T09:25:04Z</time>
      </trkpt>
      <trkpt lat="46.00208" lon="6.50921">
        <ele>982</ele>
        <time>2019-06-29T09:25:08Z</time>
      </trkpt>
      <trkpt lat="46.00215" lon="6.50926">
        <ele>983</ele>
        <time>2019-06-29T09:25:12Z</time>
      </trkpt>
      <trkpt lat="46.00223" lon="6.50931">
        <ele>984</ele>
        <time>2019-06-29T09:25:16Z</time>
      </trkpt>
      <trkpt lat="46.00232" lon="6.50935">
        <ele>984</ele>
        <time>2019-06-29T09:25:20Z</time>
      </trkpt>
      <trkpt lat="46.00239" lon="6.5094">
        <ele>985</ele>
        <time>2019-06-29T09:25:24Z</time>
      </trkpt>
      <trkpt lat="46.00247" lon="6.50944">
        <ele>985</ele>
        <time>2019-06-29T09:25:28Z</time>
      </trkpt>
      <trkpt lat="46.00254" lon="6.50949">
        <ele>986</ele>
        <time>2019-06-29T09:25:32Z</time>
      </trkpt>
      <trkpt lat="46.0026" lon="6.50957">
        <ele>986</ele>
        <time>2019-06-29T09:25:36Z</time>
      </trkpt>
      <trkpt lat="46.00267" lon="6.50965">
        <ele>987</ele>
        <time>2019-06-29T09:25:40Z</time>
      </trkpt>
      <trkpt lat="46.00273" lon="6.50973">
        <ele>988</ele>
        <time>2019-06-29T09:25:44Z</time>
      </trkpt>
      <trkpt lat="46.00279" lon="6.50982">
        <ele>989</ele>
        <time>2019-06-29T09:25:48Z</time>
      </trkpt>
      <trkpt lat="46.00286" lon="6.50989">
        <ele>989</ele>
        <time>2019-06-29T09:25:52Z</time>
      </trkpt>
      <trkpt lat="46.00293" lon="6.50995">
        <ele>990</ele>
        <time>2019-06-29T09:25:56Z</time>
      </trkpt>
      <trkpt lat="46.00302" lon="6.50994">
        <ele>991</ele>
        <time>2019-06-29T09:26:00Z</time>
      </trkpt>
      <trkpt lat="46.00309" lon="6.50987">
        <ele>991</ele>
        <time>2019-06-29T09:26:04Z</time>
      </trkpt>
      <trkpt lat="46.00313" lon="6.50976">
        <ele>991</ele>
        <time>2019-06-29T09:26:08Z</time>
      </trkpt>
      <trkpt lat="46.00311" lon="6.50964">
        <ele>992</ele>
        <time>2019-06-29T09:26:12Z</time>
      </trkpt>
      <trkpt lat="46.00305" lon="6.50955">
        <ele>993</ele>
        <time>2019-06-29T09:26:16Z</time>
      </trkpt>
      <trkpt lat="46.00298" lon="6.50947">
        <ele>994</ele>
        <time>2019-06-29T09:26:20Z</time>
      </trkpt>
      <trkpt lat="46.00291" lon="6.50939">
        <ele>994</ele>
        <time>2019-06-29T09:26:24Z</time>
      </trkpt>
      <trkpt lat="46.00284" lon="6.50932">
        <ele>995</ele>
        <time>2019-06-29T09:26:28Z</time>
      </trkpt>
      <trkpt lat="46.00277" lon="6.50926">
        <ele>996</ele>
        <time>2019-06-29T09:26:32Z</time>
      </trkpt>
      <trkpt lat="46.0027" lon="6.50919">
        <ele>996</ele>
        <time>2019-06-29T09:26:36Z</time>
      </trkpt>
      <trkpt lat="46.00263" lon="6.50911">
        <ele>996</ele>
        <time>2019-06-29T09:26:40Z</time>
      </trkpt>
      <trkpt lat="46.00258" lon="6.50903">
        <ele>997</ele>
        <time>2019-06-29T09:26:44Z</time>
      </trkpt>
      <trkpt lat="46.00252" lon="6.50894">
        <ele>998</ele>
        <time>2019-06-29T09:26:48Z</time>
      </trkpt>
      <trkpt lat="46.00247" lon="6.50884">
        <ele>999</ele>
        <time>2019-06-29T09:26:52Z</time>
      </trkpt>
      <trkpt lat="46.00242" lon="6.50875">
        <ele>999</ele>
        <time>2019-06-29T09:26:56Z</time>
      </trkpt>
      <trkpt lat="46.00239" lon="6.50864">
        <ele>1001</ele>
        <time>2019-06-29T09:27:00Z</time>
      </trkpt>
      <trkpt lat="46.00237" lon="6.50852">
        <ele>1001</ele>
        <time>2019-06-29T09:27:04Z</time>
      </trkpt>
      <trkpt lat="46.00237" lon="6.50841">
        <ele>1002</ele>
        <time>2019-06-29T09:27:08Z</time>
      </trkpt>
      <trkpt lat="46.00236" lon="6.50829">
        <ele>1003</ele>
        <time>2019-06-29T09:27:12Z</time>
      </trkpt>
      <trkpt lat="46.00235" lon="6.50818">
        <ele>1003</ele>
        <time>2019-06-29T09:27:16Z</time>
      </trkpt>
      <trkpt lat="46.00233" lon="6.50807">
        <ele>1004</ele>
        <time>2019-06-29T09:27:20Z</time>
      </trkpt>
      <trkpt lat="46.00229" lon="6.50798">
        <ele>1004</ele>
        <time>2019-06-29T09:27:24Z</time>
      </trkpt>
      <trkpt lat="46.00224" lon="6.50788">
        <ele>1005</ele>
        <time>2019-06-29T09:27:28Z</time>
      </trkpt>
      <trkpt lat="46.00219" lon="6.5078">
        <ele>1006</ele>
        <time>2019-06-29T09:27:32Z</time>
      </trkpt>
      <trkpt lat="46.00213" lon="6.50772">
        <ele>1007</ele>
        <time>2019-06-29T09:27:36Z</time>
      </trkpt>
      <trkpt lat="46.00209" lon="6.50763">
        <ele>1007</ele>
        <time>2019-06-29T09:27:40Z</time>
      </trkpt>
      <trkpt lat="46.00204" lon="6.50755">
        <ele>1008</ele>
        <time>2019-06-29T09:27:44Z</time>
      </trkpt>
      <trkpt lat="46.00198" lon="6.50746">
        <ele>1009</ele>
        <time>2019-06-29T09:27:48Z</time>
      </trkpt>
      <trkpt lat="46.00193" lon="6.50738">
        <ele>1009</ele>
        <time>2019-06-29T09:27:52Z</time>
      </trkpt>
      <trkpt lat="46.00186" lon="6.50731">
        <ele>1009</ele>
        <time>2019-06-29T09:27:56Z</time>
      </trkpt>
      <trkpt lat="46.0018" lon="6.50724">
        <ele>1010</ele>
        <time>2019-06-29T09:28:00Z</time>
      </trkpt>
      <trkpt lat="46.00175" lon="6.50715">
        <ele>1011</ele>
        <time>2019-06-29T09:28:04Z</time>
      </trkpt>
      <trkpt lat="46.00172" lon="6.50704">
        <ele>1012</ele>
        <time>2019-06-29T09:28:08Z</time>
      </trkpt>
      <trkpt lat="46.00168" lon="6.50694">
        <ele>1013</ele>
        <time>2019-06-29T09:28:12Z</time>
      </trkpt>
      <trkpt lat="46.00164" lon="6.50684">
        <ele>1014</ele>
        <time>2019-06-29T09:28:16Z</time>
      </trkpt>
      <trkpt lat="46.00163" lon="6.50674">
        <ele>1015</ele>
        <time>2019-06-29T09:28:20Z</time>
      </trkpt>
      <trkpt lat="46.00161" lon="6.50663">
        <ele>1016</ele>
        <time>2019-06-29T09:28:24Z</time>
      </trkpt>
      <trkpt lat="46.00161" lon="6.50652">
        <ele>1016</ele>
        <time>2019-06-29T09:28:28Z</time>
      </trkpt>
      <trkpt lat="46.00163" lon="6.50641">
        <ele>1017</ele>
        <time>2019-06-29T09:28:32Z</time>
      </trkpt>
      <trkpt lat="46.00165" lon="6.50629">
        <ele>1018</ele>
        <time>2019-06-29T09:28:36Z</time>
      </trkpt>
      <trkpt lat="46.00169" lon="6.50619">
        <ele>1018</ele>
        <time>2019-06-29T09:28:40Z</time>
      </trkpt>
      <trkpt lat="46.00172" lon="6.50607">
        <ele>1019</ele>
        <time>2019-06-29T09:28:44Z</time>
      </trkpt>
      <trkpt lat="46.00175" lon="6.50597">
        <ele>1020</ele>
        <time>2019-06-29T09:28:48Z</time>
      </trkpt>
      <trkpt lat="46.00177" lon="6.50587">
        <ele>1021</ele>
        <time>2019-06-29T09:28:52Z</time>
      </trkpt>
      <trkpt lat="46.00181" lon="6.50577">
        <ele>1021</ele>
        <time>2019-06-29T09:28:56Z</time>
      </trkpt>
      <trkpt lat="46.00184" lon="6.50567">
        <ele>1022</ele>
        <time>2019-06-29T09:29:00Z</time>
      </trkpt>
      <trkpt lat="46.00187" lon="6.50556">
        <ele>1022</ele>
        <time>2019-06-29T09:29:04Z</time>
      </trkpt>
      <trkpt lat="46.00191" lon="6.50545">
        <ele>1024</ele>
        <time>2019-06-29T09:29:08Z</time>
      </trkpt>
      <trkpt lat="46.00195" lon="6.50535">
        <ele>1024</ele>
        <time>2019-06-29T09:29:12Z</time>
      </trkpt>
      <trkpt lat="46.00198" lon="6.50523">
        <ele>1025</ele>
        <time>2019-06-29T09:29:16Z</time>
      </trkpt>
      <trkpt lat="46.00201" lon="6.50512">
        <ele>1026</ele>
        <time>2019-06-29T09:29:20Z</time>
      </trkpt>
      <trkpt lat="46.00206" lon="6.50501">
        <ele>1026</ele>
        <time>2019-06-29T09:29:24Z</time>
      </trkpt>
      <trkpt lat="46.00209" lon="6.5049">
        <ele>1027</ele>
        <time>2019-06-29T09:29:28Z</time>
      </trkpt>
      <trkpt lat="46.00213" lon="6.50479">
        <ele>1027</ele>
        <time>2019-06-29T09:29:32Z</time>
      </trkpt>
      <trkpt lat="46.00217" lon="6.50468">
        <ele>1028</ele>
        <time>2019-06-29T09:29:36Z</time>
      </trkpt>
      <trkpt lat="46.0022" lon="6.50457">
        <ele>1029</ele>
        <time>2019-06-29T09:29:40Z</time>
      </trkpt>
      <trkpt lat="46.00224" lon="6.50446">
        <ele>1029</ele>
        <time>2019-06-29T09:29:44Z</time>
      </trkpt>
      <trkpt lat="46.00227" lon="6.50436">
        <ele>1030</ele>
        <time>2019-06-29T09:29:48Z</time>
      </trkpt>
      <trkpt lat="46.0023" lon="6.50425">
        <ele>1031</ele>
        <time>2019-06-29T09:29:52Z</time>
      </trkpt>
      <trkpt lat="46.00234" lon="6.50415">
        <ele>1031</ele>
        <time>2019-06-29T09:29:56Z</time>
      </trkpt>
      <trkpt lat="46.00237" lon="6.50404">
        <ele>1032</ele>
        <time>2019-06-29T09:30:00Z</time>
      </trkpt>
      <trkpt lat="46.00241" lon="6.50395">
        <ele>1033</ele>
        <time>2019-06-29T09:30:04Z</time>
      </trkpt>
      <trkpt lat="46.00246" lon="6.50386">
        <ele>1033</ele>
        <time>2019-06-29T09:30:08Z</time>
      </trkpt>
      <trkpt lat="46.00251" lon="6.50377">
        <ele>1034</ele>
        <time>2019-06-29T09:30:12Z</time>
      </trkpt>
      <trkpt lat="46.00256" lon="6.50367">
        <ele>1034</ele>
        <time>2019-06-29T09:30:16Z</time>
      </trkpt>
      <trkpt lat="46.0026" lon="6.50358">
        <ele>1036</ele>
        <time>2019-06-29T09:30:20Z</time>
      </trkpt>
      <trkpt lat="46.00264" lon="6.50347">
        <ele>1036</ele>
        <time>2019-06-29T09:30:24Z</time>
      </trkpt>
      <trkpt lat="46.00267" lon="6.50336">
        <ele>1037</ele>
        <time>2019-06-29T09:30:28Z</time>
      </trkpt>
      <trkpt lat="46.0027" lon="6.50325">
        <ele>1037</ele>
        <time>2019-06-29T09:30:32Z</time>
      </trkpt>
      <trkpt lat="46.00273" lon="6.50313">
        <ele>1038</ele>
        <time>2019-06-29T09:30:36Z</time>
      </trkpt>
      <trkpt lat="46.00276" lon="6.50303">
        <ele>1039</ele>
        <time>2019-06-29T09:30:40Z</time>
      </trkpt>
      <trkpt lat="46.00278" lon="6.50291">
        <ele>1039</ele>
        <time>2019-06-29T09:30:44Z</time>
      </trkpt>
      <trkpt lat="46.00281" lon="6.50279">
        <ele>1040</ele>
        <time>2019-06-29T09:30:48Z</time>
      </trkpt>
      <trkpt lat="46.00283" lon="6.50268">
        <ele>1040</ele>
        <time>2019-06-29T09:30:52Z</time>
      </trkpt>
      <trkpt lat="46.00284" lon="6.50257">
        <ele>1041</ele>
        <time>2019-06-29T09:30:56Z</time>
      </trkpt>
      <trkpt lat="46.00285" lon="6.50246">
        <ele>1042</ele>
        <time>2019-06-29T09:31:00Z</time>
      </trkpt>
      <trkpt lat="46.00286" lon="6.50234">
        <ele>1042</ele>
        <time>2019-06-29T09:31:04Z</time>
      </trkpt>
      <trkpt lat="46.00286" lon="6.50222">
        <ele>1043</ele>
        <time>2019-06-29T09:31:08Z</time>
      </trkpt>
      <trkpt lat="46.00286" lon="6.50211">
        <ele>1043</ele>
        <time>2019-06-29T09:31:12Z</time>
      </trkpt>
      <trkpt lat="46.00286" lon="6.50199">
        <ele>1045</ele>
        <time>2019-06-29T09:31:16Z</time>
      </trkpt>
      <trkpt lat="46.00284" lon="6.50187">
        <ele>1045</ele>
        <time>2019-06-29T09:31:20Z</time>
      </trkpt>
      <trkpt lat="46.00281" lon="6.50176">
        <ele>1046</ele>
        <time>2019-06-29T09:31:24Z</time>
      </trkpt>
      <trkpt lat="46.00278" lon="6.50165">
        <ele>1046</ele>
        <time>2019-06-29T09:31:28Z</time>
      </trkpt>
      <trkpt lat="46.00275" lon="6.50154">
        <ele>1047</ele>
        <time>2019-06-29T09:31:32Z</time>
      </trkpt>
      <trkpt lat="46.00272" lon="6.50143">
        <ele>1048</ele>
        <time>2019-06-29T09:31:36Z</time>
      </trkpt>
      <trkpt lat="46.0027" lon="6.50132">
        <ele>1048</ele>
        <time>2019-06-29T09:31:40Z</time>
      </trkpt>
      <trkpt lat="46.00267" lon="6.50121">
        <ele>1049</ele>
        <time>2019-06-29T09:31:44Z</time>
      </trkpt>
      <trkpt lat="46.00264" lon="6.5011">
        <ele>1050</ele>
        <time>2019-06-29T09:31:48Z</time>
      </trkpt>
      <trkpt lat="46.00261" lon="6.50099">
        <ele>1050</ele>
        <time>2019-06-29T09:31:52Z</time>
      </trkpt>
      <trkpt lat="46.00259" lon="6.50088">
        <ele>1051</ele>
        <time>2019-06-29T09:31:56Z</time>
      </trkpt>
      <trkpt lat="46.00256" lon="6.50078">
        <ele>1052</ele>
        <time>2019-06-29T09:32:00Z</time>
      </trkpt>
      <trkpt lat="46.00253" lon="6.50068">
        <ele>1052</ele>
        <time>2019-06-29T09:32:04Z</time>
      </trkpt>
      <trkpt lat="46.0025" lon="6.50057">
        <ele>1054</ele>
        <time>2019-06-29T09:32:08Z</time>
      </trkpt>
      <trkpt lat="46.00245" lon="6.50048">
        <ele>1054</ele>
        <time>2019-06-29T09:32:12Z</time>
      </trkpt>
      <trkpt lat="46.00241" lon="6.50037">
        <ele>1055</ele>
        <time>2019-06-29T09:32:16Z</time>
      </trkpt>
      <trkpt lat="46.00238" lon="6.50026">
        <ele>1055</ele>
        <time>2019-06-29T09:32:20Z</time>
      </trkpt>
      <trkpt lat="46.00232" lon="6.50014">
        <ele>1057</ele>
        <time>2019-06-29T09:32:24Z</time>
      </trkpt>
      <trkpt lat="46.00226" lon="6.50005">
        <ele>1057</ele>
        <time>2019-06-29T09:32:28Z</time>
      </trkpt>
      <trkpt lat="46.00221" lon="6.49997">
        <ele>1058</ele>
        <time>2019-06-29T09:32:32Z</time>
      </trkpt>
      <trkpt lat="46.00216" lon="6.49989">
        <ele>1059</ele>
        <time>2019-06-29T09:32:36Z</time>
      </trkpt>
      <trkpt lat="46.00213" lon="6.49979">
        <ele>1060</ele>
        <time>2019-06-29T09:32:40Z</time>
      </trkpt>
      <trkpt lat="46.00211" lon="6.49968">
        <ele>1060</ele>
        <time>2019-06-29T09:32:44Z</time>
      </trkpt>
      <trkpt lat="46.0021" lon="6.49958">
        <ele>1060</ele>
        <time>2019-06-29T09:32:48Z</time>
      </trkpt>
      <trkpt lat="46.00209" lon="6.49947">
        <ele>1061</ele>
        <time>2019-06-29T09:32:52Z</time>
      </trkpt>
      <trkpt lat="46.00208" lon="6.49936">
        <ele>1063</ele>
        <time>2019-06-29T09:32:56Z</time>
      </trkpt>
      <trkpt lat="46.00207" lon="6.49925">
        <ele>1063</ele>
        <time>2019-06-29T09:33:00Z</time>
      </trkpt>
      <trkpt lat="46.00206" lon="6.49914">
        <ele>1064</ele>
        <time>2019-06-29T09:33:04Z</time>
      </trkpt>
      <trkpt lat="46.00204" lon="6.49904">
        <ele>1065</ele>
        <time>2019-06-29T09:33:08Z</time>
      </trkpt>
      <trkpt lat="46.00201" lon="6.49894">
        <ele>1065</ele>
        <time>2019-06-29T09:33:12Z</time>
      </trkpt>
      <trkpt lat="46.00199" lon="6.49884">
        <ele>1066</ele>
        <time>2019-06-29T09:33:16Z</time>
      </trkpt>
      <trkpt lat="46.00197" lon="6.49874">
        <ele>1067</ele>
        <time>2019-06-29T09:33:20Z</time>
      </trkpt>
      <trkpt lat="46.00194" lon="6.49864">
        <ele>1068</ele>
        <time>2019-06-29T09:33:24Z</time>
      </trkpt>
      <trkpt lat="46.00191" lon="6.49854">
        <ele>1069</ele>
        <time>2019-06-29T09:33:28Z</time>
      </trkpt>
      <trkpt lat="46.00188" lon="6.49844">
        <ele>1069</ele>
        <time>2019-06-29T09:33:32Z</time>
      </trkpt>
      <trkpt lat="46.00185" lon="6.49834">
        <ele>1070</ele>
        <time>2019-06-29T09:33:36Z</time>
      </trkpt>
      <trkpt lat="46.00181" lon="6.49824">
        <ele>1071</ele>
        <time>2019-06-29T09:33:40Z</time>
      </trkpt>
      <trkpt lat="46.00177" lon="6.49815">
        <ele>1072</ele>
        <time>2019-06-29T09:33:44Z</time>
      </trkpt>
      <trkpt lat="46.00173" lon="6.49805">
        <ele>1073</ele>
        <time>2019-06-29T09:33:48Z</time>
      </trkpt>
      <trkpt lat="46.00168" lon="6.49796">
        <ele>1074</ele>
        <time>2019-06-29T09:33:52Z</time>
      </trkpt>
      <trkpt lat="46.00163" lon="6.49788">
        <ele>1074</ele>
        <time>2019-06-29T09:33:56Z</time>
      </trkpt>
      <trkpt lat="46.00158" lon="6.4978">
        <ele>1075</ele>
        <time>2019-06-29T09:34:00Z</time>
      </trkpt>
      <trkpt lat="46.00152" lon="6.49772">
        <ele>1076</ele>
        <time>2019-06-29T09:34:04Z</time>
      </trkpt>
      <trkpt lat="46.00148" lon="6.49762">
        <ele>1076</ele>
        <time>2019-06-29T09:34:08Z</time>
      </trkpt>
      <trkpt lat="46.00145" lon="6.49754">
        <ele>1077</ele>
        <time>2019-06-29T09:34:12Z</time>
      </trkpt>
      <trkpt lat="46.00141" lon="6.49745">
        <ele>1078</ele>
        <time>2019-06-29T09:34:16Z</time>
      </trkpt>
      <trkpt lat="46.00136" lon="6.49737">
        <ele>1079</ele>
        <time>2019-06-29T09:34:20Z</time>
      </trkpt>
      <trkpt lat="46.00132" lon="6.49728">
        <ele>1080</ele>
        <time>2019-06-29T09:34:24Z</time>
      </trkpt>
      <trkpt lat="46.00128" lon="6.49719">
        <ele>1081</ele>
        <time>2019-06-29T09:34:28Z</time>
      </trkpt>
      <trkpt lat="46.00124" lon="6.49711">
        <ele>1081</ele>
        <time>2019-06-29T09:34:32Z</time>
      </trkpt>
      <trkpt lat="46.00119" lon="6.49703">
        <ele>1082</ele>
        <time>2019-06-29T09:34:36Z</time>
      </trkpt>
      <trkpt lat="46.00115" lon="6.49694">
        <ele>1082</ele>
        <time>2019-06-29T09:34:40Z</time>
      </trkpt>
      <trkpt lat="46.00111" lon="6.49685">
        <ele>1084</ele>
        <time>2019-06-29T09:34:44Z</time>
      </trkpt>
      <trkpt lat="46.00107" lon="6.49675">
        <ele>1084</ele>
        <time>2019-06-29T09:34:48Z</time>
      </trkpt>
      <trkpt lat="46.00103" lon="6.49666">
        <ele>1085</ele>
        <time>2019-06-29T09:34:52Z</time>
      </trkpt>
      <trkpt lat="46.00098" lon="6.49658">
        <ele>1086</ele>
        <time>2019-06-29T09:34:56Z</time>
      </trkpt>
      <trkpt lat="46.00094" lon="6.49649">
        <ele>1086</ele>
        <time>2019-06-29T09:35:00Z</time>
      </trkpt>
      <trkpt lat="46.00089" lon="6.4964">
        <ele>1087</ele>
        <time>2019-06-29T09:35:04Z</time>
      </trkpt>
      <trkpt lat="46.00085" lon="6.49632">
        <ele>1088</ele>
        <time>2019-06-29T09:35:08Z</time>
      </trkpt>
      <trkpt lat="46.0008" lon="6.49623">
        <ele>1089</ele>
        <time>2019-06-29T09:35:12Z</time>
      </trkpt>
      <trkpt lat="46.00076" lon="6.49614">
        <ele>1090</ele>
        <time>2019-06-29T09:35:16Z</time>
      </trkpt>
      <trkpt lat="46.00071" lon="6.49606">
        <ele>1090</ele>
        <time>2019-06-29T09:35:20Z</time>
      </trkpt>
      <trkpt lat="46.00066" lon="6.49599">
        <ele>1091</ele>
        <time>2019-06-29T09:35:24Z</time>
      </trkpt>
      <trkpt lat="46.00062" lon="6.4959">
        <ele>1092</ele>
        <time>2019-06-29T09:35:28Z</time>
      </trkpt>
      <trkpt lat="46.00058" lon="6.49582">
        <ele>1093</ele>
        <time>2019-06-29T09:35:32Z</time>
      </trkpt>
      <trkpt lat="46.00053" lon="6.49574">
        <ele>1093</ele>
        <time>2019-06-29T09:35:36Z</time>
      </trkpt>
      <trkpt lat="46.0005" lon="6.49564">
        <ele>1095</ele>
        <time>2019-06-29T09:35:40Z</time>
      </trkpt>
      <trkpt lat="46.00046" lon="6.49555">
        <ele>1096</ele>
        <time>2019-06-29T09:35:44Z</time>
      </trkpt>
      <trkpt lat="46.00042" lon="6.49547">
        <ele>1097</ele>
        <time>2019-06-29T09:35:48Z</time>
      </trkpt>
      <trkpt lat="46.00039" lon="6.49537">
        <ele>1097</ele>
        <time>2019-06-29T09:35:52Z</time>
      </trkpt>
      <trkpt lat="46.00037" lon="6.49527">
        <ele>1098</ele>
        <time>2019-06-29T09:35:56Z</time>
      </trkpt>
      <trkpt lat="46.00036" lon="6.49518">
        <ele>1099</ele>
        <time>2019-06-29T09:36:00Z</time>
      </trkpt>
      <trkpt lat="46.0004" lon="6.49509">
        <ele>1099</ele>
        <time>2019-06-29T09:36:04Z</time>
      </trkpt>
      <trkpt lat="46.00043" lon="6.49499">
        <ele>1100</ele>
        <time>2019-06-29T09:36:08Z</time>
      </trkpt>
      <trkpt lat="46.00045" lon="6.49489">
        <ele>1101</ele>
        <time>2019-06-29T09:36:12Z</time>
      </trkpt>
      <trkpt lat="46.00046" lon="6.49478">
        <ele>1102</ele>
        <time>2019-06-29T09:36:16Z</time>
      </trkpt>
      <trkpt lat="46.00048" lon="6.49467">
        <ele>1103</ele>
        <time>2019-06-29T09:36:20Z</time>
      </trkpt>
      <trkpt lat="46.00049" lon="6.49457">
        <ele>1103</ele>
        <time>2019-06-29T09:36:24Z</time>
      </trkpt>
      <trkpt lat="46.00051" lon="6.49447">
        <ele>1105</ele>
        <time>2019-06-29T09:36:28Z</time>
      </trkpt>
      <trkpt lat="46.00052" lon="6.49436">
        <ele>1105</ele>
        <time>2019-06-29T09:36:32Z</time>
      </trkpt>
      <trkpt lat="46.00054" lon="6.49426">
        <ele>1106</ele>
        <time>2019-06-29T09:36:36Z</time>
      </trkpt>
      <trkpt lat="46.00055" lon="6.49415">
        <ele>1106</ele>
        <time>2019-06-29T09:36:40Z</time>
      </trkpt>
      <trkpt lat="46.00055" lon="6.49404">
        <ele>1107</ele>
        <time>2019-06-29T09:36:44Z</time>
      </trkpt>
      <trkpt lat="46.00055" lon="6.49393">
        <ele>1108</ele>
        <time>2019-06-29T09:36:48Z</time>
      </trkpt>
      <trkpt lat="46.00055" lon="6.49383">
        <ele>1109</ele>
        <time>2019-06-29T09:36:52Z</time>
      </trkpt>
      <trkpt lat="46.00056" lon="6.49372">
        <ele>1109</ele>
        <time>2019-06-29T09:36:56Z</time>
      </trkpt>
      <trkpt lat="46.00057" lon="6.49361">
        <ele>1109</ele>
        <time>2019-06-29T09:37:00Z</time>
      </trkpt>
      <trkpt lat="46.00058" lon="6.4935">
        <ele>1110</ele>
        <time>2019-06-29T09:37:04Z</time>
      </trkpt>
      <trkpt lat="46.0006" lon="6.49339">
        <ele>1112</ele>
        <time>2019-06-29T09:37:08Z</time>
      </trkpt>
      <trkpt lat="46.00061" lon="6.49329">
        <ele>1113</ele>
        <time>2019-06-29T09:37:12Z</time>
      </trkpt>
      <trkpt lat="46.00061" lon="6.49319">
        <ele>1113</ele>
        <time>2019-06-29T09:37:16Z</time>
      </trkpt>
      <trkpt lat="46.00059" lon="6.49309">
        <ele>1114</ele>
        <time>2019-06-29T09:37:20Z</time>
      </trkpt>
      <trkpt lat="46.00056" lon="6.49299">
        <ele>1115</ele>
        <time>2019-06-29T09:37:24Z</time>
      </trkpt>
      <trkpt lat="46.00052" lon="6.4929">
        <ele>1116</ele>
        <time>2019-06-29T09:37:28Z</time>
      </trkpt>
      <trkpt lat="46.00046" lon="6.49282">
        <ele>1116</ele>
        <time>2019-06-29T09:37:32Z</time>
      </trkpt>
      <trkpt lat="46.00039" lon="6.49276">
        <ele>1117</ele>
        <time>2019-06-29T09:37:36Z</time>
      </trkpt>
      <trkpt lat="46.00033" lon="6.4927">
        <ele>1117</ele>
        <time>2019-06-29T09:37:40Z</time>
      </trkpt>
      <trkpt lat="46.00026" lon="6.49265">
        <ele>1118</ele>
        <time>2019-06-29T09:37:44Z</time>
      </trkpt>
      <trkpt lat="46.00017" lon="6.49263">
        <ele>1119</ele>
        <time>2019-06-29T09:37:48Z</time>
      </trkpt>
      <trkpt lat="46.0001" lon="6.49258">
        <ele>1120</ele>
        <time>2019-06-29T09:37:52Z</time>
      </trkpt>
      <trkpt lat="46.00006" lon="6.4925">
        <ele>1120</ele>
        <time>2019-06-29T09:37:56Z</time>
      </trkpt>
      <trkpt lat="46.00002" lon="6.49242">
        <ele>1120</ele>
        <time>2019-06-29T09:38:00Z</time>
      </trkpt>
      <trkpt lat="45.99998" lon="6.49236">
        <ele>1121</ele>
        <time>2019-06-29T09:38:04Z</time>
      </trkpt>
      <trkpt lat="45.99992" lon="6.49231">
        <ele>1122</ele>
        <time>2019-06-29T09:38:08Z</time>
      </trkpt>
      <trkpt lat="45.99985" lon="6.49229">
        <ele>1123</ele>
        <time>2019-06-29T09:38:12Z</time>
      </trkpt>
      <trkpt lat="45.99979" lon="6.49226">
        <ele>1123</ele>
        <time>2019-06-29T09:38:16Z</time>
      </trkpt>
      <trkpt lat="45.99972" lon="6.49222">
        <ele>1125</ele>
        <time>2019-06-29T09:38:20Z</time>
      </trkpt>
      <trkpt lat="45.99965" lon="6.49215">
        <ele>1125</ele>
        <time>2019-06-29T09:38:24Z</time>
      </trkpt>
      <trkpt lat="45.9996" lon="6.49207">
        <ele>1126</ele>
        <time>2019-06-29T09:38:28Z</time>
      </trkpt>
      <trkpt lat="45.99956" lon="6.49199">
        <ele>1127</ele>
        <time>2019-06-29T09:38:32Z</time>
      </trkpt>
      <trkpt lat="45.99952" lon="6.49191">
        <ele>1128</ele>
        <time>2019-06-29T09:38:36Z</time>
      </trkpt>
      <trkpt lat="45.99949" lon="6.49181">
        <ele>1129</ele>
        <time>2019-06-29T09:38:40Z</time>
      </trkpt>
      <trkpt lat="45.99945" lon="6.49172">
        <ele>1129</ele>
        <time>2019-06-29T09:38:44Z</time>
      </trkpt>
      <trkpt lat="45.99942" lon="6.49163">
        <ele>1131</ele>
        <time>2019-06-29T09:38:48Z</time>
      </trkpt>
      <trkpt lat="45.99937" lon="6.49155">
        <ele>1131</ele>
        <time>2019-06-29T09:38:52Z</time>
      </trkpt>
      <trkpt lat="45.99932" lon="6.49146">
        <ele>1132</ele>
        <time>2019-06-29T09:38:56Z</time>
      </trkpt>
      <trkpt lat="45.99927" lon="6.49138">
        <ele>1132</ele>
        <time>2019-06-29T09:39:00Z</time>
      </trkpt>
      <trkpt lat="45.99922" lon="6.49131">
        <ele>1134</ele>
        <time>2019-06-29T09:39:04Z</time>
      </trkpt>
      <trkpt lat="45.99916" lon="6.49124">
        <ele>1134</ele>
        <time>2019-06-29T09:39:08Z</time>
      </trkpt>
      <trkpt lat="45.99911" lon="6.49116">
        <ele>1135</ele>
        <time>2019-06-29T09:39:12Z</time>
      </trkpt>
      <trkpt lat="45.99906" lon="6.49108">
        <ele>1136</ele>
        <time>2019-06-29T09:39:16Z</time>
      </trkpt>
      <trkpt lat="45.99902" lon="6.49102">
        <ele>1136</ele>
        <time>2019-06-29T09:39:20Z</time>
      </trkpt>
      <trkpt lat="45.99896" lon="6.49095">
        <ele>1138</ele>
        <time>2019-06-29T09:39:24Z</time>
      </trkpt>
      <trkpt lat="45.99891" lon="6.49088">
        <ele>1138</ele>
        <time>2019-06-29T09:39:28Z</time>
      </trkpt>
      <trkpt lat="45.99885" lon="6.49081">
        <ele>1139</ele>
        <time>2019-06-29T09:39:32Z</time>
      </trkpt>
      <trkpt lat="45.99879" lon="6.49073">
        <ele>1139</ele>
        <time>2019-06-29T09:39:36Z</time>
      </trkpt>
      <trkpt lat="45.99874" lon="6.49065">
        <ele>1140</ele>
        <time>2019-06-29T09:39:40Z</time>
      </trkpt>
      <trkpt lat="45.99868" lon="6.49057">
        <ele>1141</ele>
        <time>2019-06-29T09:39:44Z</time>
      </trkpt>
      <trkpt lat="45.99865" lon="6.49048">
        <ele>1141</ele>
        <time>2019-06-29T09:39:48Z</time>
      </trkpt>
      <trkpt lat="45.99859" lon="6.49042">
        <ele>1142</ele>
        <time>2019-06-29T09:39:52Z</time>
      </trkpt>
      <trkpt lat="45.99853" lon="6.49035">
        <ele>1143</ele>
        <time>2019-06-29T09:39:56Z</time>
      </trkpt>
      <trkpt lat="45.99848" lon="6.49026">
        <ele>1143</ele>
        <time>2019-06-29T09:40:00Z</time>
      </trkpt>
      <trkpt lat="45.99844" lon="6.49018">
        <ele>1144</ele>
        <time>2019-06-29T09:40:04Z</time>
      </trkpt>
      <trkpt lat="45.99839" lon="6.4901">
        <ele>1145</ele>
        <time>2019-06-29T09:40:08Z</time>
      </trkpt>
      <trkpt lat="45.99834" lon="6.49002">
        <ele>1146</ele>
        <time>2019-06-29T09:40:12Z</time>
      </trkpt>
      <trkpt lat="45.99828" lon="6.48995">
        <ele>1146</ele>
        <time>2019-06-29T09:40:16Z</time>
      </trkpt>
      <trkpt lat="45.99823" lon="6.48987">
        <ele>1147</ele>
        <time>2019-06-29T09:40:20Z</time>
      </trkpt>
      <trkpt lat="45.99818" lon="6.48979">
        <ele>1148</ele>
        <time>2019-06-29T09:40:24Z</time>
      </trkpt>
      <trkpt lat="45.99814" lon="6.48971">
        <ele>1149</ele>
        <time>2019-06-29T09:40:28Z</time>
      </trkpt>
      <trkpt lat="45.9981" lon="6.48962">
        <ele>1150</ele>
        <time>2019-06-29T09:40:32Z</time>
      </trkpt>
      <trkpt lat="45.99806" lon="6.48953">
        <ele>1151</ele>
        <time>2019-06-29T09:40:36Z</time>
      </trkpt>
      <trkpt lat="45.99803" lon="6.48944">
        <ele>1151</ele>
        <time>2019-06-29T09:40:40Z</time>
      </trkpt>
      <trkpt lat="45.99801" lon="6.48934">
        <ele>1152</ele>
        <time>2019-06-29T09:40:44Z</time>
      </trkpt>
      <trkpt lat="45.99799" lon="6.48925">
        <ele>1153</ele>
        <time>2019-06-29T09:40:48Z</time>
      </trkpt>
      <trkpt lat="45.99796" lon="6.48915">
        <ele>1153</ele>
        <time>2019-06-29T09:40:52Z</time>
      </trkpt>
      <trkpt lat="45.99794" lon="6.48905">
        <ele>1154</ele>
        <time>2019-06-29T09:40:56Z</time>
      </trkpt>
      <trkpt lat="45.99791" lon="6.48895">
        <ele>1155</ele>
        <time>2019-06-29T09:41:00Z</time>
      </trkpt>
      <trkpt lat="45.99789" lon="6.48885">
        <ele>1156</ele>
        <time>2019-06-29T09:41:04Z</time>
      </trkpt>
      <trkpt lat="45.99787" lon="6.48875">
        <ele>1156</ele>
        <time>2019-06-29T09:41:08Z</time>
      </trkpt>
      <trkpt lat="45.99786" lon="6.48865">
        <ele>1157</ele>
        <time>2019-06-29T09:41:12Z</time>
      </trkpt>
      <trkpt lat="45.99785" lon="6.48855">
        <ele>1157</ele>
        <time>2019-06-29T09:41:16Z</time>
      </trkpt>
      <trkpt lat="45.99784" lon="6.48845">
        <ele>1158</ele>
        <time>2019-06-29T09:41:20Z</time>
      </trkpt>
      <trkpt lat="45.99782" lon="6.48836">
        <ele>1159</ele>
        <time>2019-06-29T09:41:24Z</time>
      </trkpt>
      <trkpt lat="45.99781" lon="6.48826">
        <ele>1160</ele>
        <time>2019-06-29T09:41:28Z</time>
      </trkpt>
      <trkpt lat="45.99778" lon="6.48817">
        <ele>1161</ele>
        <time>2019-06-29T09:41:32Z</time>
      </trkpt>
      <trkpt lat="45.99776" lon="6.48807">
        <ele>1162</ele>
        <time>2019-06-29T09:41:36Z</time>
      </trkpt>
      <trkpt lat="45.99774" lon="6.48798">
        <ele>1162</ele>
        <time>2019-06-29T09:41:40Z</time>
      </trkpt>
      <trkpt lat="45.99772" lon="6.48788">
        <ele>1162</ele>
        <time>2019-06-29T09:41:44Z</time>
      </trkpt>
      <trkpt lat="45.99771" lon="6.48779">
        <ele>1163</ele>
        <time>2019-06-29T09:41:48Z</time>
      </trkpt>
      <trkpt lat="45.9977" lon="6.48768">
        <ele>1164</ele>
        <time>2019-06-29T09:41:52Z</time>
      </trkpt>
      <trkpt lat="45.99771" lon="6.48759">
        <ele>1165</ele>
        <time>2019-06-29T09:41:56Z</time>
      </trkpt>
      <trkpt lat="45.9977" lon="6.4875">
        <ele>1166</ele>
        <time>2019-06-29T09:42:00Z</time>
      </trkpt>
      <trkpt lat="45.99769" lon="6.4874">
        <ele>1166</ele>
        <time>2019-06-29T09:42:04Z</time>
      </trkpt>
      <trkpt lat="45.99767" lon="6.48731">
        <ele>1167</ele>
        <time>2019-06-29T09:42:08Z</time>
      </trkpt>
      <trkpt lat="45.99768" lon="6.48721">
        <ele>1168</ele>
        <time>2019-06-29T09:42:12Z</time>
      </trkpt>
      <trkpt lat="45.99767" lon="6.4871">
        <ele>1168</ele>
        <time>2019-06-29T09:42:16Z</time>
      </trkpt>
      <trkpt lat="45.99765" lon="6.487">
        <ele>1170</ele>
        <time>2019-06-29T09:42:20Z</time>
      </trkpt>
      <trkpt lat="45.99764" lon="6.48689">
        <ele>1170</ele>
        <time>2019-06-29T09:42:24Z</time>
      </trkpt>
      <trkpt lat="45.99763" lon="6.48678">
        <ele>1171</ele>
        <time>2019-06-29T09:42:28Z</time>
      </trkpt>
      <trkpt lat="45.99763" lon="6.48668">
        <ele>1172</ele>
        <time>2019-06-29T09:42:32Z</time>
      </trkpt>
      <trkpt lat="45.99764" lon="6.48658">
        <ele>1173</ele>
        <time>2019-06-29T09:42:36Z</time>
      </trkpt>
      <trkpt lat="45.99765" lon="6.48649">
        <ele>1173</ele>
        <time>2019-06-29T09:42:40Z</time>
      </trkpt>
      <trkpt lat="45.99766" lon="6.48639">
        <ele>1174</ele>
        <time>2019-06-29T09:42:44Z</time>
      </trkpt>
      <trkpt lat="45.99768" lon="6.48629">
        <ele>1175</ele>
        <time>2019-06-29T09:42:48Z</time>
      </trkpt>
      <trkpt lat="45.99768" lon="6.48619">
        <ele>1176</ele>
        <time>2019-06-29T09:42:52Z</time>
      </trkpt>
      <trkpt lat="45.99769" lon="6.48608">
        <ele>1177</ele>
        <time>2019-06-29T09:42:56Z</time>
      </trkpt>
      <trkpt lat="45.99768" lon="6.48598">
        <ele>1177</ele>
        <time>2019-06-29T09:43:00Z</time>
      </trkpt>
      <trkpt lat="45.99765" lon="6.48588">
        <ele>1178</ele>
        <time>2019-06-29T09:43:04Z</time>
      </trkpt>
      <trkpt lat="45.99763" lon="6.48578">
        <ele>1179</ele>
        <time>2019-06-29T09:43:08Z</time>
      </trkpt>
      <trkpt lat="45.9976" lon="6.48569">
        <ele>1179</ele>
        <time>2019-06-29T09:43:12Z</time>
      </trkpt>
      <trkpt lat="45.99757" lon="6.4856">
        <ele>1180</ele>
        <time>2019-06-29T09:43:16Z</time>
      </trkpt>
      <trkpt lat="45.99754" lon="6.48551">
        <ele>1181</ele>
        <time>2019-06-29T09:43:20Z</time>
      </trkpt>
      <trkpt lat="45.9975" lon="6.48542">
        <ele>1182</ele>
        <time>2019-06-29T09:43:24Z</time>
      </trkpt>
      <trkpt lat="45.99747" lon="6.48532">
        <ele>1182</ele>
        <time>2019-06-29T09:43:28Z</time>
      </trkpt>
      <trkpt lat="45.99744" lon="6.48523">
        <ele>1183</ele>
        <time>2019-06-29T09:43:32Z</time>
      </trkpt>
      <trkpt lat="45.9974" lon="6.48513">
        <ele>1184</ele>
        <time>2019-06-29T09:43:36Z</time>
      </trkpt>
      <trkpt lat="45.99738" lon="6.48504">
        <ele>1185</ele>
        <time>2019-06-29T09:43:40Z</time>
      </trkpt>
      <trkpt lat="45.99736" lon="6.48495">
        <ele>1186</ele>
        <time>2019-06-29T09:43:44Z</time>
      </trkpt>
      <trkpt lat="45.99733" lon="6.48485">
        <ele>1186</ele>
        <time>2019-06-29T09:43:48Z</time>
      </trkpt>
      <trkpt lat="45.99731" lon="6.48475">
        <ele>1187</ele>
        <time>2019-06-29T09:43:52Z</time>
      </trkpt>
      <trkpt lat="45.99729" lon="6.48466">
        <ele>1187</ele>
        <time>2019-06-29T09:43:56Z</time>
      </trkpt>
      <trkpt lat="45.99727" lon="6.48456">
        <ele>1188</ele>
        <time>2019-06-29T09:44:00Z</time>
      </trkpt>
      <trkpt lat="45.99724" lon="6.48446">
        <ele>1189</ele>
        <time>2019-06-29T09:44:04Z</time>
      </trkpt>
      <trkpt lat="45.99722" lon="6.48436">
        <ele>1190</ele>
        <time>2019-06-29T09:44:08Z</time>
      </trkpt>
      <trkpt lat="45.9972" lon="6.48427">
        <ele>1191</ele>
        <time>2019-06-29T09:44:12Z</time>
      </trkpt>
      <trkpt lat="45.99718" lon="6.48418">
        <ele>1192</ele>
        <time>2019-06-29T09:44:16Z</time>
      </trkpt>
      <trkpt lat="45.99715" lon="6.48408">
        <ele>1193</ele>
        <time>2019-06-29T09:44:20Z</time>
      </trkpt>
      <trkpt lat="45.99713" lon="6.48398">
        <ele>1193</ele>
        <time>2019-06-29T09:44:24Z</time>
      </trkpt>
      <trkpt lat="45.9971" lon="6.48389">
        <ele>1194</ele>
        <time>2019-06-29T09:44:28Z</time>
      </trkpt>
      <trkpt lat="45.99706" lon="6.4838">
        <ele>1195</ele>
        <time>2019-06-29T09:44:32Z</time>
      </trkpt>
      <trkpt lat="45.99702" lon="6.48373">
        <ele>1196</ele>
        <time>2019-06-29T09:44:36Z</time>
      </trkpt>
      <trkpt lat="45.99697" lon="6.48365">
        <ele>1196</ele>
        <time>2019-06-29T09:44:40Z</time>
      </trkpt>
      <trkpt lat="45.99692" lon="6.48358">
        <ele>1197</ele>
        <time>2019-06-29T09:44:44Z</time>
      </trkpt>
      <trkpt lat="45.99687" lon="6.48351">
        <ele>1198</ele>
        <time>2019-06-29T09:44:48Z</time>
      </trkpt>
      <trkpt lat="45.99683" lon="6.48342">
        <ele>1199</ele>
        <time>2019-06-29T09:44:52Z</time>
      </trkpt>
      <trkpt lat="45.99679" lon="6.48334">
        <ele>1199</ele>
        <time>2019-06-29T09:44:56Z</time>
      </trkpt>
      <trkpt lat="45.99675" lon="6.48325">
        <ele>1200</ele>
        <time>2019-06-29T09:45:00Z</time>
      </trkpt>
      <trkpt lat="45.99671" lon="6.48318">
        <ele>1200</ele>
        <time>2019-06-29T09:45:04Z</time>
      </trkpt>
      <trkpt lat="45.99669" lon="6.48309">
        <ele>1201</ele>
        <time>2019-06-29T09:45:08Z</time>
      </trkpt>
      <trkpt lat="45.99666" lon="6.48299">
        <ele>1202</ele>
        <time>2019-06-29T09:45:12Z</time>
      </trkpt>
      <trkpt lat="45.99664" lon="6.48289">
        <ele>1203</ele>
        <time>2019-06-29T09:45:16Z</time>
      </trkpt>
      <trkpt lat="45.99661" lon="6.4828">
        <ele>1204</ele>
        <time>2019-06-29T09:45:20Z</time>
      </trkpt>
      <trkpt lat="45.99658" lon="6.48271">
        <ele>1205</ele>
        <time>2019-06-29T09:45:24Z</time>
      </trkpt>
      <trkpt lat="45.99656" lon="6.48261">
        <ele>1206</ele>
        <time>2019-06-29T09:45:28Z</time>
      </trkpt>
      <trkpt lat="45.99652" lon="6.48253">
        <ele>1206</ele>
        <time>2019-06-29T09:45:32Z</time>
      </trkpt>
      <trkpt lat="45.99648" lon="6.48245">
        <ele>1207</ele>
        <time>2019-06-29T09:45:36Z</time>
      </trkpt>
      <trkpt lat="45.99643" lon="6.48236">
        <ele>1209</ele>
        <time>2019-06-29T09:45:40Z</time>
      </trkpt>
      <trkpt lat="45.99638" lon="6.4823">
        <ele>1210</ele>
        <time>2019-06-29T09:45:44Z</time>
      </trkpt>
      <trkpt lat="45.99632" lon="6.48223">
        <ele>1210</ele>
        <time>2019-06-29T09:45:48Z</time>
      </trkpt>
      <trkpt lat="45.99626" lon="6.48217">
        <ele>1211</ele>
        <time>2019-06-29T09:45:52Z</time>
      </trkpt>
      <trkpt lat="45.99619" lon="6.48212">
        <ele>1212</ele>
        <time>2019-06-29T09:45:56Z</time>
      </trkpt>
      <trkpt lat="45.99612" lon="6.4821">
        <ele>1212</ele>
        <time>2019-06-29T09:46:00Z</time>
      </trkpt>
      <trkpt lat="45.99605" lon="6.48205">
        <ele>1214</ele>
        <time>2019-06-29T09:46:04Z</time>
      </trkpt>
      <trkpt lat="45.996" lon="6.482">
        <ele>1214</ele>
        <time>2019-06-29T09:46:08Z</time>
      </trkpt>
      <trkpt lat="45.99595" lon="6.48195">
        <ele>1214</ele>
        <time>2019-06-29T09:46:12Z</time>
      </trkpt>
      <trkpt lat="45.9959" lon="6.48188">
        <ele>1215</ele>
        <time>2019-06-29T09:46:16Z</time>
      </trkpt>
      <trkpt lat="45.99584" lon="6.48182">
        <ele>1216</ele>
        <time>2019-06-29T09:46:20Z</time>
      </trkpt>
      <trkpt lat="45.99579" lon="6.48174">
        <ele>1217</ele>
        <time>2019-06-29T09:46:24Z</time>
      </trkpt>
      <trkpt lat="45.99573" lon="6.48168">
        <ele>1218</ele>
        <time>2019-06-29T09:46:28Z</time>
      </trkpt>
      <trkpt lat="45.99567" lon="6.48162">
        <ele>1218</ele>
        <time>2019-06-29T09:46:32Z</time>
      </trkpt>
      <trkpt lat="45.99562" lon="6.48155">
        <ele>1219</ele>
        <time>2019-06-29T09:46:36Z</time>
      </trkpt>
      <trkpt lat="45.99556" lon="6.48148">
        <ele>1220</ele>
        <time>2019-06-29T09:46:40Z</time>
      </trkpt>
      <trkpt lat="45.9955" lon="6.48143">
        <ele>1221</ele>
        <time>2019-06-29T09:46:44Z</time>
      </trkpt>
      <trkpt lat="45.99544" lon="6.48136">
        <ele>1221</ele>
        <time>2019-06-29T09:46:48Z</time>
      </trkpt>
      <trkpt lat="45.99539" lon="6.4813">
        <ele>1223</ele>
        <time>2019-06-29T09:46:52Z</time>
      </trkpt>
      <trkpt lat="45.99533" lon="6.48123">
        <ele>1224</ele>
        <time>2019-06-29T09:46:56Z</time>
      </trkpt>
      <trkpt lat="45.99528" lon="6.48117">
        <ele>1224</ele>
        <time>2019-06-29T09:47:00Z</time>
      </trkpt>
      <trkpt lat="45.99522" lon="6.48112">
        <ele>1225</ele>
        <time>2019-06-29T09:47:04Z</time>
      </trkpt>
      <trkpt lat="45.99517" lon="6.48105">
        <ele>1225</ele>
        <time>2019-06-29T09:47:08Z</time>
      </trkpt>
      <trkpt lat="45.99511" lon="6.48099">
        <ele>1226</ele>
        <time>2019-06-29T09:47:12Z</time>
      </trkpt>
      <trkpt lat="45.99506" lon="6.48092">
        <ele>1226</ele>
        <time>2019-06-29T09:47:16Z</time>
      </trkpt>
      <trkpt lat="45.99501" lon="6.48085">
        <ele>1227</ele>
        <time>2019-06-29T09:47:20Z</time>
      </trkpt>
      <trkpt lat="45.99497" lon="6.48077">
        <ele>1229</ele>
        <time>2019-06-29T09:47:24Z</time>
      </trkpt>
      <trkpt lat="45.99494" lon="6.48069">
        <ele>1230</ele>
        <time>2019-06-29T09:47:28Z</time>
      </trkpt>
      <trkpt lat="45.99491" lon="6.48059">
        <ele>1230</ele>
        <time>2019-06-29T09:47:32Z</time>
      </trkpt>
      <trkpt lat="45.99488" lon="6.48049">
        <ele>1231</ele>
        <time>2019-06-29T09:47:36Z</time>
      </trkpt>
      <trkpt lat="45.99487" lon="6.48038">
        <ele>1232</ele>
        <time>2019-06-29T09:47:40Z</time>
      </trkpt>
      <trkpt lat="45.99485" lon="6.48028">
        <ele>1233</ele>
        <time>2019-06-29T09:47:44Z</time>
      </trkpt>
      <trkpt lat="45.99482" lon="6.48019">
        <ele>1234</ele>
        <time>2019-06-29T09:47:48Z</time>
      </trkpt>
      <trkpt lat="45.99479" lon="6.48009">
        <ele>1234</ele>
        <time>2019-06-29T09:47:52Z</time>
      </trkpt>
      <trkpt lat="45.99476" lon="6.48">
        <ele>1235</ele>
        <time>2019-06-29T09:47:56Z</time>
      </trkpt>
      <trkpt lat="45.99472" lon="6.47992">
        <ele>1235</ele>
        <time>2019-06-29T09:48:00Z</time>
      </trkpt>
      <trkpt lat="45.99468" lon="6.47983">
        <ele>1236</ele>
        <time>2019-06-29T09:48:04Z</time>
      </trkpt>
      <trkpt lat="45.99464" lon="6.47975">
        <ele>1236</ele>
        <time>2019-06-29T09:48:08Z</time>
      </trkpt>
      <trkpt lat="45.99462" lon="6.47966">
        <ele>1237</ele>
        <time>2019-06-29T09:48:12Z</time>
      </trkpt>
      <trkpt lat="45.99459" lon="6.47957">
        <ele>1238</ele>
        <time>2019-06-29T09:48:16Z</time>
      </trkpt>
      <trkpt lat="45.99456" lon="6.47948">
        <ele>1238</ele>
        <time>2019-06-29T09:48:20Z</time>
      </trkpt>
      <trkpt lat="45.99453" lon="6.47939">
        <ele>1240</ele>
        <time>2019-06-29T09:48:24Z</time>
      </trkpt>
      <trkpt lat="45.99451" lon="6.47929">
        <ele>1240</ele>
        <time>2019-06-29T09:48:28Z</time>
      </trkpt>
      <trkpt lat="45.99448" lon="6.4792">
        <ele>1242</ele>
        <time>2019-06-29T09:48:32Z</time>
      </trkpt>
      <trkpt lat="45.99445" lon="6.47911">
        <ele>1242</ele>
        <time>2019-06-29T09:48:36Z</time>
      </trkpt>
      <trkpt lat="45.99443" lon="6.47901">
        <ele>1243</ele>
        <time>2019-06-29T09:48:40Z</time>
      </trkpt>
      <trkpt lat="45.99441" lon="6.47892">
        <ele>1244</ele>
        <time>2019-06-29T09:48:44Z</time>
      </trkpt>
      <trkpt lat="45.99439" lon="6.47882">
        <ele>1245</ele>
        <time>2019-06-29T09:48:48Z</time>
      </trkpt>
      <trkpt lat="45.99437" lon="6.47873">
        <ele>1245</ele>
        <time>2019-06-29T09:48:52Z</time>
      </trkpt>
      <trkpt lat="45.99435" lon="6.47864">
        <ele>1246</ele>
        <time>2019-06-29T09:48:56Z</time>
      </trkpt>
      <trkpt lat="45.99431" lon="6.47855">
        <ele>1247</ele>
        <time>2019-06-29T09:49:00Z</time>
      </trkpt>
      <trkpt lat="45.99428" lon="6.47846">
        <ele>1248</ele>
        <time>2019-06-29T09:49:04Z</time>
      </trkpt>
      <trkpt lat="45.99424" lon="6.47838">
        <ele>1249</ele>
        <time>2019-06-29T09:49:08Z</time>
      </trkpt>
      <trkpt lat="45.99419" lon="6.47831">
        <ele>1249</ele>
        <time>2019-06-29T09:49:12Z</time>
      </trkpt>
      <trkpt lat="45.99412" lon="6.47826">
        <ele>1250</ele>
        <time>2019-06-29T09:49:16Z</time>
      </trkpt>
      <trkpt lat="45.99406" lon="6.47821">
        <ele>1251</ele>
        <time>2019-06-29T09:49:20Z</time>
      </trkpt>
      <trkpt lat="45.994" lon="6.47815">
        <ele>1252</ele>
        <time>2019-06-29T09:49:24Z</time>
      </trkpt>
      <trkpt lat="45.99392" lon="6.47811">
        <ele>1253</ele>
        <time>2019-06-29T09:49:28Z</time>
      </trkpt>
      <trkpt lat="45.99383" lon="6.4781">
        <ele>1253</ele>
        <time>2019-06-29T09:49:32Z</time>
      </trkpt>
      <trkpt lat="45.9938" lon="6.478">
        <ele>1255</ele>
        <time>2019-06-29T09:49:36Z</time>
      </trkpt>
      <trkpt lat="45.99375" lon="6.47793">
        <ele>1256</ele>
        <time>2019-06-29T09:49:40Z</time>
      </trkpt>
      <trkpt lat="45.9937" lon="6.47787">
        <ele>1256</ele>
        <time>2019-06-29T09:49:44Z</time>
      </trkpt>
      <trkpt lat="45.99364" lon="6.47781">
        <ele>1257</ele>
        <time>2019-06-29T09:49:48Z</time>
      </trkpt>
      <trkpt lat="45.99358" lon="6.47776">
        <ele>1259</ele>
        <time>2019-06-29T09:49:52Z</time>
      </trkpt>
      <trkpt lat="45.99352" lon="6.4777">
        <ele>1259</ele>
        <time>2019-06-29T09:49:56Z</time>
      </trkpt>
      <trkpt lat="45.99346" lon="6.47765">
        <ele>1260</ele>
        <time>2019-06-29T09:50:00Z</time>
      </trkpt>
      <trkpt lat="45.9934" lon="6.47759">
        <ele>1261</ele>
        <time>2019-06-29T09:50:04Z</time>
      </trkpt>
      <trkpt lat="45.99334" lon="6.47754">
        <ele>1261</ele>
        <time>2019-06-29T09:50:08Z</time>
      </trkpt>
      <trkpt lat="45.99328" lon="6.47748">
        <ele>1261</ele>
        <time>2019-06-29T09:50:12Z</time>
      </trkpt>
      <trkpt lat="45.99322" lon="6.47742">
        <ele>1262</ele>
        <time>2019-06-29T09:50:16Z</time>
      </trkpt>
      <trkpt lat="45.99316" lon="6.47738">
        <ele>1263</ele>
        <time>2019-06-29T09:50:20Z</time>
      </trkpt>
      <trkpt lat="45.9931" lon="6.47735">
        <ele>1263</ele>
        <time>2019-06-29T09:50:24Z</time>
      </trkpt>
      <trkpt lat="45.99304" lon="6.47729">
        <ele>1263</ele>
        <time>2019-06-29T09:50:28Z</time>
      </trkpt>
      <trkpt lat="45.99298" lon="6.47724">
        <ele>1264</ele>
        <time>2019-06-29T09:50:32Z</time>
      </trkpt>
      <trkpt lat="45.99293" lon="6.47718">
        <ele>1265</ele>
        <time>2019-06-29T09:50:36Z</time>
      </trkpt>
      <trkpt lat="45.99288" lon="6.4771">
        <ele>1267</ele>
        <time>2019-06-29T09:50:40Z</time>
      </trkpt>
      <trkpt lat="45.99283" lon="6.47703">
        <ele>1267</ele>
        <time>2019-06-29T09:50:44Z</time>
      </trkpt>
      <trkpt lat="45.99278" lon="6.47696">
        <ele>1268</ele>
        <time>2019-06-29T09:50:48Z</time>
      </trkpt>
      <trkpt lat="45.99272" lon="6.47689">
        <ele>1268</ele>
        <time>2019-06-29T09:50:52Z</time>
      </trkpt>
      <trkpt lat="45.99266" lon="6.47681">
        <ele>1270</ele>
        <time>2019-06-29T09:50:56Z</time>
      </trkpt>
      <trkpt lat="45.99261" lon="6.47673">
        <ele>1271</ele>
        <time>2019-06-29T09:51:00Z</time>
      </trkpt>
      <trkpt lat="45.99256" lon="6.47665">
        <ele>1271</ele>
        <time>2019-06-29T09:51:04Z</time>
      </trkpt>
      <trkpt lat="45.99252" lon="6.47655">
        <ele>1272</ele>
        <time>2019-06-29T09:51:08Z</time>
      </trkpt>
      <trkpt lat="45.99248" lon="6.47646">
        <ele>1272</ele>
        <time>2019-06-29T09:51:12Z</time>
      </trkpt>
      <trkpt lat="45.99244" lon="6.47636">
        <ele>1274</ele>
        <time>2019-06-29T09:51:16Z</time>
      </trkpt>
      <trkpt lat="45.99242" lon="6.47626">
        <ele>1274</ele>
        <time>2019-06-29T09:51:20Z</time>
      </trkpt>
      <trkpt lat="45.99239" lon="6.47616">
        <ele>1275</ele>
        <time>2019-06-29T09:51:24Z</time>
      </trkpt>
      <trkpt lat="45.99236" lon="6.47606">
        <ele>1277</ele>
        <time>2019-06-29T09:51:28Z</time>
      </trkpt>
      <trkpt lat="45.99233" lon="6.47596">
        <ele>1277</ele>
        <time>2019-06-29T09:51:32Z</time>
      </trkpt>
      <trkpt lat="45.99229" lon="6.47585">
        <ele>1278</ele>
        <time>2019-06-29T09:51:36Z</time>
      </trkpt>
      <trkpt lat="45.99226" lon="6.47574">
        <ele>1278</ele>
        <time>2019-06-29T09:51:40Z</time>
      </trkpt>
      <trkpt lat="45.99223" lon="6.47562">
        <ele>1277</ele>
        <time>2019-06-29T09:51:44Z</time>
      </trkpt>
      <trkpt lat="45.99221" lon="6.47551">
        <ele>1278</ele>
        <time>2019-06-29T09:51:48Z</time>
      </trkpt>
      <trkpt lat="45.99218" lon="6.47548">
        <ele>1279</ele>
        <time>2019-06-29T09:52:24Z</time>
      </trkpt>
      <trkpt lat="45.9922" lon="6.47546">
        <ele>1278</ele>
        <time>2019-06-29T09:52:28Z</time>
      </trkpt>
      <trkpt lat="45.99225" lon="6.47547">
        <ele>1278</ele>
        <time>2019-06-29T09:54:52Z</time>
      </trkpt>
      <trkpt lat="45.99223" lon="6.47545">
        <ele>1278</ele>
        <time>2019-06-29T09:55:00Z</time>
      </trkpt>
      <trkpt lat="45.99217" lon="6.47537">
        <ele>1277</ele>
        <time>2019-06-29T09:55:04Z</time>
      </trkpt>
      <trkpt lat="45.99212" lon="6.47522">
        <ele>1275</ele>
        <time>2019-06-29T09:55:08Z</time>
      </trkpt>
      <trkpt lat="45.99203" lon="6.47498">
        <ele>1272</ele>
        <time>2019-06-29T09:55:12Z</time>
      </trkpt>
      <trkpt lat="45.9919" lon="6.47461">
        <ele>1268</ele>
        <time>2019-06-29T09:55:16Z</time>
      </trkpt>
      <trkpt lat="45.9918" lon="6.47414">
        <ele>1264</ele>
        <time>2019-06-29T09:55:20Z</time>
      </trkpt>
      <trkpt lat="45.99164" lon="6.47359">
        <ele>1256</ele>
        <time>2019-06-29T09:55:24Z</time>
      </trkpt>
      <trkpt lat="45.99142" lon="6.47301">
        <ele>1254</ele>
        <time>2019-06-29T09:55:28Z</time>
      </trkpt>
      <trkpt lat="45.99115" lon="6.4724">
        <ele>1246</ele>
        <time>2019-06-29T09:55:32Z</time>
      </trkpt>
      <trkpt lat="45.9909" lon="6.47182">
        <ele>1241</ele>
        <time>2019-06-29T09:55:36Z</time>
      </trkpt>
      <trkpt lat="45.99071" lon="6.4712">
        <ele>1238</ele>
        <time>2019-06-29T09:55:40Z</time>
      </trkpt>
      <trkpt lat="45.99053" lon="6.47051">
        <ele>1231</ele>
        <time>2019-06-29T09:55:44Z</time>
      </trkpt>
      <trkpt lat="45.99038" lon="6.46994">
        <ele>1231</ele>
        <time>2019-06-29T09:55:48Z</time>
      </trkpt>
      <trkpt lat="45.9902" lon="6.46964">
        <ele>1232</ele>
        <time>2019-06-29T09:55:52Z</time>
      </trkpt>
      <trkpt lat="45.99009" lon="6.46965">
        <ele>1233</ele>
        <time>2019-06-29T09:55:56Z</time>
      </trkpt>
      <trkpt lat="45.99009" lon="6.46968">
        <ele>1232</ele>
        <time>2019-06-29T09:57:36Z</time>
      </trkpt>
      <trkpt lat="45.99001" lon="6.46981">
        <ele>1231</ele>
        <time>2019-06-29T09:57:40Z</time>
      </trkpt>
      <trkpt lat="45.99003" lon="6.47009">
        <ele>1230</ele>
        <time>2019-06-29T09:57:44Z</time>
      </trkpt>
      <trkpt lat="45.99012" lon="6.47042">
        <ele>1227</ele>
        <time>2019-06-29T09:57:48Z</time>
      </trkpt>
      <trkpt lat="45.99024" lon="6.47083">
        <ele>1224</ele>
        <time>2019-06-29T09:57:52Z</time>
      </trkpt>
      <trkpt lat="45.99034" lon="6.47126">
        <ele>1223</ele>
        <time>2019-06-29T09:57:56Z</time>
      </trkpt>
      <trkpt lat="45.99016" lon="6.47149">
        <ele>1221</ele>
        <time>2019-06-29T09:58:00Z</time>
      </trkpt>
      <trkpt lat="45.98996" lon="6.47115">
        <ele>1215</ele>
        <time>2019-06-29T09:58:04Z</time>
      </trkpt>
      <trkpt lat="45.98982" lon="6.47064">
        <ele>1212</ele>
        <time>2019-06-29T09:58:08Z</time>
      </trkpt>
      <trkpt lat="45.98968" lon="6.47005">
        <ele>1204</ele>
        <time>2019-06-29T09:58:12Z</time>
      </trkpt>
      <trkpt lat="45.98958" lon="6.46938">
        <ele>1201</ele>
        <time>2019-06-29T09:58:16Z</time>
      </trkpt>
      <trkpt lat="45.98946" lon="6.46869">
        <ele>1198</ele>
        <time>2019-06-29T09:58:20Z</time>
      </trkpt>
      <trkpt lat="45.98935" lon="6.46816">
        <ele>1199</ele>
        <time>2019-06-29T09:58:24Z</time>
      </trkpt>
      <trkpt lat="45.98911" lon="6.46809">
        <ele>1200</ele>
        <time>2019-06-29T09:58:28Z</time>
      </trkpt>
      <trkpt lat="45.98908" lon="6.46849">
        <ele>1196</ele>
        <time>2019-06-29T09:58:32Z</time>
      </trkpt>
      <trkpt lat="45.98922" lon="6.46898">
        <ele>1192</ele>
        <time>2019-06-29T09:58:36Z</time>
      </trkpt>
      <trkpt lat="45.98925" lon="6.46958">
        <ele>1188</ele>
        <time>2019-06-29T09:58:40Z</time>
      </trkpt>
      <trkpt lat="45.98911" lon="6.47019">
        <ele>1185</ele>
        <time>2019-06-29T09:58:44Z</time>
      </trkpt>
      <trkpt lat="45.98877" lon="6.47065">
        <ele>1181</ele>
        <time>2019-06-29T09:58:48Z</time>
      </trkpt>
      <trkpt lat="45.98831" lon="6.47082">
        <ele>1175</ele>
        <time>2019-06-29T09:58:52Z</time>
      </trkpt>
      <trkpt lat="45.98786" lon="6.47066">
        <ele>1173</ele>
        <time>2019-06-29T09:58:56Z</time>
      </trkpt>
      <trkpt lat="45.9875" lon="6.47021">
        <ele>1168</ele>
        <time>2019-06-29T09:59:00Z</time>
      </trkpt>
      <trkpt lat="45.98722" lon="6.46962">
        <ele>1163</ele>
        <time>2019-06-29T09:59:04Z</time>
      </trkpt>
      <trkpt lat="45.98695" lon="6.469">
        <ele>1160</ele>
        <time>2019-06-29T09:59:08Z</time>
      </trkpt>
      <trkpt lat="45.98668" lon="6.46836">
        <ele>1156</ele>
        <time>2019-06-29T09:59:12Z</time>
      </trkpt>
      <trkpt lat="45.98642" lon="6.46772">
        <ele>1151</ele>
        <time>2019-06-29T09:59:16Z</time>
      </trkpt>
      <trkpt lat="45.98614" lon="6.4671">
        <ele>1147</ele>
        <time>2019-06-29T09:59:20Z</time>
      </trkpt>
      <trkpt lat="45.98578" lon="6.46654">
        <ele>1143</ele>
        <time>2019-06-29T09:59:24Z</time>
      </trkpt>
      <trkpt lat="45.98533" lon="6.46614">
        <ele>1139</ele>
        <time>2019-06-29T09:59:28Z</time>
      </trkpt>
      <trkpt lat="45.98483" lon="6.46591">
        <ele>1133</ele>
        <time>2019-06-29T09:59:32Z</time>
      </trkpt>
      <trkpt lat="45.9843" lon="6.46573">
        <ele>1130</ele>
        <time>2019-06-29T09:59:36Z</time>
      </trkpt>
      <trkpt lat="45.98377" lon="6.46554">
        <ele>1125</ele>
        <time>2019-06-29T09:59:40Z</time>
      </trkpt>
      <trkpt lat="45.98323" lon="6.46535">
        <ele>1118</ele>
        <time>2019-06-29T09:59:44Z</time>
      </trkpt>
      <trkpt lat="45.98268" lon="6.46531">
        <ele>1115</ele>
        <time>2019-06-29T09:59:48Z</time>
      </trkpt>
      <trkpt lat="45.98215" lon="6.46546">
        <ele>1107</ele>
        <time>2019-06-29T09:59:52Z</time>
      </trkpt>
      <trkpt lat="45.98162" lon="6.4656">
        <ele>1105</ele>
        <time>2019-06-29T09:59:56Z</time>
      </trkpt>
      <trkpt lat="45.98109" lon="6.46573">
        <ele>1102</ele>
        <time>2019-06-29T10:00:00Z</time>
      </trkpt>
      <trkpt lat="45.98055" lon="6.46587">
        <ele>1097</ele>
        <time>2019-06-29T10:00:04Z</time>
      </trkpt>
      <trkpt lat="45.98004" lon="6.46615">
        <ele>1093</ele>
        <time>2019-06-29T10:00:08Z</time>
      </trkpt>
      <trkpt lat="45.97958" lon="6.46658">
        <ele>1088</ele>
        <time>2019-06-29T10:00:12Z</time>
      </trkpt>
      <trkpt lat="45.97911" lon="6.46702">
        <ele>1086</ele>
        <time>2019-06-29T10:00:16Z</time>
      </trkpt>
      <trkpt lat="45.97878" lon="6.46761">
        <ele>1081</ele>
        <time>2019-06-29T10:00:20Z</time>
      </trkpt>
      <trkpt lat="45.97851" lon="6.46828">
        <ele>1078</ele>
        <time>2019-06-29T10:00:24Z</time>
      </trkpt>
      <trkpt lat="45.97809" lon="6.46873">
        <ele>1074</ele>
        <time>2019-06-29T10:00:28Z</time>
      </trkpt>
      <trkpt lat="45.9776" lon="6.46898">
        <ele>1073</ele>
        <time>2019-06-29T10:00:32Z</time>
      </trkpt>
      <trkpt lat="45.97719" lon="6.46938">
        <ele>1070</ele>
        <time>2019-06-29T10:00:36Z</time>
      </trkpt>
      <trkpt lat="45.97687" lon="6.4699">
        <ele>1071</ele>
        <time>2019-06-29T10:00:40Z</time>
      </trkpt>
      <trkpt lat="45.9766" lon="6.47005">
        <ele>1071</ele>
        <time>2019-06-29T10:00:44Z</time>
      </trkpt>
      <trkpt lat="45.97658" lon="6.46964">
        <ele>1067</ele>
        <time>2019-06-29T10:00:48Z</time>
      </trkpt>
      <trkpt lat="45.97676" lon="6.46916">
        <ele>1063</ele>
        <time>2019-06-29T10:00:52Z</time>
      </trkpt>
      <trkpt lat="45.97698" lon="6.46861">
        <ele>1058</ele>
        <time>2019-06-29T10:00:56Z</time>
      </trkpt>
      <trkpt lat="45.97723" lon="6.46801">
        <ele>1052</ele>
        <time>2019-06-29T10:01:00Z</time>
      </trkpt>
      <trkpt lat="45.97746" lon="6.46737">
        <ele>1047</ele>
        <time>2019-06-29T10:01:04Z</time>
      </trkpt>
      <trkpt lat="45.97764" lon="6.46668">
        <ele>1045</ele>
        <time>2019-06-29T10:01:08Z</time>
      </trkpt>
      <trkpt lat="45.9778" lon="6.46598">
        <ele>1040</ele>
        <time>2019-06-29T10:01:12Z</time>
      </trkpt>
      <trkpt lat="45.97796" lon="6.46529">
        <ele>1037</ele>
        <time>2019-06-29T10:01:16Z</time>
      </trkpt>
      <trkpt lat="45.97812" lon="6.46458">
        <ele>1033</ele>
        <time>2019-06-29T10:01:20Z</time>
      </trkpt>
      <trkpt lat="45.97829" lon="6.46386">
        <ele>1030</ele>
        <time>2019-06-29T10:01:24Z</time>
      </trkpt>
      <trkpt lat="45.97845" lon="6.46316">
        <ele>1030</ele>
        <time>2019-06-29T10:01:28Z</time>
      </trkpt>
      <trkpt lat="45.97854" lon="6.46262">
        <ele>1031</ele>
        <time>2019-06-29T10:01:32Z</time>
      </trkpt>
      <trkpt lat="45.97828" lon="6.46247">
        <ele>1028</ele>
        <time>2019-06-29T10:01:36Z</time>
      </trkpt>
      <trkpt lat="45.97807" lon="6.46288">
        <ele>1026</ele>
        <time>2019-06-29T10:01:40Z</time>
      </trkpt>
      <trkpt lat="45.97787" lon="6.46336">
        <ele>1023</ele>
        <time>2019-06-29T10:01:44Z</time>
      </trkpt>
      <trkpt lat="45.97756" lon="6.46378">
        <ele>1020</ele>
        <time>2019-06-29T10:01:48Z</time>
      </trkpt>
      <trkpt lat="45.97721" lon="6.46419">
        <ele>1016</ele>
        <time>2019-06-29T10:01:52Z</time>
      </trkpt>
      <trkpt lat="45.97683" lon="6.46463">
        <ele>1010</ele>
        <time>2019-06-29T10:01:56Z</time>
      </trkpt>
      <trkpt lat="45.97649" lon="6.46504">
        <ele>1012</ele>
        <time>2019-06-29T10:02:00Z</time>
      </trkpt>
      <trkpt lat="45.97622" lon="6.46506">
        <ele>1009</ele>
        <time>2019-06-29T10:02:04Z</time>
      </trkpt>
      <trkpt lat="45.97619" lon="6.46459">
        <ele>1006</ele>
        <time>2019-06-29T10:02:08Z</time>
      </trkpt>
      <trkpt lat="45.97625" lon="6.46401">
        <ele>1000</ele>
        <time>2019-06-29T10:02:12Z</time>
      </trkpt>
      <trkpt lat="45.97631" lon="6.46335">
        <ele>995</ele>
        <time>2019-06-29T10:02:16Z</time>
      </trkpt>
      <trkpt lat="45.97637" lon="6.46265">
        <ele>991</ele>
        <time>2019-06-29T10:02:20Z</time>
      </trkpt>
      <trkpt lat="45.97636" lon="6.46191">
        <ele>985</ele>
        <time>2019-06-29T10:02:24Z</time>
      </trkpt>
      <trkpt lat="45.97633" lon="6.46118">
        <ele>983</ele>
        <time>2019-06-29T10:02:28Z</time>
      </trkpt>
      <trkpt lat="45.97629" lon="6.46049">
        <ele>982</ele>
        <time>2019-06-29T10:02:32Z</time>
      </trkpt>
      <trkpt lat="45.9761" lon="6.45992">
        <ele>980</ele>
        <time>2019-06-29T10:02:36Z</time>
      </trkpt>
      <trkpt lat="45.9758" lon="6.45953">
        <ele>980</ele>
        <time>2019-06-29T10:02:40Z</time>
      </trkpt>
      <trkpt lat="45.97553" lon="6.45911">
        <ele>980</ele>
        <time>2019-06-29T10:02:44Z</time>
      </trkpt>
      <trkpt lat="45.97535" lon="6.45875">
        <ele>982</ele>
        <time>2019-06-29T10:02:48Z</time>
      </trkpt>
      <trkpt lat="45.97516" lon="6.45847">
        <ele>983</ele>
        <time>2019-06-29T10:02:52Z</time>
      </trkpt>
      <trkpt lat="45.975" lon="6.45816">
        <ele>983</ele>
        <time>2019-06-29T10:02:56Z</time>
      </trkpt>
      <trkpt lat="45.97483" lon="6.45781">
        <ele>981</ele>
        <time>2019-06-29T10:03:00Z</time>
      </trkpt>
      <trkpt lat="45.97464" lon="6.45744">
        <ele>978</ele>
        <time>2019-06-29T10:03:04Z</time>
      </trkpt>
      <trkpt lat="45.97446" lon="6.45701">
        <ele>975</ele>
        <time>2019-06-29T10:03:08Z</time>
      </trkpt>
      <trkpt lat="45.9743" lon="6.45656">
        <ele>973</ele>
        <time>2019-06-29T10:03:12Z</time>
      </trkpt>
      <trkpt lat="45.97415" lon="6.45608">
        <ele>971</ele>
        <time>2019-06-29T10:03:16Z</time>
      </trkpt>
      <trkpt lat="45.974" lon="6.45561">
        <ele>970</ele>
        <time>2019-06-29T10:03:20Z</time>
      </trkpt>
      <trkpt lat="45.97388" lon="6.45515">
        <ele>968</ele>
        <time>2019-06-29T10:03:24Z</time>
      </trkpt>
      <trkpt lat="45.97383" lon="6.45466">
        <ele>967</ele>
        <time>2019-06-29T10:03:28Z</time>
      </trkpt>
      <trkpt lat="45.97375" lon="6.45419">
        <ele>966</ele>
        <time>2019-06-29T10:03:32Z</time>
      </trkpt>
      <trkpt lat="45.97363" lon="6.45376">
        <ele>966</ele>
        <time>2019-06-29T10:03:36Z</time>
      </trkpt>
      <trkpt lat="45.9735" lon="6.45333">
        <ele>963</ele>
        <time>2019-06-29T10:03:40Z</time>
      </trkpt>
      <trkpt lat="45.97341" lon="6.45282">
        <ele>961</ele>
        <time>2019-06-29T10:03:44Z</time>
      </trkpt>
      <trkpt lat="45.97333" lon="6.45228">
        <ele>959</ele>
        <time>2019-06-29T10:03:48Z</time>
      </trkpt>
      <trkpt lat="45.97315" lon="6.45174">
        <ele>953</ele>
        <time>2019-06-29T10:03:52Z</time>
      </trkpt>
      <trkpt lat="45.97295" lon="6.45118">
        <ele>949</ele>
        <time>2019-06-29T10:03:56Z</time>
      </trkpt>
      <trkpt lat="45.97269" lon="6.45066">
        <ele>948</ele>
        <time>2019-06-29T10:04:00Z</time>
      </trkpt>
      <trkpt lat="45.97244" lon="6.45013">
        <ele>947</ele>
        <time>2019-06-29T10:04:04Z</time>
      </trkpt>
      <trkpt lat="45.97213" lon="6.44975">
        <ele>946</ele>
        <time>2019-06-29T10:04:08Z</time>
      </trkpt>
      <trkpt lat="45.97177" lon="6.44952">
        <ele>946</ele>
        <time>2019-06-29T10:04:12Z</time>
      </trkpt>
      <trkpt lat="45.97144" lon="6.44932">
        <ele>947</ele>
        <time>2019-06-29T10:04:16Z</time>
      </trkpt>
      <trkpt lat="45.97112" lon="6.44914">
        <ele>947</ele>
        <time>2019-06-29T10:04:20Z</time>
      </trkpt>
      <trkpt lat="45.97081" lon="6.44895">
        <ele>947</ele>
        <time>2019-06-29T10:04:24Z</time>
      </trkpt>
      <trkpt lat="45.97051" lon="6.44876">
        <ele>947</ele>
        <time>2019-06-29T10:04:28Z</time>
      </trkpt>
      <trkpt lat="45.9702" lon="6.44858">
        <ele>945</ele>
        <time>2019-06-29T10:04:32Z</time>
      </trkpt>
      <trkpt lat="45.96987" lon="6.44839">
        <ele>945</ele>
        <time>2019-06-29T10:04:36Z</time>
      </trkpt>
      <trkpt lat="45.96953" lon="6.44817">
        <ele>942</ele>
        <time>2019-06-29T10:04:40Z</time>
      </trkpt>
      <trkpt lat="45.9692" lon="6.44787">
        <ele>939</ele>
        <time>2019-06-29T10:04:44Z</time>
      </trkpt>
      <trkpt lat="45.96888" lon="6.44745">
        <ele>934</ele>
        <time>2019-06-29T10:04:48Z</time>
      </trkpt>
      <trkpt lat="45.96853" lon="6.44698">
        <ele>926</ele>
        <time>2019-06-29T10:04:52Z</time>
      </trkpt>
      <trkpt lat="45.96825" lon="6.44637">
        <ele>921</ele>
        <time>2019-06-29T10:04:56Z</time>
      </trkpt>
      <trkpt lat="45.96809" lon="6.44566">
        <ele>917</ele>
        <time>2019-06-29T10:05:00Z</time>
      </trkpt>
      <trkpt lat="45.96795" lon="6.44493">
        <ele>912</ele>
        <time>2019-06-29T10:05:04Z</time>
      </trkpt>
      <trkpt lat="45.96777" lon="6.4442">
        <ele>908</ele>
        <time>2019-06-29T10:05:08Z</time>
      </trkpt>
      <trkpt lat="45.96745" lon="6.44363">
        <ele>905</ele>
        <time>2019-06-29T10:05:12Z</time>
      </trkpt>
      <trkpt lat="45.96707" lon="6.44314">
        <ele>903</ele>
        <time>2019-06-29T10:05:16Z</time>
      </trkpt>
      <trkpt lat="45.96671" lon="6.44267">
        <ele>901</ele>
        <time>2019-06-29T10:05:20Z</time>
      </trkpt>
      <trkpt lat="45.96641" lon="6.44218">
        <ele>903</ele>
        <time>2019-06-29T10:05:24Z</time>
      </trkpt>
      <trkpt lat="45.96619" lon="6.44166">
        <ele>904</ele>
        <time>2019-06-29T10:05:28Z</time>
      </trkpt>
      <trkpt lat="45.96599" lon="6.44117">
        <ele>904</ele>
        <time>2019-06-29T10:05:32Z</time>
      </trkpt>
      <trkpt lat="45.96581" lon="6.4407">
        <ele>904</ele>
        <time>2019-06-29T10:05:36Z</time>
      </trkpt>
      <trkpt lat="45.96563" lon="6.44025">
        <ele>904</ele>
        <time>2019-06-29T10:05:40Z</time>
      </trkpt>
      <trkpt lat="45.96547" lon="6.43981">
        <ele>904</ele>
        <time>2019-06-29T10:05:44Z</time>
      </trkpt>
      <trkpt lat="45.96531" lon="6.43942">
        <ele>904</ele>
        <time>2019-06-29T10:05:48Z</time>
      </trkpt>
      <trkpt lat="45.96516" lon="6.43904">
        <ele>903</ele>
        <time>2019-06-29T10:05:52Z</time>
      </trkpt>
      <trkpt lat="45.96498" lon="6.43866">
        <ele>901</ele>
        <time>2019-06-29T10:05:56Z</time>
      </trkpt>
      <trkpt lat="45.96473" lon="6.43827">
        <ele>899</ele>
        <time>2019-06-29T10:06:00Z</time>
      </trkpt>
      <trkpt lat="45.96447" lon="6.43786">
        <ele>898</ele>
        <time>2019-06-29T10:06:04Z</time>
      </trkpt>
      <trkpt lat="45.96419" lon="6.43745">
        <ele>896</ele>
        <time>2019-06-29T10:06:08Z</time>
      </trkpt>
      <trkpt lat="45.96393" lon="6.43706">
        <ele>896</ele>
        <time>2019-06-29T10:06:12Z</time>
      </trkpt>
      <trkpt lat="45.96365" lon="6.43676">
        <ele>897</ele>
        <time>2019-06-29T10:06:16Z</time>
      </trkpt>
      <trkpt lat="45.96334" lon="6.43657">
        <ele>898</ele>
        <time>2019-06-29T10:06:20Z</time>
      </trkpt>
      <trkpt lat="45.96303" lon="6.43636">
        <ele>897</ele>
        <time>2019-06-29T10:06:24Z</time>
      </trkpt>
      <trkpt lat="45.96275" lon="6.43608">
        <ele>897</ele>
        <time>2019-06-29T10:06:28Z</time>
      </trkpt>
      <trkpt lat="45.96258" lon="6.43564">
        <ele>894</ele>
        <time>2019-06-29T10:06:32Z</time>
      </trkpt>
      <trkpt lat="45.96232" lon="6.43532">
        <ele>892</ele>
        <time>2019-06-29T10:06:36Z</time>
      </trkpt>
      <trkpt lat="45.96198" lon="6.43502">
        <ele>889</ele>
        <time>2019-06-29T10:06:40Z</time>
      </trkpt>
      <trkpt lat="45.96161" lon="6.43479">
        <ele>887</ele>
        <time>2019-06-29T10:06:44Z</time>
      </trkpt>
      <trkpt lat="45.96132" lon="6.43492">
        <ele>887</ele>
        <time>2019-06-29T10:06:48Z</time>
      </trkpt>
      <trkpt lat="45.9612" lon="6.43523">
        <ele>884</ele>
        <time>2019-06-29T10:06:52Z</time>
      </trkpt>
      <trkpt lat="45.96103" lon="6.43562">
        <ele>882</ele>
        <time>2019-06-29T10:06:56Z</time>
      </trkpt>
      <trkpt lat="45.96091" lon="6.4361">
        <ele>879</ele>
        <time>2019-06-29T10:07:00Z</time>
      </trkpt>
      <trkpt lat="45.96073" lon="6.4366">
        <ele>874</ele>
        <time>2019-06-29T10:07:04Z</time>
      </trkpt>
      <trkpt lat="45.96041" lon="6.43696">
        <ele>871</ele>
        <time>2019-06-29T10:07:08Z</time>
      </trkpt>
      <trkpt lat="45.96004" lon="6.43726">
        <ele>868</ele>
        <time>2019-06-29T10:07:12Z</time>
      </trkpt>
      <trkpt lat="45.95964" lon="6.43749">
        <ele>866</ele>
        <time>2019-06-29T10:07:16Z</time>
      </trkpt>
      <trkpt lat="45.95919" lon="6.43762">
        <ele>862</ele>
        <time>2019-06-29T10:07:20Z</time>
      </trkpt>
      <trkpt lat="45.95875" lon="6.43774">
        <ele>860</ele>
        <time>2019-06-29T10:07:24Z</time>
      </trkpt>
      <trkpt lat="45.95829" lon="6.43786">
        <ele>856</ele>
        <time>2019-06-29T10:07:28Z</time>
      </trkpt>
      <trkpt lat="45.95782" lon="6.43795">
        <ele>852</ele>
        <time>2019-06-29T10:07:32Z</time>
      </trkpt>
      <trkpt lat="45.95736" lon="6.43792">
        <ele>850</ele>
        <time>2019-06-29T10:07:36Z</time>
      </trkpt>
      <trkpt lat="45.95692" lon="6.43779">
        <ele>848</ele>
        <time>2019-06-29T10:07:40Z</time>
      </trkpt>
      <trkpt lat="45.95646" lon="6.43762">
        <ele>846</ele>
        <time>2019-06-29T10:07:44Z</time>
      </trkpt>
      <trkpt lat="45.95601" lon="6.43744">
        <ele>842</ele>
        <time>2019-06-29T10:07:48Z</time>
      </trkpt>
      <trkpt lat="45.95556" lon="6.43727">
        <ele>841</ele>
        <time>2019-06-29T10:07:52Z</time>
      </trkpt>
      <trkpt lat="45.95524" lon="6.43727">
        <ele>843</ele>
        <time>2019-06-29T10:07:56Z</time>
      </trkpt>
      <trkpt lat="45.95523" lon="6.43764">
        <ele>841</ele>
        <time>2019-06-29T10:08:00Z</time>
      </trkpt>
      <trkpt lat="45.95553" lon="6.43784">
        <ele>839</ele>
        <time>2019-06-29T10:08:04Z</time>
      </trkpt>
      <trkpt lat="45.95585" lon="6.43805">
        <ele>836</ele>
        <time>2019-06-29T10:08:08Z</time>
      </trkpt>
      <trkpt lat="45.95616" lon="6.43837">
        <ele>834</ele>
        <time>2019-06-29T10:08:12Z</time>
      </trkpt>
      <trkpt lat="45.95642" lon="6.4388">
        <ele>830</ele>
        <time>2019-06-29T10:08:16Z</time>
      </trkpt>
      <trkpt lat="45.95666" lon="6.43931">
        <ele>828</ele>
        <time>2019-06-29T10:08:20Z</time>
      </trkpt>
      <trkpt lat="45.95672" lon="6.43971">
        <ele>829</ele>
        <time>2019-06-29T10:08:24Z</time>
      </trkpt>
      <trkpt lat="45.95647" lon="6.43973">
        <ele>826</ele>
        <time>2019-06-29T10:08:28Z</time>
      </trkpt>
      <trkpt lat="45.95625" lon="6.43936">
        <ele>823</ele>
        <time>2019-06-29T10:08:32Z</time>
      </trkpt>
      <trkpt lat="45.95597" lon="6.43903">
        <ele>819</ele>
        <time>2019-06-29T10:08:36Z</time>
      </trkpt>
      <trkpt lat="45.95559" lon="6.43886">
        <ele>815</ele>
        <time>2019-06-29T10:08:40Z</time>
      </trkpt>
      <trkpt lat="45.95518" lon="6.43867">
        <ele>812</ele>
        <time>2019-06-29T10:08:44Z</time>
      </trkpt>
      <trkpt lat="45.95481" lon="6.43838">
        <ele>811</ele>
        <time>2019-06-29T10:08:48Z</time>
      </trkpt>
      <trkpt lat="45.95458" lon="6.43799">
        <ele>813</ele>
        <time>2019-06-29T10:08:52Z</time>
      </trkpt>
      <trkpt lat="45.95436" lon="6.43808">
        <ele>811</ele>
        <time>2019-06-29T10:08:56Z</time>
      </trkpt>
      <trkpt lat="45.95452" lon="6.43844">
        <ele>807</ele>
        <time>2019-06-29T10:09:00Z</time>
      </trkpt>
      <trkpt lat="45.95478" lon="6.43877">
        <ele>804</ele>
        <time>2019-06-29T10:09:04Z</time>
      </trkpt>
      <trkpt lat="45.95505" lon="6.43918">
        <ele>801</ele>
        <time>2019-06-29T10:09:08Z</time>
      </trkpt>
      <trkpt lat="45.95519" lon="6.43971">
        <ele>800</ele>
        <time>2019-06-29T10:09:12Z</time>
      </trkpt>
      <trkpt lat="45.95516" lon="6.44009">
        <ele>799</ele>
        <time>2019-06-29T10:09:16Z</time>
      </trkpt>
      <trkpt lat="45.95495" lon="6.43988">
        <ele>795</ele>
        <time>2019-06-29T10:09:20Z</time>
      </trkpt>
      <trkpt lat="45.95481" lon="6.43947">
        <ele>793</ele>
        <time>2019-06-29T10:09:24Z</time>
      </trkpt>
      <trkpt lat="45.95454" lon="6.43917">
        <ele>791</ele>
        <time>2019-06-29T10:09:28Z</time>
      </trkpt>
      <trkpt lat="45.95422" lon="6.43887">
        <ele>786</ele>
        <time>2019-06-29T10:09:32Z</time>
      </trkpt>
      <trkpt lat="45.95388" lon="6.43856">
        <ele>784</ele>
        <time>2019-06-29T10:09:36Z</time>
      </trkpt>
      <trkpt lat="45.95356" lon="6.43816">
        <ele>779</ele>
        <time>2019-06-29T10:09:40Z</time>
      </trkpt>
      <trkpt lat="45.95327" lon="6.43769">
        <ele>778</ele>
        <time>2019-06-29T10:09:44Z</time>
      </trkpt>
      <trkpt lat="45.95291" lon="6.43733">
        <ele>775</ele>
        <time>2019-06-29T10:09:48Z</time>
      </trkpt>
      <trkpt lat="45.95247" lon="6.43712">
        <ele>769</ele>
        <time>2019-06-29T10:09:52Z</time>
      </trkpt>
      <trkpt lat="45.95201" lon="6.43692">
        <ele>767</ele>
        <time>2019-06-29T10:09:56Z</time>
      </trkpt>
      <trkpt lat="45.95156" lon="6.43668">
        <ele>762</ele>
        <time>2019-06-29T10:10:00Z</time>
      </trkpt>
      <trkpt lat="45.95112" lon="6.43639">
        <ele>760</ele>
        <time>2019-06-29T10:10:04Z</time>
      </trkpt>
      <trkpt lat="45.9507" lon="6.43607">
        <ele>757</ele>
        <time>2019-06-29T10:10:08Z</time>
      </trkpt>
      <trkpt lat="45.95026" lon="6.43578">
        <ele>753</ele>
        <time>2019-06-29T10:10:12Z</time>
      </trkpt>
      <trkpt lat="45.94987" lon="6.43535">
        <ele>750</ele>
        <time>2019-06-29T10:10:16Z</time>
      </trkpt>
      <trkpt lat="45.94945" lon="6.43504">
        <ele>746</ele>
        <time>2019-06-29T10:10:20Z</time>
      </trkpt>
      <trkpt lat="45.94899" lon="6.43479">
        <ele>742</ele>
        <time>2019-06-29T10:10:24Z</time>
      </trkpt>
      <trkpt lat="45.94859" lon="6.43435">
        <ele>738</ele>
        <time>2019-06-29T10:10:28Z</time>
      </trkpt>
      <trkpt lat="45.94819" lon="6.43393">
        <ele>735</ele>
        <time>2019-06-29T10:10:32Z</time>
      </trkpt>
      <trkpt lat="45.94779" lon="6.43349">
        <ele>732</ele>
        <time>2019-06-29T10:10:36Z</time>
      </trkpt>
      <trkpt lat="45.9474" lon="6.43306">
        <ele>728</ele>
        <time>2019-06-29T10:10:40Z</time>
      </trkpt>
      <trkpt lat="45.94701" lon="6.43264">
        <ele>727</ele>
        <time>2019-06-29T10:10:44Z</time>
      </trkpt>
      <trkpt lat="45.94665" lon="6.4322">
        <ele>724</ele>
        <time>2019-06-29T10:10:48Z</time>
      </trkpt>
      <trkpt lat="45.94637" lon="6.43164">
        <ele>722</ele>
        <time>2019-06-29T10:10:52Z</time>
      </trkpt>
      <trkpt lat="45.94614" lon="6.43112">
        <ele>723</ele>
        <time>2019-06-29T10:10:56Z</time>
      </trkpt>
      <trkpt lat="45.9461" lon="6.43056">
        <ele>723</ele>
        <time>2019-06-29T10:11:00Z</time>
      </trkpt>
      <trkpt lat="45.94596" lon="6.43021">
        <ele>724</ele>
        <time>2019-06-29T10:11:04Z</time>
      </trkpt>
      <trkpt lat="45.9458" lon="6.43045">
        <ele>721</ele>
        <time>2019-06-29T10:11:08Z</time>
      </trkpt>
      <trkpt lat="45.94589" lon="6.43091">
        <ele>718</ele>
        <time>2019-06-29T10:11:12Z</time>
      </trkpt>
      <trkpt lat="45.94601" lon="6.43143">
        <ele>716</ele>
        <time>2019-06-29T10:11:16Z</time>
      </trkpt>
      <trkpt lat="45.94615" lon="6.43198">
        <ele>713</ele>
        <time>2019-06-29T10:11:20Z</time>
      </trkpt>
      <trkpt lat="45.94631" lon="6.43253">
        <ele>711</ele>
        <time>2019-06-29T10:11:24Z</time>
      </trkpt>
      <trkpt lat="45.9465" lon="6.43307">
        <ele>709</ele>
        <time>2019-06-29T10:11:28Z</time>
      </trkpt>
      <trkpt lat="45.94674" lon="6.43355">
        <ele>709</ele>
        <time>2019-06-29T10:11:32Z</time>
      </trkpt>
      <trkpt lat="45.94688" lon="6.4339">
        <ele>708</ele>
        <time>2019-06-29T10:11:36Z</time>
      </trkpt>
      <trkpt lat="45.94665" lon="6.43391">
        <ele>705</ele>
        <time>2019-06-29T10:11:40Z</time>
      </trkpt>
      <trkpt lat="45.94643" lon="6.43354">
        <ele>701</ele>
        <time>2019-06-29T10:11:44Z</time>
      </trkpt>
      <trkpt lat="45.9462" lon="6.43311">
        <ele>696</ele>
        <time>2019-06-29T10:11:48Z</time>
      </trkpt>
      <trkpt lat="45.94593" lon="6.43266">
        <ele>693</ele>
        <time>2019-06-29T10:11:52Z</time>
      </trkpt>
      <trkpt lat="45.94565" lon="6.43219">
        <ele>689</ele>
        <time>2019-06-29T10:11:56Z</time>
      </trkpt>
      <trkpt lat="45.94547" lon="6.43159">
        <ele>686</ele>
        <time>2019-06-29T10:12:00Z</time>
      </trkpt>
      <trkpt lat="45.94533" lon="6.43097">
        <ele>684</ele>
        <time>2019-06-29T10:12:04Z</time>
      </trkpt>
      <trkpt lat="45.94528" lon="6.43033">
        <ele>680</ele>
        <time>2019-06-29T10:12:08Z</time>
      </trkpt>
      <trkpt lat="45.94524" lon="6.42968">
        <ele>678</ele>
        <time>2019-06-29T10:12:12Z</time>
      </trkpt>
      <trkpt lat="45.94517" lon="6.42903">
        <ele>675</ele>
        <time>2019-06-29T10:12:16Z</time>
      </trkpt>
      <trkpt lat="45.94502" lon="6.42842">
        <ele>673</ele>
        <time>2019-06-29T10:12:20Z</time>
      </trkpt>
      <trkpt lat="45.94479" lon="6.42785">
        <ele>669</ele>
        <time>2019-06-29T10:12:24Z</time>
      </trkpt>
      <trkpt lat="45.94456" lon="6.42728">
        <ele>668</ele>
        <time>2019-06-29T10:12:28Z</time>
      </trkpt>
      <trkpt lat="45.94429" lon="6.42674">
        <ele>665</ele>
        <time>2019-06-29T10:12:32Z</time>
      </trkpt>
      <trkpt lat="45.94401" lon="6.42621">
        <ele>662</ele>
        <time>2019-06-29T10:12:36Z</time>
      </trkpt>
      <trkpt lat="45.94367" lon="6.42578">
        <ele>658</ele>
        <time>2019-06-29T10:12:40Z</time>
      </trkpt>
      <trkpt lat="45.94334" lon="6.42535">
        <ele>656</ele>
        <time>2019-06-29T10:12:44Z</time>
      </trkpt>
      <trkpt lat="45.94301" lon="6.42487">
        <ele>654</ele>
        <time>2019-06-29T10:12:48Z</time>
      </trkpt>
      <trkpt lat="45.94268" lon="6.4244">
        <ele>650</ele>
        <time>2019-06-29T10:12:52Z</time>
      </trkpt>
      <trkpt lat="45.94235" lon="6.42393">
        <ele>647</ele>
        <time>2019-06-29T10:12:56Z</time>
      </trkpt>
      <trkpt lat="45.94199" lon="6.4235">
        <ele>645</ele>
        <time>2019-06-29T10:13:00Z</time>
      </trkpt>
      <trkpt lat="45.94172" lon="6.42297">
        <ele>644</ele>
        <time>2019-06-29T10:13:04Z</time>
      </trkpt>
      <trkpt lat="45.94148" lon="6.42254">
        <ele>646</ele>
        <time>2019-06-29T10:13:08Z</time>
      </trkpt>
      <trkpt lat="45.94115" lon="6.42234">
        <ele>643</ele>
        <time>2019-06-29T10:13:12Z</time>
      </trkpt>
      <trkpt lat="45.9408" lon="6.42213">
        <ele>640</ele>
        <time>2019-06-29T10:13:16Z</time>
      </trkpt>
      <trkpt lat="45.94048" lon="6.42179">
        <ele>637</ele>
        <time>2019-06-29T10:13:20Z</time>
      </trkpt>
      <trkpt lat="45.94024" lon="6.4214">
        <ele>637</ele>
        <time>2019-06-29T10:13:24Z</time>
      </trkpt>
      <trkpt lat="45.94003" lon="6.42121">
        <ele>636</ele>
        <time>2019-06-29T10:13:28Z</time>
      </trkpt>
      <trkpt lat="45.94003" lon="6.42149">
        <ele>634</ele>
        <time>2019-06-29T10:13:32Z</time>
      </trkpt>
      <trkpt lat="45.94024" lon="6.42183">
        <ele>630</ele>
        <time>2019-06-29T10:13:36Z</time>
      </trkpt>
      <trkpt lat="45.94039" lon="6.4223">
        <ele>625</ele>
        <time>2019-06-29T10:13:40Z</time>
      </trkpt>
      <trkpt lat="45.94056" lon="6.42286">
        <ele>620</ele>
        <time>2019-06-29T10:13:44Z</time>
      </trkpt>
      <trkpt lat="45.94071" lon="6.42344">
        <ele>619</ele>
        <time>2019-06-29T10:13:48Z</time>
      </trkpt>
      <trkpt lat="45.94074" lon="6.42386">
        <ele>619</ele>
        <time>2019-06-29T10:13:52Z</time>
      </trkpt>
      <trkpt lat="45.94059" lon="6.42403">
        <ele>618</ele>
        <time>2019-06-29T10:13:56Z</time>
      </trkpt>
      <trkpt lat="45.94045" lon="6.42396">
        <ele>617</ele>
        <time>2019-06-29T10:14:00Z</time>
      </trkpt>
      <trkpt lat="45.94031" lon="6.42377">
        <ele>615</ele>
        <time>2019-06-29T10:14:04Z</time>
      </trkpt>
      <trkpt lat="45.94018" lon="6.42351">
        <ele>614</ele>
        <time>2019-06-29T10:14:08Z</time>
      </trkpt>
      <trkpt lat="45.94003" lon="6.42319">
        <ele>613</ele>
        <time>2019-06-29T10:14:12Z</time>
      </trkpt>
      <trkpt lat="45.93985" lon="6.42284">
        <ele>609</ele>
        <time>2019-06-29T10:14:16Z</time>
      </trkpt>
      <trkpt lat="45.93966" lon="6.42246">
        <ele>609</ele>
        <time>2019-06-29T10:14:20Z</time>
      </trkpt>
      <trkpt lat="45.93945" lon="6.42207">
        <ele>609</ele>
        <time>2019-06-29T10:14:24Z</time>
      </trkpt>
      <trkpt lat="45.93925" lon="6.42169">
        <ele>609</ele>
        <time>2019-06-29T10:14:28Z</time>
      </trkpt>
      <trkpt lat="45.93906" lon="6.42135">
        <ele>610</ele>
        <time>2019-06-29T10:14:32Z</time>
      </trkpt>
      <trkpt lat="45.9389" lon="6.42105">
        <ele>612</ele>
        <time>2019-06-29T10:14:36Z</time>
      </trkpt>
      <trkpt lat="45.93874" lon="6.42077">
        <ele>613</ele>
        <time>2019-06-29T10:14:40Z</time>
      </trkpt>
      <trkpt lat="45.93859" lon="6.42049">
        <ele>614</ele>
        <time>2019-06-29T10:14:44Z</time>
      </trkpt>
      <trkpt lat="45.93845" lon="6.4202">
        <ele>614</ele>
        <time>2019-06-29T10:14:48Z</time>
      </trkpt>
      <trkpt lat="45.93829" lon="6.41991">
        <ele>613</ele>
        <time>2019-06-29T10:14:52Z</time>
      </trkpt>
      <trkpt lat="45.93814" lon="6.4196">
        <ele>612</ele>
        <time>2019-06-29T10:14:56Z</time>
      </trkpt>
      <trkpt lat="45.93795" lon="6.41932">
        <ele>611</ele>
        <time>2019-06-29T10:15:00Z</time>
      </trkpt>
      <trkpt lat="45.93774" lon="6.41903">
        <ele>609</ele>
        <time>2019-06-29T10:15:04Z</time>
      </trkpt>
      <trkpt lat="45.93754" lon="6.41868">
        <ele>608</ele>
        <time>2019-06-29T10:15:08Z</time>
      </trkpt>
      <trkpt lat="45.93735" lon="6.41829">
        <ele>608</ele>
        <time>2019-06-29T10:15:12Z</time>
      </trkpt>
      <trkpt lat="45.93717" lon="6.41787">
        <ele>606</ele>
        <time>2019-06-29T10:15:16Z</time>
      </trkpt>
      <trkpt lat="45.93695" lon="6.41747">
        <ele>604</ele>
        <time>2019-06-29T10:15:20Z</time>
      </trkpt>
      <trkpt lat="45.93671" lon="6.41707">
        <ele>603</ele>
        <time>2019-06-29T10:15:24Z</time>
      </trkpt>
      <trkpt lat="45.93648" lon="6.41671">
        <ele>602</ele>
        <time>2019-06-29T10:15:28Z</time>
      </trkpt>
      <trkpt lat="45.9363" lon="6.41632">
        <ele>602</ele>
        <time>2019-06-29T10:15:32Z</time>
      </trkpt>
      <trkpt lat="45.93609" lon="6.41602">
        <ele>602</ele>
        <time>2019-06-29T10:15:36Z</time>
      </trkpt>
      <trkpt lat="45.93588" lon="6.41579">
        <ele>604</ele>
        <time>2019-06-29T10:15:40Z</time>
      </trkpt>
      <trkpt lat="45.93567" lon="6.41555">
        <ele>604</ele>
        <time>2019-06-29T10:15:44Z</time>
      </trkpt>
      <trkpt lat="45.9355" lon="6.41526">
        <ele>603</ele>
        <time>2019-06-29T10:15:48Z</time>
      </trkpt>
      <trkpt lat="45.93535" lon="6.41493">
        <ele>604</ele>
        <time>2019-06-29T10:15:52Z</time>
      </trkpt>
      <trkpt lat="45.93519" lon="6.4146">
        <ele>604</ele>
        <time>2019-06-29T10:15:56Z</time>
      </trkpt>
      <trkpt lat="45.93503" lon="6.41427">
        <ele>604</ele>
        <time>2019-06-29T10:16:00Z</time>
      </trkpt>
      <trkpt lat="45.93489" lon="6.41394">
        <ele>604</ele>
        <time>2019-06-29T10:16:04Z</time>
      </trkpt>
      <trkpt lat="45.93473" lon="6.41366">
        <ele>603</ele>
        <time>2019-06-29T10:16:08Z</time>
      </trkpt>
      <trkpt lat="45.9345" lon="6.41343">
        <ele>602</ele>
        <time>2019-06-29T10:16:12Z</time>
      </trkpt>
      <trkpt lat="45.93425" lon="6.41321">
        <ele>601</ele>
        <time>2019-06-29T10:16:16Z</time>
      </trkpt>
      <trkpt lat="45.93401" lon="6.41297">
        <ele>600</ele>
        <time>2019-06-29T10:16:20Z</time>
      </trkpt>
      <trkpt lat="45.9338" lon="6.41265">
        <ele>599</ele>
        <time>2019-06-29T10:16:24Z</time>
      </trkpt>
      <trkpt lat="45.9336" lon="6.41225">
        <ele>595</ele>
        <time>2019-06-29T10:16:28Z</time>
      </trkpt>
      <trkpt lat="45.93338" lon="6.41181">
        <ele>593</ele>
        <time>2019-06-29T10:16:32Z</time>
      </trkpt>
      <trkpt lat="45.93308" lon="6.41146">
        <ele>592</ele>
        <time>2019-06-29T10:16:36Z</time>
      </trkpt>
      <trkpt lat="45.93279" lon="6.41113">
        <ele>592</ele>
        <time>2019-06-29T10:16:40Z</time>
      </trkpt>
      <trkpt lat="45.93257" lon="6.41075">
        <ele>593</ele>
        <time>2019-06-29T10:16:44Z</time>
      </trkpt>
      <trkpt lat="45.93238" lon="6.41034">
        <ele>592</ele>
        <time>2019-06-29T10:16:48Z</time>
      </trkpt>
      <trkpt lat="45.93221" lon="6.40992">
        <ele>591</ele>
        <time>2019-06-29T10:16:52Z</time>
      </trkpt>
      <trkpt lat="45.932" lon="6.4095">
        <ele>588</ele>
        <time>2019-06-29T10:16:56Z</time>
      </trkpt>
      <trkpt lat="45.93179" lon="6.40906">
        <ele>587</ele>
        <time>2019-06-29T10:17:00Z</time>
      </trkpt>
      <trkpt lat="45.9316" lon="6.40858">
        <ele>582</ele>
        <time>2019-06-29T10:17:04Z</time>
      </trkpt>
      <trkpt lat="45.93149" lon="6.40801">
        <ele>578</ele>
        <time>2019-06-29T10:17:08Z</time>
      </trkpt>
      <trkpt lat="45.9314" lon="6.40742">
        <ele>572</ele>
        <time>2019-06-29T10:17:12Z</time>
      </trkpt>
      <trkpt lat="45.93134" lon="6.40677">
        <ele>567</ele>
        <time>2019-06-29T10:17:16Z</time>
      </trkpt>
      <trkpt lat="45.9313" lon="6.40611">
        <ele>564</ele>
        <time>2019-06-29T10:17:20Z</time>
      </trkpt>
      <trkpt lat="45.9313" lon="6.40555">
        <ele>564</ele>
        <time>2019-06-29T10:17:24Z</time>
      </trkpt>
      <trkpt lat="45.93139" lon="6.40526">
        <ele>571</ele>
        <time>2019-06-29T10:17:28Z</time>
      </trkpt>
      <trkpt lat="45.93144" lon="6.40524">
        <ele>571</ele>
        <time>2019-06-29T10:19:40Z</time>
      </trkpt>
      <trkpt lat="45.93141" lon="6.40521">
        <ele>570</ele>
        <time>2019-06-29T10:19:44Z</time>
      </trkpt>
      <trkpt lat="45.9314" lon="6.40519">
        <ele>570</ele>
        <time>2019-06-29T10:19:56Z</time>
      </trkpt>
      <trkpt lat="45.93141" lon="6.40508">
        <ele>570</ele>
        <time>2019-06-29T10:20:00Z</time>
      </trkpt>
      <trkpt lat="45.93142" lon="6.40491">
        <ele>569</ele>
        <time>2019-06-29T10:20:04Z</time>
      </trkpt>
      <trkpt lat="45.93147" lon="6.40467">
        <ele>567</ele>
        <time>2019-06-29T10:20:08Z</time>
      </trkpt>
      <trkpt lat="45.93158" lon="6.40437">
        <ele>564</ele>
        <time>2019-06-29T10:20:12Z</time>
      </trkpt>
      <trkpt lat="45.93171" lon="6.40402">
        <ele>562</ele>
        <time>2019-06-29T10:20:16Z</time>
      </trkpt>
      <trkpt lat="45.93186" lon="6.40366">
        <ele>560</ele>
        <time>2019-06-29T10:20:20Z</time>
      </trkpt>
      <trkpt lat="45.93203" lon="6.40326">
        <ele>558</ele>
        <time>2019-06-29T10:20:24Z</time>
      </trkpt>
      <trkpt lat="45.93227" lon="6.40288">
        <ele>553</ele>
        <time>2019-06-29T10:20:28Z</time>
      </trkpt>
      <trkpt lat="45.93252" lon="6.40252">
        <ele>554</ele>
        <time>2019-06-29T10:20:32Z</time>
      </trkpt>
      <trkpt lat="45.93276" lon="6.40217">
        <ele>553</ele>
        <time>2019-06-29T10:20:36Z</time>
      </trkpt>
      <trkpt lat="45.93296" lon="6.40179">
        <ele>552</ele>
        <time>2019-06-29T10:20:40Z</time>
      </trkpt>
      <trkpt lat="45.93319" lon="6.40142">
        <ele>552</ele>
        <time>2019-06-29T10:20:44Z</time>
      </trkpt>
      <trkpt lat="45.93347" lon="6.40112">
        <ele>551</ele>
        <time>2019-06-29T10:20:48Z</time>
      </trkpt>
      <trkpt lat="45.93376" lon="6.40092">
        <ele>551</ele>
        <time>2019-06-29T10:20:52Z</time>
      </trkpt>
      <trkpt lat="45.93406" lon="6.40075">
        <ele>551</ele>
        <time>2019-06-29T10:20:56Z</time>
      </trkpt>
      <trkpt lat="45.93435" lon="6.40052">
        <ele>549</ele>
        <time>2019-06-29T10:21:00Z</time>
      </trkpt>
      <trkpt lat="45.93466" lon="6.40036">
        <ele>549</ele>
        <time>2019-06-29T10:21:04Z</time>
      </trkpt>
      <trkpt lat="45.93497" lon="6.40032">
        <ele>548</ele>
        <time>2019-06-29T10:21:08Z</time>
      </trkpt>
      <trkpt lat="45.93531" lon="6.40041">
        <ele>548</ele>
        <time>2019-06-29T10:21:12Z</time>
      </trkpt>
      <trkpt lat="45.93563" lon="6.40049">
        <ele>547</ele>
        <time>2019-06-29T10:21:16Z</time>
      </trkpt>
      <trkpt lat="45.93596" lon="6.40049">
        <ele>546</ele>
        <time>2019-06-29T10:21:20Z</time>
      </trkpt>
      <trkpt lat="45.93629" lon="6.40046">
        <ele>546</ele>
        <time>2019-06-29T10:21:24Z</time>
      </trkpt>
      <trkpt lat="45.93663" lon="6.40048">
        <ele>545</ele>
        <time>2019-06-29T10:21:28Z</time>
      </trkpt>
      <trkpt lat="45.93694" lon="6.40065">
        <ele>545</ele>
        <time>2019-06-29T10:21:32Z</time>
      </trkpt>
      <trkpt lat="45.93727" lon="6.40074">
        <ele>544</ele>
        <time>2019-06-29T10:21:36Z</time>
      </trkpt>
      <trkpt lat="45.93764" lon="6.40072">
        <ele>542</ele>
        <time>2019-06-29T10:21:40Z</time>
      </trkpt>
      <trkpt lat="45.93794" lon="6.40096">
        <ele>538</ele>
        <time>2019-06-29T10:21:44Z</time>
      </trkpt>
      <trkpt lat="45.93819" lon="6.40135">
        <ele>537</ele>
        <time>2019-06-29T10:21:48Z</time>
      </trkpt>
      <trkpt lat="45.93848" lon="6.40155">
        <ele>537</ele>
        <time>2019-06-29T10:21:52Z</time>
      </trkpt>
      <trkpt lat="45.93881" lon="6.40145">
        <ele>535</ele>
        <time>2019-06-29T10:21:56Z</time>
      </trkpt>
      <trkpt lat="45.93911" lon="6.40137">
        <ele>533</ele>
        <time>2019-06-29T10:22:00Z</time>
      </trkpt>
      <trkpt lat="45.93942" lon="6.4012">
        <ele>533</ele>
        <time>2019-06-29T10:22:04Z</time>
      </trkpt>
      <trkpt lat="45.93994" lon="6.4012">
        <ele>532</ele>
        <time>2019-06-29T10:22:08Z</time>
      </trkpt>
      <trkpt lat="45.94039" lon="6.40125">
        <ele>531</ele>
        <time>2019-06-29T10:22:12Z</time>
      </trkpt>
      <trkpt lat="45.94088" lon="6.40119">
        <ele>529</ele>
        <time>2019-06-29T10:22:16Z</time>
      </trkpt>
      <trkpt lat="45.94123" lon="6.40145">
        <ele>528</ele>
        <time>2019-06-29T10:22:20Z</time>
      </trkpt>
      <trkpt lat="45.94161" lon="6.40152">
        <ele>527</ele>
        <time>2019-06-29T10:22:24Z</time>
      </trkpt>
      <trkpt lat="45.94205" lon="6.40158">
        <ele>525</ele>
        <time>2019-06-29T10:22:28Z</time>
      </trkpt>
      <trkpt lat="45.94247" lon="6.40162">
        <ele>524</ele>
        <time>2019-06-29T10:22:32Z</time>
      </trkpt>
      <trkpt lat="45.9429" lon="6.40172">
        <ele>523</ele>
        <time>2019-06-29T10:22:36Z</time>
      </trkpt>
      <trkpt lat="45.94333" lon="6.4017">
        <ele>522</ele>
        <time>2019-06-29T10:22:40Z</time>
      </trkpt>
      <trkpt lat="45.94376" lon="6.40158">
        <ele>520</ele>
        <time>2019-06-29T10:22:44Z</time>
      </trkpt>
      <trkpt lat="45.94417" lon="6.40141">
        <ele>519</ele>
        <time>2019-06-29T10:22:48Z</time>
      </trkpt>
      <trkpt lat="45.94456" lon="6.40117">
        <ele>517</ele>
        <time>2019-06-29T10:22:52Z</time>
      </trkpt>
      <trkpt lat="45.94493" lon="6.40092">
        <ele>516</ele>
        <time>2019-06-29T10:22:56Z</time>
      </trkpt>
      <trkpt lat="45.94531" lon="6.40071">
        <ele>514</ele>
        <time>2019-06-29T10:23:00Z</time>
      </trkpt>
      <trkpt lat="45.94564" lon="6.40061">
        <ele>513</ele>
        <time>2019-06-29T10:23:04Z</time>
      </trkpt>
      <trkpt lat="45.94596" lon="6.40041">
        <ele>513</ele>
        <time>2019-06-29T10:23:08Z</time>
      </trkpt>
      <trkpt lat="45.94627" lon="6.40011">
        <ele>512</ele>
        <time>2019-06-29T10:23:12Z</time>
      </trkpt>
      <trkpt lat="45.9466" lon="6.39984">
        <ele>511</ele>
        <time>2019-06-29T10:23:16Z</time>
      </trkpt>
      <trkpt lat="45.9469" lon="6.39956">
        <ele>510</ele>
        <time>2019-06-29T10:23:20Z</time>
      </trkpt>
      <trkpt lat="45.94716" lon="6.39926">
        <ele>510</ele>
        <time>2019-06-29T10:23:24Z</time>
      </trkpt>
      <trkpt lat="45.9474" lon="6.39898">
        <ele>509</ele>
        <time>2019-06-29T10:23:28Z</time>
      </trkpt>
      <trkpt lat="45.94765" lon="6.39868">
        <ele>508</ele>
        <time>2019-06-29T10:23:32Z</time>
      </trkpt>
      <trkpt lat="45.9479" lon="6.39854">
        <ele>507</ele>
        <time>2019-06-29T10:23:36Z</time>
      </trkpt>
      <trkpt lat="45.94813" lon="6.39846">
        <ele>506</ele>
        <time>2019-06-29T10:23:40Z</time>
      </trkpt>
      <trkpt lat="45.94838" lon="6.39815">
        <ele>505</ele>
        <time>2019-06-29T10:23:44Z</time>
      </trkpt>
      <trkpt lat="45.94863" lon="6.39785">
        <ele>504</ele>
        <time>2019-06-29T10:23:48Z</time>
      </trkpt>
      <trkpt lat="45.9489" lon="6.39755">
        <ele>503</ele>
        <time>2019-06-29T10:23:52Z</time>
      </trkpt>
      <trkpt lat="45.94921" lon="6.39729">
        <ele>503</ele>
        <time>2019-06-29T10:23:56Z</time>
      </trkpt>
      <trkpt lat="45.94951" lon="6.39703">
        <ele>502</ele>
        <time>2019-06-29T10:24:00Z</time>
      </trkpt>
      <trkpt lat="45.94981" lon="6.39679">
        <ele>501</ele>
        <time>2019-06-29T10:24:04Z</time>
      </trkpt>
      <trkpt lat="45.95006" lon="6.39647">
        <ele>501</ele>
        <time>2019-06-29T10:24:08Z</time>
      </trkpt>
      <trkpt lat="45.95024" lon="6.39607">
        <ele>501</ele>
        <time>2019-06-29T10:24:12Z</time>
      </trkpt>
      <trkpt lat="45.95036" lon="6.39563">
        <ele>499</ele>
        <time>2019-06-29T10:24:16Z</time>
      </trkpt>
      <trkpt lat="45.95052" lon="6.3952">
        <ele>499</ele>
        <time>2019-06-29T10:24:20Z</time>
      </trkpt>
      <trkpt lat="45.95071" lon="6.39479">
        <ele>499</ele>
        <time>2019-06-29T10:24:24Z</time>
      </trkpt>
      <trkpt lat="45.95091" lon="6.39437">
        <ele>497</ele>
        <time>2019-06-29T10:24:28Z</time>
      </trkpt>
      <trkpt lat="45.95113" lon="6.39395">
        <ele>497</ele>
        <time>2019-06-29T10:24:32Z</time>
      </trkpt>
      <trkpt lat="45.95133" lon="6.39356">
        <ele>496</ele>
        <time>2019-06-29T10:24:36Z</time>
      </trkpt>
      <trkpt lat="45.95154" lon="6.39317">
        <ele>495</ele>
        <time>2019-06-29T10:24:40Z</time>
      </trkpt>
      <trkpt lat="45.95174" lon="6.39279">
        <ele>495</ele>
        <time>2019-06-29T10:24:44Z</time>
      </trkpt>
      <trkpt lat="45.95194" lon="6.39241">
        <ele>495</ele>
        <time>2019-06-29T10:24:48Z</time>
      </trkpt>
      <trkpt lat="45.95215" lon="6.39203">
        <ele>495</ele>
        <time>2019-06-29T10:24:52Z</time>
      </trkpt>
      <trkpt lat="45.95235" lon="6.39162">
        <ele>494</ele>
        <time>2019-06-29T10:24:56Z</time>
      </trkpt>
      <trkpt lat="45.95255" lon="6.39123">
        <ele>492</ele>
        <time>2019-06-29T10:25:00Z</time>
      </trkpt>
      <trkpt lat="45.95276" lon="6.39085">
        <ele>493</ele>
        <time>2019-06-29T10:25:04Z</time>
      </trkpt>
      <trkpt lat="45.95299" lon="6.39051">
        <ele>491</ele>
        <time>2019-06-29T10:25:08Z</time>
      </trkpt>
      <trkpt lat="45.9533" lon="6.39028">
        <ele>489</ele>
        <time>2019-06-29T10:25:12Z</time>
      </trkpt>
      <trkpt lat="45.95366" lon="6.39018">
        <ele>488</ele>
        <time>2019-06-29T10:25:16Z</time>
      </trkpt>
      <trkpt lat="45.95404" lon="6.39019">
        <ele>486</ele>
        <time>2019-06-29T10:25:20Z</time>
      </trkpt>
      <trkpt lat="45.95442" lon="6.39015">
        <ele>484</ele>
        <time>2019-06-29T10:25:24Z</time>
      </trkpt>
      <trkpt lat="45.95477" lon="6.38995">
        <ele>484</ele>
        <time>2019-06-29T10:25:28Z</time>
      </trkpt>
      <trkpt lat="45.95507" lon="6.38963">
        <ele>483</ele>
        <time>2019-06-29T10:25:32Z</time>
      </trkpt>
      <trkpt lat="45.95534" lon="6.38928">
        <ele>482</ele>
        <time>2019-06-29T10:25:36Z</time>
      </trkpt>
      <trkpt lat="45.95559" lon="6.38895">
        <ele>482</ele>
        <time>2019-06-29T10:25:40Z</time>
      </trkpt>
      <trkpt lat="45.95588" lon="6.38873">
        <ele>481</ele>
        <time>2019-06-29T10:25:44Z</time>
      </trkpt>
      <trkpt lat="45.9562" lon="6.38857">
        <ele>480</ele>
        <time>2019-06-29T10:25:48Z</time>
      </trkpt>
      <trkpt lat="45.95651" lon="6.3884">
        <ele>479</ele>
        <time>2019-06-29T10:25:52Z</time>
      </trkpt>
      <trkpt lat="45.95684" lon="6.38826">
        <ele>479</ele>
        <time>2019-06-29T10:25:56Z</time>
      </trkpt>
      <trkpt lat="45.95717" lon="6.38813">
        <ele>479</ele>
        <time>2019-06-29T10:26:00Z</time>
      </trkpt>
      <trkpt lat="45.9575" lon="6.38807">
        <ele>479</ele>
        <time>2019-06-29T10:26:04Z</time>
      </trkpt>
      <trkpt lat="45.95785" lon="6.38801">
        <ele>477</ele>
        <time>2019-06-29T10:26:08Z</time>
      </trkpt>
      <trkpt lat="45.95818" lon="6.38792">
        <ele>477</ele>
        <time>2019-06-29T10:26:12Z</time>
      </trkpt>
      <trkpt lat="45.95851" lon="6.38781">
        <ele>476</ele>
        <time>2019-06-29T10:26:16Z</time>
      </trkpt>
      <trkpt lat="45.95883" lon="6.38772">
        <ele>476</ele>
        <time>2019-06-29T10:26:20Z</time>
      </trkpt>
      <trkpt lat="45.95916" lon="6.38764">
        <ele>476</ele>
        <time>2019-06-29T10:26:24Z</time>
      </trkpt>
      <trkpt lat="45.95949" lon="6.38755">
        <ele>476</ele>
        <time>2019-06-29T10:26:28Z</time>
      </trkpt>
      <trkpt lat="45.9598" lon="6.38746">
        <ele>475</ele>
        <time>2019-06-29T10:26:32Z</time>
      </trkpt>
      <trkpt lat="45.96008" lon="6.38727">
        <ele>474</ele>
        <time>2019-06-29T10:26:36Z</time>
      </trkpt>
      <trkpt lat="45.96037" lon="6.38709">
        <ele>473</ele>
        <time>2019-06-29T10:26:40Z</time>
      </trkpt>
      <trkpt lat="45.96067" lon="6.38691">
        <ele>473</ele>
        <time>2019-06-29T10:26:44Z</time>
      </trkpt>
      <trkpt lat="45.96097" lon="6.38673">
        <ele>472</ele>
        <time>2019-06-29T10:26:48Z</time>
      </trkpt>
      <trkpt lat="45.96125" lon="6.38654">
        <ele>472</ele>
        <time>2019-06-29T10:26:52Z</time>
      </trkpt>
      <trkpt lat="45.96154" lon="6.38634">
        <ele>472</ele>
        <time>2019-06-29T10:26:56Z</time>
      </trkpt>
      <trkpt lat="45.96184" lon="6.38616">
        <ele>471</ele>
        <time>2019-06-29T10:27:00Z</time>
      </trkpt>
      <trkpt lat="45.96213" lon="6.386">
        <ele>470</ele>
        <time>2019-06-29T10:27:04Z</time>
      </trkpt>
      <trkpt lat="45.96243" lon="6.3859">
        <ele>470</ele>
        <time>2019-06-29T10:27:08Z</time>
      </trkpt>
      <trkpt lat="45.96275" lon="6.38591">
        <ele>470</ele>
        <time>2019-06-29T10:27:12Z</time>
      </trkpt>
      <trkpt lat="45.96307" lon="6.38594">
        <ele>469</ele>
        <time>2019-06-29T10:27:16Z</time>
      </trkpt>
      <trkpt lat="45.96339" lon="6.38601">
        <ele>469</ele>
        <time>2019-06-29T10:27:20Z</time>
      </trkpt>
      <trkpt lat="45.9637" lon="6.38615">
        <ele>469</ele>
        <time>2019-06-29T10:27:24Z</time>
      </trkpt>
      <trkpt lat="45.96402" lon="6.38623">
        <ele>468</ele>
        <time>2019-06-29T10:27:28Z</time>
      </trkpt>
      <trkpt lat="45.96435" lon="6.38618">
        <ele>468</ele>
        <time>2019-06-29T10:27:32Z</time>
      </trkpt>
      <trkpt lat="45.96466" lon="6.38601">
        <ele>467</ele>
        <time>2019-06-29T10:27:36Z</time>
      </trkpt>
      <trkpt lat="45.96497" lon="6.38585">
        <ele>467</ele>
        <time>2019-06-29T10:27:40Z</time>
      </trkpt>
      <trkpt lat="45.96528" lon="6.38567">
        <ele>466</ele>
        <time>2019-06-29T10:27:44Z</time>
      </trkpt>
      <trkpt lat="45.96559" lon="6.38551">
        <ele>466</ele>
        <time>2019-06-29T10:27:48Z</time>
      </trkpt>
      <trkpt lat="45.9659" lon="6.38541">
        <ele>464</ele>
        <time>2019-06-29T10:27:52Z</time>
      </trkpt>
      <trkpt lat="45.96622" lon="6.38535">
        <ele>465</ele>
        <time>2019-06-29T10:27:56Z</time>
      </trkpt>
      <trkpt lat="45.96654" lon="6.38535">
        <ele>462</ele>
        <time>2019-06-29T10:28:00Z</time>
      </trkpt>
      <trkpt lat="45.96686" lon="6.38538">
        <ele>462</ele>
        <time>2019-06-29T10:28:04Z</time>
      </trkpt>
      <trkpt lat="45.96718" lon="6.3854">
        <ele>462</ele>
        <time>2019-06-29T10:28:08Z</time>
      </trkpt>
      <trkpt lat="45.96748" lon="6.38537">
        <ele>462</ele>
        <time>2019-06-29T10:28:12Z</time>
      </trkpt>
      <trkpt lat="45.96778" lon="6.38525">
        <ele>461</ele>
        <time>2019-06-29T10:28:16Z</time>
      </trkpt>
      <trkpt lat="45.96808" lon="6.38511">
        <ele>461</ele>
        <time>2019-06-29T10:28:20Z</time>
      </trkpt>
      <trkpt lat="45.96839" lon="6.38496">
        <ele>461</ele>
        <time>2019-06-29T10:28:24Z</time>
      </trkpt>
      <trkpt lat="45.9687" lon="6.3848">
        <ele>460</ele>
        <time>2019-06-29T10:28:28Z</time>
      </trkpt>
      <trkpt lat="45.969" lon="6.38465">
        <ele>460</ele>
        <time>2019-06-29T10:28:32Z</time>
      </trkpt>
      <trkpt lat="45.96931" lon="6.3845">
        <ele>460</ele>
        <time>2019-06-29T10:28:36Z</time>
      </trkpt>
      <trkpt lat="45.96962" lon="6.38444">
        <ele>459</ele>
        <time>2019-06-29T10:28:40Z</time>
      </trkpt>
      <trkpt lat="45.96995" lon="6.38455">
        <ele>458</ele>
        <time>2019-06-29T10:28:44Z</time>
      </trkpt>
      <trkpt lat="45.97026" lon="6.38474">
        <ele>458</ele>
        <time>2019-06-29T10:28:48Z</time>
      </trkpt>
      <trkpt lat="45.97057" lon="6.38491">
        <ele>457</ele>
        <time>2019-06-29T10:28:52Z</time>
      </trkpt>
      <trkpt lat="45.97089" lon="6.38495">
        <ele>457</ele>
        <time>2019-06-29T10:28:56Z</time>
      </trkpt>
      <trkpt lat="45.97118" lon="6.38482">
        <ele>456</ele>
        <time>2019-06-29T10:29:00Z</time>
      </trkpt>
      <trkpt lat="45.9715" lon="6.38475">
        <ele>455</ele>
        <time>2019-06-29T10:29:04Z</time>
      </trkpt>
      <trkpt lat="45.97181" lon="6.38465">
        <ele>455</ele>
        <time>2019-06-29T10:29:08Z</time>
      </trkpt>
      <trkpt lat="45.97214" lon="6.38453">
        <ele>455</ele>
        <time>2019-06-29T10:29:12Z</time>
      </trkpt>
      <trkpt lat="45.97244" lon="6.3845">
        <ele>455</ele>
        <time>2019-06-29T10:29:16Z</time>
      </trkpt>
      <trkpt lat="45.97274" lon="6.38438">
        <ele>456</ele>
        <time>2019-06-29T10:29:20Z</time>
      </trkpt>
      <trkpt lat="45.97303" lon="6.38431">
        <ele>456</ele>
        <time>2019-06-29T10:29:24Z</time>
      </trkpt>
      <trkpt lat="45.97333" lon="6.38446">
        <ele>455</ele>
        <time>2019-06-29T10:29:28Z</time>
      </trkpt>
      <trkpt lat="45.97358" lon="6.38475">
        <ele>453</ele>
        <time>2019-06-29T10:29:32Z</time>
      </trkpt>
      <trkpt lat="45.97378" lon="6.38501">
        <ele>453</ele>
        <time>2019-06-29T10:29:36Z</time>
      </trkpt>
      <trkpt lat="45.97398" lon="6.38527">
        <ele>453</ele>
        <time>2019-06-29T10:29:40Z</time>
      </trkpt>
      <trkpt lat="45.97418" lon="6.38551">
        <ele>453</ele>
        <time>2019-06-29T10:29:44Z</time>
      </trkpt>
      <trkpt lat="45.97438" lon="6.3859">
        <ele>453</ele>
        <time>2019-06-29T10:29:48Z</time>
      </trkpt>
      <trkpt lat="45.97455" lon="6.38624">
        <ele>454</ele>
        <time>2019-06-29T10:29:52Z</time>
      </trkpt>
      <trkpt lat="45.97479" lon="6.3865">
        <ele>454</ele>
        <time>2019-06-29T10:29:56Z</time>
      </trkpt>
      <trkpt lat="45.97507" lon="6.38662">
        <ele>453</ele>
        <time>2019-06-29T10:30:00Z</time>
      </trkpt>
      <trkpt lat="45.97538" lon="6.38669">
        <ele>451</ele>
        <time>2019-06-29T10:30:04Z</time>
      </trkpt>
      <trkpt lat="45.97569" lon="6.38668">
        <ele>451</ele>
        <time>2019-06-29T10:30:08Z</time>
      </trkpt>
      <trkpt lat="45.97605" lon="6.38678">
        <ele>449</ele>
        <time>2019-06-29T10:30:12Z</time>
      </trkpt>
      <trkpt lat="45.97638" lon="6.38679">
        <ele>447</ele>
        <time>2019-06-29T10:30:16Z</time>
      </trkpt>
      <trkpt lat="45.97678" lon="6.38682">
        <ele>446</ele>
        <time>2019-06-29T10:30:20Z</time>
      </trkpt>
      <trkpt lat="45.97718" lon="6.38683">
        <ele>445</ele>
        <time>2019-06-29T10:30:24Z</time>
      </trkpt>
      <trkpt lat="45.97756" lon="6.38693">
        <ele>444</ele>
        <time>2019-06-29T10:30:28Z</time>
      </trkpt>
      <trkpt lat="45.97799" lon="6.38689">
        <ele>442</ele>
        <time>2019-06-29T10:30:32Z</time>
      </trkpt>
      <trkpt lat="45.97842" lon="6.38676">
        <ele>440</ele>
        <time>2019-06-29T10:30:36Z</time>
      </trkpt>
      <trkpt lat="45.97876" lon="6.38689">
        <ele>439</ele>
        <time>2019-06-29T10:30:40Z</time>
      </trkpt>
      <trkpt lat="45.97913" lon="6.38692">
        <ele>437</ele>
        <time>2019-06-29T10:30:44Z</time>
      </trkpt>
      <trkpt lat="45.97952" lon="6.38689">
        <ele>436</ele>
        <time>2019-06-29T10:30:48Z</time>
      </trkpt>
      <trkpt lat="45.97992" lon="6.38688">
        <ele>435</ele>
        <time>2019-06-29T10:30:52Z</time>
      </trkpt>
      <trkpt lat="45.98031" lon="6.38687">
        <ele>433</ele>
        <time>2019-06-29T10:30:56Z</time>
      </trkpt>
      <trkpt lat="45.98068" lon="6.38687">
        <ele>432</ele>
        <time>2019-06-29T10:31:00Z</time>
      </trkpt>
      <trkpt lat="45.98105" lon="6.38686">
        <ele>432</ele>
        <time>2019-06-29T10:31:04Z</time>
      </trkpt>
      <trkpt lat="45.9814" lon="6.38686">
        <ele>432</ele>
        <time>2019-06-29T10:31:08Z</time>
      </trkpt>
      <trkpt lat="45.98174" lon="6.38681">
        <ele>432</ele>
        <time>2019-06-29T10:31:12Z</time>
      </trkpt>
      <trkpt lat="45.98206" lon="6.38678">
        <ele>432</ele>
        <time>2019-06-29T10:31:16Z</time>
      </trkpt>
      <trkpt lat="45.9823" lon="6.38677">
        <ele>433</ele>
        <time>2019-06-29T10:31:20Z</time>
      </trkpt>
      <trkpt lat="45.98256" lon="6.38677">
        <ele>434</ele>
        <time>2019-06-29T10:31:24Z</time>
      </trkpt>
      <trkpt lat="45.98285" lon="6.38686">
        <ele>434</ele>
        <time>2019-06-29T10:31:28Z</time>
      </trkpt>
      <trkpt lat="45.98309" lon="6.38703">
        <ele>435</ele>
        <time>2019-06-29T10:31:32Z</time>
      </trkpt>
      <trkpt lat="45.98333" lon="6.38716">
        <ele>434</ele>
        <time>2019-06-29T10:31:36Z</time>
      </trkpt>
      <trkpt lat="45.98361" lon="6.38726">
        <ele>433</ele>
        <time>2019-06-29T10:31:40Z</time>
      </trkpt>
      <trkpt lat="45.98391" lon="6.38732">
        <ele>432</ele>
        <time>2019-06-29T10:31:44Z</time>
      </trkpt>
      <trkpt lat="45.98421" lon="6.38747">
        <ele>430</ele>
        <time>2019-06-29T10:31:48Z</time>
      </trkpt>
      <trkpt lat="45.9845" lon="6.38778">
        <ele>428</ele>
        <time>2019-06-29T10:31:52Z</time>
      </trkpt>
      <trkpt lat="45.98476" lon="6.38824">
        <ele>427</ele>
        <time>2019-06-29T10:31:56Z</time>
      </trkpt>
      <trkpt lat="45.98499" lon="6.38867">
        <ele>426</ele>
        <time>2019-06-29T10:32:00Z</time>
      </trkpt>
      <trkpt lat="45.98524" lon="6.38905">
        <ele>425</ele>
        <time>2019-06-29T10:32:04Z</time>
      </trkpt>
      <trkpt lat="45.98549" lon="6.3894">
        <ele>425</ele>
        <time>2019-06-29T10:32:08Z</time>
      </trkpt>
      <trkpt lat="45.98573" lon="6.38973">
        <ele>425</ele>
        <time>2019-06-29T10:32:12Z</time>
      </trkpt>
      <trkpt lat="45.98596" lon="6.39005">
        <ele>426</ele>
        <time>2019-06-29T10:32:16Z</time>
      </trkpt>
      <trkpt lat="45.98618" lon="6.39034">
        <ele>427</ele>
        <time>2019-06-29T10:32:20Z</time>
      </trkpt>
      <trkpt lat="45.9864" lon="6.39058">
        <ele>430</ele>
        <time>2019-06-29T10:32:24Z</time>
      </trkpt>
      <trkpt lat="45.9866" lon="6.39078">
        <ele>431</ele>
        <time>2019-06-29T10:32:28Z</time>
      </trkpt>
      <trkpt lat="45.98679" lon="6.39093">
        <ele>432</ele>
        <time>2019-06-29T10:32:32Z</time>
      </trkpt>
      <trkpt lat="45.98697" lon="6.39108">
        <ele>433</ele>
        <time>2019-06-29T10:32:36Z</time>
      </trkpt>
      <trkpt lat="45.98716" lon="6.39121">
        <ele>434</ele>
        <time>2019-06-29T10:32:40Z</time>
      </trkpt>
      <trkpt lat="45.98733" lon="6.39136">
        <ele>435</ele>
        <time>2019-06-29T10:32:44Z</time>
      </trkpt>
      <trkpt lat="45.98749" lon="6.3915">
        <ele>435</ele>
        <time>2019-06-29T10:32:48Z</time>
      </trkpt>
      <trkpt lat="45.98764" lon="6.39168">
        <ele>437</ele>
        <time>2019-06-29T10:32:52Z</time>
      </trkpt>
      <trkpt lat="45.98776" lon="6.39188">
        <ele>437</ele>
        <time>2019-06-29T10:32:56Z</time>
      </trkpt>
      <trkpt lat="45.98786" lon="6.3921">
        <ele>438</ele>
        <time>2019-06-29T10:33:00Z</time>
      </trkpt>
      <trkpt lat="45.98796" lon="6.39229">
        <ele>439</ele>
        <time>2019-06-29T10:33:04Z</time>
      </trkpt>
      <trkpt lat="45.98809" lon="6.39245">
        <ele>440</ele>
        <time>2019-06-29T10:33:08Z</time>
      </trkpt>
      <trkpt lat="45.98822" lon="6.39259">
        <ele>440</ele>
        <time>2019-06-29T10:33:12Z</time>
      </trkpt>
      <trkpt lat="45.98835" lon="6.39273">
        <ele>441</ele>
        <time>2019-06-29T10:33:16Z</time>
      </trkpt>
      <trkpt lat="45.98848" lon="6.39289">
        <ele>442</ele>
        <time>2019-06-29T10:33:20Z</time>
      </trkpt>
      <trkpt lat="45.98861" lon="6.39303">
        <ele>442</ele>
        <time>2019-06-29T10:33:24Z</time>
      </trkpt>
      <trkpt lat="45.98873" lon="6.39317">
        <ele>443</ele>
        <time>2019-06-29T10:33:28Z</time>
      </trkpt>
      <trkpt lat="45.98886" lon="6.3933">
        <ele>444</ele>
        <time>2019-06-29T10:33:32Z</time>
      </trkpt>
      <trkpt lat="45.98901" lon="6.39339">
        <ele>444</ele>
        <time>2019-06-29T10:33:36Z</time>
      </trkpt>
      <trkpt lat="45.98917" lon="6.39345">
        <ele>444</ele>
        <time>2019-06-29T10:33:40Z</time>
      </trkpt>
      <trkpt lat="45.98934" lon="6.39349">
        <ele>446</ele>
        <time>2019-06-29T10:33:44Z</time>
      </trkpt>
      <trkpt lat="45.98951" lon="6.39344">
        <ele>447</ele>
        <time>2019-06-29T10:33:48Z</time>
      </trkpt>
      <trkpt lat="45.98967" lon="6.39336">
        <ele>447</ele>
        <time>2019-06-29T10:33:52Z</time>
      </trkpt>
      <trkpt lat="45.98983" lon="6.39338">
        <ele>447</ele>
        <time>2019-06-29T10:33:56Z</time>
      </trkpt>
      <trkpt lat="45.98997" lon="6.3935">
        <ele>448</ele>
        <time>2019-06-29T10:34:00Z</time>
      </trkpt>
      <trkpt lat="45.99009" lon="6.39365">
        <ele>449</ele>
        <time>2019-06-29T10:34:04Z</time>
      </trkpt>
      <trkpt lat="45.99023" lon="6.39378">
        <ele>450</ele>
        <time>2019-06-29T10:34:08Z</time>
      </trkpt>
      <trkpt lat="45.99039" lon="6.39383">
        <ele>451</ele>
        <time>2019-06-29T10:34:12Z</time>
      </trkpt>
      <trkpt lat="45.99056" lon="6.39379">
        <ele>451</ele>
        <time>2019-06-29T10:34:16Z</time>
      </trkpt>
      <trkpt lat="45.99072" lon="6.39373">
        <ele>452</ele>
        <time>2019-06-29T10:34:20Z</time>
      </trkpt>
      <trkpt lat="45.99088" lon="6.39374">
        <ele>453</ele>
        <time>2019-06-29T10:34:24Z</time>
      </trkpt>
      <trkpt lat="45.99104" lon="6.39378">
        <ele>454</ele>
        <time>2019-06-29T10:34:28Z</time>
      </trkpt>
      <trkpt lat="45.9912" lon="6.39382">
        <ele>454</ele>
        <time>2019-06-29T10:34:32Z</time>
      </trkpt>
      <trkpt lat="45.99136" lon="6.39384">
        <ele>455</ele>
        <time>2019-06-29T10:34:36Z</time>
      </trkpt>
      <trkpt lat="45.99151" lon="6.39377">
        <ele>456</ele>
        <time>2019-06-29T10:34:40Z</time>
      </trkpt>
      <trkpt lat="45.99162" lon="6.3936">
        <ele>456</ele>
        <time>2019-06-29T10:34:44Z</time>
      </trkpt>
      <trkpt lat="45.99171" lon="6.39341">
        <ele>457</ele>
        <time>2019-06-29T10:34:48Z</time>
      </trkpt>
      <trkpt lat="45.99185" lon="6.39326">
        <ele>457</ele>
        <time>2019-06-29T10:34:52Z</time>
      </trkpt>
      <trkpt lat="45.99202" lon="6.39325">
        <ele>457</ele>
        <time>2019-06-29T10:34:56Z</time>
      </trkpt>
      <trkpt lat="45.99221" lon="6.39331">
        <ele>458</ele>
        <time>2019-06-29T10:35:00Z</time>
      </trkpt>
      <trkpt lat="45.99241" lon="6.3934">
        <ele>458</ele>
        <time>2019-06-29T10:35:04Z</time>
      </trkpt>
      <trkpt lat="45.99263" lon="6.39351">
        <ele>458</ele>
        <time>2019-06-29T10:35:08Z</time>
      </trkpt>
      <trkpt lat="45.99286" lon="6.39363">
        <ele>456</ele>
        <time>2019-06-29T10:35:12Z</time>
      </trkpt>
      <trkpt lat="45.99312" lon="6.39377">
        <ele>456</ele>
        <time>2019-06-29T10:35:16Z</time>
      </trkpt>
      <trkpt lat="45.99339" lon="6.39393">
        <ele>455</ele>
        <time>2019-06-29T10:35:20Z</time>
      </trkpt>
      <trkpt lat="45.99367" lon="6.3941">
        <ele>453</ele>
        <time>2019-06-29T10:35:24Z</time>
      </trkpt>
      <trkpt lat="45.99395" lon="6.39428">
        <ele>453</ele>
        <time>2019-06-29T10:35:28Z</time>
      </trkpt>
      <trkpt lat="45.99424" lon="6.3944">
        <ele>453</ele>
        <time>2019-06-29T10:35:32Z</time>
      </trkpt>
      <trkpt lat="45.99454" lon="6.39449">
        <ele>453</ele>
        <time>2019-06-29T10:35:36Z</time>
      </trkpt>
      <trkpt lat="45.99485" lon="6.39453">
        <ele>453</ele>
        <time>2019-06-29T10:35:40Z</time>
      </trkpt>
      <trkpt lat="45.99517" lon="6.39449">
        <ele>450</ele>
        <time>2019-06-29T10:35:44Z</time>
      </trkpt>
      <trkpt lat="45.9955" lon="6.39442">
        <ele>449</ele>
        <time>2019-06-29T10:35:48Z</time>
      </trkpt>
      <trkpt lat="45.99582" lon="6.39437">
        <ele>448</ele>
        <time>2019-06-29T10:35:52Z</time>
      </trkpt>
      <trkpt lat="45.99614" lon="6.39435">
        <ele>448</ele>
        <time>2019-06-29T10:35:56Z</time>
      </trkpt>
      <trkpt lat="45.99647" lon="6.39437">
        <ele>448</ele>
        <time>2019-06-29T10:36:00Z</time>
      </trkpt>
      <trkpt lat="45.99679" lon="6.39442">
        <ele>448</ele>
        <time>2019-06-29T10:36:04Z</time>
      </trkpt>
      <trkpt lat="45.99712" lon="6.39447">
        <ele>445</ele>
        <time>2019-06-29T10:36:08Z</time>
      </trkpt>
      <trkpt lat="45.99745" lon="6.39452">
        <ele>445</ele>
        <time>2019-06-29T10:36:12Z</time>
      </trkpt>
      <trkpt lat="45.99775" lon="6.39454">
        <ele>445</ele>
        <time>2019-06-29T10:36:16Z</time>
      </trkpt>
      <trkpt lat="45.99805" lon="6.39454">
        <ele>445</ele>
        <time>2019-06-29T10:36:20Z</time>
      </trkpt>
      <trkpt lat="45.99832" lon="6.39453">
        <ele>444</ele>
        <time>2019-06-29T10:36:24Z</time>
      </trkpt>
      <trkpt lat="45.99858" lon="6.3945">
        <ele>444</ele>
        <time>2019-06-29T10:36:28Z</time>
      </trkpt>
      <trkpt lat="45.99882" lon="6.39448">
        <ele>445</ele>
        <time>2019-06-29T10:36:32Z</time>
      </trkpt>
      <trkpt lat="45.99898" lon="6.39449">
        <ele>445</ele>
        <time>2019-06-29T10:36:36Z</time>
      </trkpt>
      <trkpt lat="45.99916" lon="6.3945">
        <ele>443</ele>
        <time>2019-06-29T10:36:40Z</time>
      </trkpt>
      <trkpt lat="45.99937" lon="6.39455">
        <ele>442</ele>
        <time>2019-06-29T10:36:44Z</time>
      </trkpt>
      <trkpt lat="45.99959" lon="6.3947">
        <ele>441</ele>
        <time>2019-06-29T10:36:48Z</time>
      </trkpt>
      <trkpt lat="45.99977" lon="6.39491">
        <ele>440</ele>
        <time>2019-06-29T10:36:52Z</time>
      </trkpt>
      <trkpt lat="45.99993" lon="6.39516">
        <ele>438</ele>
        <time>2019-06-29T10:36:56Z</time>
      </trkpt>
      <trkpt lat="46.00011" lon="6.39546">
        <ele>437</ele>
        <time>2019-06-29T10:37:00Z</time>
      </trkpt>
      <trkpt lat="46.00032" lon="6.39574">
        <ele>436</ele>
        <time>2019-06-29T10:37:04Z</time>
      </trkpt>
      <trkpt lat="46.00056" lon="6.39598">
        <ele>436</ele>
        <time>2019-06-29T10:37:08Z</time>
      </trkpt>
      <trkpt lat="46.00084" lon="6.39615">
        <ele>434</ele>
        <time>2019-06-29T10:37:12Z</time>
      </trkpt>
      <trkpt lat="46.00112" lon="6.39623">
        <ele>434</ele>
        <time>2019-06-29T10:37:16Z</time>
      </trkpt>
      <trkpt lat="46.0014" lon="6.3962">
        <ele>434</ele>
        <time>2019-06-29T10:37:20Z</time>
      </trkpt>
      <trkpt lat="46.00161" lon="6.39611">
        <ele>434</ele>
        <time>2019-06-29T10:37:24Z</time>
      </trkpt>
      <trkpt lat="46.0017" lon="6.39607">
        <ele>435</ele>
        <time>2019-06-29T10:37:28Z</time>
      </trkpt>
      <trkpt lat="46.00172" lon="6.39606">
        <ele>436</ele>
        <time>2019-06-29T10:38:12Z</time>
      </trkpt>
      <trkpt lat="46.0017" lon="6.39608">
        <ele>435</ele>
        <time>2019-06-29T10:38:20Z</time>
      </trkpt>
      <trkpt lat="46.00176" lon="6.39609">
        <ele>435</ele>
        <time>2019-06-29T10:38:24Z</time>
      </trkpt>
      <trkpt lat="46.00186" lon="6.39608">
        <ele>435</ele>
        <time>2019-06-29T10:38:28Z</time>
      </trkpt>
      <trkpt lat="46.00193" lon="6.39613">
        <ele>435</ele>
        <time>2019-06-29T10:38:32Z</time>
      </trkpt>
      <trkpt lat="46.00192" lon="6.39615">
        <ele>434</ele>
        <time>2019-06-29T10:38:36Z</time>
      </trkpt>
      <trkpt lat="46.00197" lon="6.39621">
        <ele>434</ele>
        <time>2019-06-29T10:38:40Z</time>
      </trkpt>
      <trkpt lat="46.00208" lon="6.39624">
        <ele>433</ele>
        <time>2019-06-29T10:38:44Z</time>
      </trkpt>
      <trkpt lat="46.00226" lon="6.39631">
        <ele>433</ele>
        <time>2019-06-29T10:38:48Z</time>
      </trkpt>
      <trkpt lat="46.00249" lon="6.39642">
        <ele>431</ele>
        <time>2019-06-29T10:38:52Z</time>
      </trkpt>
      <trkpt lat="46.00276" lon="6.39655">
        <ele>431</ele>
        <time>2019-06-29T10:38:56Z</time>
      </trkpt>
      <trkpt lat="46.00304" lon="6.39674">
        <ele>427</ele>
        <time>2019-06-29T10:39:00Z</time>
      </trkpt>
      <trkpt lat="46.00332" lon="6.39695">
        <ele>425</ele>
        <time>2019-06-29T10:39:04Z</time>
      </trkpt>
      <trkpt lat="46.00363" lon="6.39709">
        <ele>426</ele>
        <time>2019-06-29T10:39:08Z</time>
      </trkpt>
      <trkpt lat="46.00395" lon="6.39725">
        <ele>424</ele>
        <time>2019-06-29T10:39:12Z</time>
      </trkpt>
      <trkpt lat="46.00428" lon="6.39744">
        <ele>424</ele>
        <time>2019-06-29T10:39:16Z</time>
      </trkpt>
      <trkpt lat="46.00462" lon="6.39756">
        <ele>423</ele>
        <time>2019-06-29T10:39:20Z</time>
      </trkpt>
      <trkpt lat="46.00495" lon="6.39754">
        <ele>424</ele>
        <time>2019-06-29T10:39:24Z</time>
      </trkpt>
      <trkpt lat="46.00521" lon="6.39731">
        <ele>425</ele>
        <time>2019-06-29T10:39:28Z</time>
      </trkpt>
      <trkpt lat="46.00546" lon="6.39709">
        <ele>426</ele>
        <time>2019-06-29T10:39:32Z</time>
      </trkpt>
      <trkpt lat="46.00573" lon="6.397">
        <ele>427</ele>
        <time>2019-06-29T10:39:36Z</time>
      </trkpt>
      <trkpt lat="46.006" lon="6.39696">
        <ele>426</ele>
        <time>2019-06-29T10:39:40Z</time>
      </trkpt>
      <trkpt lat="46.00628" lon="6.39693">
        <ele>426</ele>
        <time>2019-06-29T10:39:44Z</time>
      </trkpt>
      <trkpt lat="46.00654" lon="6.3969">
        <ele>427</ele>
        <time>2019-06-29T10:39:48Z</time>
      </trkpt>
      <trkpt lat="46.0068" lon="6.39687">
        <ele>426</ele>
        <time>2019-06-29T10:39:52Z</time>
      </trkpt>
      <trkpt lat="46.00706" lon="6.39684">
        <ele>427</ele>
        <time>2019-06-29T10:39:56Z</time>
      </trkpt>
      <trkpt lat="46.00731" lon="6.39681">
        <ele>427</ele>
        <time>2019-06-29T10:40:00Z</time>
      </trkpt>
      <trkpt lat="46.00756" lon="6.39678">
        <ele>428</ele>
        <time>2019-06-29T10:40:04Z</time>
      </trkpt>
      <trkpt lat="46.00781" lon="6.39675">
        <ele>427</ele>
        <time>2019-06-29T10:40:08Z</time>
      </trkpt>
      <trkpt lat="46.00806" lon="6.39676">
        <ele>426</ele>
        <time>2019-06-29T10:40:12Z</time>
      </trkpt>
      <trkpt lat="46.00834" lon="6.39678">
        <ele>426</ele>
        <time>2019-06-29T10:40:16Z</time>
      </trkpt>
      <trkpt lat="46.00863" lon="6.39681">
        <ele>426</ele>
        <time>2019-06-29T10:40:20Z</time>
      </trkpt>
      <trkpt lat="46.00893" lon="6.39683">
        <ele>425</ele>
        <time>2019-06-29T10:40:24Z</time>
      </trkpt>
      <trkpt lat="46.00924" lon="6.39685">
        <ele>424</ele>
        <time>2019-06-29T10:40:28Z</time>
      </trkpt>
      <trkpt lat="46.00955" lon="6.39687">
        <ele>424</ele>
        <time>2019-06-29T10:40:32Z</time>
      </trkpt>
      <trkpt lat="46.00987" lon="6.39689">
        <ele>422</ele>
        <time>2019-06-29T10:40:36Z</time>
      </trkpt>
      <trkpt lat="46.01018" lon="6.39688">
        <ele>422</ele>
        <time>2019-06-29T10:40:40Z</time>
      </trkpt>
      <trkpt lat="46.01045" lon="6.39679">
        <ele>424</ele>
        <time>2019-06-29T10:40:44Z</time>
      </trkpt>
      <trkpt lat="46.0107" lon="6.39664">
        <ele>425</ele>
        <time>2019-06-29T10:40:48Z</time>
      </trkpt>
      <trkpt lat="46.01092" lon="6.39645">
        <ele>425</ele>
        <time>2019-06-29T10:40:52Z</time>
      </trkpt>
      <trkpt lat="46.01113" lon="6.39623">
        <ele>426</ele>
        <time>2019-06-29T10:40:56Z</time>
      </trkpt>
      <trkpt lat="46.01133" lon="6.39602">
        <ele>426</ele>
        <time>2019-06-29T10:41:00Z</time>
      </trkpt>
      <trkpt lat="46.01155" lon="6.39585">
        <ele>427</ele>
        <time>2019-06-29T10:41:04Z</time>
      </trkpt>
      <trkpt lat="46.0118" lon="6.39583">
        <ele>426</ele>
        <time>2019-06-29T10:41:08Z</time>
      </trkpt>
      <trkpt lat="46.01207" lon="6.39592">
        <ele>425</ele>
        <time>2019-06-29T10:41:12Z</time>
      </trkpt>
      <trkpt lat="46.01235" lon="6.39604">
        <ele>423</ele>
        <time>2019-06-29T10:41:16Z</time>
      </trkpt>
      <trkpt lat="46.01265" lon="6.39617">
        <ele>422</ele>
        <time>2019-06-29T10:41:20Z</time>
      </trkpt>
      <trkpt lat="46.01293" lon="6.39631">
        <ele>422</ele>
        <time>2019-06-29T10:41:24Z</time>
      </trkpt>
      <trkpt lat="46.01323" lon="6.39646">
        <ele>422</ele>
        <time>2019-06-29T10:41:28Z</time>
      </trkpt>
      <trkpt lat="46.01354" lon="6.39654">
        <ele>422</ele>
        <time>2019-06-29T10:41:32Z</time>
      </trkpt>
      <trkpt lat="46.01385" lon="6.39649">
        <ele>420</ele>
        <time>2019-06-29T10:41:36Z</time>
      </trkpt>
      <trkpt lat="46.01412" lon="6.39643">
        <ele>422</ele>
        <time>2019-06-29T10:41:40Z</time>
      </trkpt>
      <trkpt lat="46.01437" lon="6.39638">
        <ele>425</ele>
        <time>2019-06-29T10:41:44Z</time>
      </trkpt>
      <trkpt lat="46.01461" lon="6.39632">
        <ele>424</ele>
        <time>2019-06-29T10:41:48Z</time>
      </trkpt>
      <trkpt lat="46.01485" lon="6.39625">
        <ele>425</ele>
        <time>2019-06-29T10:41:52Z</time>
      </trkpt>
      <trkpt lat="46.01508" lon="6.39619">
        <ele>425</ele>
        <time>2019-06-29T10:41:56Z</time>
      </trkpt>
      <trkpt lat="46.01531" lon="6.39613">
        <ele>426</ele>
        <time>2019-06-29T10:42:00Z</time>
      </trkpt>
      <trkpt lat="46.01554" lon="6.39605">
        <ele>426</ele>
        <time>2019-06-29T10:42:04Z</time>
      </trkpt>
      <trkpt lat="46.01577" lon="6.39598">
        <ele>425</ele>
        <time>2019-06-29T10:42:08Z</time>
      </trkpt>
      <trkpt lat="46.01604" lon="6.39596">
        <ele>425</ele>
        <time>2019-06-29T10:42:12Z</time>
      </trkpt>
      <trkpt lat="46.01632" lon="6.39603">
        <ele>423</ele>
        <time>2019-06-29T10:42:16Z</time>
      </trkpt>
      <trkpt lat="46.01659" lon="6.39615">
        <ele>423</ele>
        <time>2019-06-29T10:42:20Z</time>
      </trkpt>
      <trkpt lat="46.01687" lon="6.39628">
        <ele>422</ele>
        <time>2019-06-29T10:42:24Z</time>
      </trkpt>
      <trkpt lat="46.01717" lon="6.3964">
        <ele>421</ele>
        <time>2019-06-29T10:42:28Z</time>
      </trkpt>
      <trkpt lat="46.01747" lon="6.39646">
        <ele>420</ele>
        <time>2019-06-29T10:42:32Z</time>
      </trkpt>
      <trkpt lat="46.01778" lon="6.39652">
        <ele>419</ele>
        <time>2019-06-29T10:42:36Z</time>
      </trkpt>
      <trkpt lat="46.0181" lon="6.3966">
        <ele>419</ele>
        <time>2019-06-29T10:42:40Z</time>
      </trkpt>
      <trkpt lat="46.01841" lon="6.39676">
        <ele>419</ele>
        <time>2019-06-29T10:42:44Z</time>
      </trkpt>
      <trkpt lat="46.01869" lon="6.39697">
        <ele>417</ele>
        <time>2019-06-29T10:42:48Z</time>
      </trkpt>
      <trkpt lat="46.01902" lon="6.39703">
        <ele>417</ele>
        <time>2019-06-29T10:42:52Z</time>
      </trkpt>
      <trkpt lat="46.01927" lon="6.39672">
        <ele>417</ele>
        <time>2019-06-29T10:42:56Z</time>
      </trkpt>
      <trkpt lat="46.01944" lon="6.39637">
        <ele>417</ele>
        <time>2019-06-29T10:43:00Z</time>
      </trkpt>
      <trkpt lat="46.01971" lon="6.39623">
        <ele>417</ele>
        <time>2019-06-29T10:43:04Z</time>
      </trkpt>
      <trkpt lat="46.02003" lon="6.39625">
        <ele>417</ele>
        <time>2019-06-29T10:43:08Z</time>
      </trkpt>
      <trkpt lat="46.02031" lon="6.39641">
        <ele>414</ele>
        <time>2019-06-29T10:43:12Z</time>
      </trkpt>
      <trkpt lat="46.0206" lon="6.39663">
        <ele>414</ele>
        <time>2019-06-29T10:43:16Z</time>
      </trkpt>
      <trkpt lat="46.02087" lon="6.39688">
        <ele>413</ele>
        <time>2019-06-29T10:43:20Z</time>
      </trkpt>
      <trkpt lat="46.02116" lon="6.39713">
        <ele>412</ele>
        <time>2019-06-29T10:43:24Z</time>
      </trkpt>
      <trkpt lat="46.02152" lon="6.39709">
        <ele>410</ele>
        <time>2019-06-29T10:43:28Z</time>
      </trkpt>
      <trkpt lat="46.02185" lon="6.39676">
        <ele>407</ele>
        <time>2019-06-29T10:43:32Z</time>
      </trkpt>
      <trkpt lat="46.02216" lon="6.39636">
        <ele>404</ele>
        <time>2019-06-29T10:43:36Z</time>
      </trkpt>
      <trkpt lat="46.02244" lon="6.39588">
        <ele>401</ele>
        <time>2019-06-29T10:43:40Z</time>
      </trkpt>
      <trkpt lat="46.02273" lon="6.39543">
        <ele>398</ele>
        <time>2019-06-29T10:43:44Z</time>
      </trkpt>
      <trkpt lat="46.02314" lon="6.39532">
        <ele>396</ele>
        <time>2019-06-29T10:43:48Z</time>
      </trkpt>
      <trkpt lat="46.02354" lon="6.39518">
        <ele>394</ele>
        <time>2019-06-29T10:43:52Z</time>
      </trkpt>
      <trkpt lat="46.02391" lon="6.39492">
        <ele>392</ele>
        <time>2019-06-29T10:43:56Z</time>
      </trkpt>
      <trkpt lat="46.02435" lon="6.39493">
        <ele>390</ele>
        <time>2019-06-29T10:44:00Z</time>
      </trkpt>
      <trkpt lat="46.02464" lon="6.39453">
        <ele>387</ele>
        <time>2019-06-29T10:44:04Z</time>
      </trkpt>
      <trkpt lat="46.02484" lon="6.39404">
        <ele>385</ele>
        <time>2019-06-29T10:44:08Z</time>
      </trkpt>
      <trkpt lat="46.02518" lon="6.39371">
        <ele>380</ele>
        <time>2019-06-29T10:44:12Z</time>
      </trkpt>
      <trkpt lat="46.02546" lon="6.39323">
        <ele>378</ele>
        <time>2019-06-29T10:44:16Z</time>
      </trkpt>
      <trkpt lat="46.02581" lon="6.39285">
        <ele>377</ele>
        <time>2019-06-29T10:44:20Z</time>
      </trkpt>
      <trkpt lat="46.02619" lon="6.39248">
        <ele>373</ele>
        <time>2019-06-29T10:44:24Z</time>
      </trkpt>
      <trkpt lat="46.02657" lon="6.3921">
        <ele>372</ele>
        <time>2019-06-29T10:44:28Z</time>
      </trkpt>
      <trkpt lat="46.027" lon="6.39185">
        <ele>368</ele>
        <time>2019-06-29T10:44:32Z</time>
      </trkpt>
      <trkpt lat="46.02743" lon="6.39178">
        <ele>367</ele>
        <time>2019-06-29T10:44:36Z</time>
      </trkpt>
      <trkpt lat="46.0277" lon="6.39223">
        <ele>366</ele>
        <time>2019-06-29T10:44:40Z</time>
      </trkpt>
      <trkpt lat="46.02794" lon="6.39277">
        <ele>364</ele>
        <time>2019-06-29T10:44:44Z</time>
      </trkpt>
      <trkpt lat="46.02829" lon="6.39316">
        <ele>360</ele>
        <time>2019-06-29T10:44:48Z</time>
      </trkpt>
      <trkpt lat="46.02868" lon="6.39299">
        <ele>357</ele>
        <time>2019-06-29T10:44:52Z</time>
      </trkpt>
      <trkpt lat="46.02885" lon="6.39241">
        <ele>356</ele>
        <time>2019-06-29T10:44:56Z</time>
      </trkpt>
      <trkpt lat="46.02885" lon="6.39178">
        <ele>352</ele>
        <time>2019-06-29T10:45:00Z</time>
      </trkpt>
      <trkpt lat="46.02885" lon="6.39118">
        <ele>351</ele>
        <time>2019-06-29T10:45:04Z</time>
      </trkpt>
      <trkpt lat="46.02918" lon="6.39102">
        <ele>348</ele>
        <time>2019-06-29T10:45:08Z</time>
      </trkpt>
      <trkpt lat="46.02958" lon="6.39111">
        <ele>348</ele>
        <time>2019-06-29T10:45:12Z</time>
      </trkpt>
      <trkpt lat="46.03002" lon="6.39107">
        <ele>345</ele>
        <time>2019-06-29T10:45:16Z</time>
      </trkpt>
      <trkpt lat="46.03048" lon="6.39091">
        <ele>343</ele>
        <time>2019-06-29T10:45:20Z</time>
      </trkpt>
      <trkpt lat="46.03091" lon="6.39062">
        <ele>339</ele>
        <time>2019-06-29T10:45:24Z</time>
      </trkpt>
      <trkpt lat="46.03128" lon="6.39023">
        <ele>334</ele>
        <time>2019-06-29T10:45:28Z</time>
      </trkpt>
      <trkpt lat="46.03161" lon="6.38985">
        <ele>332</ele>
        <time>2019-06-29T10:45:32Z</time>
      </trkpt>
      <trkpt lat="46.03198" lon="6.3895">
        <ele>329</ele>
        <time>2019-06-29T10:45:36Z</time>
      </trkpt>
      <trkpt lat="46.03236" lon="6.38912">
        <ele>326</ele>
        <time>2019-06-29T10:45:40Z</time>
      </trkpt>
      <trkpt lat="46.03273" lon="6.38874">
        <ele>325</ele>
        <time>2019-06-29T10:45:44Z</time>
      </trkpt>
      <trkpt lat="46.03303" lon="6.38817">
        <ele>323</ele>
        <time>2019-06-29T10:45:48Z</time>
      </trkpt>
      <trkpt lat="46.03332" lon="6.38763">
        <ele>321</ele>
        <time>2019-06-29T10:45:52Z</time>
      </trkpt>
      <trkpt lat="46.03363" lon="6.38708">
        <ele>317</ele>
        <time>2019-06-29T10:45:56Z</time>
      </trkpt>
      <trkpt lat="46.03393" lon="6.38655">
        <ele>315</ele>
        <time>2019-06-29T10:46:00Z</time>
      </trkpt>
      <trkpt lat="46.0342" lon="6.38601">
        <ele>314</ele>
        <time>2019-06-29T10:46:04Z</time>
      </trkpt>
      <trkpt lat="46.03432" lon="6.38531">
        <ele>312</ele>
        <time>2019-06-29T10:46:08Z</time>
      </trkpt>
      <trkpt lat="46.03449" lon="6.38467">
        <ele>308</ele>
        <time>2019-06-29T10:46:12Z</time>
      </trkpt>
      <trkpt lat="46.03478" lon="6.38415">
        <ele>305</ele>
        <time>2019-06-29T10:46:16Z</time>
      </trkpt>
      <trkpt lat="46.03505" lon="6.38358">
        <ele>302</ele>
        <time>2019-06-29T10:46:20Z</time>
      </trkpt>
      <trkpt lat="46.03536" lon="6.38315">
        <ele>300</ele>
        <time>2019-06-29T10:46:24Z</time>
      </trkpt>
      <trkpt lat="46.0357" lon="6.38277">
        <ele>301</ele>
        <time>2019-06-29T10:46:28Z</time>
      </trkpt>
      <trkpt lat="46.03613" lon="6.38252">
        <ele>300</ele>
        <time>2019-06-29T10:46:32Z</time>
      </trkpt>
      <trkpt lat="46.03653" lon="6.38216">
        <ele>297</ele>
        <time>2019-06-29T10:46:36Z</time>
      </trkpt>
      <trkpt lat="46.03692" lon="6.38175">
        <ele>295</ele>
        <time>2019-06-29T10:46:40Z</time>
      </trkpt>
      <trkpt lat="46.03738" lon="6.38165">
        <ele>290</ele>
        <time>2019-06-29T10:46:44Z</time>
      </trkpt>
      <trkpt lat="46.03773" lon="6.38124">
        <ele>289</ele>
        <time>2019-06-29T10:46:48Z</time>
      </trkpt>
      <trkpt lat="46.03808" lon="6.38071">
        <ele>287</ele>
        <time>2019-06-29T10:46:52Z</time>
      </trkpt>
      <trkpt lat="46.03851" lon="6.3803">
        <ele>283</ele>
        <time>2019-06-29T10:46:56Z</time>
      </trkpt>
      <trkpt lat="46.03894" lon="6.3799">
        <ele>281</ele>
        <time>2019-06-29T10:47:00Z</time>
      </trkpt>
      <trkpt lat="46.03936" lon="6.37956">
        <ele>282</ele>
        <time>2019-06-29T10:47:04Z</time>
      </trkpt>
      <trkpt lat="46.03983" lon="6.37945">
        <ele>282</ele>
        <time>2019-06-29T10:47:08Z</time>
      </trkpt>
      <trkpt lat="46.04028" lon="6.37928">
        <ele>282</ele>
        <time>2019-06-29T10:47:12Z</time>
      </trkpt>
      <trkpt lat="46.04072" lon="6.37908">
        <ele>282</ele>
        <time>2019-06-29T10:47:16Z</time>
      </trkpt>
      <trkpt lat="46.04099" lon="6.37881">
        <ele>280</ele>
        <time>2019-06-29T10:47:20Z</time>
      </trkpt>
      <trkpt lat="46.0414" lon="6.37884">
        <ele>280</ele>
        <time>2019-06-29T10:47:24Z</time>
      </trkpt>
      <trkpt lat="46.04188" lon="6.37882">
        <ele>279</ele>
        <time>2019-06-29T10:47:28Z</time>
      </trkpt>
      <trkpt lat="46.04235" lon="6.37884">
        <ele>280</ele>
        <time>2019-06-29T10:47:32Z</time>
      </trkpt>
      <trkpt lat="46.0427" lon="6.37855">
        <ele>279</ele>
        <time>2019-06-29T10:47:36Z</time>
      </trkpt>
      <trkpt lat="46.04303" lon="6.37853">
        <ele>276</ele>
        <time>2019-06-29T10:47:40Z</time>
      </trkpt>
      <trkpt lat="46.04337" lon="6.3785">
        <ele>276</ele>
        <time>2019-06-29T10:47:44Z</time>
      </trkpt>
      <trkpt lat="46.04376" lon="6.37832">
        <ele>276</ele>
        <time>2019-06-29T10:47:48Z</time>
      </trkpt>
      <trkpt lat="46.04428" lon="6.37812">
        <ele>273</ele>
        <time>2019-06-29T10:47:52Z</time>
      </trkpt>
      <trkpt lat="46.045" lon="6.37813">
        <ele>270</ele>
        <time>2019-06-29T10:47:56Z</time>
      </trkpt>
      <trkpt lat="46.04523" lon="6.37767">
        <ele>266</ele>
        <time>2019-06-29T10:48:00Z</time>
      </trkpt>
      <trkpt lat="46.04524" lon="6.37728">
        <ele>265</ele>
        <time>2019-06-29T10:48:04Z</time>
      </trkpt>
      <trkpt lat="46.04554" lon="6.37702">
        <ele>266</ele>
        <time>2019-06-29T10:48:08Z</time>
      </trkpt>
      <trkpt lat="46.04568" lon="6.37651">
        <ele>267</ele>
        <time>2019-06-29T10:48:12Z</time>
      </trkpt>
      <trkpt lat="46.04575" lon="6.37605">
        <ele>266</ele>
        <time>2019-06-29T10:48:16Z</time>
      </trkpt>
      <trkpt lat="46.046" lon="6.37587">
        <ele>267</ele>
        <time>2019-06-29T10:48:20Z</time>
      </trkpt>
      <trkpt lat="46.04634" lon="6.37579">
        <ele>264</ele>
        <time>2019-06-29T10:48:24Z</time>
      </trkpt>
      <trkpt lat="46.04655" lon="6.37539">
        <ele>261</ele>
        <time>2019-06-29T10:48:28Z</time>
      </trkpt>
      <trkpt lat="46.04673" lon="6.37507">
        <ele>260</ele>
        <time>2019-06-29T10:48:32Z</time>
      </trkpt>
      <trkpt lat="46.04706" lon="6.37515">
        <ele>258</ele>
        <time>2019-06-29T10:48:36Z</time>
      </trkpt>
      <trkpt lat="46.04743" lon="6.37508">
        <ele>256</ele>
        <time>2019-06-29T10:48:40Z</time>
      </trkpt>
      <trkpt lat="46.04778" lon="6.37528">
        <ele>253</ele>
        <time>2019-06-29T10:48:44Z</time>
      </trkpt>
      <trkpt lat="46.04816" lon="6.3758">
        <ele>249</ele>
        <time>2019-06-29T10:48:48Z</time>
      </trkpt>
      <trkpt lat="46.04846" lon="6.37559">
        <ele>248</ele>
        <time>2019-06-29T10:48:52Z</time>
      </trkpt>
      <trkpt lat="46.04874" lon="6.37556">
        <ele>247</ele>
        <time>2019-06-29T10:48:56Z</time>
      </trkpt>
      <trkpt lat="46.04912" lon="6.37578">
        <ele>244</ele>
        <time>2019-06-29T10:49:00Z</time>
      </trkpt>
      <trkpt lat="46.04955" lon="6.376">
        <ele>240</ele>
        <time>2019-06-29T10:49:04Z</time>
      </trkpt>
      <trkpt lat="46.04994" lon="6.37604">
        <ele>237</ele>
        <time>2019-06-29T10:49:08Z</time>
      </trkpt>
      <trkpt lat="46.05028" lon="6.37608">
        <ele>238</ele>
        <time>2019-06-29T10:49:12Z</time>
      </trkpt>
      <trkpt lat="46.0506" lon="6.3764">
        <ele>236</ele>
        <time>2019-06-29T10:49:16Z</time>
      </trkpt>
      <trkpt lat="46.05098" lon="6.3764">
        <ele>231</ele>
        <time>2019-06-29T10:49:20Z</time>
      </trkpt>
      <trkpt lat="46.05132" lon="6.376">
        <ele>230</ele>
        <time>2019-06-29T10:49:24Z</time>
      </trkpt>
      <trkpt lat="46.05167" lon="6.3756">
        <ele>227</ele>
        <time>2019-06-29T10:49:28Z</time>
      </trkpt>
      <trkpt lat="46.05197" lon="6.3751">
        <ele>223</ele>
        <time>2019-06-29T10:49:32Z</time>
      </trkpt>
      <trkpt lat="46.05229" lon="6.37464">
        <ele>220</ele>
        <time>2019-06-29T10:49:36Z</time>
      </trkpt>
      <trkpt lat="46.05263" lon="6.37419">
        <ele>219</ele>
        <time>2019-06-29T10:49:40Z</time>
      </trkpt>
      <trkpt lat="46.05288" lon="6.37393">
        <ele>219</ele>
        <time>2019-06-29T10:49:44Z</time>
      </trkpt>
      <trkpt lat="46.05307" lon="6.37372">
        <ele>214</ele>
        <time>2019-06-29T10:49:48Z</time>
      </trkpt>
      <trkpt lat="46.05337" lon="6.37351">
        <ele>213</ele>
        <time>2019-06-29T10:49:52Z</time>
      </trkpt>
      <trkpt lat="46.05368" lon="6.37314">
        <ele>213</ele>
        <time>2019-06-29T10:49:56Z</time>
      </trkpt>
      <trkpt lat="46.05359" lon="6.37309">
        <ele>214</ele>
        <time>2019-06-29T10:50:00Z</time>
      </trkpt>
      <trkpt lat="46.05349" lon="6.37288">
        <ele>212</ele>
        <time>2019-06-29T10:50:04Z</time>
      </trkpt>
      <trkpt lat="46.05371" lon="6.3726">
        <ele>211</ele>
        <time>2019-06-29T10:50:08Z</time>
      </trkpt>
      <trkpt lat="46.05398" lon="6.37231">
        <ele>209</ele>
        <time>2019-06-29T10:50:12Z</time>
      </trkpt>
      <trkpt lat="46.05432" lon="6.37206">
        <ele>207</ele>
        <time>2019-06-29T10:50:16Z</time>
      </trkpt>
      <trkpt lat="46.05465" lon="6.37185">
        <ele>205</ele>
        <time>2019-06-29T10:50:20Z</time>
      </trkpt>
      <trkpt lat="46.05491" lon="6.37183">
        <ele>206</ele>
        <time>2019-06-29T10:50:24Z</time>
      </trkpt>
      <trkpt lat="46.05505" lon="6.37172">
        <ele>206</ele>
        <time>2019-06-29T10:50:28Z</time>
      </trkpt>
      <trkpt lat="46.05508" lon="6.37154">
        <ele>206</ele>
        <time>2019-06-29T10:50:32Z</time>
      </trkpt>
      <trkpt lat="46.05512" lon="6.37137">
        <ele>207</ele>
        <time>2019-06-29T10:50:36Z</time>
      </trkpt>
      <trkpt lat="46.05517" lon="6.3712">
        <ele>208</ele>
        <time>2019-06-29T10:50:40Z</time>
      </trkpt>
      <trkpt lat="46.05523" lon="6.37113">
        <ele>210</ele>
        <time>2019-06-29T10:52:28Z</time>
      </trkpt>
      <trkpt lat="46.05522" lon="6.37112">
        <ele>210</ele>
        <time>2019-06-29T10:52:40Z</time>
      </trkpt>
      <trkpt lat="46.05523" lon="6.37103">
        <ele>210</ele>
        <time>2019-06-29T10:52:44Z</time>
      </trkpt>
      <trkpt lat="46.05524" lon="6.37088">
        <ele>210</ele>
        <time>2019-06-29T10:52:48Z</time>
      </trkpt>
      <trkpt lat="46.05525" lon="6.37071">
        <ele>210</ele>
        <time>2019-06-29T10:52:52Z</time>
      </trkpt>
      <trkpt lat="46.05525" lon="6.37051">
        <ele>211</ele>
        <time>2019-06-29T10:52:56Z</time>
      </trkpt>
      <trkpt lat="46.05525" lon="6.37029">
        <ele>212</ele>
        <time>2019-06-29T10:53:00Z</time>
      </trkpt>
      <trkpt lat="46.05527" lon="6.37006">
        <ele>214</ele>
        <time>2019-06-29T10:53:04Z</time>
      </trkpt>
      <trkpt lat="46.05528" lon="6.36983">
        <ele>214</ele>
        <time>2019-06-29T10:53:08Z</time>
      </trkpt>
      <trkpt lat="46.05531" lon="6.3696">
        <ele>215</ele>
        <time>2019-06-29T10:53:12Z</time>
      </trkpt>
      <trkpt lat="46.05535" lon="6.36939">
        <ele>215</ele>
        <time>2019-06-29T10:53:16Z</time>
      </trkpt>
      <trkpt lat="46.05537" lon="6.36918">
        <ele>217</ele>
        <time>2019-06-29T10:53:20Z</time>
      </trkpt>
      <trkpt lat="46.05541" lon="6.36902">
        <ele>217</ele>
        <time>2019-06-29T10:53:24Z</time>
      </trkpt>
      <trkpt lat="46.05543" lon="6.36883">
        <ele>217</ele>
        <time>2019-06-29T10:53:28Z</time>
      </trkpt>
      <trkpt lat="46.05544" lon="6.36867">
        <ele>218</ele>
        <time>2019-06-29T10:53:32Z</time>
      </trkpt>
      <trkpt lat="46.05542" lon="6.36852">
        <ele>219</ele>
        <time>2019-06-29T10:53:36Z</time>
      </trkpt>
      <trkpt lat="46.05538" lon="6.36846">
        <ele>219</ele>
        <time>2019-06-29T10:53:40Z</time>
      </trkpt>
      <trkpt lat="46.05539" lon="6.36865">
        <ele>218</ele>
        <time>2019-06-29T10:53:44Z</time>
      </trkpt>
      <trkpt lat="46.05538" lon="6.36893">
        <ele>216</ele>
        <time>2019-06-29T10:53:48Z</time>
      </trkpt>
      <trkpt lat="46.05532" lon="6.36929">
        <ele>214</ele>
        <time>2019-06-29T10:53:52Z</time>
      </trkpt>
      <trkpt lat="46.05527" lon="6.36969">
        <ele>212</ele>
        <time>2019-06-29T10:53:56Z</time>
      </trkpt>
      <trkpt lat="46.05523" lon="6.37014">
        <ele>210</ele>
        <time>2019-06-29T10:54:00Z</time>
      </trkpt>
      <trkpt lat="46.0552" lon="6.37061">
        <ele>208</ele>
        <time>2019-06-29T10:54:04Z</time>
      </trkpt>
      <trkpt lat="46.05517" lon="6.37111">
        <ele>206</ele>
        <time>2019-06-29T10:54:08Z</time>
      </trkpt>
      <trkpt lat="46.0551" lon="6.37157">
        <ele>207</ele>
        <time>2019-06-29T10:54:12Z</time>
      </trkpt>
      <trkpt lat="46.05507" lon="6.37182">
        <ele>208</ele>
        <time>2019-06-29T10:54:16Z</time>
      </trkpt>
      <trkpt lat="46.05519" lon="6.37202">
        <ele>204</ele>
        <time>2019-06-29T10:54:20Z</time>
      </trkpt>
      <trkpt lat="46.05541" lon="6.37224">
        <ele>202</ele>
        <time>2019-06-29T10:54:24Z</time>
      </trkpt>
      <trkpt lat="46.05564" lon="6.3725">
        <ele>199</ele>
        <time>2019-06-29T10:54:28Z</time>
      </trkpt>
      <trkpt lat="46.0559" lon="6.37279">
        <ele>197</ele>
        <time>2019-06-29T10:54:32Z</time>
      </trkpt>
      <trkpt lat="46.05616" lon="6.37308">
        <ele>197</ele>
        <time>2019-06-29T10:54:36Z</time>
      </trkpt>
      <trkpt lat="46.05641" lon="6.37335">
        <ele>197</ele>
        <time>2019-06-29T10:54:40Z</time>
      </trkpt>
      <trkpt lat="46.05664" lon="6.37364">
        <ele>197</ele>
        <time>2019-06-29T10:54:44Z</time>
      </trkpt>
      <trkpt lat="46.0568" lon="6.37401">
        <ele>196</ele>
        <time>2019-06-29T10:54:48Z</time>
      </trkpt>
      <trkpt lat="46.05696" lon="6.37441">
        <ele>196</ele>
        <time>2019-06-29T10:54:52Z</time>
      </trkpt>
      <trkpt lat="46.05711" lon="6.3748">
        <ele>196</ele>
        <time>2019-06-29T10:54:56Z</time>
      </trkpt>
      <trkpt lat="46.05718" lon="6.37509">
        <ele>197</ele>
        <time>2019-06-29T10:55:00Z</time>
      </trkpt>
      <trkpt lat="46.05724" lon="6.37531">
        <ele>197</ele>
        <time>2019-06-29T10:55:04Z</time>
      </trkpt>
      <trkpt lat="46.05729" lon="6.37557">
        <ele>197</ele>
        <time>2019-06-29T10:55:08Z</time>
      </trkpt>
      <trkpt lat="46.05733" lon="6.37565">
        <ele>197</ele>
        <time>2019-06-29T10:55:12Z</time>
      </trkpt>
      <trkpt lat="46.05731" lon="6.37548">
        <ele>197</ele>
        <time>2019-06-29T10:55:16Z</time>
      </trkpt>
      <trkpt lat="46.05734" lon="6.37525">
        <ele>197</ele>
        <time>2019-06-29T10:55:20Z</time>
      </trkpt>
      <trkpt lat="46.05753" lon="6.3751">
        <ele>195</ele>
        <time>2019-06-29T10:55:24Z</time>
      </trkpt>
      <trkpt lat="46.05774" lon="6.37501">
        <ele>196</ele>
        <time>2019-06-29T10:55:28Z</time>
      </trkpt>
      <trkpt lat="46.05792" lon="6.37495">
        <ele>196</ele>
        <time>2019-06-29T10:55:32Z</time>
      </trkpt>
      <trkpt lat="46.05812" lon="6.37488">
        <ele>195</ele>
        <time>2019-06-29T10:55:36Z</time>
      </trkpt>
      <trkpt lat="46.05834" lon="6.3749">
        <ele>194</ele>
        <time>2019-06-29T10:55:40Z</time>
      </trkpt>
      <trkpt lat="46.05847" lon="6.37468">
        <ele>194</ele>
        <time>2019-06-29T10:55:44Z</time>
      </trkpt>
      <trkpt lat="46.05857" lon="6.37442">
        <ele>195</ele>
        <time>2019-06-29T10:55:48Z</time>
      </trkpt>
      <trkpt lat="46.05874" lon="6.37428">
        <ele>195</ele>
        <time>2019-06-29T10:55:52Z</time>
      </trkpt>
      <trkpt lat="46.05889" lon="6.37411">
        <ele>195</ele>
        <time>2019-06-29T10:55:56Z</time>
      </trkpt>
      <trkpt lat="46.05901" lon="6.37386">
        <ele>194</ele>
        <time>2019-06-29T10:56:00Z</time>
      </trkpt>
      <trkpt lat="46.05916" lon="6.37361">
        <ele>194</ele>
        <time>2019-06-29T10:56:04Z</time>
      </trkpt>
      <trkpt lat="46.05932" lon="6.37336">
        <ele>195</ele>
        <time>2019-06-29T10:56:08Z</time>
      </trkpt>
      <trkpt lat="46.05944" lon="6.37306">
        <ele>195</ele>
        <time>2019-06-29T10:56:12Z</time>
      </trkpt>
      <trkpt lat="46.0595" lon="6.3727">
        <ele>194</ele>
        <time>2019-06-29T10:56:16Z</time>
      </trkpt>
      <trkpt lat="46.05954" lon="6.3723">
        <ele>194</ele>
        <time>2019-06-29T10:56:20Z</time>
      </trkpt>
      <trkpt lat="46.05956" lon="6.3719">
        <ele>195</ele>
        <time>2019-06-29T10:56:24Z</time>
      </trkpt>
      <trkpt lat="46.05954" lon="6.3715">
        <ele>195</ele>
        <time>2019-06-29T10:56:28Z</time>
      </trkpt>
      <trkpt lat="46.05951" lon="6.37111">
        <ele>195</ele>
        <time>2019-06-29T10:56:32Z</time>
      </trkpt>
      <trkpt lat="46.05945" lon="6.37071">
        <ele>194</ele>
        <time>2019-06-29T10:56:36Z</time>
      </trkpt>
      <trkpt lat="46.05941" lon="6.3703">
        <ele>194</ele>
        <time>2019-06-29T10:56:40Z</time>
      </trkpt>
      <trkpt lat="46.05943" lon="6.36988">
        <ele>192</ele>
        <time>2019-06-29T10:56:44Z</time>
      </trkpt>
      <trkpt lat="46.0595" lon="6.3695">
        <ele>193</ele>
        <time>2019-06-29T10:56:48Z</time>
      </trkpt>
      <trkpt lat="46.05956" lon="6.36914">
        <ele>193</ele>
        <time>2019-06-29T10:56:52Z</time>
      </trkpt>
      <trkpt lat="46.0596" lon="6.36893">
        <ele>194</ele>
        <time>2019-06-29T10:56:56Z</time>
      </trkpt>
      <trkpt lat="46.05963" lon="6.36875">
        <ele>194</ele>
        <time>2019-06-29T10:57:00Z</time>
      </trkpt>
      <trkpt lat="46.05965" lon="6.36853">
        <ele>194</ele>
        <time>2019-06-29T10:57:04Z</time>
      </trkpt>
      <trkpt lat="46.05967" lon="6.36828">
        <ele>194</ele>
        <time>2019-06-29T10:57:08Z</time>
      </trkpt>
      <trkpt lat="46.05968" lon="6.36801">
        <ele>194</ele>
        <time>2019-06-29T10:57:12Z</time>
      </trkpt>
      <trkpt lat="46.05968" lon="6.3678">
        <ele>195</ele>
        <time>2019-06-29T10:57:16Z</time>
      </trkpt>
      <trkpt lat="46.05969" lon="6.3677">
        <ele>194</ele>
        <time>2019-06-29T10:57:20Z</time>
      </trkpt>
      <trkpt lat="46.05972" lon="6.36748">
        <ele>194</ele>
        <time>2019-06-29T10:57:24Z</time>
      </trkpt>
      <trkpt lat="46.05974" lon="6.36721">
        <ele>193</ele>
        <time>2019-06-29T10:57:28Z</time>
      </trkpt>
      <trkpt lat="46.05977" lon="6.36688">
        <ele>193</ele>
        <time>2019-06-29T10:57:32Z</time>
      </trkpt>
      <trkpt lat="46.05979" lon="6.36652">
        <ele>192</ele>
        <time>2019-06-29T10:57:36Z</time>
      </trkpt>
      <trkpt lat="46.05981" lon="6.36613">
        <ele>192</ele>
        <time>2019-06-29T10:57:40Z</time>
      </trkpt>
      <trkpt lat="46.0598" lon="6.36574">
        <ele>191</ele>
        <time>2019-06-29T10:57:44Z</time>
      </trkpt>
      <trkpt lat="46.05978" lon="6.36534">
        <ele>190</ele>
        <time>2019-06-29T10:57:48Z</time>
      </trkpt>
      <trkpt lat="46.05976" lon="6.36493">
        <ele>189</ele>
        <time>2019-06-29T10:57:52Z</time>
      </trkpt>
      <trkpt lat="46.05971" lon="6.36452">
        <ele>188</ele>
        <time>2019-06-29T10:57:56Z</time>
      </trkpt>
      <trkpt lat="46.05963" lon="6.36416">
        <ele>189</ele>
        <time>2019-06-29T10:58:00Z</time>
      </trkpt>
      <trkpt lat="46.05967" lon="6.36381">
        <ele>189</ele>
        <time>2019-06-29T10:58:04Z</time>
      </trkpt>
      <trkpt lat="46.05982" lon="6.36359">
        <ele>189</ele>
        <time>2019-06-29T10:58:08Z</time>
      </trkpt>
      <trkpt lat="46.06002" lon="6.36358">
        <ele>189</ele>
        <time>2019-06-29T10:58:12Z</time>
      </trkpt>
      <trkpt lat="46.06022" lon="6.36361">
        <ele>189</ele>
        <time>2019-06-29T10:58:16Z</time>
      </trkpt>
      <trkpt lat="46.06045" lon="6.36366">
        <ele>188</ele>
        <time>2019-06-29T10:58:20Z</time>
      </trkpt>
      <trkpt lat="46.06071" lon="6.3637">
        <ele>188</ele>
        <time>2019-06-29T10:58:24Z</time>
      </trkpt>
      <trkpt lat="46.06099" lon="6.36373">
        <ele>187</ele>
        <time>2019-06-29T10:58:28Z</time>
      </trkpt>
      <trkpt lat="46.06128" lon="6.36376">
        <ele>187</ele>
        <time>2019-06-29T10:58:32Z</time>
      </trkpt>
      <trkpt lat="46.06158" lon="6.36377">
        <ele>185</ele>
        <time>2019-06-29T10:58:36Z</time>
      </trkpt>
      <trkpt lat="46.06188" lon="6.36373">
        <ele>187</ele>
        <time>2019-06-29T10:58:40Z</time>
      </trkpt>
      <trkpt lat="46.06217" lon="6.36381">
        <ele>186</ele>
        <time>2019-06-29T10:58:44Z</time>
      </trkpt>
      <trkpt lat="46.06248" lon="6.36388">
        <ele>186</ele>
        <time>2019-06-29T10:58:48Z</time>
      </trkpt>
      <trkpt lat="46.0628" lon="6.36395">
        <ele>186</ele>
        <time>2019-06-29T10:58:52Z</time>
      </trkpt>
      <trkpt lat="46.06312" lon="6.36402">
        <ele>184</ele>
        <time>2019-06-29T10:58:56Z</time>
      </trkpt>
      <trkpt lat="46.06344" lon="6.36408">
        <ele>184</ele>
        <time>2019-06-29T10:59:00Z</time>
      </trkpt>
      <trkpt lat="46.06376" lon="6.3641">
        <ele>184</ele>
        <time>2019-06-29T10:59:04Z</time>
      </trkpt>
      <trkpt lat="46.06407" lon="6.36408">
        <ele>182</ele>
        <time>2019-06-29T10:59:08Z</time>
      </trkpt>
      <trkpt lat="46.0644" lon="6.36407">
        <ele>181</ele>
        <time>2019-06-29T10:59:12Z</time>
      </trkpt>
      <trkpt lat="46.06474" lon="6.36409">
        <ele>181</ele>
        <time>2019-06-29T10:59:16Z</time>
      </trkpt>
      <trkpt lat="46.06506" lon="6.36412">
        <ele>182</ele>
        <time>2019-06-29T10:59:20Z</time>
      </trkpt>
      <trkpt lat="46.06537" lon="6.36417">
        <ele>182</ele>
        <time>2019-06-29T10:59:24Z</time>
      </trkpt>
      <trkpt lat="46.06566" lon="6.36424">
        <ele>181</ele>
        <time>2019-06-29T10:59:28Z</time>
      </trkpt>
      <trkpt lat="46.06597" lon="6.36426">
        <ele>180</ele>
        <time>2019-06-29T10:59:32Z</time>
      </trkpt>
      <trkpt lat="46.06629" lon="6.36433">
        <ele>180</ele>
        <time>2019-06-29T10:59:36Z</time>
      </trkpt>
      <trkpt lat="46.0666" lon="6.36439">
        <ele>180</ele>
        <time>2019-06-29T10:59:40Z</time>
      </trkpt>
      <trkpt lat="46.06691" lon="6.36445">
        <ele>181</ele>
        <time>2019-06-29T10:59:44Z</time>
      </trkpt>
      <trkpt lat="46.06722" lon="6.36451">
        <ele>181</ele>
        <time>2019-06-29T10:59:48Z</time>
      </trkpt>
      <trkpt lat="46.06754" lon="6.36457">
        <ele>180</ele>
        <time>2019-06-29T10:59:52Z</time>
      </trkpt>
      <trkpt lat="46.06786" lon="6.36463">
        <ele>179</ele>
        <time>2019-06-29T10:59:56Z</time>
      </trkpt>
      <trkpt lat="46.06817" lon="6.36468">
        <ele>178</ele>
        <time>2019-06-29T11:00:00Z</time>
      </trkpt>
      <trkpt lat="46.06848" lon="6.36474">
        <ele>178</ele>
        <time>2019-06-29T11:00:04Z</time>
      </trkpt>
      <trkpt lat="46.0688" lon="6.36481">
        <ele>178</ele>
        <time>2019-06-29T11:00:08Z</time>
      </trkpt>
      <trkpt lat="46.06912" lon="6.36487">
        <ele>178</ele>
        <time>2019-06-29T11:00:12Z</time>
      </trkpt>
      <trkpt lat="46.06945" lon="6.36492">
        <ele>178</ele>
        <time>2019-06-29T11:00:16Z</time>
      </trkpt>
      <trkpt lat="46.06977" lon="6.36495">
        <ele>177</ele>
        <time>2019-06-29T11:00:20Z</time>
      </trkpt>
      <trkpt lat="46.07009" lon="6.36498">
        <ele>177</ele>
        <time>2019-06-29T11:00:24Z</time>
      </trkpt>
      <trkpt lat="46.07041" lon="6.36499">
        <ele>177</ele>
        <time>2019-06-29T11:00:28Z</time>
      </trkpt>
      <trkpt lat="46.07071" lon="6.36504">
        <ele>177</ele>
        <time>2019-06-29T11:00:32Z</time>
      </trkpt>
      <trkpt lat="46.07096" lon="6.36511">
        <ele>178</ele>
        <time>2019-06-29T11:00:36Z</time>
      </trkpt>
      <trkpt lat="46.0711" lon="6.36519">
        <ele>180</ele>
        <time>2019-06-29T11:00:40Z</time>
      </trkpt>
      <trkpt lat="46.07122" lon="6.36534">
        <ele>179</ele>
        <time>2019-06-29T11:00:44Z</time>
      </trkpt>
      <trkpt lat="46.07145" lon="6.36532">
        <ele>177</ele>
        <time>2019-06-29T11:00:48Z</time>
      </trkpt>
      <trkpt lat="46.07162" lon="6.36522">
        <ele>178</ele>
        <time>2019-06-29T11:00:52Z</time>
      </trkpt>
      <trkpt lat="46.07164" lon="6.36522">
        <ele>179</ele>
        <time>2019-06-29T11:01:00Z</time>
      </trkpt>
      <trkpt lat="46.07175" lon="6.36523">
        <ele>178</ele>
        <time>2019-06-29T11:01:04Z</time>
      </trkpt>
      <trkpt lat="46.07192" lon="6.36526">
        <ele>177</ele>
        <time>2019-06-29T11:01:08Z</time>
      </trkpt>
      <trkpt lat="46.07214" lon="6.3653">
        <ele>176</ele>
        <time>2019-06-29T11:01:12Z</time>
      </trkpt>
      <trkpt lat="46.07239" lon="6.36535">
        <ele>174</ele>
        <time>2019-06-29T11:01:16Z</time>
      </trkpt>
      <trkpt lat="46.07265" lon="6.36539">
        <ele>174</ele>
        <time>2019-06-29T11:01:20Z</time>
      </trkpt>
      <trkpt lat="46.07293" lon="6.36545">
        <ele>174</ele>
        <time>2019-06-29T11:01:24Z</time>
      </trkpt>
      <trkpt lat="46.07322" lon="6.36549">
        <ele>173</ele>
        <time>2019-06-29T11:01:28Z</time>
      </trkpt>
      <trkpt lat="46.0735" lon="6.36555">
        <ele>173</ele>
        <time>2019-06-29T11:01:32Z</time>
      </trkpt>
      <trkpt lat="46.07378" lon="6.36562">
        <ele>173</ele>
        <time>2019-06-29T11:01:36Z</time>
      </trkpt>
      <trkpt lat="46.07407" lon="6.3657">
        <ele>172</ele>
        <time>2019-06-29T11:01:40Z</time>
      </trkpt>
      <trkpt lat="46.07437" lon="6.36578">
        <ele>171</ele>
        <time>2019-06-29T11:01:44Z</time>
      </trkpt>
      <trkpt lat="46.07467" lon="6.36586">
        <ele>170</ele>
        <time>2019-06-29T11:01:48Z</time>
      </trkpt>
      <trkpt lat="46.07498" lon="6.36594">
        <ele>169</ele>
        <time>2019-06-29T11:01:52Z</time>
      </trkpt>
      <trkpt lat="46.07528" lon="6.36602">
        <ele>170</ele>
        <time>2019-06-29T11:01:56Z</time>
      </trkpt>
      <trkpt lat="46.07558" lon="6.36609">
        <ele>169</ele>
        <time>2019-06-29T11:02:00Z</time>
      </trkpt>
      <trkpt lat="46.07585" lon="6.36617">
        <ele>169</ele>
        <time>2019-06-29T11:02:04Z</time>
      </trkpt>
      <trkpt lat="46.07608" lon="6.36624">
        <ele>170</ele>
        <time>2019-06-29T11:02:08Z</time>
      </trkpt>
      <trkpt lat="46.07627" lon="6.36608">
        <ele>170</ele>
        <time>2019-06-29T11:02:12Z</time>
      </trkpt>
      <trkpt lat="46.07639" lon="6.36577">
        <ele>169</ele>
        <time>2019-06-29T11:02:16Z</time>
      </trkpt>
      <trkpt lat="46.07649" lon="6.36546">
        <ele>170</ele>
        <time>2019-06-29T11:02:20Z</time>
      </trkpt>
      <trkpt lat="46.07656" lon="6.36515">
        <ele>171</ele>
        <time>2019-06-29T11:02:24Z</time>
      </trkpt>
      <trkpt lat="46.07656" lon="6.36483">
        <ele>171</ele>
        <time>2019-06-29T11:02:28Z</time>
      </trkpt>
      <trkpt lat="46.07654" lon="6.36447">
        <ele>171</ele>
        <time>2019-06-29T11:02:32Z</time>
      </trkpt>
      <trkpt lat="46.07648" lon="6.36417">
        <ele>172</ele>
        <time>2019-06-29T11:02:36Z</time>
      </trkpt>
      <trkpt lat="46.07643" lon="6.36401">
        <ele>173</ele>
        <time>2019-06-29T11:03:00Z</time>
      </trkpt>
      <trkpt lat="46.07644" lon="6.3641">
        <ele>173</ele>
        <time>2019-06-29T11:03:04Z</time>
      </trkpt>
      <trkpt lat="46.07648" lon="6.36429">
        <ele>172</ele>
        <time>2019-06-29T11:03:08Z</time>
      </trkpt>
      <trkpt lat="46.07653" lon="6.36461">
        <ele>171</ele>
        <time>2019-06-29T11:03:12Z</time>
      </trkpt>
      <trkpt lat="46.07654" lon="6.36496">
        <ele>172</ele>
        <time>2019-06-29T11:03:16Z</time>
      </trkpt>
      <trkpt lat="46.07661" lon="6.36518">
        <ele>171</ele>
        <time>2019-06-29T11:03:20Z</time>
      </trkpt>
      <trkpt lat="46.0768" lon="6.36517">
        <ele>170</ele>
        <time>2019-06-29T11:03:24Z</time>
      </trkpt>
      <trkpt lat="46.07703" lon="6.36518">
        <ele>170</ele>
        <time>2019-06-29T11:03:28Z</time>
      </trkpt>
      <trkpt lat="46.07729" lon="6.3652">
        <ele>169</ele>
        <time>2019-06-29T11:03:32Z</time>
      </trkpt>
      <trkpt lat="46.07755" lon="6.36521">
        <ele>169</ele>
        <time>2019-06-29T11:03:36Z</time>
      </trkpt>
      <trkpt lat="46.0778" lon="6.36522">
        <ele>168</ele>
        <time>2019-06-29T11:03:40Z</time>
      </trkpt>
      <trkpt lat="46.07802" lon="6.36518">
        <ele>169</ele>
        <time>2019-06-29T11:03:44Z</time>
      </trkpt>
      <trkpt lat="46.07804" lon="6.36494">
        <ele>169</ele>
        <time>2019-06-29T11:03:48Z</time>
      </trkpt>
      <trkpt lat="46.07798" lon="6.36472">
        <ele>170</ele>
        <time>2019-06-29T11:03:52Z</time>
      </trkpt>
      <trkpt lat="46.07792" lon="6.36447">
        <ele>170</ele>
        <time>2019-06-29T11:03:56Z</time>
      </trkpt>
      <trkpt lat="46.0779" lon="6.36417">
        <ele>170</ele>
        <time>2019-06-29T11:04:00Z</time>
      </trkpt>
      <trkpt lat="46.07795" lon="6.36385">
        <ele>170</ele>
        <time>2019-06-29T11:04:04Z</time>
      </trkpt>
      <trkpt lat="46.07806" lon="6.36354">
        <ele>168</ele>
        <time>2019-06-29T11:04:08Z</time>
      </trkpt>
      <trkpt lat="46.07818" lon="6.36323">
        <ele>169</ele>
        <time>2019-06-29T11:04:12Z</time>
      </trkpt>
      <trkpt lat="46.07833" lon="6.36292">
        <ele>168</ele>
        <time>2019-06-29T11:04:16Z</time>
      </trkpt>
      <trkpt lat="46.07848" lon="6.36264">
        <ele>168</ele>
        <time>2019-06-29T11:04:20Z</time>
      </trkpt>
      <trkpt lat="46.07866" lon="6.36235">
        <ele>166</ele>
        <time>2019-06-29T11:04:24Z</time>
      </trkpt>
      <trkpt lat="46.07885" lon="6.36206">
        <ele>165</ele>
        <time>2019-06-29T11:04:28Z</time>
      </trkpt>
      <trkpt lat="46.07903" lon="6.36179">
        <ele>166</ele>
        <time>2019-06-29T11:04:32Z</time>
      </trkpt>
      <trkpt lat="46.0791" lon="6.36165">
        <ele>167</ele>
        <time>2019-06-29T11:04:36Z</time>
      </trkpt>
      <trkpt lat="46.0792" lon="6.36168">
        <ele>166</ele>
        <time>2019-06-29T11:04:40Z</time>
      </trkpt>
      <trkpt lat="46.07933" lon="6.36178">
        <ele>166</ele>
        <time>2019-06-29T11:04:44Z</time>
      </trkpt>
      <trkpt lat="46.0795" lon="6.36192">
        <ele>163</ele>
        <time>2019-06-29T11:04:48Z</time>
      </trkpt>
      <trkpt lat="46.07971" lon="6.36213">
        <ele>161</ele>
        <time>2019-06-29T11:04:52Z</time>
      </trkpt>
      <trkpt lat="46.07992" lon="6.3624">
        <ele>160</ele>
        <time>2019-06-29T11:04:56Z</time>
      </trkpt>
      <trkpt lat="46.0801" lon="6.36274">
        <ele>158</ele>
        <time>2019-06-29T11:05:00Z</time>
      </trkpt>
      <trkpt lat="46.08028" lon="6.36309">
        <ele>159</ele>
        <time>2019-06-29T11:05:04Z</time>
      </trkpt>
      <trkpt lat="46.08046" lon="6.36344">
        <ele>158</ele>
        <time>2019-06-29T11:05:08Z</time>
      </trkpt>
      <trkpt lat="46.08068" lon="6.36374">
        <ele>158</ele>
        <time>2019-06-29T11:05:12Z</time>
      </trkpt>
      <trkpt lat="46.08096" lon="6.3639">
        <ele>158</ele>
        <time>2019-06-29T11:05:16Z</time>
      </trkpt>
      <trkpt lat="46.08126" lon="6.3639">
        <ele>157</ele>
        <time>2019-06-29T11:05:20Z</time>
      </trkpt>
      <trkpt lat="46.08157" lon="6.36389">
        <ele>158</ele>
        <time>2019-06-29T11:05:24Z</time>
      </trkpt>
      <trkpt lat="46.08181" lon="6.36388">
        <ele>159</ele>
        <time>2019-06-29T11:05:28Z</time>
      </trkpt>
      <trkpt lat="46.08203" lon="6.3639">
        <ele>159</ele>
        <time>2019-06-29T11:05:32Z</time>
      </trkpt>
      <trkpt lat="46.08227" lon="6.36401">
        <ele>159</ele>
        <time>2019-06-29T11:05:36Z</time>
      </trkpt>
      <trkpt lat="46.0825" lon="6.36422">
        <ele>157</ele>
        <time>2019-06-29T11:05:40Z</time>
      </trkpt>
      <trkpt lat="46.08273" lon="6.36444">
        <ele>157</ele>
        <time>2019-06-29T11:05:44Z</time>
      </trkpt>
      <trkpt lat="46.08296" lon="6.36465">
        <ele>157</ele>
        <time>2019-06-29T11:05:48Z</time>
      </trkpt>
      <trkpt lat="46.08309" lon="6.36482">
        <ele>158</ele>
        <time>2019-06-29T11:05:52Z</time>
      </trkpt>
      <trkpt lat="46.08315" lon="6.36488">
        <ele>159</ele>
        <time>2019-06-29T11:06:00Z</time>
      </trkpt>
      <trkpt lat="46.08323" lon="6.36484">
        <ele>158</ele>
        <time>2019-06-29T11:06:04Z</time>
      </trkpt>
      <trkpt lat="46.08333" lon="6.36466">
        <ele>157</ele>
        <time>2019-06-29T11:06:08Z</time>
      </trkpt>
      <trkpt lat="46.08345" lon="6.36443">
        <ele>157</ele>
        <time>2019-06-29T11:06:12Z</time>
      </trkpt>
      <trkpt lat="46.08358" lon="6.36417">
        <ele>158</ele>
        <time>2019-06-29T11:06:16Z</time>
      </trkpt>
      <trkpt lat="46.08371" lon="6.36389">
        <ele>157</ele>
        <time>2019-06-29T11:06:20Z</time>
      </trkpt>
      <trkpt lat="46.08386" lon="6.3636">
        <ele>157</ele>
        <time>2019-06-29T11:06:24Z</time>
      </trkpt>
      <trkpt lat="46.08401" lon="6.36329">
        <ele>157</ele>
        <time>2019-06-29T11:06:28Z</time>
      </trkpt>
      <trkpt lat="46.08416" lon="6.36298">
        <ele>158</ele>
        <time>2019-06-29T11:06:32Z</time>
      </trkpt>
      <trkpt lat="46.08431" lon="6.36267">
        <ele>158</ele>
        <time>2019-06-29T11:06:36Z</time>
      </trkpt>
      <trkpt lat="46.08447" lon="6.36235">
        <ele>157</ele>
        <time>2019-06-29T11:06:40Z</time>
      </trkpt>
      <trkpt lat="46.08463" lon="6.36203">
        <ele>157</ele>
        <time>2019-06-29T11:06:44Z</time>
      </trkpt>
      <trkpt lat="46.08478" lon="6.3617">
        <ele>156</ele>
        <time>2019-06-29T11:06:48Z</time>
      </trkpt>
      <trkpt lat="46.08494" lon="6.36138">
        <ele>156</ele>
        <time>2019-06-29T11:06:52Z</time>
      </trkpt>
      <trkpt lat="46.0851" lon="6.36107">
        <ele>157</ele>
        <time>2019-06-29T11:06:56Z</time>
      </trkpt>
      <trkpt lat="46.08525" lon="6.36075">
        <ele>157</ele>
        <time>2019-06-29T11:07:00Z</time>
      </trkpt>
      <trkpt lat="46.08541" lon="6.36044">
        <ele>157</ele>
        <time>2019-06-29T11:07:04Z</time>
      </trkpt>
      <trkpt lat="46.08557" lon="6.36012">
        <ele>157</ele>
        <time>2019-06-29T11:07:08Z</time>
      </trkpt>
      <trkpt lat="46.08572" lon="6.3598">
        <ele>157</ele>
        <time>2019-06-29T11:07:12Z</time>
      </trkpt>
      <trkpt lat="46.08588" lon="6.35948">
        <ele>156</ele>
        <time>2019-06-29T11:07:16Z</time>
      </trkpt>
      <trkpt lat="46.08604" lon="6.35915">
        <ele>157</ele>
        <time>2019-06-29T11:07:20Z</time>
      </trkpt>
      <trkpt lat="46.0862" lon="6.35882">
        <ele>156</ele>
        <time>2019-06-29T11:07:24Z</time>
      </trkpt>
      <trkpt lat="46.08636" lon="6.35849">
        <ele>157</ele>
        <time>2019-06-29T11:07:28Z</time>
      </trkpt>
      <trkpt lat="46.08651" lon="6.35815">
        <ele>156</ele>
        <time>2019-06-29T11:07:32Z</time>
      </trkpt>
      <trkpt lat="46.08666" lon="6.35781">
        <ele>156</ele>
        <time>2019-06-29T11:07:36Z</time>
      </trkpt>
      <trkpt lat="46.08681" lon="6.35748">
        <ele>156</ele>
        <time>2019-06-29T11:07:40Z</time>
      </trkpt>
      <trkpt lat="46.08696" lon="6.35715">
        <ele>156</ele>
        <time>2019-06-29T11:07:44Z</time>
      </trkpt>
      <trkpt lat="46.08711" lon="6.35683">
        <ele>156</ele>
        <time>2019-06-29T11:07:48Z</time>
      </trkpt>
      <trkpt lat="46.08725" lon="6.35651">
        <ele>156</ele>
        <time>2019-06-29T11:07:52Z</time>
      </trkpt>
      <trkpt lat="46.08738" lon="6.35618">
        <ele>157</ele>
        <time>2019-06-29T11:07:56Z</time>
      </trkpt>
      <trkpt lat="46.0875" lon="6.35586">
        <ele>157</ele>
        <time>2019-06-29T11:08:00Z</time>
      </trkpt>
      <trkpt lat="46.08761" lon="6.35553">
        <ele>157</ele>
        <time>2019-06-29T11:08:04Z</time>
      </trkpt>
      <trkpt lat="46.08772" lon="6.3552">
        <ele>157</ele>
        <time>2019-06-29T11:08:08Z</time>
      </trkpt>
      <trkpt lat="46.08786" lon="6.35487">
        <ele>157</ele>
        <time>2019-06-29T11:08:12Z</time>
      </trkpt>
      <trkpt lat="46.088" lon="6.35459">
        <ele>158</ele>
        <time>2019-06-29T11:08:16Z</time>
      </trkpt>
      <trkpt lat="46.08811" lon="6.35426">
        <ele>157</ele>
        <time>2019-06-29T11:08:20Z</time>
      </trkpt>
      <trkpt lat="46.08828" lon="6.35395">
        <ele>156</ele>
        <time>2019-06-29T11:08:24Z</time>
      </trkpt>
      <trkpt lat="46.08846" lon="6.35365">
        <ele>156</ele>
        <time>2019-06-29T11:08:28Z</time>
      </trkpt>
      <trkpt lat="46.08865" lon="6.35335">
        <ele>157</ele>
        <time>2019-06-29T11:08:32Z</time>
      </trkpt>
      <trkpt lat="46.08883" lon="6.35305">
        <ele>156</ele>
        <time>2019-06-29T11:08:36Z</time>
      </trkpt>
      <trkpt lat="46.08902" lon="6.35274">
        <ele>157</ele>
        <time>2019-06-29T11:08:40Z</time>
      </trkpt>
      <trkpt lat="46.0892" lon="6.35244">
        <ele>156</ele>
        <time>2019-06-29T11:08:44Z</time>
      </trkpt>
      <trkpt lat="46.08938" lon="6.35213">
        <ele>156</ele>
        <time>2019-06-29T11:08:48Z</time>
      </trkpt>
      <trkpt lat="46.08956" lon="6.35185">
        <ele>157</ele>
        <time>2019-06-29T11:08:52Z</time>
      </trkpt>
      <trkpt lat="46.08973" lon="6.35157">
        <ele>157</ele>
        <time>2019-06-29T11:08:56Z</time>
      </trkpt>
      <trkpt lat="46.0899" lon="6.35129">
        <ele>156</ele>
        <time>2019-06-29T11:09:00Z</time>
      </trkpt>
      <trkpt lat="46.09006" lon="6.35101">
        <ele>156</ele>
        <time>2019-06-29T11:09:04Z</time>
      </trkpt>
      <trkpt lat="46.09024" lon="6.35072">
        <ele>155</ele>
        <time>2019-06-29T11:09:08Z</time>
      </trkpt>
      <trkpt lat="46.09041" lon="6.35043">
        <ele>155</ele>
        <time>2019-06-29T11:09:12Z</time>
      </trkpt>
      <trkpt lat="46.09058" lon="6.35014">
        <ele>156</ele>
        <time>2019-06-29T11:09:16Z</time>
      </trkpt>
      <trkpt lat="46.09076" lon="6.34986">
        <ele>156</ele>
        <time>2019-06-29T11:09:20Z</time>
      </trkpt>
      <trkpt lat="46.09094" lon="6.34957">
        <ele>155</ele>
        <time>2019-06-29T11:09:24Z</time>
      </trkpt>
      <trkpt lat="46.09111" lon="6.34928">
        <ele>156</ele>
        <time>2019-06-29T11:09:28Z</time>
      </trkpt>
      <trkpt lat="46.09129" lon="6.34898">
        <ele>155</ele>
        <time>2019-06-29T11:09:32Z</time>
      </trkpt>
      <trkpt lat="46.09147" lon="6.34869">
        <ele>156</ele>
        <time>2019-06-29T11:09:36Z</time>
      </trkpt>
      <trkpt lat="46.09164" lon="6.3484">
        <ele>156</ele>
        <time>2019-06-29T11:09:40Z</time>
      </trkpt>
      <trkpt lat="46.09182" lon="6.34811">
        <ele>157</ele>
        <time>2019-06-29T11:09:44Z</time>
      </trkpt>
      <trkpt lat="46.092" lon="6.3478">
        <ele>157</ele>
        <time>2019-06-29T11:09:48Z</time>
      </trkpt>
      <trkpt lat="46.09219" lon="6.3475">
        <ele>157</ele>
        <time>2019-06-29T11:09:52Z</time>
      </trkpt>
      <trkpt lat="46.09238" lon="6.34719">
        <ele>157</ele>
        <time>2019-06-29T11:09:56Z</time>
      </trkpt>
      <trkpt lat="46.09256" lon="6.34688">
        <ele>156</ele>
        <time>2019-06-29T11:10:00Z</time>
      </trkpt>
      <trkpt lat="46.09275" lon="6.34657">
        <ele>157</ele>
        <time>2019-06-29T11:10:04Z</time>
      </trkpt>
      <trkpt lat="46.09293" lon="6.34627">
        <ele>156</ele>
        <time>2019-06-29T11:10:08Z</time>
      </trkpt>
      <trkpt lat="46.09312" lon="6.34596">
        <ele>156</ele>
        <time>2019-06-29T11:10:12Z</time>
      </trkpt>
      <trkpt lat="46.09331" lon="6.34565">
        <ele>156</ele>
        <time>2019-06-29T11:10:16Z</time>
      </trkpt>
      <trkpt lat="46.09349" lon="6.34535">
        <ele>155</ele>
        <time>2019-06-29T11:10:20Z</time>
      </trkpt>
      <trkpt lat="46.09368" lon="6.34503">
        <ele>155</ele>
        <time>2019-06-29T11:10:24Z</time>
      </trkpt>
      <trkpt lat="46.09386" lon="6.34473">
        <ele>155</ele>
        <time>2019-06-29T11:10:28Z</time>
      </trkpt>
      <trkpt lat="46.09405" lon="6.34442">
        <ele>155</ele>
        <time>2019-06-29T11:10:32Z</time>
      </trkpt>
      <trkpt lat="46.09424" lon="6.3441">
        <ele>155</ele>
        <time>2019-06-29T11:10:36Z</time>
      </trkpt>
      <trkpt lat="46.09442" lon="6.34379">
        <ele>154</ele>
        <time>2019-06-29T11:10:40Z</time>
      </trkpt>
      <trkpt lat="46.09462" lon="6.34348">
        <ele>154</ele>
        <time>2019-06-29T11:10:44Z</time>
      </trkpt>
      <trkpt lat="46.09481" lon="6.34316">
        <ele>154</ele>
        <time>2019-06-29T11:10:48Z</time>
      </trkpt>
      <trkpt lat="46.09501" lon="6.34287">
        <ele>154</ele>
        <time>2019-06-29T11:10:52Z</time>
      </trkpt>
      <trkpt lat="46.09523" lon="6.3426">
        <ele>153</ele>
        <time>2019-06-29T11:10:56Z</time>
      </trkpt>
      <trkpt lat="46.09546" lon="6.34234">
        <ele>153</ele>
        <time>2019-06-29T11:11:00Z</time>
      </trkpt>
      <trkpt lat="46.0957" lon="6.3421">
        <ele>153</ele>
        <time>2019-06-29T11:11:04Z</time>
      </trkpt>
      <trkpt lat="46.09595" lon="6.34188">
        <ele>153</ele>
        <time>2019-06-29T11:11:08Z</time>
      </trkpt>
      <trkpt lat="46.09619" lon="6.34168">
        <ele>153</ele>
        <time>2019-06-29T11:11:12Z</time>
      </trkpt>
      <trkpt lat="46.09644" lon="6.34149">
        <ele>152</ele>
        <time>2019-06-29T11:11:16Z</time>
      </trkpt>
      <trkpt lat="46.09669" lon="6.3413">
        <ele>153</ele>
        <time>2019-06-29T11:11:20Z</time>
      </trkpt>
      <trkpt lat="46.09694" lon="6.34112">
        <ele>153</ele>
        <time>2019-06-29T11:11:24Z</time>
      </trkpt>
      <trkpt lat="46.09719" lon="6.34093">
        <ele>154</ele>
        <time>2019-06-29T11:11:28Z</time>
      </trkpt>
      <trkpt lat="46.09745" lon="6.34072">
        <ele>154</ele>
        <time>2019-06-29T11:11:32Z</time>
      </trkpt>
      <trkpt lat="46.09771" lon="6.34052">
        <ele>154</ele>
        <time>2019-06-29T11:11:36Z</time>
      </trkpt>
      <trkpt lat="46.09797" lon="6.34032">
        <ele>154</ele>
        <time>2019-06-29T11:11:40Z</time>
      </trkpt>
      <trkpt lat="46.09825" lon="6.34011">
        <ele>154</ele>
        <time>2019-06-29T11:11:44Z</time>
      </trkpt>
      <trkpt lat="46.09853" lon="6.3399">
        <ele>153</ele>
        <time>2019-06-29T11:11:48Z</time>
      </trkpt>
      <trkpt lat="46.0988" lon="6.3397">
        <ele>154</ele>
        <time>2019-06-29T11:11:52Z</time>
      </trkpt>
      <trkpt lat="46.09906" lon="6.33951">
        <ele>154</ele>
        <time>2019-06-29T11:11:56Z</time>
      </trkpt>
      <trkpt lat="46.09931" lon="6.33932">
        <ele>155</ele>
        <time>2019-06-29T11:12:00Z</time>
      </trkpt>
      <trkpt lat="46.09956" lon="6.33914">
        <ele>155</ele>
        <time>2019-06-29T11:12:04Z</time>
      </trkpt>
      <trkpt lat="46.09979" lon="6.33895">
        <ele>154</ele>
        <time>2019-06-29T11:12:08Z</time>
      </trkpt>
      <trkpt lat="46.10003" lon="6.33876">
        <ele>154</ele>
        <time>2019-06-29T11:12:12Z</time>
      </trkpt>
      <trkpt lat="46.10029" lon="6.33858">
        <ele>155</ele>
        <time>2019-06-29T11:12:16Z</time>
      </trkpt>
      <trkpt lat="46.10056" lon="6.33841">
        <ele>154</ele>
        <time>2019-06-29T11:12:20Z</time>
      </trkpt>
      <trkpt lat="46.10083" lon="6.33825">
        <ele>153</ele>
        <time>2019-06-29T11:12:24Z</time>
      </trkpt>
      <trkpt lat="46.1011" lon="6.33809">
        <ele>154</ele>
        <time>2019-06-29T11:12:28Z</time>
      </trkpt>
      <trkpt lat="46.10137" lon="6.33793">
        <ele>153</ele>
        <time>2019-06-29T11:12:32Z</time>
      </trkpt>
      <trkpt lat="46.10165" lon="6.33778">
        <ele>153</ele>
        <time>2019-06-29T11:12:36Z</time>
      </trkpt>
      <trkpt lat="46.10193" lon="6.33762">
        <ele>153</ele>
        <time>2019-06-29T11:12:40Z</time>
      </trkpt>
      <trkpt lat="46.1022" lon="6.33748">
        <ele>154</ele>
        <time>2019-06-29T11:12:44Z</time>
      </trkpt>
      <trkpt lat="46.10245" lon="6.33749">
        <ele>152</ele>
        <time>2019-06-29T11:12:48Z</time>
      </trkpt>
      <trkpt lat="46.10262" lon="6.33779">
        <ele>152</ele>
        <time>2019-06-29T11:12:52Z</time>
      </trkpt>
      <trkpt lat="46.10277" lon="6.33807">
        <ele>153</ele>
        <time>2019-06-29T11:12:56Z</time>
      </trkpt>
      <trkpt lat="46.10282" lon="6.33809">
        <ele>154</ele>
        <time>2019-06-29T11:13:00Z</time>
      </trkpt>
      <trkpt lat="46.10281" lon="6.33809">
        <ele>154</ele>
        <time>2019-06-29T11:14:28Z</time>
      </trkpt>
      <trkpt lat="46.1028" lon="6.33808">
        <ele>154</ele>
        <time>2019-06-29T11:14:32Z</time>
      </trkpt>
      <trkpt lat="46.10275" lon="6.338">
        <ele>154</ele>
        <time>2019-06-29T11:14:36Z</time>
      </trkpt>
      <trkpt lat="46.10267" lon="6.33784">
        <ele>153</ele>
        <time>2019-06-29T11:14:40Z</time>
      </trkpt>
      <trkpt lat="46.10257" lon="6.33763">
        <ele>153</ele>
        <time>2019-06-29T11:14:44Z</time>
      </trkpt>
      <trkpt lat="46.10251" lon="6.33741">
        <ele>155</ele>
        <time>2019-06-29T11:14:48Z</time>
      </trkpt>
      <trkpt lat="46.10261" lon="6.33726">
        <ele>155</ele>
        <time>2019-06-29T11:14:52Z</time>
      </trkpt>
      <trkpt lat="46.10278" lon="6.33713">
        <ele>155</ele>
        <time>2019-06-29T11:14:56Z</time>
      </trkpt>
      <trkpt lat="46.10297" lon="6.33697">
        <ele>154</ele>
        <time>2019-06-29T11:15:00Z</time>
      </trkpt>
      <trkpt lat="46.10316" lon="6.33677">
        <ele>155</ele>
        <time>2019-06-29T11:15:04Z</time>
      </trkpt>
      <trkpt lat="46.10333" lon="6.33653">
        <ele>155</ele>
        <time>2019-06-29T11:15:08Z</time>
      </trkpt>
      <trkpt lat="46.10352" lon="6.33628">
        <ele>155</ele>
        <time>2019-06-29T11:15:12Z</time>
      </trkpt>
      <trkpt lat="46.10372" lon="6.33602">
        <ele>154</ele>
        <time>2019-06-29T11:15:16Z</time>
      </trkpt>
      <trkpt lat="46.10391" lon="6.33578">
        <ele>154</ele>
        <time>2019-06-29T11:15:20Z</time>
      </trkpt>
      <trkpt lat="46.10411" lon="6.33554">
        <ele>155</ele>
        <time>2019-06-29T11:15:24Z</time>
      </trkpt>
      <trkpt lat="46.1043" lon="6.3353">
        <ele>155</ele>
        <time>2019-06-29T11:15:28Z</time>
      </trkpt>
      <trkpt lat="46.1045" lon="6.33505">
        <ele>155</ele>
        <time>2019-06-29T11:15:32Z</time>
      </trkpt>
      <trkpt lat="46.10469" lon="6.3348">
        <ele>156</ele>
        <time>2019-06-29T11:15:36Z</time>
      </trkpt>
      <trkpt lat="46.10486" lon="6.33452">
        <ele>156</ele>
        <time>2019-06-29T11:15:40Z</time>
      </trkpt>
      <trkpt lat="46.10502" lon="6.33426">
        <ele>155</ele>
        <time>2019-06-29T11:15:44Z</time>
      </trkpt>
      <trkpt lat="46.10523" lon="6.33405">
        <ele>156</ele>
        <time>2019-06-29T11:15:48Z</time>
      </trkpt>
      <trkpt lat="46.10544" lon="6.33386">
        <ele>156</ele>
        <time>2019-06-29T11:15:52Z</time>
      </trkpt>
      <trkpt lat="46.10563" lon="6.33363">
        <ele>157</ele>
        <time>2019-06-29T11:15:56Z</time>
      </trkpt>
      <trkpt lat="46.10581" lon="6.3334">
        <ele>157</ele>
        <time>2019-06-29T11:16:00Z</time>
      </trkpt>
      <trkpt lat="46.10597" lon="6.33315">
        <ele>157</ele>
        <time>2019-06-29T11:16:04Z</time>
      </trkpt>
      <trkpt lat="46.10613" lon="6.3329">
        <ele>159</ele>
        <time>2019-06-29T11:16:08Z</time>
      </trkpt>
      <trkpt lat="46.10629" lon="6.33265">
        <ele>159</ele>
        <time>2019-06-29T11:16:12Z</time>
      </trkpt>
      <trkpt lat="46.10644" lon="6.33236">
        <ele>159</ele>
        <time>2019-06-29T11:16:16Z</time>
      </trkpt>
      <trkpt lat="46.10659" lon="6.33204">
        <ele>158</ele>
        <time>2019-06-29T11:16:20Z</time>
      </trkpt>
      <trkpt lat="46.10671" lon="6.33169">
        <ele>157</ele>
        <time>2019-06-29T11:16:24Z</time>
      </trkpt>
      <trkpt lat="46.10683" lon="6.33133">
        <ele>156</ele>
        <time>2019-06-29T11:16:28Z</time>
      </trkpt>
      <trkpt lat="46.10697" lon="6.33099">
        <ele>156</ele>
        <time>2019-06-29T11:16:32Z</time>
      </trkpt>
      <trkpt lat="46.10712" lon="6.33066">
        <ele>157</ele>
        <time>2019-06-29T11:16:36Z</time>
      </trkpt>
      <trkpt lat="46.10728" lon="6.33035">
        <ele>157</ele>
        <time>2019-06-29T11:16:40Z</time>
      </trkpt>
      <trkpt lat="46.10747" lon="6.33006">
        <ele>157</ele>
        <time>2019-06-29T11:16:44Z</time>
      </trkpt>
      <trkpt lat="46.10768" lon="6.32981">
        <ele>157</ele>
        <time>2019-06-29T11:16:48Z</time>
      </trkpt>
      <trkpt lat="46.10789" lon="6.32958">
        <ele>157</ele>
        <time>2019-06-29T11:16:52Z</time>
      </trkpt>
      <trkpt lat="46.10809" lon="6.32935">
        <ele>158</ele>
        <time>2019-06-29T11:16:56Z</time>
      </trkpt>
      <trkpt lat="46.1083" lon="6.32911">
        <ele>158</ele>
        <time>2019-06-29T11:17:00Z</time>
      </trkpt>
      <trkpt lat="46.1085" lon="6.32888">
        <ele>158</ele>
        <time>2019-06-29T11:17:04Z</time>
      </trkpt>
      <trkpt lat="46.10871" lon="6.32865">
        <ele>158</ele>
        <time>2019-06-29T11:17:08Z</time>
      </trkpt>
      <trkpt lat="46.10892" lon="6.32842">
        <ele>158</ele>
        <time>2019-06-29T11:17:12Z</time>
      </trkpt>
      <trkpt lat="46.10913" lon="6.32817">
        <ele>157</ele>
        <time>2019-06-29T11:17:16Z</time>
      </trkpt>
      <trkpt lat="46.10935" lon="6.32791">
        <ele>157</ele>
        <time>2019-06-29T11:17:20Z</time>
      </trkpt>
      <trkpt lat="46.10957" lon="6.32766">
        <ele>157</ele>
        <time>2019-06-29T11:17:24Z</time>
      </trkpt>
      <trkpt lat="46.10979" lon="6.32739">
        <ele>156</ele>
        <time>2019-06-29T11:17:28Z</time>
      </trkpt>
      <trkpt lat="46.11" lon="6.32711">
        <ele>156</ele>
        <time>2019-06-29T11:17:32Z</time>
      </trkpt>
      <trkpt lat="46.11019" lon="6.32681">
        <ele>156</ele>
        <time>2019-06-29T11:17:36Z</time>
      </trkpt>
      <trkpt lat="46.11037" lon="6.32654">
        <ele>156</ele>
        <time>2019-06-29T11:17:40Z</time>
      </trkpt>
      <trkpt lat="46.11055" lon="6.3263">
        <ele>156</ele>
        <time>2019-06-29T11:17:44Z</time>
      </trkpt>
      <trkpt lat="46.11073" lon="6.32604">
        <ele>156</ele>
        <time>2019-06-29T11:17:48Z</time>
      </trkpt>
      <trkpt lat="46.11092" lon="6.32579">
        <ele>156</ele>
        <time>2019-06-29T11:17:52Z</time>
      </trkpt>
      <trkpt lat="46.11111" lon="6.32555">
        <ele>156</ele>
        <time>2019-06-29T11:17:56Z</time>
      </trkpt>
      <trkpt lat="46.1113" lon="6.3253">
        <ele>157</ele>
        <time>2019-06-29T11:18:00Z</time>
      </trkpt>
      <trkpt lat="46.11149" lon="6.32505">
        <ele>157</ele>
        <time>2019-06-29T11:18:04Z</time>
      </trkpt>
      <trkpt lat="46.11168" lon="6.32481">
        <ele>157</ele>
        <time>2019-06-29T11:18:08Z</time>
      </trkpt>
      <trkpt lat="46.11187" lon="6.32456">
        <ele>157</ele>
        <time>2019-06-29T11:18:12Z</time>
      </trkpt>
      <trkpt lat="46.11206" lon="6.32431">
        <ele>157</ele>
        <time>2019-06-29T11:18:16Z</time>
      </trkpt>
      <trkpt lat="46.11225" lon="6.32407">
        <ele>158</ele>
        <time>2019-06-29T11:18:20Z</time>
      </trkpt>
      <trkpt lat="46.11244" lon="6.32383">
        <ele>158</ele>
        <time>2019-06-29T11:18:24Z</time>
      </trkpt>
      <trkpt lat="46.11263" lon="6.32358">
        <ele>159</ele>
        <time>2019-06-29T11:18:28Z</time>
      </trkpt>
      <trkpt lat="46.11282" lon="6.32334">
        <ele>160</ele>
        <time>2019-06-29T11:18:32Z</time>
      </trkpt>
      <trkpt lat="46.11299" lon="6.32312">
        <ele>160</ele>
        <time>2019-06-29T11:18:36Z</time>
      </trkpt>
      <trkpt lat="46.11314" lon="6.32292">
        <ele>162</ele>
        <time>2019-06-29T11:18:40Z</time>
      </trkpt>
      <trkpt lat="46.11328" lon="6.32274">
        <ele>163</ele>
        <time>2019-06-29T11:18:44Z</time>
      </trkpt>
      <trkpt lat="46.11342" lon="6.32257">
        <ele>165</ele>
        <time>2019-06-29T11:18:48Z</time>
      </trkpt>
      <trkpt lat="46.11356" lon="6.32238">
        <ele>165</ele>
        <time>2019-06-29T11:18:52Z</time>
      </trkpt>
      <trkpt lat="46.1137" lon="6.32219">
        <ele>166</ele>
        <time>2019-06-29T11:18:56Z</time>
      </trkpt>
      <trkpt lat="46.11384" lon="6.32201">
        <ele>167</ele>
        <time>2019-06-29T11:19:00Z</time>
      </trkpt>
      <trkpt lat="46.11399" lon="6.32181">
        <ele>167</ele>
        <time>2019-06-29T11:19:04Z</time>
      </trkpt>
      <trkpt lat="46.11416" lon="6.3216">
        <ele>165</ele>
        <time>2019-06-29T11:19:08Z</time>
      </trkpt>
      <trkpt lat="46.11433" lon="6.32135">
        <ele>165</ele>
        <time>2019-06-29T11:19:12Z</time>
      </trkpt>
      <trkpt lat="46.11455" lon="6.32105">
        <ele>162</ele>
        <time>2019-06-29T11:19:16Z</time>
      </trkpt>
      <trkpt lat="46.11475" lon="6.32077">
        <ele>163</ele>
        <time>2019-06-29T11:19:20Z</time>
      </trkpt>
      <trkpt lat="46.11494" lon="6.32051">
        <ele>164</ele>
        <time>2019-06-29T11:19:24Z</time>
      </trkpt>
      <trkpt lat="46.11511" lon="6.32026">
        <ele>165</ele>
        <time>2019-06-29T11:19:28Z</time>
      </trkpt>
      <trkpt lat="46.11528" lon="6.32003">
        <ele>165</ele>
        <time>2019-06-29T11:19:32Z</time>
      </trkpt>
      <trkpt lat="46.11544" lon="6.3198">
        <ele>166</ele>
        <time>2019-06-29T11:19:36Z</time>
      </trkpt>
      <trkpt lat="46.1156" lon="6.31956">
        <ele>166</ele>
        <time>2019-06-29T11:19:40Z</time>
      </trkpt>
      <trkpt lat="46.11577" lon="6.31933">
        <ele>166</ele>
        <time>2019-06-29T11:19:44Z</time>
      </trkpt>
      <trkpt lat="46.11595" lon="6.3191">
        <ele>166</ele>
        <time>2019-06-29T11:19:48Z</time>
      </trkpt>
      <trkpt lat="46.11614" lon="6.31887">
        <ele>166</ele>
        <time>2019-06-29T11:19:52Z</time>
      </trkpt>
      <trkpt lat="46.11635" lon="6.31866">
        <ele>166</ele>
        <time>2019-06-29T11:19:56Z</time>
      </trkpt>
      <trkpt lat="46.11658" lon="6.31845">
        <ele>165</ele>
        <time>2019-06-29T11:20:00Z</time>
      </trkpt>
      <trkpt lat="46.11682" lon="6.31826">
        <ele>164</ele>
        <time>2019-06-29T11:20:04Z</time>
      </trkpt>
      <trkpt lat="46.11707" lon="6.31808">
        <ele>164</ele>
        <time>2019-06-29T11:20:08Z</time>
      </trkpt>
      <trkpt lat="46.11732" lon="6.31791">
        <ele>165</ele>
        <time>2019-06-29T11:20:12Z</time>
      </trkpt>
      <trkpt lat="46.11755" lon="6.31773">
        <ele>165</ele>
        <time>2019-06-29T11:20:16Z</time>
      </trkpt>
      <trkpt lat="46.11777" lon="6.31755">
        <ele>168</ele>
        <time>2019-06-29T11:20:20Z</time>
      </trkpt>
      <trkpt lat="46.11797" lon="6.31738">
        <ele>168</ele>
        <time>2019-06-29T11:20:24Z</time>
      </trkpt>
      <trkpt lat="46.11817" lon="6.31721">
        <ele>168</ele>
        <time>2019-06-29T11:20:28Z</time>
      </trkpt>
      <trkpt lat="46.11835" lon="6.31703">
        <ele>169</ele>
        <time>2019-06-29T11:20:32Z</time>
      </trkpt>
      <trkpt lat="46.11854" lon="6.31686">
        <ele>169</ele>
        <time>2019-06-29T11:20:36Z</time>
      </trkpt>
      <trkpt lat="46.1187" lon="6.3167">
        <ele>171</ele>
        <time>2019-06-29T11:20:40Z</time>
      </trkpt>
      <trkpt lat="46.11887" lon="6.31654">
        <ele>171</ele>
        <time>2019-06-29T11:20:44Z</time>
      </trkpt>
      <trkpt lat="46.11903" lon="6.31637">
        <ele>172</ele>
        <time>2019-06-29T11:20:48Z</time>
      </trkpt>
      <trkpt lat="46.11918" lon="6.3162">
        <ele>173</ele>
        <time>2019-06-29T11:20:52Z</time>
      </trkpt>
      <trkpt lat="46.11933" lon="6.31603">
        <ele>173</ele>
        <time>2019-06-29T11:20:56Z</time>
      </trkpt>
      <trkpt lat="46.11949" lon="6.31584">
        <ele>173</ele>
        <time>2019-06-29T11:21:00Z</time>
      </trkpt>
      <trkpt lat="46.11965" lon="6.31565">
        <ele>173</ele>
        <time>2019-06-29T11:21:04Z</time>
      </trkpt>
      <trkpt lat="46.11982" lon="6.31546">
        <ele>173</ele>
        <time>2019-06-29T11:21:08Z</time>
      </trkpt>
      <trkpt lat="46.11999" lon="6.31525">
        <ele>174</ele>
        <time>2019-06-29T11:21:12Z</time>
      </trkpt>
      <trkpt lat="46.12016" lon="6.31506">
        <ele>174</ele>
        <time>2019-06-29T11:21:16Z</time>
      </trkpt>
      <trkpt lat="46.12034" lon="6.31485">
        <ele>175</ele>
        <time>2019-06-29T11:21:20Z</time>
      </trkpt>
      <trkpt lat="46.12051" lon="6.31465">
        <ele>175</ele>
        <time>2019-06-29T11:21:24Z</time>
      </trkpt>
      <trkpt lat="46.1207" lon="6.31445">
        <ele>175</ele>
        <time>2019-06-29T11:21:28Z</time>
      </trkpt>
      <trkpt lat="46.12094" lon="6.31435">
        <ele>175</ele>
        <time>2019-06-29T11:21:32Z</time>
      </trkpt>
      <trkpt lat="46.12117" lon="6.31426">
        <ele>175</ele>
        <time>2019-06-29T11:21:36Z</time>
      </trkpt>
      <trkpt lat="46.12139" lon="6.31412">
        <ele>176</ele>
        <time>2019-06-29T11:21:40Z</time>
      </trkpt>
      <trkpt lat="46.12152" lon="6.31391">
        <ele>176</ele>
        <time>2019-06-29T11:21:44Z</time>
      </trkpt>
      <trkpt lat="46.12158" lon="6.31365">
        <ele>176</ele>
        <time>2019-06-29T11:21:48Z</time>
      </trkpt>
      <trkpt lat="46.12161" lon="6.31335">
        <ele>177</ele>
        <time>2019-06-29T11:21:52Z</time>
      </trkpt>
      <trkpt lat="46.12177" lon="6.31316">
        <ele>177</ele>
        <time>2019-06-29T11:21:56Z</time>
      </trkpt>
      <trkpt lat="46.12194" lon="6.31296">
        <ele>176</ele>
        <time>2019-06-29T11:22:00Z</time>
      </trkpt>
      <trkpt lat="46.12212" lon="6.31275">
        <ele>177</ele>
        <time>2019-06-29T11:22:04Z</time>
      </trkpt>
      <trkpt lat="46.12229" lon="6.31256">
        <ele>178</ele>
        <time>2019-06-29T11:22:08Z</time>
      </trkpt>
      <trkpt lat="46.12246" lon="6.31235">
        <ele>178</ele>
        <time>2019-06-29T11:22:12Z</time>
      </trkpt>
      <trkpt lat="46.12263" lon="6.31218">
        <ele>178</ele>
        <time>2019-06-29T11:22:16Z</time>
      </trkpt>
      <trkpt lat="46.1228" lon="6.31199">
        <ele>178</ele>
        <time>2019-06-29T11:22:20Z</time>
      </trkpt>
      <trkpt lat="46.12297" lon="6.31178">
        <ele>178</ele>
        <time>2019-06-29T11:22:24Z</time>
      </trkpt>
      <trkpt lat="46.12315" lon="6.31155">
        <ele>178</ele>
        <time>2019-06-29T11:22:28Z</time>
      </trkpt>
      <trkpt lat="46.12334" lon="6.31131">
        <ele>176</ele>
        <time>2019-06-29T11:22:32Z</time>
      </trkpt>
      <trkpt lat="46.12354" lon="6.31103">
        <ele>176</ele>
        <time>2019-06-29T11:22:36Z</time>
      </trkpt>
      <trkpt lat="46.12375" lon="6.31074">
        <ele>174</ele>
        <time>2019-06-29T11:22:40Z</time>
      </trkpt>
      <trkpt lat="46.12397" lon="6.31046">
        <ele>174</ele>
        <time>2019-06-29T11:22:44Z</time>
      </trkpt>
      <trkpt lat="46.1242" lon="6.31015">
        <ele>172</ele>
        <time>2019-06-29T11:22:48Z</time>
      </trkpt>
      <trkpt lat="46.12445" lon="6.30982">
        <ele>172</ele>
        <time>2019-06-29T11:22:52Z</time>
      </trkpt>
      <trkpt lat="46.1247" lon="6.30949">
        <ele>167</ele>
        <time>2019-06-29T11:22:56Z</time>
      </trkpt>
      <trkpt lat="46.12496" lon="6.30914">
        <ele>166</ele>
        <time>2019-06-29T11:23:00Z</time>
      </trkpt>
      <trkpt lat="46.12522" lon="6.30878">
        <ele>165</ele>
        <time>2019-06-29T11:23:04Z</time>
      </trkpt>
      <trkpt lat="46.12548" lon="6.30842">
        <ele>164</ele>
        <time>2019-06-29T11:23:08Z</time>
      </trkpt>
      <trkpt lat="46.12573" lon="6.30806">
        <ele>165</ele>
        <time>2019-06-29T11:23:12Z</time>
      </trkpt>
      <trkpt lat="46.12592" lon="6.30768">
        <ele>165</ele>
        <time>2019-06-29T11:23:16Z</time>
      </trkpt>
      <trkpt lat="46.1261" lon="6.30737">
        <ele>166</ele>
        <time>2019-06-29T11:23:20Z</time>
      </trkpt>
      <trkpt lat="46.12628" lon="6.30708">
        <ele>166</ele>
        <time>2019-06-29T11:23:24Z</time>
      </trkpt>
      <trkpt lat="46.12646" lon="6.30682">
        <ele>166</ele>
        <time>2019-06-29T11:23:28Z</time>
      </trkpt>
      <trkpt lat="46.12659" lon="6.30654">
        <ele>166</ele>
        <time>2019-06-29T11:23:32Z</time>
      </trkpt>
      <trkpt lat="46.12675" lon="6.30621">
        <ele>166</ele>
        <time>2019-06-29T11:23:36Z</time>
      </trkpt>
      <trkpt lat="46.12689" lon="6.30591">
        <ele>167</ele>
        <time>2019-06-29T11:23:40Z</time>
      </trkpt>
      <trkpt lat="46.12701" lon="6.30561">
        <ele>169</ele>
        <time>2019-06-29T11:23:44Z</time>
      </trkpt>
      <trkpt lat="46.12714" lon="6.30532">
        <ele>170</ele>
        <time>2019-06-29T11:23:48Z</time>
      </trkpt>
      <trkpt lat="46.12727" lon="6.30502">
        <ele>170</ele>
        <time>2019-06-29T11:23:52Z</time>
      </trkpt>
      <trkpt lat="46.12739" lon="6.30471">
        <ele>170</ele>
        <time>2019-06-29T11:23:56Z</time>
      </trkpt>
      <trkpt lat="46.12752" lon="6.30441">
        <ele>171</ele>
        <time>2019-06-29T11:24:00Z</time>
      </trkpt>
      <trkpt lat="46.12765" lon="6.30411">
        <ele>171</ele>
        <time>2019-06-29T11:24:04Z</time>
      </trkpt>
      <trkpt lat="46.12777" lon="6.30383">
        <ele>170</ele>
        <time>2019-06-29T11:24:08Z</time>
      </trkpt>
      <trkpt lat="46.12789" lon="6.30355">
        <ele>171</ele>
        <time>2019-06-29T11:24:12Z</time>
      </trkpt>
      <trkpt lat="46.128" lon="6.30327">
        <ele>172</ele>
        <time>2019-06-29T11:24:16Z</time>
      </trkpt>
      <trkpt lat="46.12812" lon="6.30301">
        <ele>173</ele>
        <time>2019-06-29T11:24:20Z</time>
      </trkpt>
      <trkpt lat="46.12823" lon="6.30274">
        <ele>173</ele>
        <time>2019-06-29T11:24:24Z</time>
      </trkpt>
      <trkpt lat="46.12835" lon="6.30246">
        <ele>174</ele>
        <time>2019-06-29T11:24:28Z</time>
      </trkpt>
      <trkpt lat="46.12847" lon="6.30218">
        <ele>174</ele>
        <time>2019-06-29T11:24:32Z</time>
      </trkpt>
      <trkpt lat="46.1286" lon="6.3019">
        <ele>174</ele>
        <time>2019-06-29T11:24:36Z</time>
      </trkpt>
      <trkpt lat="46.12878" lon="6.30168">
        <ele>173</ele>
        <time>2019-06-29T11:24:40Z</time>
      </trkpt>
      <trkpt lat="46.12899" lon="6.30147">
        <ele>171</ele>
        <time>2019-06-29T11:24:44Z</time>
      </trkpt>
      <trkpt lat="46.1292" lon="6.30128">
        <ele>170</ele>
        <time>2019-06-29T11:24:48Z</time>
      </trkpt>
      <trkpt lat="46.12942" lon="6.30102">
        <ele>170</ele>
        <time>2019-06-29T11:24:52Z</time>
      </trkpt>
      <trkpt lat="46.12966" lon="6.30077">
        <ele>171</ele>
        <time>2019-06-29T11:24:56Z</time>
      </trkpt>
      <trkpt lat="46.12988" lon="6.30054">
        <ele>171</ele>
        <time>2019-06-29T11:25:00Z</time>
      </trkpt>
      <trkpt lat="46.13004" lon="6.30035">
        <ele>172</ele>
        <time>2019-06-29T11:25:04Z</time>
      </trkpt>
      <trkpt lat="46.13027" lon="6.30015">
        <ele>172</ele>
        <time>2019-06-29T11:25:08Z</time>
      </trkpt>
      <trkpt lat="46.13049" lon="6.29995">
        <ele>173</ele>
        <time>2019-06-29T11:25:12Z</time>
      </trkpt>
      <trkpt lat="46.1307" lon="6.29971">
        <ele>171</ele>
        <time>2019-06-29T11:25:16Z</time>
      </trkpt>
      <trkpt lat="46.13091" lon="6.29944">
        <ele>171</ele>
        <time>2019-06-29T11:25:20Z</time>
      </trkpt>
      <trkpt lat="46.13109" lon="6.29914">
        <ele>171</ele>
        <time>2019-06-29T11:25:24Z</time>
      </trkpt>
      <trkpt lat="46.13124" lon="6.29883">
        <ele>171</ele>
        <time>2019-06-29T11:25:28Z</time>
      </trkpt>
      <trkpt lat="46.13137" lon="6.29851">
        <ele>171</ele>
        <time>2019-06-29T11:25:32Z</time>
      </trkpt>
      <trkpt lat="46.13151" lon="6.29819">
        <ele>171</ele>
        <time>2019-06-29T11:25:36Z</time>
      </trkpt>
      <trkpt lat="46.13163" lon="6.29788">
        <ele>171</ele>
        <time>2019-06-29T11:25:40Z</time>
      </trkpt>
      <trkpt lat="46.13177" lon="6.29764">
        <ele>171</ele>
        <time>2019-06-29T11:25:44Z</time>
      </trkpt>
      <trkpt lat="46.13198" lon="6.29776">
        <ele>170</ele>
        <time>2019-06-29T11:25:48Z</time>
      </trkpt>
      <trkpt lat="46.13222" lon="6.29799">
        <ele>169</ele>
        <time>2019-06-29T11:25:52Z</time>
      </trkpt>
      <trkpt lat="46.13248" lon="6.29824">
        <ele>166</ele>
        <time>2019-06-29T11:25:56Z</time>
      </trkpt>
      <trkpt lat="46.13275" lon="6.29849">
        <ele>164</ele>
        <time>2019-06-29T11:26:00Z</time>
      </trkpt>
      <trkpt lat="46.13302" lon="6.29874">
        <ele>163</ele>
        <time>2019-06-29T11:26:04Z</time>
      </trkpt>
      <trkpt lat="46.13326" lon="6.29898">
        <ele>164</ele>
        <time>2019-06-29T11:26:08Z</time>
      </trkpt>
      <trkpt lat="46.13349" lon="6.29921">
        <ele>164</ele>
        <time>2019-06-29T11:26:12Z</time>
      </trkpt>
      <trkpt lat="46.13371" lon="6.29941">
        <ele>164</ele>
        <time>2019-06-29T11:26:16Z</time>
      </trkpt>
      <trkpt lat="46.13392" lon="6.29963">
        <ele>163</ele>
        <time>2019-06-29T11:26:20Z</time>
      </trkpt>
      <trkpt lat="46.13406" lon="6.29993">
        <ele>163</ele>
        <time>2019-06-29T11:26:24Z</time>
      </trkpt>
      <trkpt lat="46.13408" lon="6.30028">
        <ele>163</ele>
        <time>2019-06-29T11:26:28Z</time>
      </trkpt>
      <trkpt lat="46.13403" lon="6.30056">
        <ele>164</ele>
        <time>2019-06-29T11:26:32Z</time>
      </trkpt>
      <trkpt lat="46.13393" lon="6.30063">
        <ele>165</ele>
        <time>2019-06-29T11:26:36Z</time>
      </trkpt>
      <trkpt lat="46.13394" lon="6.30066">
        <ele>165</ele>
        <time>2019-06-29T11:27:00Z</time>
      </trkpt>
      <trkpt lat="46.13397" lon="6.3007">
        <ele>165</ele>
        <time>2019-06-29T11:27:04Z</time>
      </trkpt>
      <trkpt lat="46.13399" lon="6.30081">
        <ele>165</ele>
        <time>2019-06-29T11:27:08Z</time>
      </trkpt>
      <trkpt lat="46.13394" lon="6.301">
        <ele>164</ele>
        <time>2019-06-29T11:27:12Z</time>
      </trkpt>
      <trkpt lat="46.13389" lon="6.30123">
        <ele>164</ele>
        <time>2019-06-29T11:27:16Z</time>
      </trkpt>
      <trkpt lat="46.13384" lon="6.30151">
        <ele>164</ele>
        <time>2019-06-29T11:27:20Z</time>
      </trkpt>
      <trkpt lat="46.13376" lon="6.30181">
        <ele>164</ele>
        <time>2019-06-29T11:27:24Z</time>
      </trkpt>
      <trkpt lat="46.13369" lon="6.30214">
        <ele>164</ele>
        <time>2019-06-29T11:27:28Z</time>
      </trkpt>
      <trkpt lat="46.13358" lon="6.30247">
        <ele>163</ele>
        <time>2019-06-29T11:27:32Z</time>
      </trkpt>
      <trkpt lat="46.13347" lon="6.30282">
        <ele>163</ele>
        <time>2019-06-29T11:27:36Z</time>
      </trkpt>
      <trkpt lat="46.13332" lon="6.30317">
        <ele>163</ele>
        <time>2019-06-29T11:27:40Z</time>
      </trkpt>
      <trkpt lat="46.13312" lon="6.30349">
        <ele>162</ele>
        <time>2019-06-29T11:27:44Z</time>
      </trkpt>
      <trkpt lat="46.13292" lon="6.30381">
        <ele>162</ele>
        <time>2019-06-29T11:27:48Z</time>
      </trkpt>
      <trkpt lat="46.13272" lon="6.30409">
        <ele>163</ele>
        <time>2019-06-29T11:27:52Z</time>
      </trkpt>
      <trkpt lat="46.1325" lon="6.30432">
        <ele>163</ele>
        <time>2019-06-29T11:27:56Z</time>
      </trkpt>
      <trkpt lat="46.13226" lon="6.30459">
        <ele>162</ele>
        <time>2019-06-29T11:28:00Z</time>
      </trkpt>
      <trkpt lat="46.13206" lon="6.30488">
        <ele>162</ele>
        <time>2019-06-29T11:28:04Z</time>
      </trkpt>
      <trkpt lat="46.1319" lon="6.30526">
        <ele>161</ele>
        <time>2019-06-29T11:28:08Z</time>
      </trkpt>
      <trkpt lat="46.13181" lon="6.3057">
        <ele>161</ele>
        <time>2019-06-29T11:28:12Z</time>
      </trkpt>
      <trkpt lat="46.13174" lon="6.30613">
        <ele>160</ele>
        <time>2019-06-29T11:28:16Z</time>
      </trkpt>
      <trkpt lat="46.13165" lon="6.30655">
        <ele>160</ele>
        <time>2019-06-29T11:28:20Z</time>
      </trkpt>
      <trkpt lat="46.13156" lon="6.30697">
        <ele>159</ele>
        <time>2019-06-29T11:28:24Z</time>
      </trkpt>
      <trkpt lat="46.13158" lon="6.30741">
        <ele>160</ele>
        <time>2019-06-29T11:28:28Z</time>
      </trkpt>
      <trkpt lat="46.13166" lon="6.30783">
        <ele>160</ele>
        <time>2019-06-29T11:28:32Z</time>
      </trkpt>
      <trkpt lat="46.13174" lon="6.30822">
        <ele>160</ele>
        <time>2019-06-29T11:28:36Z</time>
      </trkpt>
      <trkpt lat="46.13182" lon="6.30862">
        <ele>159</ele>
        <time>2019-06-29T11:28:40Z</time>
      </trkpt>
      <trkpt lat="46.13188" lon="6.30899">
        <ele>160</ele>
        <time>2019-06-29T11:28:44Z</time>
      </trkpt>
      <trkpt lat="46.13197" lon="6.30938">
        <ele>160</ele>
        <time>2019-06-29T11:28:48Z</time>
      </trkpt>
      <trkpt lat="46.13205" lon="6.30978">
        <ele>160</ele>
        <time>2019-06-29T11:28:52Z</time>
      </trkpt>
      <trkpt lat="46.13214" lon="6.31022">
        <ele>159</ele>
        <time>2019-06-29T11:28:56Z</time>
      </trkpt>
      <trkpt lat="46.13227" lon="6.31066">
        <ele>157</ele>
        <time>2019-06-29T11:29:00Z</time>
      </trkpt>
      <trkpt lat="46.13247" lon="6.31109">
        <ele>154</ele>
        <time>2019-06-29T11:29:04Z</time>
      </trkpt>
      <trkpt lat="46.13271" lon="6.31151">
        <ele>152</ele>
        <time>2019-06-29T11:29:08Z</time>
      </trkpt>
      <trkpt lat="46.13294" lon="6.31192">
        <ele>150</ele>
        <time>2019-06-29T11:29:12Z</time>
      </trkpt>
      <trkpt lat="46.13317" lon="6.3123">
        <ele>150</ele>
        <time>2019-06-29T11:29:16Z</time>
      </trkpt>
      <trkpt lat="46.1333" lon="6.31258">
        <ele>153</ele>
        <time>2019-06-29T11:29:20Z</time>
      </trkpt>
      <trkpt lat="46.13334" lon="6.31262">
        <ele>156</ele>
        <time>2019-06-29T11:29:32Z</time>
      </trkpt>
      <trkpt lat="46.1334" lon="6.31267">
        <ele>155</ele>
        <time>2019-06-29T11:29:36Z</time>
      </trkpt>
      <trkpt lat="46.13354" lon="6.31262">
        <ele>154</ele>
        <time>2019-06-29T11:29:40Z</time>
      </trkpt>
      <trkpt lat="46.13376" lon="6.31252">
        <ele>151</ele>
        <time>2019-06-29T11:29:44Z</time>
      </trkpt>
      <trkpt lat="46.13402" lon="6.31241">
        <ele>151</ele>
        <time>2019-06-29T11:29:48Z</time>
      </trkpt>
      <trkpt lat="46.13427" lon="6.31229">
        <ele>151</ele>
        <time>2019-06-29T11:29:52Z</time>
      </trkpt>
      <trkpt lat="46.13453" lon="6.31217">
        <ele>152</ele>
        <time>2019-06-29T11:29:56Z</time>
      </trkpt>
      <trkpt lat="46.13477" lon="6.31208">
        <ele>153</ele>
        <time>2019-06-29T11:30:00Z</time>
      </trkpt>
      <trkpt lat="46.13498" lon="6.31198">
        <ele>155</ele>
        <time>2019-06-29T11:30:04Z</time>
      </trkpt>
      <trkpt lat="46.13519" lon="6.31192">
        <ele>156</ele>
        <time>2019-06-29T11:30:08Z</time>
      </trkpt>
      <trkpt lat="46.1354" lon="6.31192">
        <ele>156</ele>
        <time>2019-06-29T11:30:12Z</time>
      </trkpt>
      <trkpt lat="46.13561" lon="6.31202">
        <ele>157</ele>
        <time>2019-06-29T11:30:16Z</time>
      </trkpt>
      <trkpt lat="46.1358" lon="6.31219">
        <ele>157</ele>
        <time>2019-06-29T11:30:20Z</time>
      </trkpt>
      <trkpt lat="46.13598" lon="6.31239">
        <ele>158</ele>
        <time>2019-06-29T11:30:24Z</time>
      </trkpt>
      <trkpt lat="46.13615" lon="6.31259">
        <ele>159</ele>
        <time>2019-06-29T11:30:28Z</time>
      </trkpt>
      <trkpt lat="46.13634" lon="6.3128">
        <ele>160</ele>
        <time>2019-06-29T11:30:32Z</time>
      </trkpt>
      <trkpt lat="46.13652" lon="6.31299">
        <ele>160</ele>
        <time>2019-06-29T11:30:36Z</time>
      </trkpt>
      <trkpt lat="46.13668" lon="6.31317">
        <ele>162</ele>
        <time>2019-06-29T11:30:40Z</time>
      </trkpt>
      <trkpt lat="46.13683" lon="6.31325">
        <ele>163</ele>
        <time>2019-06-29T11:30:44Z</time>
      </trkpt>
      <trkpt lat="46.13695" lon="6.31311">
        <ele>163</ele>
        <time>2019-06-29T11:30:48Z</time>
      </trkpt>
      <trkpt lat="46.13706" lon="6.31294">
        <ele>164</ele>
        <time>2019-06-29T11:30:52Z</time>
      </trkpt>
      <trkpt lat="46.13718" lon="6.31277">
        <ele>165</ele>
        <time>2019-06-29T11:30:56Z</time>
      </trkpt>
      <trkpt lat="46.13729" lon="6.3126">
        <ele>166</ele>
        <time>2019-06-29T11:31:00Z</time>
      </trkpt>
      <trkpt lat="46.1374" lon="6.31244">
        <ele>168</ele>
        <time>2019-06-29T11:31:04Z</time>
      </trkpt>
      <trkpt lat="46.13749" lon="6.31227">
        <ele>169</ele>
        <time>2019-06-29T11:31:08Z</time>
      </trkpt>
      <trkpt lat="46.13756" lon="6.31215">
        <ele>170</ele>
        <time>2019-06-29T11:31:12Z</time>
      </trkpt>
      <trkpt lat="46.13762" lon="6.31204">
        <ele>172</ele>
        <time>2019-06-29T11:31:16Z</time>
      </trkpt>
      <trkpt lat="46.13767" lon="6.31195">
        <ele>173</ele>
        <time>2019-06-29T11:31:20Z</time>
      </trkpt>
      <trkpt lat="46.13771" lon="6.31184">
        <ele>174</ele>
        <time>2019-06-29T11:31:24Z</time>
      </trkpt>
      <trkpt lat="46.13774" lon="6.31173">
        <ele>175</ele>
        <time>2019-06-29T11:31:28Z</time>
      </trkpt>
      <trkpt lat="46.13779" lon="6.31162">
        <ele>176</ele>
        <time>2019-06-29T11:31:32Z</time>
      </trkpt>
      <trkpt lat="46.13785" lon="6.31149">
        <ele>176</ele>
        <time>2019-06-29T11:31:36Z</time>
      </trkpt>
      <trkpt lat="46.13791" lon="6.31134">
        <ele>176</ele>
        <time>2019-06-29T11:31:40Z</time>
      </trkpt>
      <trkpt lat="46.13797" lon="6.31117">
        <ele>177</ele>
        <time>2019-06-29T11:31:44Z</time>
      </trkpt>
      <trkpt lat="46.13802" lon="6.311">
        <ele>178</ele>
        <time>2019-06-29T11:31:48Z</time>
      </trkpt>
      <trkpt lat="46.13808" lon="6.31082">
        <ele>178</ele>
        <time>2019-06-29T11:31:52Z</time>
      </trkpt>
      <trkpt lat="46.13815" lon="6.31067">
        <ele>179</ele>
        <time>2019-06-29T11:31:56Z</time>
      </trkpt>
      <trkpt lat="46.1382" lon="6.31052">
        <ele>180</ele>
        <time>2019-06-29T11:32:00Z</time>
      </trkpt>
      <trkpt lat="46.13827" lon="6.31036">
        <ele>181</ele>
        <time>2019-06-29T11:32:04Z</time>
      </trkpt>
      <trkpt lat="46.13836" lon="6.31019">
        <ele>180</ele>
        <time>2019-06-29T11:32:08Z</time>
      </trkpt>
      <trkpt lat="46.13844" lon="6.30999">
        <ele>181</ele>
        <time>2019-06-29T11:32:12Z</time>
      </trkpt>
      <trkpt lat="46.13853" lon="6.30982">
        <ele>180</ele>
        <time>2019-06-29T11:32:16Z</time>
      </trkpt>
      <trkpt lat="46.13866" lon="6.30963">
        <ele>180</ele>
        <time>2019-06-29T11:32:20Z</time>
      </trkpt>
      <trkpt lat="46.13882" lon="6.30945">
        <ele>180</ele>
        <time>2019-06-29T11:32:24Z</time>
      </trkpt>
      <trkpt lat="46.13897" lon="6.30926">
        <ele>180</ele>
        <time>2019-06-29T11:32:28Z</time>
      </trkpt>
      <trkpt lat="46.13912" lon="6.30904">
        <ele>180</ele>
        <time>2019-06-29T11:32:32Z</time>
      </trkpt>
      <trkpt lat="46.13927" lon="6.30883">
        <ele>179</ele>
        <time>2019-06-29T11:32:36Z</time>
      </trkpt>
      <trkpt lat="46.13943" lon="6.30863">
        <ele>179</ele>
        <time>2019-06-29T11:32:40Z</time>
      </trkpt>
      <trkpt lat="46.13965" lon="6.30857">
        <ele>179</ele>
        <time>2019-06-29T11:32:44Z</time>
      </trkpt>
      <trkpt lat="46.13983" lon="6.30841">
        <ele>179</ele>
        <time>2019-06-29T11:32:48Z</time>
      </trkpt>
      <trkpt lat="46.13995" lon="6.30815">
        <ele>180</ele>
        <time>2019-06-29T11:32:52Z</time>
      </trkpt>
      <trkpt lat="46.14007" lon="6.30787">
        <ele>180</ele>
        <time>2019-06-29T11:32:56Z</time>
      </trkpt>
      <trkpt lat="46.14011" lon="6.30772">
        <ele>181</ele>
        <time>2019-06-29T11:33:00Z</time>
      </trkpt>
      <trkpt lat="46.14002" lon="6.30761">
        <ele>181</ele>
        <time>2019-06-29T11:33:04Z</time>
      </trkpt>
      <trkpt lat="46.14" lon="6.30761">
        <ele>180</ele>
        <time>2019-06-29T11:33:08Z</time>
      </trkpt>
      <trkpt lat="46.14009" lon="6.30769">
        <ele>180</ele>
        <time>2019-06-29T11:33:12Z</time>
      </trkpt>
      <trkpt lat="46.14023" lon="6.30782">
        <ele>179</ele>
        <time>2019-06-29T11:33:16Z</time>
      </trkpt>
      <trkpt lat="46.14039" lon="6.30797">
        <ele>179</ele>
        <time>2019-06-29T11:33:20Z</time>
      </trkpt>
      <trkpt lat="46.14055" lon="6.30808">
        <ele>179</ele>
        <time>2019-06-29T11:33:24Z</time>
      </trkpt>
      <trkpt lat="46.14074" lon="6.30816">
        <ele>179</ele>
        <time>2019-06-29T11:33:28Z</time>
      </trkpt>
      <trkpt lat="46.14092" lon="6.30823">
        <ele>180</ele>
        <time>2019-06-29T11:33:32Z</time>
      </trkpt>
      <trkpt lat="46.14102" lon="6.30822">
        <ele>179</ele>
        <time>2019-06-29T11:33:36Z</time>
      </trkpt>
      <trkpt lat="46.14115" lon="6.30826">
        <ele>178</ele>
        <time>2019-06-29T11:33:40Z</time>
      </trkpt>
      <trkpt lat="46.1413" lon="6.30837">
        <ele>179</ele>
        <time>2019-06-29T11:33:44Z</time>
      </trkpt>
      <trkpt lat="46.14139" lon="6.30846">
        <ele>179</ele>
        <time>2019-06-29T11:33:48Z</time>
      </trkpt>
      <trkpt lat="46.14133" lon="6.30839">
        <ele>179</ele>
        <time>2019-06-29T11:33:52Z</time>
      </trkpt>
      <trkpt lat="46.14123" lon="6.3083">
        <ele>179</ele>
        <time>2019-06-29T11:33:56Z</time>
      </trkpt>
      <trkpt lat="46.14105" lon="6.30823">
        <ele>179</ele>
        <time>2019-06-29T11:34:00Z</time>
      </trkpt>
      <trkpt lat="46.14099" lon="6.30805">
        <ele>179</ele>
        <time>2019-06-29T11:34:04Z</time>
      </trkpt>
      <trkpt lat="46.14108" lon="6.30788">
        <ele>179</ele>
        <time>2019-06-29T11:34:08Z</time>
      </trkpt>
      <trkpt lat="46.1412" lon="6.30773">
        <ele>179</ele>
        <time>2019-06-29T11:34:12Z</time>
      </trkpt>
      <trkpt lat="46.14134" lon="6.30756">
        <ele>179</ele>
        <time>2019-06-29T11:34:16Z</time>
      </trkpt>
      <trkpt lat="46.14152" lon="6.30739">
        <ele>178</ele>
        <time>2019-06-29T11:34:20Z</time>
      </trkpt>
      <trkpt lat="46.1417" lon="6.30733">
        <ele>177</ele>
        <time>2019-06-29T11:34:24Z</time>
      </trkpt>
      <trkpt lat="46.14193" lon="6.30721">
        <ele>176</ele>
        <time>2019-06-29T11:34:28Z</time>
      </trkpt>
      <trkpt lat="46.14219" lon="6.30709">
        <ele>175</ele>
        <time>2019-06-29T11:34:32Z</time>
      </trkpt>
      <trkpt lat="46.14246" lon="6.3069">
        <ele>175</ele>
        <time>2019-06-29T11:34:36Z</time>
      </trkpt>
      <trkpt lat="46.14269" lon="6.30666">
        <ele>174</ele>
        <time>2019-06-29T11:34:40Z</time>
      </trkpt>
      <trkpt lat="46.14292" lon="6.30636">
        <ele>172</ele>
        <time>2019-06-29T11:34:44Z</time>
      </trkpt>
      <trkpt lat="46.14318" lon="6.30607">
        <ele>171</ele>
        <time>2019-06-29T11:34:48Z</time>
      </trkpt>
      <trkpt lat="46.14347" lon="6.30582">
        <ele>170</ele>
        <time>2019-06-29T11:34:52Z</time>
      </trkpt>
      <trkpt lat="46.14376" lon="6.30557">
        <ele>169</ele>
        <time>2019-06-29T11:34:56Z</time>
      </trkpt>
      <trkpt lat="46.14405" lon="6.30538">
        <ele>167</ele>
        <time>2019-06-29T11:35:00Z</time>
      </trkpt>
      <trkpt lat="46.14435" lon="6.3055">
        <ele>165</ele>
        <time>2019-06-29T11:35:04Z</time>
      </trkpt>
      <trkpt lat="46.14465" lon="6.30577">
        <ele>161</ele>
        <time>2019-06-29T11:35:08Z</time>
      </trkpt>
      <trkpt lat="46.14502" lon="6.30598">
        <ele>159</ele>
        <time>2019-06-29T11:35:12Z</time>
      </trkpt>
      <trkpt lat="46.14538" lon="6.30586">
        <ele>159</ele>
        <time>2019-06-29T11:35:16Z</time>
      </trkpt>
      <trkpt lat="46.14562" lon="6.30557">
        <ele>162</ele>
        <time>2019-06-29T11:35:20Z</time>
      </trkpt>
      <trkpt lat="46.14582" lon="6.30529">
        <ele>164</ele>
        <time>2019-06-29T11:35:24Z</time>
      </trkpt>
      <trkpt lat="46.14596" lon="6.30507">
        <ele>166</ele>
        <time>2019-06-29T11:35:28Z</time>
      </trkpt>
      <trkpt lat="46.14611" lon="6.30498">
        <ele>168</ele>
        <time>2019-06-29T11:35:32Z</time>
      </trkpt>
      <trkpt lat="46.14621" lon="6.30501">
        <ele>168</ele>
        <time>2019-06-29T11:35:36Z</time>
      </trkpt>
      <trkpt lat="46.14636" lon="6.30507">
        <ele>169</ele>
        <time>2019-06-29T11:35:40Z</time>
      </trkpt>
      <trkpt lat="46.14652" lon="6.30512">
        <ele>170</ele>
        <time>2019-06-29T11:35:44Z</time>
      </trkpt>
      <trkpt lat="46.14668" lon="6.30517">
        <ele>170</ele>
        <time>2019-06-29T11:35:48Z</time>
      </trkpt>
      <trkpt lat="46.14684" lon="6.30522">
        <ele>171</ele>
        <time>2019-06-29T11:35:52Z</time>
      </trkpt>
      <trkpt lat="46.147" lon="6.30527">
        <ele>171</ele>
        <time>2019-06-29T11:35:56Z</time>
      </trkpt>
      <trkpt lat="46.14716" lon="6.30532">
        <ele>172</ele>
        <time>2019-06-29T11:36:00Z</time>
      </trkpt>
      <trkpt lat="46.14733" lon="6.30536">
        <ele>173</ele>
        <time>2019-06-29T11:36:04Z</time>
      </trkpt>
      <trkpt lat="46.1475" lon="6.30541">
        <ele>173</ele>
        <time>2019-06-29T11:36:08Z</time>
      </trkpt>
      <trkpt lat="46.14767" lon="6.30546">
        <ele>174</ele>
        <time>2019-06-29T11:36:12Z</time>
      </trkpt>
      <trkpt lat="46.14785" lon="6.30552">
        <ele>174</ele>
        <time>2019-06-29T11:36:16Z</time>
      </trkpt>
      <trkpt lat="46.14803" lon="6.3056">
        <ele>174</ele>
        <time>2019-06-29T11:36:20Z</time>
      </trkpt>
      <trkpt lat="46.14824" lon="6.30571">
        <ele>173</ele>
        <time>2019-06-29T11:36:24Z</time>
      </trkpt>
      <trkpt lat="46.14846" lon="6.30582">
        <ele>173</ele>
        <time>2019-06-29T11:36:28Z</time>
      </trkpt>
      <trkpt lat="46.14868" lon="6.30594">
        <ele>173</ele>
        <time>2019-06-29T11:36:32Z</time>
      </trkpt>
      <trkpt lat="46.14891" lon="6.30606">
        <ele>173</ele>
        <time>2019-06-29T11:36:36Z</time>
      </trkpt>
      <trkpt lat="46.14912" lon="6.3062">
        <ele>173</ele>
        <time>2019-06-29T11:36:40Z</time>
      </trkpt>
      <trkpt lat="46.14933" lon="6.30638">
        <ele>172</ele>
        <time>2019-06-29T11:36:44Z</time>
      </trkpt>
      <trkpt lat="46.14958" lon="6.30646">
        <ele>172</ele>
        <time>2019-06-29T11:36:48Z</time>
      </trkpt>
      <trkpt lat="46.14979" lon="6.30665">
        <ele>171</ele>
        <time>2019-06-29T11:36:52Z</time>
      </trkpt>
      <trkpt lat="46.14999" lon="6.3069">
        <ele>173</ele>
        <time>2019-06-29T11:36:56Z</time>
      </trkpt>
      <trkpt lat="46.1502" lon="6.30697">
        <ele>174</ele>
        <time>2019-06-29T11:37:00Z</time>
      </trkpt>
      <trkpt lat="46.1504" lon="6.30698">
        <ele>176</ele>
        <time>2019-06-29T11:37:04Z</time>
      </trkpt>
      <trkpt lat="46.1506" lon="6.30694">
        <ele>176</ele>
        <time>2019-06-29T11:37:08Z</time>
      </trkpt>
      <trkpt lat="46.15078" lon="6.30687">
        <ele>177</ele>
        <time>2019-06-29T11:37:12Z</time>
      </trkpt>
      <trkpt lat="46.15095" lon="6.30681">
        <ele>178</ele>
        <time>2019-06-29T11:37:16Z</time>
      </trkpt>
      <trkpt lat="46.15111" lon="6.30678">
        <ele>181</ele>
        <time>2019-06-29T11:37:20Z</time>
      </trkpt>
      <trkpt lat="46.15127" lon="6.3068">
        <ele>181</ele>
        <time>2019-06-29T11:37:24Z</time>
      </trkpt>
      <trkpt lat="46.1514" lon="6.30687">
        <ele>183</ele>
        <time>2019-06-29T11:37:28Z</time>
      </trkpt>
      <trkpt lat="46.15151" lon="6.30698">
        <ele>184</ele>
        <time>2019-06-29T11:37:32Z</time>
      </trkpt>
      <trkpt lat="46.15162" lon="6.3071">
        <ele>185</ele>
        <time>2019-06-29T11:37:36Z</time>
      </trkpt>
      <trkpt lat="46.15173" lon="6.30722">
        <ele>186</ele>
        <time>2019-06-29T11:37:40Z</time>
      </trkpt>
      <trkpt lat="46.15185" lon="6.30732">
        <ele>186</ele>
        <time>2019-06-29T11:37:44Z</time>
      </trkpt>
      <trkpt lat="46.15199" lon="6.30737">
        <ele>186</ele>
        <time>2019-06-29T11:37:48Z</time>
      </trkpt>
      <trkpt lat="46.15213" lon="6.30736">
        <ele>186</ele>
        <time>2019-06-29T11:37:52Z</time>
      </trkpt>
      <trkpt lat="46.15227" lon="6.30732">
        <ele>187</ele>
        <time>2019-06-29T11:37:56Z</time>
      </trkpt>
      <trkpt lat="46.1524" lon="6.30727">
        <ele>187</ele>
        <time>2019-06-29T11:38:00Z</time>
      </trkpt>
      <trkpt lat="46.15252" lon="6.30722">
        <ele>188</ele>
        <time>2019-06-29T11:38:04Z</time>
      </trkpt>
      <trkpt lat="46.15268" lon="6.30721">
        <ele>189</ele>
        <time>2019-06-29T11:38:08Z</time>
      </trkpt>
      <trkpt lat="46.15282" lon="6.30716">
        <ele>189</ele>
        <time>2019-06-29T11:38:12Z</time>
      </trkpt>
      <trkpt lat="46.15298" lon="6.30714">
        <ele>189</ele>
        <time>2019-06-29T11:38:16Z</time>
      </trkpt>
      <trkpt lat="46.15311" lon="6.30716">
        <ele>190</ele>
        <time>2019-06-29T11:38:20Z</time>
      </trkpt>
      <trkpt lat="46.15326" lon="6.30721">
        <ele>191</ele>
        <time>2019-06-29T11:38:24Z</time>
      </trkpt>
      <trkpt lat="46.15336" lon="6.30734">
        <ele>192</ele>
        <time>2019-06-29T11:38:28Z</time>
      </trkpt>
      <trkpt lat="46.15349" lon="6.30728">
        <ele>191</ele>
        <time>2019-06-29T11:38:32Z</time>
      </trkpt>
      <trkpt lat="46.15362" lon="6.30711">
        <ele>191</ele>
        <time>2019-06-29T11:38:36Z</time>
      </trkpt>
      <trkpt lat="46.15375" lon="6.30693">
        <ele>191</ele>
        <time>2019-06-29T11:38:40Z</time>
      </trkpt>
      <trkpt lat="46.15388" lon="6.30672">
        <ele>191</ele>
        <time>2019-06-29T11:38:44Z</time>
      </trkpt>
      <trkpt lat="46.15399" lon="6.30648">
        <ele>192</ele>
        <time>2019-06-29T11:38:48Z</time>
      </trkpt>
      <trkpt lat="46.15407" lon="6.30622">
        <ele>191</ele>
        <time>2019-06-29T11:38:52Z</time>
      </trkpt>
      <trkpt lat="46.15414" lon="6.30593">
        <ele>191</ele>
        <time>2019-06-29T11:38:56Z</time>
      </trkpt>
      <trkpt lat="46.15422" lon="6.30565">
        <ele>191</ele>
        <time>2019-06-29T11:39:00Z</time>
      </trkpt>
      <trkpt lat="46.15429" lon="6.30534">
        <ele>191</ele>
        <time>2019-06-29T11:39:04Z</time>
      </trkpt>
      <trkpt lat="46.15435" lon="6.30501">
        <ele>190</ele>
        <time>2019-06-29T11:39:08Z</time>
      </trkpt>
      <trkpt lat="46.15439" lon="6.30466">
        <ele>189</ele>
        <time>2019-06-29T11:39:12Z</time>
      </trkpt>
      <trkpt lat="46.15445" lon="6.3043">
        <ele>189</ele>
        <time>2019-06-29T11:39:16Z</time>
      </trkpt>
      <trkpt lat="46.15453" lon="6.30394">
        <ele>189</ele>
        <time>2019-06-29T11:39:20Z</time>
      </trkpt>
      <trkpt lat="46.15463" lon="6.30357">
        <ele>189</ele>
        <time>2019-06-29T11:39:24Z</time>
      </trkpt>
      <trkpt lat="46.15473" lon="6.30317">
        <ele>188</ele>
        <time>2019-06-29T11:39:28Z</time>
      </trkpt>
      <trkpt lat="46.15482" lon="6.30276">
        <ele>188</ele>
        <time>2019-06-29T11:39:32Z</time>
      </trkpt>
      <trkpt lat="46.15491" lon="6.30236">
        <ele>188</ele>
        <time>2019-06-29T11:39:36Z</time>
      </trkpt>
      <trkpt lat="46.15499" lon="6.30196">
        <ele>188</ele>
        <time>2019-06-29T11:39:40Z</time>
      </trkpt>
      <trkpt lat="46.15507" lon="6.30157">
        <ele>187</ele>
        <time>2019-06-29T11:39:44Z</time>
      </trkpt>
      <trkpt lat="46.15516" lon="6.30118">
        <ele>187</ele>
        <time>2019-06-29T11:39:48Z</time>
      </trkpt>
      <trkpt lat="46.15523" lon="6.3008">
        <ele>187</ele>
        <time>2019-06-29T11:39:52Z</time>
      </trkpt>
      <trkpt lat="46.1553" lon="6.30047">
        <ele>188</ele>
        <time>2019-06-29T11:39:56Z</time>
      </trkpt>
      <trkpt lat="46.15535" lon="6.30016">
        <ele>187</ele>
        <time>2019-06-29T11:40:00Z</time>
      </trkpt>
      <trkpt lat="46.1554" lon="6.29997">
        <ele>188</ele>
        <time>2019-06-29T11:40:04Z</time>
      </trkpt>
      <trkpt lat="46.15545" lon="6.29978">
        <ele>187</ele>
        <time>2019-06-29T11:40:08Z</time>
      </trkpt>
      <trkpt lat="46.15551" lon="6.29948">
        <ele>187</ele>
        <time>2019-06-29T11:40:12Z</time>
      </trkpt>
      <trkpt lat="46.15558" lon="6.29914">
        <ele>187</ele>
        <time>2019-06-29T11:40:16Z</time>
      </trkpt>
      <trkpt lat="46.15565" lon="6.2988">
        <ele>187</ele>
        <time>2019-06-29T11:40:20Z</time>
      </trkpt>
      <trkpt lat="46.15578" lon="6.2985">
        <ele>187</ele>
        <time>2019-06-29T11:40:24Z</time>
      </trkpt>
      <trkpt lat="46.15586" lon="6.29818">
        <ele>187</ele>
        <time>2019-06-29T11:40:28Z</time>
      </trkpt>
      <trkpt lat="46.15589" lon="6.29783">
        <ele>188</ele>
        <time>2019-06-29T11:40:32Z</time>
      </trkpt>
      <trkpt lat="46.15595" lon="6.2975">
        <ele>188</ele>
        <time>2019-06-29T11:40:36Z</time>
      </trkpt>
      <trkpt lat="46.15602" lon="6.29715">
        <ele>188</ele>
        <time>2019-06-29T11:40:40Z</time>
      </trkpt>
      <trkpt lat="46.15609" lon="6.2968">
        <ele>188</ele>
        <time>2019-06-29T11:40:44Z</time>
      </trkpt>
      <trkpt lat="46.15617" lon="6.29646">
        <ele>188</ele>
        <time>2019-06-29T11:40:48Z</time>
      </trkpt>
      <trkpt lat="46.15625" lon="6.2961">
        <ele>188</ele>
        <time>2019-06-29T11:40:52Z</time>
      </trkpt>
      <trkpt lat="46.15633" lon="6.29575">
        <ele>189</ele>
        <time>2019-06-29T11:40:56Z</time>
      </trkpt>
      <trkpt lat="46.1564" lon="6.29539">
        <ele>188</ele>
        <time>2019-06-29T11:41:00Z</time>
      </trkpt>
      <trkpt lat="46.15647" lon="6.29504">
        <ele>188</ele>
        <time>2019-06-29T11:41:04Z</time>
      </trkpt>
      <trkpt lat="46.15655" lon="6.29469">
        <ele>187</ele>
        <time>2019-06-29T11:41:08Z</time>
      </trkpt>
      <trkpt lat="46.15663" lon="6.29433">
        <ele>187</ele>
        <time>2019-06-29T11:41:12Z</time>
      </trkpt>
      <trkpt lat="46.15671" lon="6.29397">
        <ele>186</ele>
        <time>2019-06-29T11:41:16Z</time>
      </trkpt>
      <trkpt lat="46.15678" lon="6.29362">
        <ele>187</ele>
        <time>2019-06-29T11:41:20Z</time>
      </trkpt>
      <trkpt lat="46.15685" lon="6.29327">
        <ele>188</ele>
        <time>2019-06-29T11:41:24Z</time>
      </trkpt>
      <trkpt lat="46.15694" lon="6.29291">
        <ele>188</ele>
        <time>2019-06-29T11:41:28Z</time>
      </trkpt>
      <trkpt lat="46.15701" lon="6.29253">
        <ele>188</ele>
        <time>2019-06-29T11:41:32Z</time>
      </trkpt>
      <trkpt lat="46.15709" lon="6.29214">
        <ele>187</ele>
        <time>2019-06-29T11:41:36Z</time>
      </trkpt>
      <trkpt lat="46.15718" lon="6.29174">
        <ele>188</ele>
        <time>2019-06-29T11:41:40Z</time>
      </trkpt>
      <trkpt lat="46.15726" lon="6.29134">
        <ele>188</ele>
        <time>2019-06-29T11:41:44Z</time>
      </trkpt>
      <trkpt lat="46.15735" lon="6.29095">
        <ele>187</ele>
        <time>2019-06-29T11:41:48Z</time>
      </trkpt>
      <trkpt lat="46.15743" lon="6.29054">
        <ele>188</ele>
        <time>2019-06-29T11:41:52Z</time>
      </trkpt>
      <trkpt lat="46.15753" lon="6.29014">
        <ele>186</ele>
        <time>2019-06-29T11:41:56Z</time>
      </trkpt>
      <trkpt lat="46.15762" lon="6.28973">
        <ele>186</ele>
        <time>2019-06-29T11:42:00Z</time>
      </trkpt>
      <trkpt lat="46.15771" lon="6.28931">
        <ele>185</ele>
        <time>2019-06-29T11:42:04Z</time>
      </trkpt>
      <trkpt lat="46.15783" lon="6.28892">
        <ele>184</ele>
        <time>2019-06-29T11:42:08Z</time>
      </trkpt>
      <trkpt lat="46.15791" lon="6.28852">
        <ele>185</ele>
        <time>2019-06-29T11:42:12Z</time>
      </trkpt>
      <trkpt lat="46.158" lon="6.2881">
        <ele>185</ele>
        <time>2019-06-29T11:42:16Z</time>
      </trkpt>
      <trkpt lat="46.15808" lon="6.28768">
        <ele>184</ele>
        <time>2019-06-29T11:42:20Z</time>
      </trkpt>
      <trkpt lat="46.15818" lon="6.28728">
        <ele>185</ele>
        <time>2019-06-29T11:42:24Z</time>
      </trkpt>
      <trkpt lat="46.15827" lon="6.28688">
        <ele>186</ele>
        <time>2019-06-29T11:42:28Z</time>
      </trkpt>
      <trkpt lat="46.15836" lon="6.28652">
        <ele>187</ele>
        <time>2019-06-29T11:42:32Z</time>
      </trkpt>
      <trkpt lat="46.15845" lon="6.28618">
        <ele>188</ele>
        <time>2019-06-29T11:42:36Z</time>
      </trkpt>
      <trkpt lat="46.15854" lon="6.28584">
        <ele>189</ele>
        <time>2019-06-29T11:42:40Z</time>
      </trkpt>
      <trkpt lat="46.15862" lon="6.28552">
        <ele>190</ele>
        <time>2019-06-29T11:42:44Z</time>
      </trkpt>
      <trkpt lat="46.15868" lon="6.28521">
        <ele>190</ele>
        <time>2019-06-29T11:42:48Z</time>
      </trkpt>
      <trkpt lat="46.15874" lon="6.2849">
        <ele>191</ele>
        <time>2019-06-29T11:42:52Z</time>
      </trkpt>
      <trkpt lat="46.15882" lon="6.2846">
        <ele>191</ele>
        <time>2019-06-29T11:42:56Z</time>
      </trkpt>
      <trkpt lat="46.1589" lon="6.2843">
        <ele>192</ele>
        <time>2019-06-29T11:43:00Z</time>
      </trkpt>
      <trkpt lat="46.15901" lon="6.28401">
        <ele>192</ele>
        <time>2019-06-29T11:43:04Z</time>
      </trkpt>
      <trkpt lat="46.15913" lon="6.28374">
        <ele>192</ele>
        <time>2019-06-29T11:43:08Z</time>
      </trkpt>
      <trkpt lat="46.15926" lon="6.28346">
        <ele>193</ele>
        <time>2019-06-29T11:43:12Z</time>
      </trkpt>
      <trkpt lat="46.15939" lon="6.2832">
        <ele>193</ele>
        <time>2019-06-29T11:43:16Z</time>
      </trkpt>
      <trkpt lat="46.15953" lon="6.28293">
        <ele>193</ele>
        <time>2019-06-29T11:43:20Z</time>
      </trkpt>
      <trkpt lat="46.15967" lon="6.28267">
        <ele>193</ele>
        <time>2019-06-29T11:43:24Z</time>
      </trkpt>
      <trkpt lat="46.1598" lon="6.2824">
        <ele>193</ele>
        <time>2019-06-29T11:43:28Z</time>
      </trkpt>
      <trkpt lat="46.15992" lon="6.28213">
        <ele>195</ele>
        <time>2019-06-29T11:43:32Z</time>
      </trkpt>
      <trkpt lat="46.16005" lon="6.28186">
        <ele>194</ele>
        <time>2019-06-29T11:43:36Z</time>
      </trkpt>
      <trkpt lat="46.16016" lon="6.28156">
        <ele>193</ele>
        <time>2019-06-29T11:43:40Z</time>
      </trkpt>
      <trkpt lat="46.16028" lon="6.28127">
        <ele>195</ele>
        <time>2019-06-29T11:43:44Z</time>
      </trkpt>
      <trkpt lat="46.16039" lon="6.28097">
        <ele>195</ele>
        <time>2019-06-29T11:43:48Z</time>
      </trkpt>
      <trkpt lat="46.16051" lon="6.28068">
        <ele>195</ele>
        <time>2019-06-29T11:43:52Z</time>
      </trkpt>
      <trkpt lat="46.16063" lon="6.28037">
        <ele>195</ele>
        <time>2019-06-29T11:43:56Z</time>
      </trkpt>
      <trkpt lat="46.16075" lon="6.28005">
        <ele>195</ele>
        <time>2019-06-29T11:44:00Z</time>
      </trkpt>
      <trkpt lat="46.16088" lon="6.27973">
        <ele>195</ele>
        <time>2019-06-29T11:44:04Z</time>
      </trkpt>
      <trkpt lat="46.16101" lon="6.27941">
        <ele>195</ele>
        <time>2019-06-29T11:44:08Z</time>
      </trkpt>
      <trkpt lat="46.16113" lon="6.27907">
        <ele>195</ele>
        <time>2019-06-29T11:44:12Z</time>
      </trkpt>
      <trkpt lat="46.16126" lon="6.27873">
        <ele>195</ele>
        <time>2019-06-29T11:44:16Z</time>
      </trkpt>
      <trkpt lat="46.16139" lon="6.27839">
        <ele>195</ele>
        <time>2019-06-29T11:44:20Z</time>
      </trkpt>
      <trkpt lat="46.16152" lon="6.27806">
        <ele>196</ele>
        <time>2019-06-29T11:44:24Z</time>
      </trkpt>
      <trkpt lat="46.16164" lon="6.27772">
        <ele>195</ele>
        <time>2019-06-29T11:44:28Z</time>
      </trkpt>
      <trkpt lat="46.16177" lon="6.27739">
        <ele>195</ele>
        <time>2019-06-29T11:44:32Z</time>
      </trkpt>
      <trkpt lat="46.1619" lon="6.27705">
        <ele>195</ele>
        <time>2019-06-29T11:44:36Z</time>
      </trkpt>
      <trkpt lat="46.16202" lon="6.27671">
        <ele>196</ele>
        <time>2019-06-29T11:44:40Z</time>
      </trkpt>
      <trkpt lat="46.16217" lon="6.27643">
        <ele>196</ele>
        <time>2019-06-29T11:44:44Z</time>
      </trkpt>
      <trkpt lat="46.16235" lon="6.27622">
        <ele>196</ele>
        <time>2019-06-29T11:44:48Z</time>
      </trkpt>
      <trkpt lat="46.16237" lon="6.27588">
        <ele>197</ele>
        <time>2019-06-29T11:44:52Z</time>
      </trkpt>
      <trkpt lat="46.16248" lon="6.27555">
        <ele>196</ele>
        <time>2019-06-29T11:44:56Z</time>
      </trkpt>
      <trkpt lat="46.1626" lon="6.27523">
        <ele>197</ele>
        <time>2019-06-29T11:45:00Z</time>
      </trkpt>
      <trkpt lat="46.16273" lon="6.2749">
        <ele>196</ele>
        <time>2019-06-29T11:45:04Z</time>
      </trkpt>
      <trkpt lat="46.16285" lon="6.27457">
        <ele>195</ele>
        <time>2019-06-29T11:45:08Z</time>
      </trkpt>
      <trkpt lat="46.16298" lon="6.27425">
        <ele>196</ele>
        <time>2019-06-29T11:45:12Z</time>
      </trkpt>
      <trkpt lat="46.1631" lon="6.27393">
        <ele>196</ele>
        <time>2019-06-29T11:45:16Z</time>
      </trkpt>
      <trkpt lat="46.16323" lon="6.2736">
        <ele>196</ele>
        <time>2019-06-29T11:45:20Z</time>
      </trkpt>
      <trkpt lat="46.16336" lon="6.27327">
        <ele>196</ele>
        <time>2019-06-29T11:45:24Z</time>
      </trkpt>
      <trkpt lat="46.16349" lon="6.27293">
        <ele>196</ele>
        <time>2019-06-29T11:45:28Z</time>
      </trkpt>
      <trkpt lat="46.16366" lon="6.27263">
        <ele>195</ele>
        <time>2019-06-29T11:45:32Z</time>
      </trkpt>
      <trkpt lat="46.16392" lon="6.2724">
        <ele>192</ele>
        <time>2019-06-29T11:45:36Z</time>
      </trkpt>
      <trkpt lat="46.16425" lon="6.27232">
        <ele>190</ele>
        <time>2019-06-29T11:45:40Z</time>
      </trkpt>
      <trkpt lat="46.16461" lon="6.27237">
        <ele>189</ele>
        <time>2019-06-29T11:45:44Z</time>
      </trkpt>
      <trkpt lat="46.16498" lon="6.27247">
        <ele>187</ele>
        <time>2019-06-29T11:45:48Z</time>
      </trkpt>
      <trkpt lat="46.16536" lon="6.27257">
        <ele>186</ele>
        <time>2019-06-29T11:45:52Z</time>
      </trkpt>
      <trkpt lat="46.16573" lon="6.27279">
        <ele>184</ele>
        <time>2019-06-29T11:45:56Z</time>
      </trkpt>
      <trkpt lat="46.16605" lon="6.27316">
        <ele>178</ele>
        <time>2019-06-29T11:46:00Z</time>
      </trkpt>
      <trkpt lat="46.16637" lon="6.27343">
        <ele>177</ele>
        <time>2019-06-29T11:46:04Z</time>
      </trkpt>
      <trkpt lat="46.16664" lon="6.27354">
        <ele>176</ele>
        <time>2019-06-29T11:46:08Z</time>
      </trkpt>
      <trkpt lat="46.16715" lon="6.27361">
        <ele>175</ele>
        <time>2019-06-29T11:46:12Z</time>
      </trkpt>
      <trkpt lat="46.16758" lon="6.27369">
        <ele>172</ele>
        <time>2019-06-29T11:46:16Z</time>
      </trkpt>
      <trkpt lat="46.16798" lon="6.27366">
        <ele>172</ele>
        <time>2019-06-29T11:46:20Z</time>
      </trkpt>
      <trkpt lat="46.1683" lon="6.27327">
        <ele>172</ele>
        <time>2019-06-29T11:46:24Z</time>
      </trkpt>
      <trkpt lat="46.16842" lon="6.27274">
        <ele>172</ele>
        <time>2019-06-29T11:46:28Z</time>
      </trkpt>
      <trkpt lat="46.16849" lon="6.27222">
        <ele>173</ele>
        <time>2019-06-29T11:46:32Z</time>
      </trkpt>
      <trkpt lat="46.16854" lon="6.27173">
        <ele>174</ele>
        <time>2019-06-29T11:46:36Z</time>
      </trkpt>
      <trkpt lat="46.16837" lon="6.27137">
        <ele>174</ele>
        <time>2019-06-29T11:46:40Z</time>
      </trkpt>
      <trkpt lat="46.16807" lon="6.27124">
        <ele>174</ele>
        <time>2019-06-29T11:46:44Z</time>
      </trkpt>
      <trkpt lat="46.1678" lon="6.27115">
        <ele>177</ele>
        <time>2019-06-29T11:46:48Z</time>
      </trkpt>
      <trkpt lat="46.16764" lon="6.27098">
        <ele>180</ele>
        <time>2019-06-29T11:46:52Z</time>
      </trkpt>
      <trkpt lat="46.16755" lon="6.27083">
        <ele>181</ele>
        <time>2019-06-29T11:46:56Z</time>
      </trkpt>
      <trkpt lat="46.16746" lon="6.2707">
        <ele>182</ele>
        <time>2019-06-29T11:47:00Z</time>
      </trkpt>
      <trkpt lat="46.16739" lon="6.27057">
        <ele>183</ele>
        <time>2019-06-29T11:47:04Z</time>
      </trkpt>
      <trkpt lat="46.16732" lon="6.2704">
        <ele>185</ele>
        <time>2019-06-29T11:47:08Z</time>
      </trkpt>
      <trkpt lat="46.16729" lon="6.27024">
        <ele>186</ele>
        <time>2019-06-29T11:47:12Z</time>
      </trkpt>
      <trkpt lat="46.1673" lon="6.27009">
        <ele>187</ele>
        <time>2019-06-29T11:47:16Z</time>
      </trkpt>
      <trkpt lat="46.16734" lon="6.26998">
        <ele>187</ele>
        <time>2019-06-29T11:47:20Z</time>
      </trkpt>
      <trkpt lat="46.16741" lon="6.26986">
        <ele>189</ele>
        <time>2019-06-29T11:47:24Z</time>
      </trkpt>
      <trkpt lat="46.16751" lon="6.26977">
        <ele>189</ele>
        <time>2019-06-29T11:47:28Z</time>
      </trkpt>
      <trkpt lat="46.16761" lon="6.26967">
        <ele>190</ele>
        <time>2019-06-29T11:47:32Z</time>
      </trkpt>
      <trkpt lat="46.1677" lon="6.26957">
        <ele>191</ele>
        <time>2019-06-29T11:47:36Z</time>
      </trkpt>
      <trkpt lat="46.16779" lon="6.26945">
        <ele>191</ele>
        <time>2019-06-29T11:47:40Z</time>
      </trkpt>
      <trkpt lat="46.16788" lon="6.26936">
        <ele>192</ele>
        <time>2019-06-29T11:47:44Z</time>
      </trkpt>
      <trkpt lat="46.16796" lon="6.26928">
        <ele>194</ele>
        <time>2019-06-29T11:47:48Z</time>
      </trkpt>
      <trkpt lat="46.16806" lon="6.26922">
        <ele>195</ele>
        <time>2019-06-29T11:47:52Z</time>
      </trkpt>
      <trkpt lat="46.16816" lon="6.26914">
        <ele>195</ele>
        <time>2019-06-29T11:47:56Z</time>
      </trkpt>
      <trkpt lat="46.16829" lon="6.26906">
        <ele>196</ele>
        <time>2019-06-29T11:48:00Z</time>
      </trkpt>
      <trkpt lat="46.16839" lon="6.26897">
        <ele>197</ele>
        <time>2019-06-29T11:48:04Z</time>
      </trkpt>
      <trkpt lat="46.16848" lon="6.26887">
        <ele>197</ele>
        <time>2019-06-29T11:48:08Z</time>
      </trkpt>
      <trkpt lat="46.16859" lon="6.26873">
        <ele>199</ele>
        <time>2019-06-29T11:48:12Z</time>
      </trkpt>
      <trkpt lat="46.16871" lon="6.26858">
        <ele>199</ele>
        <time>2019-06-29T11:48:16Z</time>
      </trkpt>
      <trkpt lat="46.16881" lon="6.26843">
        <ele>199</ele>
        <time>2019-06-29T11:48:20Z</time>
      </trkpt>
      <trkpt lat="46.1689" lon="6.26825">
        <ele>199</ele>
        <time>2019-06-29T11:48:24Z</time>
      </trkpt>
      <trkpt lat="46.16897" lon="6.26807">
        <ele>199</ele>
        <time>2019-06-29T11:48:28Z</time>
      </trkpt>
      <trkpt lat="46.16903" lon="6.26787">
        <ele>200</ele>
        <time>2019-06-29T11:48:32Z</time>
      </trkpt>
      <trkpt lat="46.16906" lon="6.26763">
        <ele>200</ele>
        <time>2019-06-29T11:48:36Z</time>
      </trkpt>
      <trkpt lat="46.16907" lon="6.26739">
        <ele>200</ele>
        <time>2019-06-29T11:48:40Z</time>
      </trkpt>
      <trkpt lat="46.16912" lon="6.26715">
        <ele>200</ele>
        <time>2019-06-29T11:48:44Z</time>
      </trkpt>
      <trkpt lat="46.16922" lon="6.26691">
        <ele>200</ele>
        <time>2019-06-29T11:48:48Z</time>
      </trkpt>
      <trkpt lat="46.16935" lon="6.26668">
        <ele>200</ele>
        <time>2019-06-29T11:48:52Z</time>
      </trkpt>
      <trkpt lat="46.16947" lon="6.26643">
        <ele>200</ele>
        <time>2019-06-29T11:48:56Z</time>
      </trkpt>
      <trkpt lat="46.16961" lon="6.26619">
        <ele>200</ele>
        <time>2019-06-29T11:49:00Z</time>
      </trkpt>
      <trkpt lat="46.16974" lon="6.26596">
        <ele>201</ele>
        <time>2019-06-29T11:49:04Z</time>
      </trkpt>
      <trkpt lat="46.16987" lon="6.26574">
        <ele>201</ele>
        <time>2019-06-29T11:49:08Z</time>
      </trkpt>
      <trkpt lat="46.17" lon="6.26552">
        <ele>204</ele>
        <time>2019-06-29T11:49:12Z</time>
      </trkpt>
      <trkpt lat="46.17011" lon="6.26534">
        <ele>205</ele>
        <time>2019-06-29T11:49:16Z</time>
      </trkpt>
      <trkpt lat="46.17021" lon="6.26518">
        <ele>207</ele>
        <time>2019-06-29T11:49:20Z</time>
      </trkpt>
      <trkpt lat="46.17029" lon="6.26502">
        <ele>208</ele>
        <time>2019-06-29T11:49:24Z</time>
      </trkpt>
      <trkpt lat="46.17038" lon="6.26487">
        <ele>208</ele>
        <time>2019-06-29T11:49:28Z</time>
      </trkpt>
      <trkpt lat="46.17048" lon="6.26471">
        <ele>210</ele>
        <time>2019-06-29T11:49:32Z</time>
      </trkpt>
      <trkpt lat="46.17058" lon="6.26456">
        <ele>211</ele>
        <time>2019-06-29T11:49:36Z</time>
      </trkpt>
      <trkpt lat="46.17067" lon="6.26439">
        <ele>211</ele>
        <time>2019-06-29T11:49:40Z</time>
      </trkpt>
      <trkpt lat="46.17076" lon="6.26423">
        <ele>213</ele>
        <time>2019-06-29T11:49:44Z</time>
      </trkpt>
      <trkpt lat="46.17082" lon="6.26413">
        <ele>212</ele>
        <time>2019-06-29T11:49:48Z</time>
      </trkpt>
      <trkpt lat="46.17088" lon="6.26401">
        <ele>212</ele>
        <time>2019-06-29T11:49:52Z</time>
      </trkpt>
      <trkpt lat="46.171" lon="6.26385">
        <ele>212</ele>
        <time>2019-06-29T11:49:56Z</time>
      </trkpt>
      <trkpt lat="46.17111" lon="6.26367">
        <ele>212</ele>
        <time>2019-06-29T11:50:00Z</time>
      </trkpt>
      <trkpt lat="46.17124" lon="6.26347">
        <ele>212</ele>
        <time>2019-06-29T11:50:04Z</time>
      </trkpt>
      <trkpt lat="46.17136" lon="6.26327">
        <ele>213</ele>
        <time>2019-06-29T11:50:08Z</time>
      </trkpt>
      <trkpt lat="46.17148" lon="6.26306">
        <ele>213</ele>
        <time>2019-06-29T11:50:12Z</time>
      </trkpt>
      <trkpt lat="46.17161" lon="6.26283">
        <ele>213</ele>
        <time>2019-06-29T11:50:16Z</time>
      </trkpt>
      <trkpt lat="46.17174" lon="6.26262">
        <ele>212</ele>
        <time>2019-06-29T11:50:20Z</time>
      </trkpt>
      <trkpt lat="46.17186" lon="6.26237">
        <ele>212</ele>
        <time>2019-06-29T11:50:24Z</time>
      </trkpt>
      <trkpt lat="46.17198" lon="6.26213">
        <ele>211</ele>
        <time>2019-06-29T11:50:28Z</time>
      </trkpt>
      <trkpt lat="46.17212" lon="6.26192">
        <ele>212</ele>
        <time>2019-06-29T11:50:32Z</time>
      </trkpt>
      <trkpt lat="46.17226" lon="6.26171">
        <ele>213</ele>
        <time>2019-06-29T11:50:36Z</time>
      </trkpt>
      <trkpt lat="46.17238" lon="6.26149">
        <ele>212</ele>
        <time>2019-06-29T11:50:40Z</time>
      </trkpt>
      <trkpt lat="46.17251" lon="6.26127">
        <ele>211</ele>
        <time>2019-06-29T11:50:44Z</time>
      </trkpt>
      <trkpt lat="46.17263" lon="6.26099">
        <ele>210</ele>
        <time>2019-06-29T11:50:48Z</time>
      </trkpt>
      <trkpt lat="46.17272" lon="6.26086">
        <ele>210</ele>
        <time>2019-06-29T11:50:52Z</time>
      </trkpt>
      <trkpt lat="46.17282" lon="6.26069">
        <ele>208</ele>
        <time>2019-06-29T11:50:56Z</time>
      </trkpt>
      <trkpt lat="46.17296" lon="6.26047">
        <ele>206</ele>
        <time>2019-06-29T11:51:00Z</time>
      </trkpt>
      <trkpt lat="46.1731" lon="6.26017">
        <ele>206</ele>
        <time>2019-06-29T11:51:04Z</time>
      </trkpt>
      <trkpt lat="46.17324" lon="6.25987">
        <ele>206</ele>
        <time>2019-06-29T11:51:08Z</time>
      </trkpt>
      <trkpt lat="46.17338" lon="6.25959">
        <ele>205</ele>
        <time>2019-06-29T11:51:12Z</time>
      </trkpt>
      <trkpt lat="46.17347" lon="6.25931">
        <ele>207</ele>
        <time>2019-06-29T11:51:16Z</time>
      </trkpt>
      <trkpt lat="46.17351" lon="6.2591">
        <ele>209</ele>
        <time>2019-06-29T11:51:20Z</time>
      </trkpt>
      <trkpt lat="46.17353" lon="6.25907">
        <ele>209</ele>
        <time>2019-06-29T11:51:24Z</time>
      </trkpt>
      <trkpt lat="46.17358" lon="6.25903">
        <ele>208</ele>
        <time>2019-06-29T11:51:28Z</time>
      </trkpt>
      <trkpt lat="46.17367" lon="6.2589">
        <ele>209</ele>
        <time>2019-06-29T11:51:32Z</time>
      </trkpt>
      <trkpt lat="46.17378" lon="6.25873">
        <ele>209</ele>
        <time>2019-06-29T11:51:36Z</time>
      </trkpt>
      <trkpt lat="46.17392" lon="6.25857">
        <ele>210</ele>
        <time>2019-06-29T11:51:40Z</time>
      </trkpt>
      <trkpt lat="46.17405" lon="6.2584">
        <ele>211</ele>
        <time>2019-06-29T11:51:44Z</time>
      </trkpt>
      <trkpt lat="46.17415" lon="6.25819">
        <ele>211</ele>
        <time>2019-06-29T11:51:48Z</time>
      </trkpt>
      <trkpt lat="46.17422" lon="6.25789">
        <ele>210</ele>
        <time>2019-06-29T11:51:52Z</time>
      </trkpt>
      <trkpt lat="46.17439" lon="6.25768">
        <ele>210</ele>
        <time>2019-06-29T11:51:56Z</time>
      </trkpt>
      <trkpt lat="46.17458" lon="6.25747">
        <ele>210</ele>
        <time>2019-06-29T11:52:00Z</time>
      </trkpt>
      <trkpt lat="46.17471" lon="6.25736">
        <ele>210</ele>
        <time>2019-06-29T11:52:04Z</time>
      </trkpt>
      <trkpt lat="46.17474" lon="6.25725">
        <ele>210</ele>
        <time>2019-06-29T11:52:24Z</time>
      </trkpt>
      <trkpt lat="46.17481" lon="6.25719">
        <ele>208</ele>
        <time>2019-06-29T11:52:28Z</time>
      </trkpt>
      <trkpt lat="46.17494" lon="6.25707">
        <ele>206</ele>
        <time>2019-06-29T11:52:32Z</time>
      </trkpt>
      <trkpt lat="46.17516" lon="6.25688">
        <ele>202</ele>
        <time>2019-06-29T11:52:36Z</time>
      </trkpt>
      <trkpt lat="46.17542" lon="6.25665">
        <ele>201</ele>
        <time>2019-06-29T11:52:40Z</time>
      </trkpt>
      <trkpt lat="46.17572" lon="6.25645">
        <ele>200</ele>
        <time>2019-06-29T11:52:44Z</time>
      </trkpt>
      <trkpt lat="46.17603" lon="6.25626">
        <ele>199</ele>
        <time>2019-06-29T11:52:48Z</time>
      </trkpt>
      <trkpt lat="46.17635" lon="6.25608">
        <ele>198</ele>
        <time>2019-06-29T11:52:52Z</time>
      </trkpt>
      <trkpt lat="46.17666" lon="6.25589">
        <ele>196</ele>
        <time>2019-06-29T11:52:56Z</time>
      </trkpt>
      <trkpt lat="46.17699" lon="6.25574">
        <ele>196</ele>
        <time>2019-06-29T11:53:00Z</time>
      </trkpt>
      <trkpt lat="46.17732" lon="6.25558">
        <ele>196</ele>
        <time>2019-06-29T11:53:04Z</time>
      </trkpt>
      <trkpt lat="46.17765" lon="6.25547">
        <ele>195</ele>
        <time>2019-06-29T11:53:08Z</time>
      </trkpt>
      <trkpt lat="46.17798" lon="6.25543">
        <ele>196</ele>
        <time>2019-06-29T11:53:12Z</time>
      </trkpt>
      <trkpt lat="46.17826" lon="6.25543">
        <ele>196</ele>
        <time>2019-06-29T11:53:16Z</time>
      </trkpt>
      <trkpt lat="46.17852" lon="6.25547">
        <ele>199</ele>
        <time>2019-06-29T11:53:20Z</time>
      </trkpt>
      <trkpt lat="46.17875" lon="6.25552">
        <ele>199</ele>
        <time>2019-06-29T11:53:24Z</time>
      </trkpt>
      <trkpt lat="46.17895" lon="6.25552">
        <ele>201</ele>
        <time>2019-06-29T11:53:28Z</time>
      </trkpt>
      <trkpt lat="46.17914" lon="6.2555">
        <ele>202</ele>
        <time>2019-06-29T11:53:32Z</time>
      </trkpt>
      <trkpt lat="46.17933" lon="6.25546">
        <ele>203</ele>
        <time>2019-06-29T11:53:36Z</time>
      </trkpt>
      <trkpt lat="46.17952" lon="6.25541">
        <ele>204</ele>
        <time>2019-06-29T11:53:40Z</time>
      </trkpt>
      <trkpt lat="46.17972" lon="6.25533">
        <ele>204</ele>
        <time>2019-06-29T11:53:44Z</time>
      </trkpt>
      <trkpt lat="46.17992" lon="6.25523">
        <ele>202</ele>
        <time>2019-06-29T11:53:48Z</time>
      </trkpt>
      <trkpt lat="46.18011" lon="6.25508">
        <ele>202</ele>
        <time>2019-06-29T11:53:52Z</time>
      </trkpt>
      <trkpt lat="46.1803" lon="6.25489">
        <ele>202</ele>
        <time>2019-06-29T11:53:56Z</time>
      </trkpt>
      <trkpt lat="46.18048" lon="6.25465">
        <ele>200</ele>
        <time>2019-06-29T11:54:00Z</time>
      </trkpt>
      <trkpt lat="46.18068" lon="6.25436">
        <ele>198</ele>
        <time>2019-06-29T11:54:04Z</time>
      </trkpt>
      <trkpt lat="46.18095" lon="6.2541">
        <ele>195</ele>
        <time>2019-06-29T11:54:08Z</time>
      </trkpt>
      <trkpt lat="46.18126" lon="6.25389">
        <ele>194</ele>
        <time>2019-06-29T11:54:12Z</time>
      </trkpt>
      <trkpt lat="46.18157" lon="6.25371">
        <ele>193</ele>
        <time>2019-06-29T11:54:16Z</time>
      </trkpt>
      <trkpt lat="46.18189" lon="6.25356">
        <ele>192</ele>
        <time>2019-06-29T11:54:20Z</time>
      </trkpt>
      <trkpt lat="46.1822" lon="6.25336">
        <ele>191</ele>
        <time>2019-06-29T11:54:24Z</time>
      </trkpt>
      <trkpt lat="46.1825" lon="6.25316">
        <ele>192</ele>
        <time>2019-06-29T11:54:28Z</time>
      </trkpt>
      <trkpt lat="46.18279" lon="6.25297">
        <ele>192</ele>
        <time>2019-06-29T11:54:32Z</time>
      </trkpt>
      <trkpt lat="46.18311" lon="6.25276">
        <ele>189</ele>
        <time>2019-06-29T11:54:36Z</time>
      </trkpt>
      <trkpt lat="46.18345" lon="6.25255">
        <ele>188</ele>
        <time>2019-06-29T11:54:40Z</time>
      </trkpt>
      <trkpt lat="46.18379" lon="6.25229">
        <ele>185</ele>
        <time>2019-06-29T11:54:44Z</time>
      </trkpt>
      <trkpt lat="46.18415" lon="6.25207">
        <ele>184</ele>
        <time>2019-06-29T11:54:48Z</time>
      </trkpt>
      <trkpt lat="46.1845" lon="6.2519">
        <ele>182</ele>
        <time>2019-06-29T11:54:52Z</time>
      </trkpt>
      <trkpt lat="46.18484" lon="6.2518">
        <ele>181</ele>
        <time>2019-06-29T11:54:56Z</time>
      </trkpt>
      <trkpt lat="46.18518" lon="6.25172">
        <ele>182</ele>
        <time>2019-06-29T11:55:00Z</time>
      </trkpt>
      <trkpt lat="46.18547" lon="6.25165">
        <ele>182</ele>
        <time>2019-06-29T11:55:04Z</time>
      </trkpt>
      <trkpt lat="46.18569" lon="6.25161">
        <ele>185</ele>
        <time>2019-06-29T11:55:08Z</time>
      </trkpt>
      <trkpt lat="46.18585" lon="6.25159">
        <ele>184</ele>
        <time>2019-06-29T11:55:12Z</time>
      </trkpt>
      <trkpt lat="46.18608" lon="6.25154">
        <ele>182</ele>
        <time>2019-06-29T11:55:16Z</time>
      </trkpt>
      <trkpt lat="46.18635" lon="6.25144">
        <ele>182</ele>
        <time>2019-06-29T11:55:20Z</time>
      </trkpt>
      <trkpt lat="46.18662" lon="6.25132">
        <ele>181</ele>
        <time>2019-06-29T11:55:24Z</time>
      </trkpt>
      <trkpt lat="46.18689" lon="6.25119">
        <ele>179</ele>
        <time>2019-06-29T11:55:28Z</time>
      </trkpt>
      <trkpt lat="46.18717" lon="6.25105">
        <ele>179</ele>
        <time>2019-06-29T11:55:32Z</time>
      </trkpt>
      <trkpt lat="46.18744" lon="6.25087">
        <ele>178</ele>
        <time>2019-06-29T11:55:36Z</time>
      </trkpt>
      <trkpt lat="46.18773" lon="6.2508">
        <ele>177</ele>
        <time>2019-06-29T11:55:40Z</time>
      </trkpt>
      <trkpt lat="46.18803" lon="6.25079">
        <ele>177</ele>
        <time>2019-06-29T11:55:44Z</time>
      </trkpt>
      <trkpt lat="46.18832" lon="6.25077">
        <ele>177</ele>
        <time>2019-06-29T11:55:48Z</time>
      </trkpt>
      <trkpt lat="46.18861" lon="6.25079">
        <ele>177</ele>
        <time>2019-06-29T11:55:52Z</time>
      </trkpt>
      <trkpt lat="46.18891" lon="6.25078">
        <ele>177</ele>
        <time>2019-06-29T11:55:56Z</time>
      </trkpt>
      <trkpt lat="46.18921" lon="6.25075">
        <ele>176</ele>
        <time>2019-06-29T11:56:00Z</time>
      </trkpt>
      <trkpt lat="46.1895" lon="6.25065">
        <ele>176</ele>
        <time>2019-06-29T11:56:04Z</time>
      </trkpt>
      <trkpt lat="46.18976" lon="6.25066">
        <ele>175</ele>
        <time>2019-06-29T11:56:08Z</time>
      </trkpt>
      <trkpt lat="46.19002" lon="6.25077">
        <ele>174</ele>
        <time>2019-06-29T11:56:12Z</time>
      </trkpt>
      <trkpt lat="46.19026" lon="6.25099">
        <ele>173</ele>
        <time>2019-06-29T11:56:16Z</time>
      </trkpt>
      <trkpt lat="46.19049" lon="6.25107">
        <ele>173</ele>
        <time>2019-06-29T11:56:20Z</time>
      </trkpt>
      <trkpt lat="46.19071" lon="6.25115">
        <ele>173</ele>
        <time>2019-06-29T11:56:24Z</time>
      </trkpt>
      <trkpt lat="46.1909" lon="6.25113">
        <ele>175</ele>
        <time>2019-06-29T11:56:28Z</time>
      </trkpt>
      <trkpt lat="46.19108" lon="6.25105">
        <ele>176</ele>
        <time>2019-06-29T11:56:32Z</time>
      </trkpt>
      <trkpt lat="46.19124" lon="6.25102">
        <ele>177</ele>
        <time>2019-06-29T11:56:36Z</time>
      </trkpt>
      <trkpt lat="46.19144" lon="6.2511">
        <ele>177</ele>
        <time>2019-06-29T11:56:40Z</time>
      </trkpt>
      <trkpt lat="46.19165" lon="6.25096">
        <ele>176</ele>
        <time>2019-06-29T11:56:44Z</time>
      </trkpt>
      <trkpt lat="46.19186" lon="6.25086">
        <ele>175</ele>
        <time>2019-06-29T11:56:48Z</time>
      </trkpt>
      <trkpt lat="46.19205" lon="6.2511">
        <ele>173</ele>
        <time>2019-06-29T11:56:52Z</time>
      </trkpt>
      <trkpt lat="46.19231" lon="6.25114">
        <ele>173</ele>
        <time>2019-06-29T11:56:56Z</time>
      </trkpt>
      <trkpt lat="46.19258" lon="6.25113">
        <ele>172</ele>
        <time>2019-06-29T11:57:00Z</time>
      </trkpt>
      <trkpt lat="46.19273" lon="6.25107">
        <ele>173</ele>
        <time>2019-06-29T11:57:04Z</time>
      </trkpt>
      <trkpt lat="46.19275" lon="6.25096">
        <ele>174</ele>
        <time>2019-06-29T11:57:08Z</time>
      </trkpt>
      <trkpt lat="46.19275" lon="6.25097">
        <ele>174</ele>
        <time>2019-06-29T11:57:12Z</time>
      </trkpt>
      <trkpt lat="46.19275" lon="6.25096">
        <ele>173</ele>
        <time>2019-06-29T11:57:24Z</time>
      </trkpt>
      <trkpt lat="46.19276" lon="6.25091">
        <ele>172</ele>
        <time>2019-06-29T11:57:28Z</time>
      </trkpt>
      <trkpt lat="46.19277" lon="6.25077">
        <ele>172</ele>
        <time>2019-06-29T11:57:32Z</time>
      </trkpt>
      <trkpt lat="46.19279" lon="6.25061">
        <ele>171</ele>
        <time>2019-06-29T11:57:36Z</time>
      </trkpt>
      <trkpt lat="46.19281" lon="6.25042">
        <ele>172</ele>
        <time>2019-06-29T11:57:40Z</time>
      </trkpt>
      <trkpt lat="46.19285" lon="6.25023">
        <ele>171</ele>
        <time>2019-06-29T11:57:44Z</time>
      </trkpt>
      <trkpt lat="46.19289" lon="6.25017">
        <ele>171</ele>
        <time>2019-06-29T11:57:48Z</time>
      </trkpt>
    </trkseg>
  </trk>
</gpx>